<?xml version="1.0" encoding="UTF-8" standalone="no" ?>
<gpx xmlns="http://www.topografix.com/GPX/1/1" xmlns:xsi="http://www.w3.org/2001/XMLSchema-instance" xsi:schemaLocation="http://www.topografix.com/GPX/1/1 http://www.topografix.com/GPX/1/1/gpx.xsd" version="1.1" creator="VisuGPX - https://www.visugpx.com">
  <metadata>
    <name>HIK F34 GR07 J4 Le Bousquet Orb Douch</name>
    <desc><![CDATA[Une belle ascencion en fin de parcours sur Douch.
Attention aux modifications dy tracé]]></desc>
  </metadata>
  <trk>
    <name><![CDATA[APR-29-11 17:40:31]]></name>
    <trkseg>
      <trkpt lat="43.68257" lon="3.16913">
        <ele>256.81</ele>
        <time>2011-04-28T15:24:24Z</time>
      </trkpt>
      <trkpt lat="43.68257" lon="3.16913">
        <ele>255.85</ele>
        <time>2011-04-28T15:24:25Z</time>
      </trkpt>
      <trkpt lat="43.68257" lon="3.16914">
        <ele>252.96</ele>
        <time>2011-04-28T15:24:30Z</time>
      </trkpt>
      <trkpt lat="43.68257" lon="3.16914">
        <ele>252</ele>
        <time>2011-04-28T15:24:37Z</time>
      </trkpt>
      <trkpt lat="43.68257" lon="3.16914">
        <ele>251.04</ele>
        <time>2011-04-29T05:33:48Z</time>
      </trkpt>
      <trkpt lat="43.68257" lon="3.16914">
        <ele>261.14</ele>
        <time>2011-04-29T05:33:49Z</time>
      </trkpt>
      <trkpt lat="43.68257" lon="3.16914">
        <ele>261.14</ele>
        <time>2011-04-29T05:33:50Z</time>
      </trkpt>
      <trkpt lat="43.68257" lon="3.16914">
        <ele>258.25</ele>
        <time>2011-04-29T05:33:51Z</time>
      </trkpt>
      <trkpt lat="43.68251" lon="3.16934">
        <ele>260.65</ele>
        <time>2011-04-29T05:33:57Z</time>
      </trkpt>
      <trkpt lat="43.68252" lon="3.16924">
        <ele>257.29</ele>
        <time>2011-04-29T05:34:01Z</time>
      </trkpt>
      <trkpt lat="43.68251" lon="3.16922">
        <ele>261.14</ele>
        <time>2011-04-29T05:34:02Z</time>
      </trkpt>
      <trkpt lat="43.68246" lon="3.16916">
        <ele>257.77</ele>
        <time>2011-04-29T05:34:08Z</time>
      </trkpt>
      <trkpt lat="43.68245" lon="3.16916">
        <ele>257.77</ele>
        <time>2011-04-29T05:34:09Z</time>
      </trkpt>
      <trkpt lat="43.6824" lon="3.16915">
        <ele>252</ele>
        <time>2011-04-29T05:34:16Z</time>
      </trkpt>
      <trkpt lat="43.6824" lon="3.16914">
        <ele>258.25</ele>
        <time>2011-04-29T05:34:17Z</time>
      </trkpt>
      <trkpt lat="43.6824" lon="3.16914">
        <ele>257.77</ele>
        <time>2011-04-29T05:34:18Z</time>
      </trkpt>
      <trkpt lat="43.6824" lon="3.16915">
        <ele>254.89</ele>
        <time>2011-04-29T05:34:20Z</time>
      </trkpt>
      <trkpt lat="43.6824" lon="3.16914">
        <ele>253.93</ele>
        <time>2011-04-29T05:34:28Z</time>
      </trkpt>
      <trkpt lat="43.6824" lon="3.16915">
        <ele>242.39</ele>
        <time>2011-04-29T05:34:29Z</time>
      </trkpt>
      <trkpt lat="43.6824" lon="3.16914">
        <ele>252.48</ele>
        <time>2011-04-29T05:34:30Z</time>
      </trkpt>
      <trkpt lat="43.68243" lon="3.16916">
        <ele>252.96</ele>
        <time>2011-04-29T05:34:43Z</time>
      </trkpt>
      <trkpt lat="43.68241" lon="3.16934">
        <ele>251.04</ele>
        <time>2011-04-29T05:34:59Z</time>
      </trkpt>
      <trkpt lat="43.68234" lon="3.16963">
        <ele>252</ele>
        <time>2011-04-29T05:35:21Z</time>
      </trkpt>
      <trkpt lat="43.68225" lon="3.16957">
        <ele>251.52</ele>
        <time>2011-04-29T05:36:33Z</time>
      </trkpt>
      <trkpt lat="43.6822" lon="3.16953">
        <ele>252</ele>
        <time>2011-04-29T05:36:37Z</time>
      </trkpt>
      <trkpt lat="43.68205" lon="3.1694">
        <ele>251.52</ele>
        <time>2011-04-29T05:36:55Z</time>
      </trkpt>
      <trkpt lat="43.68197" lon="3.16937">
        <ele>252</ele>
        <time>2011-04-29T05:37:03Z</time>
      </trkpt>
      <trkpt lat="43.6818" lon="3.16934">
        <ele>250.08</ele>
        <time>2011-04-29T05:37:19Z</time>
      </trkpt>
      <trkpt lat="43.68152" lon="3.16934">
        <ele>249.6</ele>
        <time>2011-04-29T05:37:37Z</time>
      </trkpt>
      <trkpt lat="43.68144" lon="3.16934">
        <ele>255.85</ele>
        <time>2011-04-29T05:37:42Z</time>
      </trkpt>
      <trkpt lat="43.68142" lon="3.16934">
        <ele>254.89</ele>
        <time>2011-04-29T05:37:43Z</time>
      </trkpt>
      <trkpt lat="43.68139" lon="3.16933">
        <ele>251.52</ele>
        <time>2011-04-29T05:37:45Z</time>
      </trkpt>
      <trkpt lat="43.68138" lon="3.16933">
        <ele>251.52</ele>
        <time>2011-04-29T05:37:46Z</time>
      </trkpt>
      <trkpt lat="43.68136" lon="3.16933">
        <ele>255.37</ele>
        <time>2011-04-29T05:37:48Z</time>
      </trkpt>
      <trkpt lat="43.68135" lon="3.16933">
        <ele>251.04</ele>
        <time>2011-04-29T05:37:49Z</time>
      </trkpt>
      <trkpt lat="43.68124" lon="3.16932">
        <ele>250.56</ele>
        <time>2011-04-29T05:37:59Z</time>
      </trkpt>
      <trkpt lat="43.68108" lon="3.1692">
        <ele>249.12</ele>
        <time>2011-04-29T05:38:19Z</time>
      </trkpt>
      <trkpt lat="43.68104" lon="3.16919">
        <ele>249.6</ele>
        <time>2011-04-29T05:38:23Z</time>
      </trkpt>
      <trkpt lat="43.68083" lon="3.16913">
        <ele>249.6</ele>
        <time>2011-04-29T05:38:42Z</time>
      </trkpt>
      <trkpt lat="43.68057" lon="3.1691">
        <ele>249.12</ele>
        <time>2011-04-29T05:39:02Z</time>
      </trkpt>
      <trkpt lat="43.68033" lon="3.169">
        <ele>247.68</ele>
        <time>2011-04-29T05:39:24Z</time>
      </trkpt>
      <trkpt lat="43.68018" lon="3.16894">
        <ele>248.64</ele>
        <time>2011-04-29T05:39:41Z</time>
      </trkpt>
      <trkpt lat="43.67997" lon="3.16883">
        <ele>248.16</ele>
        <time>2011-04-29T05:39:59Z</time>
      </trkpt>
      <trkpt lat="43.67979" lon="3.16877">
        <ele>247.68</ele>
        <time>2011-04-29T05:40:17Z</time>
      </trkpt>
      <trkpt lat="43.67955" lon="3.16875">
        <ele>248.64</ele>
        <time>2011-04-29T05:40:32Z</time>
      </trkpt>
      <trkpt lat="43.67948" lon="3.16873">
        <ele>247.68</ele>
        <time>2011-04-29T05:40:38Z</time>
      </trkpt>
      <trkpt lat="43.67935" lon="3.1687">
        <ele>248.16</ele>
        <time>2011-04-29T05:40:53Z</time>
      </trkpt>
      <trkpt lat="43.67914" lon="3.16868">
        <ele>248.64</ele>
        <time>2011-04-29T05:41:12Z</time>
      </trkpt>
      <trkpt lat="43.67906" lon="3.16865">
        <ele>249.6</ele>
        <time>2011-04-29T05:41:22Z</time>
      </trkpt>
      <trkpt lat="43.67883" lon="3.16859">
        <ele>250.08</ele>
        <time>2011-04-29T05:41:40Z</time>
      </trkpt>
      <trkpt lat="43.67862" lon="3.16852">
        <ele>251.52</ele>
        <time>2011-04-29T05:41:59Z</time>
      </trkpt>
      <trkpt lat="43.6784" lon="3.16844">
        <ele>251.04</ele>
        <time>2011-04-29T05:42:17Z</time>
      </trkpt>
      <trkpt lat="43.67837" lon="3.16843">
        <ele>252.48</ele>
        <time>2011-04-29T05:42:19Z</time>
      </trkpt>
      <trkpt lat="43.67812" lon="3.16833">
        <ele>252.48</ele>
        <time>2011-04-29T05:42:42Z</time>
      </trkpt>
      <trkpt lat="43.67809" lon="3.16832">
        <ele>253.93</ele>
        <time>2011-04-29T05:42:45Z</time>
      </trkpt>
      <trkpt lat="43.67784" lon="3.16827">
        <ele>246.72</ele>
        <time>2011-04-29T05:43:01Z</time>
      </trkpt>
      <trkpt lat="43.67783" lon="3.16827">
        <ele>256.81</ele>
        <time>2011-04-29T05:43:02Z</time>
      </trkpt>
      <trkpt lat="43.67777" lon="3.16826">
        <ele>246.72</ele>
        <time>2011-04-29T05:43:07Z</time>
      </trkpt>
      <trkpt lat="43.67776" lon="3.16826">
        <ele>261.62</ele>
        <time>2011-04-29T05:43:08Z</time>
      </trkpt>
      <trkpt lat="43.67774" lon="3.16826">
        <ele>255.85</ele>
        <time>2011-04-29T05:43:09Z</time>
      </trkpt>
      <trkpt lat="43.67773" lon="3.16826">
        <ele>261.14</ele>
        <time>2011-04-29T05:43:10Z</time>
      </trkpt>
      <trkpt lat="43.67772" lon="3.16826">
        <ele>256.81</ele>
        <time>2011-04-29T05:43:11Z</time>
      </trkpt>
      <trkpt lat="43.6777" lon="3.16826">
        <ele>254.89</ele>
        <time>2011-04-29T05:43:13Z</time>
      </trkpt>
      <trkpt lat="43.6776" lon="3.16824">
        <ele>260.17</ele>
        <time>2011-04-29T05:43:22Z</time>
      </trkpt>
      <trkpt lat="43.67759" lon="3.16824">
        <ele>256.81</ele>
        <time>2011-04-29T05:43:23Z</time>
      </trkpt>
      <trkpt lat="43.67744" lon="3.1682">
        <ele>256.33</ele>
        <time>2011-04-29T05:43:39Z</time>
      </trkpt>
      <trkpt lat="43.67723" lon="3.16819">
        <ele>256.81</ele>
        <time>2011-04-29T05:43:58Z</time>
      </trkpt>
      <trkpt lat="43.67704" lon="3.1682">
        <ele>258.25</ele>
        <time>2011-04-29T05:44:15Z</time>
      </trkpt>
      <trkpt lat="43.67697" lon="3.1682">
        <ele>257.29</ele>
        <time>2011-04-29T05:44:27Z</time>
      </trkpt>
      <trkpt lat="43.67679" lon="3.16823">
        <ele>258.73</ele>
        <time>2011-04-29T05:44:44Z</time>
      </trkpt>
      <trkpt lat="43.67656" lon="3.16826">
        <ele>258.25</ele>
        <time>2011-04-29T05:45:02Z</time>
      </trkpt>
      <trkpt lat="43.67649" lon="3.16827">
        <ele>259.21</ele>
        <time>2011-04-29T05:45:08Z</time>
      </trkpt>
      <trkpt lat="43.67648" lon="3.16827">
        <ele>258.25</ele>
        <time>2011-04-29T05:45:09Z</time>
      </trkpt>
      <trkpt lat="43.67628" lon="3.16829">
        <ele>258.73</ele>
        <time>2011-04-29T05:45:25Z</time>
      </trkpt>
      <trkpt lat="43.67606" lon="3.16833">
        <ele>256.81</ele>
        <time>2011-04-29T05:45:44Z</time>
      </trkpt>
      <trkpt lat="43.67582" lon="3.16833">
        <ele>257.77</ele>
        <time>2011-04-29T05:46:04Z</time>
      </trkpt>
      <trkpt lat="43.67561" lon="3.16836">
        <ele>256.81</ele>
        <time>2011-04-29T05:46:22Z</time>
      </trkpt>
      <trkpt lat="43.67537" lon="3.16836">
        <ele>257.77</ele>
        <time>2011-04-29T05:46:42Z</time>
      </trkpt>
      <trkpt lat="43.67515" lon="3.16838">
        <ele>257.29</ele>
        <time>2011-04-29T05:47:01Z</time>
      </trkpt>
      <trkpt lat="43.6749" lon="3.16844">
        <ele>257.77</ele>
        <time>2011-04-29T05:47:19Z</time>
      </trkpt>
      <trkpt lat="43.67476" lon="3.16844">
        <ele>263.06</ele>
        <time>2011-04-29T05:47:29Z</time>
      </trkpt>
      <trkpt lat="43.67474" lon="3.16844">
        <ele>258.73</ele>
        <time>2011-04-29T05:47:31Z</time>
      </trkpt>
      <trkpt lat="43.67472" lon="3.16844">
        <ele>257.29</ele>
        <time>2011-04-29T05:47:33Z</time>
      </trkpt>
      <trkpt lat="43.67454" lon="3.16847">
        <ele>255.85</ele>
        <time>2011-04-29T05:47:49Z</time>
      </trkpt>
      <trkpt lat="43.67453" lon="3.16848">
        <ele>244.31</ele>
        <time>2011-04-29T05:47:50Z</time>
      </trkpt>
      <trkpt lat="43.67452" lon="3.16848">
        <ele>257.29</ele>
        <time>2011-04-29T05:47:51Z</time>
      </trkpt>
      <trkpt lat="43.67451" lon="3.16848">
        <ele>256.81</ele>
        <time>2011-04-29T05:47:52Z</time>
      </trkpt>
      <trkpt lat="43.67443" lon="3.16847">
        <ele>255.85</ele>
        <time>2011-04-29T05:47:58Z</time>
      </trkpt>
      <trkpt lat="43.67432" lon="3.16849">
        <ele>252</ele>
        <time>2011-04-29T05:48:08Z</time>
      </trkpt>
      <trkpt lat="43.6743" lon="3.16849">
        <ele>256.33</ele>
        <time>2011-04-29T05:48:09Z</time>
      </trkpt>
      <trkpt lat="43.67412" lon="3.1685">
        <ele>255.37</ele>
        <time>2011-04-29T05:48:26Z</time>
      </trkpt>
      <trkpt lat="43.67405" lon="3.16851">
        <ele>258.25</ele>
        <time>2011-04-29T05:48:31Z</time>
      </trkpt>
      <trkpt lat="43.67399" lon="3.16852">
        <ele>255.37</ele>
        <time>2011-04-29T05:48:35Z</time>
      </trkpt>
      <trkpt lat="43.67395" lon="3.16853">
        <ele>259.21</ele>
        <time>2011-04-29T05:48:38Z</time>
      </trkpt>
      <trkpt lat="43.67394" lon="3.16853">
        <ele>255.85</ele>
        <time>2011-04-29T05:48:39Z</time>
      </trkpt>
      <trkpt lat="43.67382" lon="3.16853">
        <ele>234.22</ele>
        <time>2011-04-29T05:48:49Z</time>
      </trkpt>
      <trkpt lat="43.6738" lon="3.16853">
        <ele>268.83</ele>
        <time>2011-04-29T05:48:50Z</time>
      </trkpt>
      <trkpt lat="43.67379" lon="3.16853">
        <ele>258.25</ele>
        <time>2011-04-29T05:48:51Z</time>
      </trkpt>
      <trkpt lat="43.67378" lon="3.16854">
        <ele>254.41</ele>
        <time>2011-04-29T05:48:52Z</time>
      </trkpt>
      <trkpt lat="43.67377" lon="3.16854">
        <ele>254.89</ele>
        <time>2011-04-29T05:48:53Z</time>
      </trkpt>
      <trkpt lat="43.67375" lon="3.16854">
        <ele>247.2</ele>
        <time>2011-04-29T05:48:55Z</time>
      </trkpt>
      <trkpt lat="43.67373" lon="3.16854">
        <ele>260.17</ele>
        <time>2011-04-29T05:48:56Z</time>
      </trkpt>
      <trkpt lat="43.67372" lon="3.16854">
        <ele>256.81</ele>
        <time>2011-04-29T05:48:57Z</time>
      </trkpt>
      <trkpt lat="43.67369" lon="3.16855">
        <ele>255.37</ele>
        <time>2011-04-29T05:48:59Z</time>
      </trkpt>
      <trkpt lat="43.67353" lon="3.16856">
        <ele>253.44</ele>
        <time>2011-04-29T05:49:13Z</time>
      </trkpt>
      <trkpt lat="43.67331" lon="3.16857">
        <ele>252.48</ele>
        <time>2011-04-29T05:49:30Z</time>
      </trkpt>
      <trkpt lat="43.67307" lon="3.16861">
        <ele>252</ele>
        <time>2011-04-29T05:49:49Z</time>
      </trkpt>
      <trkpt lat="43.67281" lon="3.16862">
        <ele>250.56</ele>
        <time>2011-04-29T05:50:09Z</time>
      </trkpt>
      <trkpt lat="43.67273" lon="3.16862">
        <ele>249.6</ele>
        <time>2011-04-29T05:50:15Z</time>
      </trkpt>
      <trkpt lat="43.67249" lon="3.16863">
        <ele>248.64</ele>
        <time>2011-04-29T05:50:35Z</time>
      </trkpt>
      <trkpt lat="43.67225" lon="3.1686">
        <ele>248.16</ele>
        <time>2011-04-29T05:50:53Z</time>
      </trkpt>
      <trkpt lat="43.67199" lon="3.16851">
        <ele>246.72</ele>
        <time>2011-04-29T05:51:13Z</time>
      </trkpt>
      <trkpt lat="43.67179" lon="3.1684">
        <ele>246.72</ele>
        <time>2011-04-29T05:51:30Z</time>
      </trkpt>
      <trkpt lat="43.67163" lon="3.1683">
        <ele>245.75</ele>
        <time>2011-04-29T05:51:43Z</time>
      </trkpt>
      <trkpt lat="43.67162" lon="3.1683">
        <ele>245.75</ele>
        <time>2011-04-29T05:51:44Z</time>
      </trkpt>
      <trkpt lat="43.67154" lon="3.16823">
        <ele>250.56</ele>
        <time>2011-04-29T05:51:51Z</time>
      </trkpt>
      <trkpt lat="43.67153" lon="3.16822">
        <ele>250.08</ele>
        <time>2011-04-29T05:51:52Z</time>
      </trkpt>
      <trkpt lat="43.67152" lon="3.16821">
        <ele>246.23</ele>
        <time>2011-04-29T05:51:53Z</time>
      </trkpt>
      <trkpt lat="43.67151" lon="3.1682">
        <ele>246.23</ele>
        <time>2011-04-29T05:51:54Z</time>
      </trkpt>
      <trkpt lat="43.67145" lon="3.16813">
        <ele>224.61</ele>
        <time>2011-04-29T05:52:00Z</time>
      </trkpt>
      <trkpt lat="43.67144" lon="3.16812">
        <ele>251.52</ele>
        <time>2011-04-29T05:52:01Z</time>
      </trkpt>
      <trkpt lat="43.67143" lon="3.16811">
        <ele>246.23</ele>
        <time>2011-04-29T05:52:02Z</time>
      </trkpt>
      <trkpt lat="43.67137" lon="3.16802">
        <ele>235.18</ele>
        <time>2011-04-29T05:52:10Z</time>
      </trkpt>
      <trkpt lat="43.67136" lon="3.16801">
        <ele>247.68</ele>
        <time>2011-04-29T05:52:11Z</time>
      </trkpt>
      <trkpt lat="43.67132" lon="3.16798">
        <ele>245.75</ele>
        <time>2011-04-29T05:52:14Z</time>
      </trkpt>
      <trkpt lat="43.67117" lon="3.16774">
        <ele>246.23</ele>
        <time>2011-04-29T05:52:33Z</time>
      </trkpt>
      <trkpt lat="43.671" lon="3.16744">
        <ele>243.83</ele>
        <time>2011-04-29T05:52:54Z</time>
      </trkpt>
      <trkpt lat="43.67089" lon="3.16723">
        <ele>245.27</ele>
        <time>2011-04-29T05:53:09Z</time>
      </trkpt>
      <trkpt lat="43.67073" lon="3.16698">
        <ele>244.79</ele>
        <time>2011-04-29T05:53:28Z</time>
      </trkpt>
      <trkpt lat="43.67058" lon="3.16669">
        <ele>244.31</ele>
        <time>2011-04-29T05:53:49Z</time>
      </trkpt>
      <trkpt lat="43.67042" lon="3.1664">
        <ele>244.79</ele>
        <time>2011-04-29T05:54:10Z</time>
      </trkpt>
      <trkpt lat="43.67024" lon="3.16612">
        <ele>245.27</ele>
        <time>2011-04-29T05:54:31Z</time>
      </trkpt>
      <trkpt lat="43.67007" lon="3.16587">
        <ele>245.27</ele>
        <time>2011-04-29T05:54:49Z</time>
      </trkpt>
      <trkpt lat="43.66993" lon="3.16565">
        <ele>243.83</ele>
        <time>2011-04-29T05:55:06Z</time>
      </trkpt>
      <trkpt lat="43.66975" lon="3.16542">
        <ele>242.39</ele>
        <time>2011-04-29T05:55:25Z</time>
      </trkpt>
      <trkpt lat="43.66953" lon="3.16519">
        <ele>242.39</ele>
        <time>2011-04-29T05:55:46Z</time>
      </trkpt>
      <trkpt lat="43.66942" lon="3.16509">
        <ele>239.51</ele>
        <time>2011-04-29T05:55:55Z</time>
      </trkpt>
      <trkpt lat="43.6694" lon="3.16508">
        <ele>245.27</ele>
        <time>2011-04-29T05:55:56Z</time>
      </trkpt>
      <trkpt lat="43.66937" lon="3.16506">
        <ele>241.43</ele>
        <time>2011-04-29T05:55:59Z</time>
      </trkpt>
      <trkpt lat="43.66934" lon="3.16502">
        <ele>243.35</ele>
        <time>2011-04-29T05:56:02Z</time>
      </trkpt>
      <trkpt lat="43.66932" lon="3.165">
        <ele>241.91</ele>
        <time>2011-04-29T05:56:04Z</time>
      </trkpt>
      <trkpt lat="43.66914" lon="3.16483">
        <ele>241.43</ele>
        <time>2011-04-29T05:56:21Z</time>
      </trkpt>
      <trkpt lat="43.66893" lon="3.16464">
        <ele>240.47</ele>
        <time>2011-04-29T05:56:40Z</time>
      </trkpt>
      <trkpt lat="43.66872" lon="3.16441">
        <ele>239.99</ele>
        <time>2011-04-29T05:57:01Z</time>
      </trkpt>
      <trkpt lat="43.66865" lon="3.16436">
        <ele>241.91</ele>
        <time>2011-04-29T05:57:07Z</time>
      </trkpt>
      <trkpt lat="43.66862" lon="3.16433">
        <ele>239.99</ele>
        <time>2011-04-29T05:57:10Z</time>
      </trkpt>
      <trkpt lat="43.66838" lon="3.16416">
        <ele>244.31</ele>
        <time>2011-04-29T05:57:28Z</time>
      </trkpt>
      <trkpt lat="43.66837" lon="3.16415">
        <ele>240.95</ele>
        <time>2011-04-29T05:57:29Z</time>
      </trkpt>
      <trkpt lat="43.66833" lon="3.16412">
        <ele>239.02</ele>
        <time>2011-04-29T05:57:32Z</time>
      </trkpt>
      <trkpt lat="43.66829" lon="3.16409">
        <ele>240.95</ele>
        <time>2011-04-29T05:57:35Z</time>
      </trkpt>
      <trkpt lat="43.6681" lon="3.16388">
        <ele>239.02</ele>
        <time>2011-04-29T05:57:55Z</time>
      </trkpt>
      <trkpt lat="43.66807" lon="3.16384">
        <ele>240.47</ele>
        <time>2011-04-29T05:57:58Z</time>
      </trkpt>
      <trkpt lat="43.66796" lon="3.16374">
        <ele>240.47</ele>
        <time>2011-04-29T05:58:08Z</time>
      </trkpt>
      <trkpt lat="43.66774" lon="3.16356">
        <ele>239.51</ele>
        <time>2011-04-29T05:58:27Z</time>
      </trkpt>
      <trkpt lat="43.66754" lon="3.16337">
        <ele>239.02</ele>
        <time>2011-04-29T05:58:46Z</time>
      </trkpt>
      <trkpt lat="43.66735" lon="3.16319">
        <ele>239.02</ele>
        <time>2011-04-29T05:59:04Z</time>
      </trkpt>
      <trkpt lat="43.6672" lon="3.16305">
        <ele>239.51</ele>
        <time>2011-04-29T05:59:18Z</time>
      </trkpt>
      <trkpt lat="43.667" lon="3.16288">
        <ele>239.02</ele>
        <time>2011-04-29T05:59:35Z</time>
      </trkpt>
      <trkpt lat="43.66679" lon="3.16267">
        <ele>239.02</ele>
        <time>2011-04-29T05:59:56Z</time>
      </trkpt>
      <trkpt lat="43.6667" lon="3.16258">
        <ele>240.95</ele>
        <time>2011-04-29T06:00:04Z</time>
      </trkpt>
      <trkpt lat="43.66647" lon="3.16237">
        <ele>240.47</ele>
        <time>2011-04-29T06:00:24Z</time>
      </trkpt>
      <trkpt lat="43.66623" lon="3.16213">
        <ele>239.51</ele>
        <time>2011-04-29T06:00:46Z</time>
      </trkpt>
      <trkpt lat="43.66618" lon="3.16207">
        <ele>239.99</ele>
        <time>2011-04-29T06:00:52Z</time>
      </trkpt>
      <trkpt lat="43.66601" lon="3.16185">
        <ele>239.51</ele>
        <time>2011-04-29T06:01:10Z</time>
      </trkpt>
      <trkpt lat="43.66585" lon="3.16162">
        <ele>240.47</ele>
        <time>2011-04-29T06:01:27Z</time>
      </trkpt>
      <trkpt lat="43.66569" lon="3.16141">
        <ele>240.47</ele>
        <time>2011-04-29T06:01:44Z</time>
      </trkpt>
      <trkpt lat="43.66551" lon="3.1612">
        <ele>237.58</ele>
        <time>2011-04-29T06:02:01Z</time>
      </trkpt>
      <trkpt lat="43.66549" lon="3.16117">
        <ele>241.43</ele>
        <time>2011-04-29T06:02:03Z</time>
      </trkpt>
      <trkpt lat="43.66548" lon="3.16116">
        <ele>241.43</ele>
        <time>2011-04-29T06:02:04Z</time>
      </trkpt>
      <trkpt lat="43.66531" lon="3.16095">
        <ele>241.91</ele>
        <time>2011-04-29T06:02:23Z</time>
      </trkpt>
      <trkpt lat="43.6651" lon="3.1607">
        <ele>243.35</ele>
        <time>2011-04-29T06:02:45Z</time>
      </trkpt>
      <trkpt lat="43.66493" lon="3.16049">
        <ele>244.79</ele>
        <time>2011-04-29T06:03:03Z</time>
      </trkpt>
      <trkpt lat="43.66476" lon="3.16024">
        <ele>246.72</ele>
        <time>2011-04-29T06:03:23Z</time>
      </trkpt>
      <trkpt lat="43.66474" lon="3.16019">
        <ele>244.79</ele>
        <time>2011-04-29T06:03:26Z</time>
      </trkpt>
      <trkpt lat="43.66458" lon="3.15995">
        <ele>248.16</ele>
        <time>2011-04-29T06:03:43Z</time>
      </trkpt>
      <trkpt lat="43.66444" lon="3.15968">
        <ele>247.2</ele>
        <time>2011-04-29T06:04:02Z</time>
      </trkpt>
      <trkpt lat="43.66431" lon="3.15941">
        <ele>248.16</ele>
        <time>2011-04-29T06:04:21Z</time>
      </trkpt>
      <trkpt lat="43.66427" lon="3.15934">
        <ele>248.64</ele>
        <time>2011-04-29T06:04:26Z</time>
      </trkpt>
      <trkpt lat="43.66414" lon="3.15908">
        <ele>247.68</ele>
        <time>2011-04-29T06:04:44Z</time>
      </trkpt>
      <trkpt lat="43.66402" lon="3.15885">
        <ele>247.2</ele>
        <time>2011-04-29T06:05:00Z</time>
      </trkpt>
      <trkpt lat="43.66385" lon="3.15852">
        <ele>246.72</ele>
        <time>2011-04-29T06:05:23Z</time>
      </trkpt>
      <trkpt lat="43.6637" lon="3.1582">
        <ele>246.72</ele>
        <time>2011-04-29T06:05:44Z</time>
      </trkpt>
      <trkpt lat="43.66368" lon="3.15818">
        <ele>253.93</ele>
        <time>2011-04-29T06:05:46Z</time>
      </trkpt>
      <trkpt lat="43.66368" lon="3.15816">
        <ele>247.2</ele>
        <time>2011-04-29T06:05:47Z</time>
      </trkpt>
      <trkpt lat="43.66366" lon="3.15813">
        <ele>246.23</ele>
        <time>2011-04-29T06:05:49Z</time>
      </trkpt>
      <trkpt lat="43.66355" lon="3.15795">
        <ele>245.75</ele>
        <time>2011-04-29T06:06:03Z</time>
      </trkpt>
      <trkpt lat="43.6634" lon="3.15765">
        <ele>245.75</ele>
        <time>2011-04-29T06:06:22Z</time>
      </trkpt>
      <trkpt lat="43.66333" lon="3.1575">
        <ele>244.79</ele>
        <time>2011-04-29T06:06:31Z</time>
      </trkpt>
      <trkpt lat="43.66322" lon="3.1573">
        <ele>244.79</ele>
        <time>2011-04-29T06:06:47Z</time>
      </trkpt>
      <trkpt lat="43.6631" lon="3.15707">
        <ele>244.79</ele>
        <time>2011-04-29T06:07:02Z</time>
      </trkpt>
      <trkpt lat="43.66299" lon="3.15683">
        <ele>244.79</ele>
        <time>2011-04-29T06:07:19Z</time>
      </trkpt>
      <trkpt lat="43.66287" lon="3.15656">
        <ele>245.75</ele>
        <time>2011-04-29T06:07:37Z</time>
      </trkpt>
      <trkpt lat="43.66271" lon="3.15628">
        <ele>244.31</ele>
        <time>2011-04-29T06:07:57Z</time>
      </trkpt>
      <trkpt lat="43.66256" lon="3.15599">
        <ele>243.83</ele>
        <time>2011-04-29T06:08:16Z</time>
      </trkpt>
      <trkpt lat="43.66245" lon="3.15576">
        <ele>244.31</ele>
        <time>2011-04-29T06:08:32Z</time>
      </trkpt>
      <trkpt lat="43.66234" lon="3.1555">
        <ele>244.31</ele>
        <time>2011-04-29T06:08:48Z</time>
      </trkpt>
      <trkpt lat="43.66218" lon="3.15519">
        <ele>242.39</ele>
        <time>2011-04-29T06:09:08Z</time>
      </trkpt>
      <trkpt lat="43.66202" lon="3.15486">
        <ele>241.91</ele>
        <time>2011-04-29T06:09:29Z</time>
      </trkpt>
      <trkpt lat="43.66191" lon="3.15462">
        <ele>239.51</ele>
        <time>2011-04-29T06:09:45Z</time>
      </trkpt>
      <trkpt lat="43.66177" lon="3.15438">
        <ele>238.54</ele>
        <time>2011-04-29T06:10:04Z</time>
      </trkpt>
      <trkpt lat="43.66177" lon="3.15439">
        <ele>239.51</ele>
        <time>2011-04-29T06:10:08Z</time>
      </trkpt>
      <trkpt lat="43.66177" lon="3.15439">
        <ele>239.02</ele>
        <time>2011-04-29T06:10:10Z</time>
      </trkpt>
      <trkpt lat="43.66176" lon="3.15439">
        <ele>239.51</ele>
        <time>2011-04-29T06:10:46Z</time>
      </trkpt>
      <trkpt lat="43.66176" lon="3.1544">
        <ele>239.02</ele>
        <time>2011-04-29T06:11:01Z</time>
      </trkpt>
      <trkpt lat="43.66176" lon="3.1544">
        <ele>207.78</ele>
        <time>2011-04-29T06:11:03Z</time>
      </trkpt>
      <trkpt lat="43.66176" lon="3.1544">
        <ele>240.95</ele>
        <time>2011-04-29T06:11:04Z</time>
      </trkpt>
      <trkpt lat="43.66176" lon="3.1544">
        <ele>249.6</ele>
        <time>2011-04-29T06:11:05Z</time>
      </trkpt>
      <trkpt lat="43.66176" lon="3.1544">
        <ele>243.35</ele>
        <time>2011-04-29T06:11:06Z</time>
      </trkpt>
      <trkpt lat="43.66176" lon="3.1544">
        <ele>239.99</ele>
        <time>2011-04-29T06:11:07Z</time>
      </trkpt>
      <trkpt lat="43.66176" lon="3.1544">
        <ele>250.08</ele>
        <time>2011-04-29T06:11:11Z</time>
      </trkpt>
      <trkpt lat="43.66176" lon="3.1544">
        <ele>242.39</ele>
        <time>2011-04-29T06:11:12Z</time>
      </trkpt>
      <trkpt lat="43.66176" lon="3.1544">
        <ele>246.23</ele>
        <time>2011-04-29T06:11:13Z</time>
      </trkpt>
      <trkpt lat="43.66176" lon="3.1544">
        <ele>240.47</ele>
        <time>2011-04-29T06:11:14Z</time>
      </trkpt>
      <trkpt lat="43.66176" lon="3.1544">
        <ele>238.54</ele>
        <time>2011-04-29T06:11:21Z</time>
      </trkpt>
      <trkpt lat="43.66176" lon="3.1544">
        <ele>241.43</ele>
        <time>2011-04-29T06:11:22Z</time>
      </trkpt>
      <trkpt lat="43.66176" lon="3.1544">
        <ele>238.06</ele>
        <time>2011-04-29T06:11:27Z</time>
      </trkpt>
      <trkpt lat="43.66176" lon="3.1544">
        <ele>238.54</ele>
        <time>2011-04-29T06:11:28Z</time>
      </trkpt>
      <trkpt lat="43.66177" lon="3.1544">
        <ele>238.54</ele>
        <time>2011-04-29T06:11:42Z</time>
      </trkpt>
      <trkpt lat="43.66177" lon="3.1544">
        <ele>244.31</ele>
        <time>2011-04-29T06:11:49Z</time>
      </trkpt>
      <trkpt lat="43.66177" lon="3.1544">
        <ele>232.3</ele>
        <time>2011-04-29T06:11:50Z</time>
      </trkpt>
      <trkpt lat="43.66177" lon="3.1544">
        <ele>233.74</ele>
        <time>2011-04-29T06:11:51Z</time>
      </trkpt>
      <trkpt lat="43.66177" lon="3.1544">
        <ele>248.64</ele>
        <time>2011-04-29T06:11:52Z</time>
      </trkpt>
      <trkpt lat="43.66177" lon="3.1544">
        <ele>239.99</ele>
        <time>2011-04-29T06:11:53Z</time>
      </trkpt>
      <trkpt lat="43.66176" lon="3.1544">
        <ele>231.81</ele>
        <time>2011-04-29T06:12:10Z</time>
      </trkpt>
      <trkpt lat="43.66176" lon="3.1544">
        <ele>231.81</ele>
        <time>2011-04-29T06:12:11Z</time>
      </trkpt>
      <trkpt lat="43.66176" lon="3.1544">
        <ele>241.43</ele>
        <time>2011-04-29T06:12:12Z</time>
      </trkpt>
      <trkpt lat="43.66176" lon="3.1544">
        <ele>239.02</ele>
        <time>2011-04-29T06:12:13Z</time>
      </trkpt>
      <trkpt lat="43.66176" lon="3.15439">
        <ele>236.14</ele>
        <time>2011-04-29T06:12:39Z</time>
      </trkpt>
      <trkpt lat="43.66176" lon="3.15438">
        <ele>240.95</ele>
        <time>2011-04-29T06:12:40Z</time>
      </trkpt>
      <trkpt lat="43.66176" lon="3.15437">
        <ele>237.58</ele>
        <time>2011-04-29T06:12:42Z</time>
      </trkpt>
      <trkpt lat="43.66175" lon="3.15437">
        <ele>238.54</ele>
        <time>2011-04-29T06:12:43Z</time>
      </trkpt>
      <trkpt lat="43.66173" lon="3.15429">
        <ele>241.91</ele>
        <time>2011-04-29T06:12:52Z</time>
      </trkpt>
      <trkpt lat="43.66172" lon="3.15428">
        <ele>238.54</ele>
        <time>2011-04-29T06:12:53Z</time>
      </trkpt>
      <trkpt lat="43.6616" lon="3.15401">
        <ele>237.1</ele>
        <time>2011-04-29T06:13:14Z</time>
      </trkpt>
      <trkpt lat="43.66149" lon="3.15377">
        <ele>235.66</ele>
        <time>2011-04-29T06:13:32Z</time>
      </trkpt>
      <trkpt lat="43.6614" lon="3.15367">
        <ele>234.7</ele>
        <time>2011-04-29T06:13:41Z</time>
      </trkpt>
      <trkpt lat="43.66124" lon="3.15346">
        <ele>235.18</ele>
        <time>2011-04-29T06:13:58Z</time>
      </trkpt>
      <trkpt lat="43.66113" lon="3.15335">
        <ele>233.74</ele>
        <time>2011-04-29T06:14:08Z</time>
      </trkpt>
      <trkpt lat="43.6611" lon="3.15331">
        <ele>235.18</ele>
        <time>2011-04-29T06:14:11Z</time>
      </trkpt>
      <trkpt lat="43.66091" lon="3.15304">
        <ele>233.74</ele>
        <time>2011-04-29T06:14:32Z</time>
      </trkpt>
      <trkpt lat="43.6607" lon="3.15283">
        <ele>233.26</ele>
        <time>2011-04-29T06:14:51Z</time>
      </trkpt>
      <trkpt lat="43.66068" lon="3.15281">
        <ele>229.89</ele>
        <time>2011-04-29T06:14:53Z</time>
      </trkpt>
      <trkpt lat="43.66067" lon="3.1528">
        <ele>234.22</ele>
        <time>2011-04-29T06:14:54Z</time>
      </trkpt>
      <trkpt lat="43.66047" lon="3.15253">
        <ele>232.78</ele>
        <time>2011-04-29T06:15:16Z</time>
      </trkpt>
      <trkpt lat="43.66032" lon="3.15234">
        <ele>226.05</ele>
        <time>2011-04-29T06:15:32Z</time>
      </trkpt>
      <trkpt lat="43.66031" lon="3.15233">
        <ele>232.78</ele>
        <time>2011-04-29T06:15:33Z</time>
      </trkpt>
      <trkpt lat="43.66029" lon="3.15231">
        <ele>236.62</ele>
        <time>2011-04-29T06:15:35Z</time>
      </trkpt>
      <trkpt lat="43.66028" lon="3.1523">
        <ele>232.78</ele>
        <time>2011-04-29T06:15:36Z</time>
      </trkpt>
      <trkpt lat="43.66019" lon="3.15219">
        <ele>225.09</ele>
        <time>2011-04-29T06:15:45Z</time>
      </trkpt>
      <trkpt lat="43.66018" lon="3.15218">
        <ele>233.74</ele>
        <time>2011-04-29T06:15:46Z</time>
      </trkpt>
      <trkpt lat="43.66016" lon="3.15215">
        <ele>228.93</ele>
        <time>2011-04-29T06:15:48Z</time>
      </trkpt>
      <trkpt lat="43.66015" lon="3.15214">
        <ele>232.3</ele>
        <time>2011-04-29T06:15:49Z</time>
      </trkpt>
      <trkpt lat="43.66011" lon="3.15209">
        <ele>228.45</ele>
        <time>2011-04-29T06:15:54Z</time>
      </trkpt>
      <trkpt lat="43.6601" lon="3.15208">
        <ele>234.7</ele>
        <time>2011-04-29T06:15:55Z</time>
      </trkpt>
      <trkpt lat="43.66009" lon="3.15207">
        <ele>226.53</ele>
        <time>2011-04-29T06:15:56Z</time>
      </trkpt>
      <trkpt lat="43.66008" lon="3.15205">
        <ele>231.81</ele>
        <time>2011-04-29T06:15:57Z</time>
      </trkpt>
      <trkpt lat="43.66005" lon="3.15201">
        <ele>221.72</ele>
        <time>2011-04-29T06:16:00Z</time>
      </trkpt>
      <trkpt lat="43.66004" lon="3.152">
        <ele>233.26</ele>
        <time>2011-04-29T06:16:01Z</time>
      </trkpt>
      <trkpt lat="43.66" lon="3.15195">
        <ele>231.81</ele>
        <time>2011-04-29T06:16:06Z</time>
      </trkpt>
      <trkpt lat="43.65998" lon="3.15192">
        <ele>232.78</ele>
        <time>2011-04-29T06:16:08Z</time>
      </trkpt>
      <trkpt lat="43.65983" lon="3.15171">
        <ele>230.37</ele>
        <time>2011-04-29T06:16:25Z</time>
      </trkpt>
      <trkpt lat="43.65982" lon="3.1517">
        <ele>230.37</ele>
        <time>2011-04-29T06:16:26Z</time>
      </trkpt>
      <trkpt lat="43.6597" lon="3.15161">
        <ele>229.89</ele>
        <time>2011-04-29T06:16:35Z</time>
      </trkpt>
      <trkpt lat="43.65949" lon="3.1515">
        <ele>230.37</ele>
        <time>2011-04-29T06:16:52Z</time>
      </trkpt>
      <trkpt lat="43.65948" lon="3.15149">
        <ele>229.89</ele>
        <time>2011-04-29T06:16:53Z</time>
      </trkpt>
      <trkpt lat="43.65925" lon="3.15138">
        <ele>230.85</ele>
        <time>2011-04-29T06:17:11Z</time>
      </trkpt>
      <trkpt lat="43.65903" lon="3.15124">
        <ele>230.85</ele>
        <time>2011-04-29T06:17:30Z</time>
      </trkpt>
      <trkpt lat="43.65882" lon="3.15111">
        <ele>230.85</ele>
        <time>2011-04-29T06:17:47Z</time>
      </trkpt>
      <trkpt lat="43.65862" lon="3.15099">
        <ele>229.89</ele>
        <time>2011-04-29T06:18:03Z</time>
      </trkpt>
      <trkpt lat="43.6584" lon="3.1509">
        <ele>229.89</ele>
        <time>2011-04-29T06:18:20Z</time>
      </trkpt>
      <trkpt lat="43.65832" lon="3.15084">
        <ele>228.45</ele>
        <time>2011-04-29T06:18:26Z</time>
      </trkpt>
      <trkpt lat="43.65826" lon="3.1508">
        <ele>229.89</ele>
        <time>2011-04-29T06:18:32Z</time>
      </trkpt>
      <trkpt lat="43.65806" lon="3.1507">
        <ele>229.41</ele>
        <time>2011-04-29T06:18:47Z</time>
      </trkpt>
      <trkpt lat="43.65784" lon="3.15057">
        <ele>228.93</ele>
        <time>2011-04-29T06:19:05Z</time>
      </trkpt>
      <trkpt lat="43.65763" lon="3.15049">
        <ele>228.45</ele>
        <time>2011-04-29T06:19:22Z</time>
      </trkpt>
      <trkpt lat="43.65755" lon="3.15046">
        <ele>220.28</ele>
        <time>2011-04-29T06:19:28Z</time>
      </trkpt>
      <trkpt lat="43.65754" lon="3.15046">
        <ele>229.41</ele>
        <time>2011-04-29T06:19:29Z</time>
      </trkpt>
      <trkpt lat="43.6574" lon="3.15041">
        <ele>227.49</ele>
        <time>2011-04-29T06:19:39Z</time>
      </trkpt>
      <trkpt lat="43.65719" lon="3.15033">
        <ele>227.49</ele>
        <time>2011-04-29T06:19:56Z</time>
      </trkpt>
      <trkpt lat="43.657" lon="3.15034">
        <ele>227.49</ele>
        <time>2011-04-29T06:20:11Z</time>
      </trkpt>
      <trkpt lat="43.65693" lon="3.15032">
        <ele>228.45</ele>
        <time>2011-04-29T06:20:16Z</time>
      </trkpt>
      <trkpt lat="43.65686" lon="3.15019">
        <ele>227.49</ele>
        <time>2011-04-29T06:20:25Z</time>
      </trkpt>
      <trkpt lat="43.65683" lon="3.15015">
        <ele>219.8</ele>
        <time>2011-04-29T06:20:28Z</time>
      </trkpt>
      <trkpt lat="43.65682" lon="3.15014">
        <ele>228.45</ele>
        <time>2011-04-29T06:20:29Z</time>
      </trkpt>
      <trkpt lat="43.65681" lon="3.15013">
        <ele>227.97</ele>
        <time>2011-04-29T06:20:30Z</time>
      </trkpt>
      <trkpt lat="43.65662" lon="3.14998">
        <ele>227.97</ele>
        <time>2011-04-29T06:20:46Z</time>
      </trkpt>
      <trkpt lat="43.65644" lon="3.14986">
        <ele>227.49</ele>
        <time>2011-04-29T06:21:02Z</time>
      </trkpt>
      <trkpt lat="43.65624" lon="3.14975">
        <ele>227.97</ele>
        <time>2011-04-29T06:21:20Z</time>
      </trkpt>
      <trkpt lat="43.65623" lon="3.14974">
        <ele>227.49</ele>
        <time>2011-04-29T06:21:21Z</time>
      </trkpt>
      <trkpt lat="43.65609" lon="3.14967">
        <ele>231.81</ele>
        <time>2011-04-29T06:21:32Z</time>
      </trkpt>
      <trkpt lat="43.65608" lon="3.14966">
        <ele>227.97</ele>
        <time>2011-04-29T06:21:33Z</time>
      </trkpt>
      <trkpt lat="43.6559" lon="3.14955">
        <ele>226.05</ele>
        <time>2011-04-29T06:21:48Z</time>
      </trkpt>
      <trkpt lat="43.6557" lon="3.14944">
        <ele>228.45</ele>
        <time>2011-04-29T06:22:05Z</time>
      </trkpt>
      <trkpt lat="43.65563" lon="3.14942">
        <ele>227.97</ele>
        <time>2011-04-29T06:22:12Z</time>
      </trkpt>
      <trkpt lat="43.65556" lon="3.14939">
        <ele>227.49</ele>
        <time>2011-04-29T06:22:18Z</time>
      </trkpt>
      <trkpt lat="43.65541" lon="3.14931">
        <ele>231.33</ele>
        <time>2011-04-29T06:22:31Z</time>
      </trkpt>
      <trkpt lat="43.65539" lon="3.14931">
        <ele>228.45</ele>
        <time>2011-04-29T06:22:32Z</time>
      </trkpt>
      <trkpt lat="43.65536" lon="3.14929">
        <ele>223.64</ele>
        <time>2011-04-29T06:22:35Z</time>
      </trkpt>
      <trkpt lat="43.65534" lon="3.14928">
        <ele>228.93</ele>
        <time>2011-04-29T06:22:36Z</time>
      </trkpt>
      <trkpt lat="43.65517" lon="3.14918">
        <ele>227.97</ele>
        <time>2011-04-29T06:22:51Z</time>
      </trkpt>
      <trkpt lat="43.65503" lon="3.14909">
        <ele>228.45</ele>
        <time>2011-04-29T06:23:04Z</time>
      </trkpt>
      <trkpt lat="43.65486" lon="3.149">
        <ele>227.97</ele>
        <time>2011-04-29T06:23:18Z</time>
      </trkpt>
      <trkpt lat="43.65469" lon="3.14893">
        <ele>227.01</ele>
        <time>2011-04-29T06:23:34Z</time>
      </trkpt>
      <trkpt lat="43.65467" lon="3.14892">
        <ele>227.01</ele>
        <time>2011-04-29T06:23:36Z</time>
      </trkpt>
      <trkpt lat="43.65463" lon="3.14891">
        <ele>228.45</ele>
        <time>2011-04-29T06:23:39Z</time>
      </trkpt>
      <trkpt lat="43.65448" lon="3.14885">
        <ele>227.97</ele>
        <time>2011-04-29T06:23:53Z</time>
      </trkpt>
      <trkpt lat="43.65441" lon="3.14885">
        <ele>227.01</ele>
        <time>2011-04-29T06:23:57Z</time>
      </trkpt>
      <trkpt lat="43.65425" lon="3.14884">
        <ele>227.01</ele>
        <time>2011-04-29T06:24:11Z</time>
      </trkpt>
      <trkpt lat="43.65411" lon="3.14888">
        <ele>226.53</ele>
        <time>2011-04-29T06:24:24Z</time>
      </trkpt>
      <trkpt lat="43.65394" lon="3.14892">
        <ele>226.53</ele>
        <time>2011-04-29T06:24:38Z</time>
      </trkpt>
      <trkpt lat="43.65376" lon="3.14899">
        <ele>226.53</ele>
        <time>2011-04-29T06:24:53Z</time>
      </trkpt>
      <trkpt lat="43.65361" lon="3.14901">
        <ele>226.53</ele>
        <time>2011-04-29T06:25:07Z</time>
      </trkpt>
      <trkpt lat="43.65344" lon="3.14903">
        <ele>226.53</ele>
        <time>2011-04-29T06:25:19Z</time>
      </trkpt>
      <trkpt lat="43.65324" lon="3.14903">
        <ele>226.05</ele>
        <time>2011-04-29T06:25:36Z</time>
      </trkpt>
      <trkpt lat="43.65304" lon="3.14913">
        <ele>226.05</ele>
        <time>2011-04-29T06:25:52Z</time>
      </trkpt>
      <trkpt lat="43.65286" lon="3.14919">
        <ele>226.05</ele>
        <time>2011-04-29T06:26:09Z</time>
      </trkpt>
      <trkpt lat="43.65269" lon="3.14921">
        <ele>226.05</ele>
        <time>2011-04-29T06:26:23Z</time>
      </trkpt>
      <trkpt lat="43.65249" lon="3.14926">
        <ele>226.05</ele>
        <time>2011-04-29T06:26:39Z</time>
      </trkpt>
      <trkpt lat="43.65244" lon="3.14927">
        <ele>226.53</ele>
        <time>2011-04-29T06:26:43Z</time>
      </trkpt>
      <trkpt lat="43.65238" lon="3.14924">
        <ele>226.05</ele>
        <time>2011-04-29T06:26:49Z</time>
      </trkpt>
      <trkpt lat="43.65234" lon="3.14921">
        <ele>226.53</ele>
        <time>2011-04-29T06:26:54Z</time>
      </trkpt>
      <trkpt lat="43.65232" lon="3.14922">
        <ele>226.53</ele>
        <time>2011-04-29T06:26:56Z</time>
      </trkpt>
      <trkpt lat="43.65211" lon="3.1493">
        <ele>226.53</ele>
        <time>2011-04-29T06:27:12Z</time>
      </trkpt>
      <trkpt lat="43.65198" lon="3.14936">
        <ele>227.01</ele>
        <time>2011-04-29T06:27:24Z</time>
      </trkpt>
      <trkpt lat="43.65191" lon="3.14939">
        <ele>227.01</ele>
        <time>2011-04-29T06:27:29Z</time>
      </trkpt>
      <trkpt lat="43.65174" lon="3.14946">
        <ele>227.01</ele>
        <time>2011-04-29T06:27:45Z</time>
      </trkpt>
      <trkpt lat="43.65173" lon="3.14942">
        <ele>227.01</ele>
        <time>2011-04-29T06:27:47Z</time>
      </trkpt>
      <trkpt lat="43.65158" lon="3.14921">
        <ele>228.45</ele>
        <time>2011-04-29T06:28:04Z</time>
      </trkpt>
      <trkpt lat="43.65145" lon="3.14905">
        <ele>229.41</ele>
        <time>2011-04-29T06:28:20Z</time>
      </trkpt>
      <trkpt lat="43.65141" lon="3.14903">
        <ele>228.93</ele>
        <time>2011-04-29T06:28:23Z</time>
      </trkpt>
      <trkpt lat="43.65135" lon="3.1489">
        <ele>229.89</ele>
        <time>2011-04-29T06:28:32Z</time>
      </trkpt>
      <trkpt lat="43.65133" lon="3.14887">
        <ele>229.89</ele>
        <time>2011-04-29T06:28:34Z</time>
      </trkpt>
      <trkpt lat="43.65129" lon="3.14881">
        <ele>229.89</ele>
        <time>2011-04-29T06:28:38Z</time>
      </trkpt>
      <trkpt lat="43.65122" lon="3.14856">
        <ele>230.85</ele>
        <time>2011-04-29T06:28:58Z</time>
      </trkpt>
      <trkpt lat="43.6512" lon="3.14848">
        <ele>230.85</ele>
        <time>2011-04-29T06:29:12Z</time>
      </trkpt>
      <trkpt lat="43.65118" lon="3.14823">
        <ele>232.3</ele>
        <time>2011-04-29T06:29:29Z</time>
      </trkpt>
      <trkpt lat="43.65117" lon="3.14811">
        <ele>232.3</ele>
        <time>2011-04-29T06:29:42Z</time>
      </trkpt>
      <trkpt lat="43.65117" lon="3.14807">
        <ele>232.78</ele>
        <time>2011-04-29T06:29:48Z</time>
      </trkpt>
      <trkpt lat="43.65117" lon="3.14784">
        <ele>232.3</ele>
        <time>2011-04-29T06:30:06Z</time>
      </trkpt>
      <trkpt lat="43.65121" lon="3.14759">
        <ele>232.78</ele>
        <time>2011-04-29T06:30:21Z</time>
      </trkpt>
      <trkpt lat="43.65123" lon="3.14735">
        <ele>233.26</ele>
        <time>2011-04-29T06:30:36Z</time>
      </trkpt>
      <trkpt lat="43.65123" lon="3.1471">
        <ele>234.22</ele>
        <time>2011-04-29T06:30:52Z</time>
      </trkpt>
      <trkpt lat="43.65119" lon="3.14686">
        <ele>235.66</ele>
        <time>2011-04-29T06:31:07Z</time>
      </trkpt>
      <trkpt lat="43.65115" lon="3.14667">
        <ele>236.14</ele>
        <time>2011-04-29T06:31:22Z</time>
      </trkpt>
      <trkpt lat="43.65111" lon="3.14639">
        <ele>237.1</ele>
        <time>2011-04-29T06:31:40Z</time>
      </trkpt>
      <trkpt lat="43.65108" lon="3.14609">
        <ele>237.58</ele>
        <time>2011-04-29T06:31:59Z</time>
      </trkpt>
      <trkpt lat="43.65106" lon="3.14587">
        <ele>238.06</ele>
        <time>2011-04-29T06:32:14Z</time>
      </trkpt>
      <trkpt lat="43.65102" lon="3.14574">
        <ele>239.51</ele>
        <time>2011-04-29T06:32:23Z</time>
      </trkpt>
      <trkpt lat="43.65092" lon="3.14549">
        <ele>240.47</ele>
        <time>2011-04-29T06:32:41Z</time>
      </trkpt>
      <trkpt lat="43.65089" lon="3.14529">
        <ele>239.02</ele>
        <time>2011-04-29T06:32:56Z</time>
      </trkpt>
      <trkpt lat="43.65085" lon="3.14511">
        <ele>240.95</ele>
        <time>2011-04-29T06:33:09Z</time>
      </trkpt>
      <trkpt lat="43.65082" lon="3.14495">
        <ele>240.47</ele>
        <time>2011-04-29T06:33:20Z</time>
      </trkpt>
      <trkpt lat="43.65078" lon="3.14483">
        <ele>239.99</ele>
        <time>2011-04-29T06:33:29Z</time>
      </trkpt>
      <trkpt lat="43.65076" lon="3.14479">
        <ele>238.06</ele>
        <time>2011-04-29T06:33:31Z</time>
      </trkpt>
      <trkpt lat="43.65075" lon="3.14475">
        <ele>242.39</ele>
        <time>2011-04-29T06:33:33Z</time>
      </trkpt>
      <trkpt lat="43.65071" lon="3.14461">
        <ele>240.95</ele>
        <time>2011-04-29T06:33:40Z</time>
      </trkpt>
      <trkpt lat="43.6507" lon="3.14458">
        <ele>236.14</ele>
        <time>2011-04-29T06:33:42Z</time>
      </trkpt>
      <trkpt lat="43.65069" lon="3.14456">
        <ele>241.91</ele>
        <time>2011-04-29T06:33:43Z</time>
      </trkpt>
      <trkpt lat="43.65069" lon="3.14455">
        <ele>245.75</ele>
        <time>2011-04-29T06:33:44Z</time>
      </trkpt>
      <trkpt lat="43.65069" lon="3.14453">
        <ele>241.91</ele>
        <time>2011-04-29T06:33:45Z</time>
      </trkpt>
      <trkpt lat="43.65068" lon="3.14452">
        <ele>241.43</ele>
        <time>2011-04-29T06:33:46Z</time>
      </trkpt>
      <trkpt lat="43.65065" lon="3.1443">
        <ele>241.91</ele>
        <time>2011-04-29T06:34:02Z</time>
      </trkpt>
      <trkpt lat="43.65064" lon="3.14399">
        <ele>242.87</ele>
        <time>2011-04-29T06:34:21Z</time>
      </trkpt>
      <trkpt lat="43.65064" lon="3.14393">
        <ele>243.35</ele>
        <time>2011-04-29T06:34:25Z</time>
      </trkpt>
      <trkpt lat="43.65063" lon="3.14387">
        <ele>243.83</ele>
        <time>2011-04-29T06:34:29Z</time>
      </trkpt>
      <trkpt lat="43.65062" lon="3.14364">
        <ele>242.39</ele>
        <time>2011-04-29T06:34:45Z</time>
      </trkpt>
      <trkpt lat="43.65062" lon="3.1434">
        <ele>244.79</ele>
        <time>2011-04-29T06:35:01Z</time>
      </trkpt>
      <trkpt lat="43.65073" lon="3.14318">
        <ele>245.27</ele>
        <time>2011-04-29T06:35:17Z</time>
      </trkpt>
      <trkpt lat="43.65074" lon="3.14314">
        <ele>243.83</ele>
        <time>2011-04-29T06:35:20Z</time>
      </trkpt>
      <trkpt lat="43.65076" lon="3.14312">
        <ele>244.79</ele>
        <time>2011-04-29T06:35:22Z</time>
      </trkpt>
      <trkpt lat="43.65088" lon="3.14293">
        <ele>246.23</ele>
        <time>2011-04-29T06:35:39Z</time>
      </trkpt>
      <trkpt lat="43.65097" lon="3.14278">
        <ele>247.2</ele>
        <time>2011-04-29T06:35:54Z</time>
      </trkpt>
      <trkpt lat="43.65105" lon="3.14262">
        <ele>249.6</ele>
        <time>2011-04-29T06:36:09Z</time>
      </trkpt>
      <trkpt lat="43.6511" lon="3.14245">
        <ele>249.6</ele>
        <time>2011-04-29T06:36:23Z</time>
      </trkpt>
      <trkpt lat="43.65112" lon="3.14221">
        <ele>251.04</ele>
        <time>2011-04-29T06:36:40Z</time>
      </trkpt>
      <trkpt lat="43.65113" lon="3.14192">
        <ele>252.96</ele>
        <time>2011-04-29T06:37:00Z</time>
      </trkpt>
      <trkpt lat="43.6511" lon="3.14172">
        <ele>253.93</ele>
        <time>2011-04-29T06:37:17Z</time>
      </trkpt>
      <trkpt lat="43.65104" lon="3.14146">
        <ele>255.37</ele>
        <time>2011-04-29T06:37:35Z</time>
      </trkpt>
      <trkpt lat="43.65098" lon="3.14127">
        <ele>255.85</ele>
        <time>2011-04-29T06:37:49Z</time>
      </trkpt>
      <trkpt lat="43.65096" lon="3.14124">
        <ele>257.29</ele>
        <time>2011-04-29T06:37:51Z</time>
      </trkpt>
      <trkpt lat="43.6509" lon="3.14103">
        <ele>258.25</ele>
        <time>2011-04-29T06:38:08Z</time>
      </trkpt>
      <trkpt lat="43.65088" lon="3.14096">
        <ele>259.69</ele>
        <time>2011-04-29T06:38:13Z</time>
      </trkpt>
      <trkpt lat="43.65081" lon="3.14077">
        <ele>259.69</ele>
        <time>2011-04-29T06:38:28Z</time>
      </trkpt>
      <trkpt lat="43.65073" lon="3.14056">
        <ele>261.62</ele>
        <time>2011-04-29T06:38:46Z</time>
      </trkpt>
      <trkpt lat="43.65072" lon="3.14054">
        <ele>260.17</ele>
        <time>2011-04-29T06:38:48Z</time>
      </trkpt>
      <trkpt lat="43.65071" lon="3.14051">
        <ele>262.1</ele>
        <time>2011-04-29T06:38:50Z</time>
      </trkpt>
      <trkpt lat="43.65067" lon="3.14042">
        <ele>262.58</ele>
        <time>2011-04-29T06:38:57Z</time>
      </trkpt>
      <trkpt lat="43.65059" lon="3.14025">
        <ele>263.54</ele>
        <time>2011-04-29T06:39:11Z</time>
      </trkpt>
      <trkpt lat="43.65051" lon="3.14006">
        <ele>264.5</ele>
        <time>2011-04-29T06:39:27Z</time>
      </trkpt>
      <trkpt lat="43.65042" lon="3.13984">
        <ele>265.46</ele>
        <time>2011-04-29T06:39:45Z</time>
      </trkpt>
      <trkpt lat="43.65035" lon="3.13959">
        <ele>266.9</ele>
        <time>2011-04-29T06:40:03Z</time>
      </trkpt>
      <trkpt lat="43.65035" lon="3.13955">
        <ele>265.94</ele>
        <time>2011-04-29T06:40:21Z</time>
      </trkpt>
      <trkpt lat="43.65035" lon="3.13955">
        <ele>266.9</ele>
        <time>2011-04-29T06:41:16Z</time>
      </trkpt>
      <trkpt lat="43.65035" lon="3.13953">
        <ele>267.86</ele>
        <time>2011-04-29T06:41:40Z</time>
      </trkpt>
      <trkpt lat="43.65035" lon="3.13953">
        <ele>266.42</ele>
        <time>2011-04-29T06:41:42Z</time>
      </trkpt>
      <trkpt lat="43.65032" lon="3.13948">
        <ele>266.9</ele>
        <time>2011-04-29T06:41:49Z</time>
      </trkpt>
      <trkpt lat="43.65029" lon="3.13925">
        <ele>268.35</ele>
        <time>2011-04-29T06:42:07Z</time>
      </trkpt>
      <trkpt lat="43.65026" lon="3.13913">
        <ele>269.79</ele>
        <time>2011-04-29T06:42:23Z</time>
      </trkpt>
      <trkpt lat="43.65026" lon="3.13912">
        <ele>261.62</ele>
        <time>2011-04-29T06:42:30Z</time>
      </trkpt>
      <trkpt lat="43.65026" lon="3.13912">
        <ele>269.31</ele>
        <time>2011-04-29T06:42:31Z</time>
      </trkpt>
      <trkpt lat="43.65026" lon="3.13909">
        <ele>269.79</ele>
        <time>2011-04-29T06:43:16Z</time>
      </trkpt>
      <trkpt lat="43.65026" lon="3.13907">
        <ele>268.35</ele>
        <time>2011-04-29T06:43:28Z</time>
      </trkpt>
      <trkpt lat="43.65024" lon="3.13902">
        <ele>268.83</ele>
        <time>2011-04-29T06:43:32Z</time>
      </trkpt>
      <trkpt lat="43.65017" lon="3.13876">
        <ele>270.75</ele>
        <time>2011-04-29T06:43:51Z</time>
      </trkpt>
      <trkpt lat="43.65011" lon="3.13856">
        <ele>271.71</ele>
        <time>2011-04-29T06:44:06Z</time>
      </trkpt>
      <trkpt lat="43.65009" lon="3.13843">
        <ele>272.19</ele>
        <time>2011-04-29T06:44:23Z</time>
      </trkpt>
      <trkpt lat="43.65005" lon="3.1383">
        <ele>273.63</ele>
        <time>2011-04-29T06:44:30Z</time>
      </trkpt>
      <trkpt lat="43.65004" lon="3.13827">
        <ele>268.83</ele>
        <time>2011-04-29T06:44:32Z</time>
      </trkpt>
      <trkpt lat="43.65004" lon="3.13826">
        <ele>272.67</ele>
        <time>2011-04-29T06:44:33Z</time>
      </trkpt>
      <trkpt lat="43.65004" lon="3.13821">
        <ele>271.71</ele>
        <time>2011-04-29T06:44:37Z</time>
      </trkpt>
      <trkpt lat="43.65001" lon="3.138">
        <ele>272.19</ele>
        <time>2011-04-29T06:44:53Z</time>
      </trkpt>
      <trkpt lat="43.64998" lon="3.13775">
        <ele>272.67</ele>
        <time>2011-04-29T06:45:09Z</time>
      </trkpt>
      <trkpt lat="43.64996" lon="3.13754">
        <ele>271.71</ele>
        <time>2011-04-29T06:45:23Z</time>
      </trkpt>
      <trkpt lat="43.64994" lon="3.13728">
        <ele>270.75</ele>
        <time>2011-04-29T06:45:39Z</time>
      </trkpt>
      <trkpt lat="43.64993" lon="3.13705">
        <ele>271.71</ele>
        <time>2011-04-29T06:45:54Z</time>
      </trkpt>
      <trkpt lat="43.64992" lon="3.13696">
        <ele>270.75</ele>
        <time>2011-04-29T06:46:00Z</time>
      </trkpt>
      <trkpt lat="43.64993" lon="3.1369">
        <ele>270.27</ele>
        <time>2011-04-29T06:46:04Z</time>
      </trkpt>
      <trkpt lat="43.64994" lon="3.13684">
        <ele>272.19</ele>
        <time>2011-04-29T06:46:08Z</time>
      </trkpt>
      <trkpt lat="43.64996" lon="3.13678">
        <ele>271.23</ele>
        <time>2011-04-29T06:46:14Z</time>
      </trkpt>
      <trkpt lat="43.65004" lon="3.13671">
        <ele>271.71</ele>
        <time>2011-04-29T06:46:22Z</time>
      </trkpt>
      <trkpt lat="43.65007" lon="3.13664">
        <ele>270.75</ele>
        <time>2011-04-29T06:46:28Z</time>
      </trkpt>
      <trkpt lat="43.65025" lon="3.13653">
        <ele>273.15</ele>
        <time>2011-04-29T06:46:47Z</time>
      </trkpt>
      <trkpt lat="43.65039" lon="3.13641">
        <ele>273.15</ele>
        <time>2011-04-29T06:47:03Z</time>
      </trkpt>
      <trkpt lat="43.6505" lon="3.13622">
        <ele>275.56</ele>
        <time>2011-04-29T06:47:18Z</time>
      </trkpt>
      <trkpt lat="43.65056" lon="3.13606">
        <ele>276.04</ele>
        <time>2011-04-29T06:47:33Z</time>
      </trkpt>
      <trkpt lat="43.65064" lon="3.13587">
        <ele>277.96</ele>
        <time>2011-04-29T06:47:49Z</time>
      </trkpt>
      <trkpt lat="43.6507" lon="3.13565">
        <ele>280.36</ele>
        <time>2011-04-29T06:48:05Z</time>
      </trkpt>
      <trkpt lat="43.65076" lon="3.13548">
        <ele>281.32</ele>
        <time>2011-04-29T06:48:21Z</time>
      </trkpt>
      <trkpt lat="43.65076" lon="3.1354">
        <ele>282.28</ele>
        <time>2011-04-29T06:48:27Z</time>
      </trkpt>
      <trkpt lat="43.65083" lon="3.13519">
        <ele>283.73</ele>
        <time>2011-04-29T06:48:43Z</time>
      </trkpt>
      <trkpt lat="43.65085" lon="3.1351">
        <ele>284.69</ele>
        <time>2011-04-29T06:48:49Z</time>
      </trkpt>
      <trkpt lat="43.65091" lon="3.1349">
        <ele>286.13</ele>
        <time>2011-04-29T06:49:06Z</time>
      </trkpt>
      <trkpt lat="43.65096" lon="3.13471">
        <ele>287.09</ele>
        <time>2011-04-29T06:49:20Z</time>
      </trkpt>
      <trkpt lat="43.65102" lon="3.13455">
        <ele>287.57</ele>
        <time>2011-04-29T06:49:35Z</time>
      </trkpt>
      <trkpt lat="43.6511" lon="3.13433">
        <ele>289.49</ele>
        <time>2011-04-29T06:49:50Z</time>
      </trkpt>
      <trkpt lat="43.6511" lon="3.13428">
        <ele>289.49</ele>
        <time>2011-04-29T06:49:52Z</time>
      </trkpt>
      <trkpt lat="43.65109" lon="3.13407">
        <ele>290.46</ele>
        <time>2011-04-29T06:50:06Z</time>
      </trkpt>
      <trkpt lat="43.65111" lon="3.13388">
        <ele>291.9</ele>
        <time>2011-04-29T06:50:20Z</time>
      </trkpt>
      <trkpt lat="43.65112" lon="3.13368">
        <ele>293.34</ele>
        <time>2011-04-29T06:50:35Z</time>
      </trkpt>
      <trkpt lat="43.65116" lon="3.13346">
        <ele>295.74</ele>
        <time>2011-04-29T06:50:53Z</time>
      </trkpt>
      <trkpt lat="43.65119" lon="3.13326">
        <ele>297.18</ele>
        <time>2011-04-29T06:51:09Z</time>
      </trkpt>
      <trkpt lat="43.65122" lon="3.13316">
        <ele>297.67</ele>
        <time>2011-04-29T06:51:17Z</time>
      </trkpt>
      <trkpt lat="43.65129" lon="3.13293">
        <ele>299.59</ele>
        <time>2011-04-29T06:51:33Z</time>
      </trkpt>
      <trkpt lat="43.65135" lon="3.13278">
        <ele>300.07</ele>
        <time>2011-04-29T06:51:47Z</time>
      </trkpt>
      <trkpt lat="43.65141" lon="3.13264">
        <ele>301.51</ele>
        <time>2011-04-29T06:52:02Z</time>
      </trkpt>
      <trkpt lat="43.6515" lon="3.13242">
        <ele>303.43</ele>
        <time>2011-04-29T06:52:18Z</time>
      </trkpt>
      <trkpt lat="43.65156" lon="3.13224">
        <ele>305.36</ele>
        <time>2011-04-29T06:52:33Z</time>
      </trkpt>
      <trkpt lat="43.65164" lon="3.13202">
        <ele>306.8</ele>
        <time>2011-04-29T06:52:52Z</time>
      </trkpt>
      <trkpt lat="43.6517" lon="3.13192">
        <ele>309.2</ele>
        <time>2011-04-29T06:53:05Z</time>
      </trkpt>
      <trkpt lat="43.6517" lon="3.13188">
        <ele>309.2</ele>
        <time>2011-04-29T06:53:08Z</time>
      </trkpt>
      <trkpt lat="43.65179" lon="3.13164">
        <ele>312.09</ele>
        <time>2011-04-29T06:53:25Z</time>
      </trkpt>
      <trkpt lat="43.65184" lon="3.13136">
        <ele>313.53</ele>
        <time>2011-04-29T06:53:42Z</time>
      </trkpt>
      <trkpt lat="43.65191" lon="3.13133">
        <ele>314.01</ele>
        <time>2011-04-29T06:53:48Z</time>
      </trkpt>
      <trkpt lat="43.65205" lon="3.13117">
        <ele>314.97</ele>
        <time>2011-04-29T06:54:04Z</time>
      </trkpt>
      <trkpt lat="43.65213" lon="3.13111">
        <ele>315.45</ele>
        <time>2011-04-29T06:54:18Z</time>
      </trkpt>
      <trkpt lat="43.65219" lon="3.13111">
        <ele>316.41</ele>
        <time>2011-04-29T06:54:43Z</time>
      </trkpt>
      <trkpt lat="43.65219" lon="3.13112">
        <ele>320.26</ele>
        <time>2011-04-29T06:54:47Z</time>
      </trkpt>
      <trkpt lat="43.65219" lon="3.13112">
        <ele>317.37</ele>
        <time>2011-04-29T06:54:48Z</time>
      </trkpt>
      <trkpt lat="43.65219" lon="3.13111">
        <ele>315.93</ele>
        <time>2011-04-29T06:54:50Z</time>
      </trkpt>
      <trkpt lat="43.65213" lon="3.13101">
        <ele>314.97</ele>
        <time>2011-04-29T06:55:03Z</time>
      </trkpt>
      <trkpt lat="43.6521" lon="3.13089">
        <ele>315.93</ele>
        <time>2011-04-29T06:55:12Z</time>
      </trkpt>
      <trkpt lat="43.65209" lon="3.13069">
        <ele>317.85</ele>
        <time>2011-04-29T06:55:28Z</time>
      </trkpt>
      <trkpt lat="43.65208" lon="3.13067">
        <ele>318.33</ele>
        <time>2011-04-29T06:55:44Z</time>
      </trkpt>
      <trkpt lat="43.65203" lon="3.13064">
        <ele>317.37</ele>
        <time>2011-04-29T06:55:52Z</time>
      </trkpt>
      <trkpt lat="43.65205" lon="3.13066">
        <ele>317.37</ele>
        <time>2011-04-29T06:56:12Z</time>
      </trkpt>
      <trkpt lat="43.65203" lon="3.13061">
        <ele>317.37</ele>
        <time>2011-04-29T06:56:20Z</time>
      </trkpt>
      <trkpt lat="43.65198" lon="3.13054">
        <ele>318.33</ele>
        <time>2011-04-29T06:56:38Z</time>
      </trkpt>
      <trkpt lat="43.65188" lon="3.13043">
        <ele>320.74</ele>
        <time>2011-04-29T06:56:53Z</time>
      </trkpt>
      <trkpt lat="43.65185" lon="3.13038">
        <ele>320.26</ele>
        <time>2011-04-29T06:57:17Z</time>
      </trkpt>
      <trkpt lat="43.65179" lon="3.13031">
        <ele>321.7</ele>
        <time>2011-04-29T06:57:33Z</time>
      </trkpt>
      <trkpt lat="43.6517" lon="3.1302">
        <ele>324.1</ele>
        <time>2011-04-29T06:57:50Z</time>
      </trkpt>
      <trkpt lat="43.6517" lon="3.13019">
        <ele>324.58</ele>
        <time>2011-04-29T06:57:53Z</time>
      </trkpt>
      <trkpt lat="43.65167" lon="3.13019">
        <ele>325.06</ele>
        <time>2011-04-29T06:58:06Z</time>
      </trkpt>
      <trkpt lat="43.65166" lon="3.13021">
        <ele>326.02</ele>
        <time>2011-04-29T06:58:33Z</time>
      </trkpt>
      <trkpt lat="43.65161" lon="3.13008">
        <ele>326.99</ele>
        <time>2011-04-29T06:58:47Z</time>
      </trkpt>
      <trkpt lat="43.65155" lon="3.13006">
        <ele>329.39</ele>
        <time>2011-04-29T06:59:01Z</time>
      </trkpt>
      <trkpt lat="43.65155" lon="3.13006">
        <ele>335.16</ele>
        <time>2011-04-29T06:59:06Z</time>
      </trkpt>
      <trkpt lat="43.65155" lon="3.13006">
        <ele>330.35</ele>
        <time>2011-04-29T06:59:07Z</time>
      </trkpt>
      <trkpt lat="43.65153" lon="3.13005">
        <ele>334.2</ele>
        <time>2011-04-29T06:59:13Z</time>
      </trkpt>
      <trkpt lat="43.65153" lon="3.13004">
        <ele>330.35</ele>
        <time>2011-04-29T06:59:14Z</time>
      </trkpt>
      <trkpt lat="43.6515" lon="3.12998">
        <ele>331.31</ele>
        <time>2011-04-29T06:59:23Z</time>
      </trkpt>
      <trkpt lat="43.65148" lon="3.12993">
        <ele>331.31</ele>
        <time>2011-04-29T06:59:28Z</time>
      </trkpt>
      <trkpt lat="43.65142" lon="3.12968">
        <ele>332.75</ele>
        <time>2011-04-29T06:59:46Z</time>
      </trkpt>
      <trkpt lat="43.65142" lon="3.12967">
        <ele>332.75</ele>
        <time>2011-04-29T06:59:47Z</time>
      </trkpt>
      <trkpt lat="43.65145" lon="3.12946">
        <ele>334.68</ele>
        <time>2011-04-29T07:00:05Z</time>
      </trkpt>
      <trkpt lat="43.6514" lon="3.12929">
        <ele>337.08</ele>
        <time>2011-04-29T07:00:23Z</time>
      </trkpt>
      <trkpt lat="43.65137" lon="3.12918">
        <ele>339</ele>
        <time>2011-04-29T07:00:39Z</time>
      </trkpt>
      <trkpt lat="43.65133" lon="3.12915">
        <ele>340.44</ele>
        <time>2011-04-29T07:00:56Z</time>
      </trkpt>
      <trkpt lat="43.65129" lon="3.12902">
        <ele>343.33</ele>
        <time>2011-04-29T07:01:13Z</time>
      </trkpt>
      <trkpt lat="43.65122" lon="3.12902">
        <ele>345.25</ele>
        <time>2011-04-29T07:01:28Z</time>
      </trkpt>
      <trkpt lat="43.65109" lon="3.12904">
        <ele>348.62</ele>
        <time>2011-04-29T07:01:46Z</time>
      </trkpt>
      <trkpt lat="43.65099" lon="3.12899">
        <ele>351.5</ele>
        <time>2011-04-29T07:02:02Z</time>
      </trkpt>
      <trkpt lat="43.65098" lon="3.12894">
        <ele>351.98</ele>
        <time>2011-04-29T07:02:09Z</time>
      </trkpt>
      <trkpt lat="43.651" lon="3.12881">
        <ele>355.83</ele>
        <time>2011-04-29T07:02:24Z</time>
      </trkpt>
      <trkpt lat="43.65102" lon="3.12873">
        <ele>355.34</ele>
        <time>2011-04-29T07:02:37Z</time>
      </trkpt>
      <trkpt lat="43.65101" lon="3.1287">
        <ele>355.34</ele>
        <time>2011-04-29T07:02:47Z</time>
      </trkpt>
      <trkpt lat="43.65103" lon="3.12872">
        <ele>354.86</ele>
        <time>2011-04-29T07:02:59Z</time>
      </trkpt>
      <trkpt lat="43.65094" lon="3.12878">
        <ele>354.38</ele>
        <time>2011-04-29T07:03:07Z</time>
      </trkpt>
      <trkpt lat="43.65076" lon="3.12874">
        <ele>356.31</ele>
        <time>2011-04-29T07:03:23Z</time>
      </trkpt>
      <trkpt lat="43.65063" lon="3.12868">
        <ele>356.79</ele>
        <time>2011-04-29T07:03:37Z</time>
      </trkpt>
      <trkpt lat="43.65063" lon="3.12865">
        <ele>357.75</ele>
        <time>2011-04-29T07:03:55Z</time>
      </trkpt>
      <trkpt lat="43.65063" lon="3.12865">
        <ele>357.75</ele>
        <time>2011-04-29T07:03:56Z</time>
      </trkpt>
      <trkpt lat="43.65066" lon="3.12861">
        <ele>358.23</ele>
        <time>2011-04-29T07:04:07Z</time>
      </trkpt>
      <trkpt lat="43.65075" lon="3.12852">
        <ele>358.71</ele>
        <time>2011-04-29T07:04:26Z</time>
      </trkpt>
      <trkpt lat="43.65072" lon="3.12852">
        <ele>358.23</ele>
        <time>2011-04-29T07:04:43Z</time>
      </trkpt>
      <trkpt lat="43.65067" lon="3.12857">
        <ele>358.23</ele>
        <time>2011-04-29T07:05:00Z</time>
      </trkpt>
      <trkpt lat="43.65063" lon="3.12865">
        <ele>357.27</ele>
        <time>2011-04-29T07:05:14Z</time>
      </trkpt>
      <trkpt lat="43.65063" lon="3.12865">
        <ele>355.34</ele>
        <time>2011-04-29T07:05:35Z</time>
      </trkpt>
      <trkpt lat="43.65063" lon="3.12865">
        <ele>358.23</ele>
        <time>2011-04-29T07:05:38Z</time>
      </trkpt>
      <trkpt lat="43.65063" lon="3.12865">
        <ele>355.34</ele>
        <time>2011-04-29T07:05:56Z</time>
      </trkpt>
      <trkpt lat="43.65063" lon="3.12865">
        <ele>356.31</ele>
        <time>2011-04-29T07:06:02Z</time>
      </trkpt>
      <trkpt lat="43.65063" lon="3.12865">
        <ele>357.27</ele>
        <time>2011-04-29T07:06:04Z</time>
      </trkpt>
      <trkpt lat="43.65063" lon="3.12866">
        <ele>356.79</ele>
        <time>2011-04-29T07:06:20Z</time>
      </trkpt>
      <trkpt lat="43.65063" lon="3.12868">
        <ele>356.79</ele>
        <time>2011-04-29T07:06:35Z</time>
      </trkpt>
      <trkpt lat="43.65062" lon="3.12868">
        <ele>356.31</ele>
        <time>2011-04-29T07:06:37Z</time>
      </trkpt>
      <trkpt lat="43.65051" lon="3.12866">
        <ele>357.27</ele>
        <time>2011-04-29T07:06:47Z</time>
      </trkpt>
      <trkpt lat="43.65037" lon="3.12853">
        <ele>359.19</ele>
        <time>2011-04-29T07:07:06Z</time>
      </trkpt>
      <trkpt lat="43.65037" lon="3.12852">
        <ele>359.19</ele>
        <time>2011-04-29T07:07:23Z</time>
      </trkpt>
      <trkpt lat="43.65021" lon="3.12841">
        <ele>359.19</ele>
        <time>2011-04-29T07:07:40Z</time>
      </trkpt>
      <trkpt lat="43.65005" lon="3.12833">
        <ele>361.11</ele>
        <time>2011-04-29T07:07:56Z</time>
      </trkpt>
      <trkpt lat="43.64998" lon="3.12829">
        <ele>361.59</ele>
        <time>2011-04-29T07:08:03Z</time>
      </trkpt>
      <trkpt lat="43.6499" lon="3.12824">
        <ele>362.07</ele>
        <time>2011-04-29T07:08:10Z</time>
      </trkpt>
      <trkpt lat="43.64973" lon="3.12813">
        <ele>362.55</ele>
        <time>2011-04-29T07:08:27Z</time>
      </trkpt>
      <trkpt lat="43.64957" lon="3.12803">
        <ele>361.11</ele>
        <time>2011-04-29T07:08:43Z</time>
      </trkpt>
      <trkpt lat="43.64955" lon="3.12801">
        <ele>362.55</ele>
        <time>2011-04-29T07:08:45Z</time>
      </trkpt>
      <trkpt lat="43.64938" lon="3.12788">
        <ele>362.55</ele>
        <time>2011-04-29T07:09:01Z</time>
      </trkpt>
      <trkpt lat="43.64926" lon="3.12774">
        <ele>363.52</ele>
        <time>2011-04-29T07:09:17Z</time>
      </trkpt>
      <trkpt lat="43.64912" lon="3.12754">
        <ele>363.52</ele>
        <time>2011-04-29T07:09:35Z</time>
      </trkpt>
      <trkpt lat="43.64898" lon="3.12741">
        <ele>364.48</ele>
        <time>2011-04-29T07:09:51Z</time>
      </trkpt>
      <trkpt lat="43.64893" lon="3.12737">
        <ele>366.4</ele>
        <time>2011-04-29T07:09:56Z</time>
      </trkpt>
      <trkpt lat="43.64886" lon="3.12734">
        <ele>366.4</ele>
        <time>2011-04-29T07:10:05Z</time>
      </trkpt>
      <trkpt lat="43.6487" lon="3.1273">
        <ele>367.36</ele>
        <time>2011-04-29T07:10:21Z</time>
      </trkpt>
      <trkpt lat="43.6487" lon="3.12729">
        <ele>367.36</ele>
        <time>2011-04-29T07:10:22Z</time>
      </trkpt>
      <trkpt lat="43.64854" lon="3.12722">
        <ele>369.28</ele>
        <time>2011-04-29T07:10:37Z</time>
      </trkpt>
      <trkpt lat="43.64842" lon="3.12713">
        <ele>371.21</ele>
        <time>2011-04-29T07:10:50Z</time>
      </trkpt>
      <trkpt lat="43.64826" lon="3.12703">
        <ele>373.61</ele>
        <time>2011-04-29T07:11:07Z</time>
      </trkpt>
      <trkpt lat="43.6482" lon="3.12699">
        <ele>373.61</ele>
        <time>2011-04-29T07:11:13Z</time>
      </trkpt>
      <trkpt lat="43.64809" lon="3.12688">
        <ele>375.05</ele>
        <time>2011-04-29T07:11:26Z</time>
      </trkpt>
      <trkpt lat="43.64797" lon="3.12673">
        <ele>375.53</ele>
        <time>2011-04-29T07:11:42Z</time>
      </trkpt>
      <trkpt lat="43.64795" lon="3.12671">
        <ele>376.49</ele>
        <time>2011-04-29T07:11:44Z</time>
      </trkpt>
      <trkpt lat="43.64791" lon="3.12665">
        <ele>376.97</ele>
        <time>2011-04-29T07:11:50Z</time>
      </trkpt>
      <trkpt lat="43.64776" lon="3.12649">
        <ele>376.97</ele>
        <time>2011-04-29T07:12:06Z</time>
      </trkpt>
      <trkpt lat="43.64763" lon="3.12634">
        <ele>377.94</ele>
        <time>2011-04-29T07:12:22Z</time>
      </trkpt>
      <trkpt lat="43.64748" lon="3.12619">
        <ele>378.42</ele>
        <time>2011-04-29T07:12:39Z</time>
      </trkpt>
      <trkpt lat="43.6474" lon="3.12612">
        <ele>379.38</ele>
        <time>2011-04-29T07:12:47Z</time>
      </trkpt>
      <trkpt lat="43.64737" lon="3.12608">
        <ele>378.42</ele>
        <time>2011-04-29T07:12:51Z</time>
      </trkpt>
      <trkpt lat="43.64735" lon="3.12606">
        <ele>379.86</ele>
        <time>2011-04-29T07:12:53Z</time>
      </trkpt>
      <trkpt lat="43.6472" lon="3.12591">
        <ele>379.38</ele>
        <time>2011-04-29T07:13:10Z</time>
      </trkpt>
      <trkpt lat="43.6471" lon="3.12581">
        <ele>379.38</ele>
        <time>2011-04-29T07:13:21Z</time>
      </trkpt>
      <trkpt lat="43.64693" lon="3.12567">
        <ele>381.3</ele>
        <time>2011-04-29T07:13:38Z</time>
      </trkpt>
      <trkpt lat="43.64674" lon="3.12556">
        <ele>382.26</ele>
        <time>2011-04-29T07:13:56Z</time>
      </trkpt>
      <trkpt lat="43.64668" lon="3.12552">
        <ele>382.74</ele>
        <time>2011-04-29T07:14:02Z</time>
      </trkpt>
      <trkpt lat="43.64652" lon="3.12544">
        <ele>384.18</ele>
        <time>2011-04-29T07:14:18Z</time>
      </trkpt>
      <trkpt lat="43.64636" lon="3.12532">
        <ele>383.7</ele>
        <time>2011-04-29T07:14:35Z</time>
      </trkpt>
      <trkpt lat="43.64618" lon="3.12517">
        <ele>385.15</ele>
        <time>2011-04-29T07:14:54Z</time>
      </trkpt>
      <trkpt lat="43.64599" lon="3.12503">
        <ele>386.11</ele>
        <time>2011-04-29T07:15:13Z</time>
      </trkpt>
      <trkpt lat="43.64581" lon="3.12492">
        <ele>387.55</ele>
        <time>2011-04-29T07:15:31Z</time>
      </trkpt>
      <trkpt lat="43.64566" lon="3.12483">
        <ele>387.55</ele>
        <time>2011-04-29T07:15:47Z</time>
      </trkpt>
      <trkpt lat="43.64548" lon="3.12474">
        <ele>389.47</ele>
        <time>2011-04-29T07:16:04Z</time>
      </trkpt>
      <trkpt lat="43.64532" lon="3.12468">
        <ele>389.95</ele>
        <time>2011-04-29T07:16:19Z</time>
      </trkpt>
      <trkpt lat="43.64515" lon="3.12478">
        <ele>390.43</ele>
        <time>2011-04-29T07:16:36Z</time>
      </trkpt>
      <trkpt lat="43.64509" lon="3.12476">
        <ele>389.95</ele>
        <time>2011-04-29T07:16:43Z</time>
      </trkpt>
      <trkpt lat="43.64495" lon="3.12457">
        <ele>386.59</ele>
        <time>2011-04-29T07:17:00Z</time>
      </trkpt>
      <trkpt lat="43.64489" lon="3.12446">
        <ele>385.15</ele>
        <time>2011-04-29T07:17:09Z</time>
      </trkpt>
      <trkpt lat="43.64481" lon="3.1244">
        <ele>384.18</ele>
        <time>2011-04-29T07:17:17Z</time>
      </trkpt>
      <trkpt lat="43.64465" lon="3.12436">
        <ele>381.3</ele>
        <time>2011-04-29T07:17:31Z</time>
      </trkpt>
      <trkpt lat="43.64454" lon="3.12434">
        <ele>379.86</ele>
        <time>2011-04-29T07:17:41Z</time>
      </trkpt>
      <trkpt lat="43.64438" lon="3.12422">
        <ele>376.97</ele>
        <time>2011-04-29T07:17:56Z</time>
      </trkpt>
      <trkpt lat="43.64431" lon="3.12405">
        <ele>374.09</ele>
        <time>2011-04-29T07:18:10Z</time>
      </trkpt>
      <trkpt lat="43.64424" lon="3.12385">
        <ele>371.69</ele>
        <time>2011-04-29T07:18:24Z</time>
      </trkpt>
      <trkpt lat="43.64421" lon="3.12374">
        <ele>371.69</ele>
        <time>2011-04-29T07:18:32Z</time>
      </trkpt>
      <trkpt lat="43.64422" lon="3.12369">
        <ele>370.24</ele>
        <time>2011-04-29T07:18:35Z</time>
      </trkpt>
      <trkpt lat="43.64422" lon="3.12365">
        <ele>370.73</ele>
        <time>2011-04-29T07:18:37Z</time>
      </trkpt>
      <trkpt lat="43.6442" lon="3.12359">
        <ele>369.76</ele>
        <time>2011-04-29T07:18:42Z</time>
      </trkpt>
      <trkpt lat="43.6442" lon="3.12355">
        <ele>368.8</ele>
        <time>2011-04-29T07:18:44Z</time>
      </trkpt>
      <trkpt lat="43.64419" lon="3.12347">
        <ele>368.8</ele>
        <time>2011-04-29T07:18:49Z</time>
      </trkpt>
      <trkpt lat="43.64418" lon="3.1234">
        <ele>368.32</ele>
        <time>2011-04-29T07:18:54Z</time>
      </trkpt>
      <trkpt lat="43.6442" lon="3.12325">
        <ele>367.84</ele>
        <time>2011-04-29T07:19:04Z</time>
      </trkpt>
      <trkpt lat="43.64421" lon="3.12317">
        <ele>364.96</ele>
        <time>2011-04-29T07:19:09Z</time>
      </trkpt>
      <trkpt lat="43.64425" lon="3.12293">
        <ele>364</ele>
        <time>2011-04-29T07:19:23Z</time>
      </trkpt>
      <trkpt lat="43.64427" lon="3.12277">
        <ele>360.63</ele>
        <time>2011-04-29T07:19:34Z</time>
      </trkpt>
      <trkpt lat="43.6443" lon="3.12254">
        <ele>359.67</ele>
        <time>2011-04-29T07:19:49Z</time>
      </trkpt>
      <trkpt lat="43.64433" lon="3.12231">
        <ele>356.31</ele>
        <time>2011-04-29T07:20:04Z</time>
      </trkpt>
      <trkpt lat="43.64436" lon="3.12205">
        <ele>354.86</ele>
        <time>2011-04-29T07:20:21Z</time>
      </trkpt>
      <trkpt lat="43.64437" lon="3.1219">
        <ele>351.98</ele>
        <time>2011-04-29T07:20:31Z</time>
      </trkpt>
      <trkpt lat="43.64445" lon="3.12165">
        <ele>350.54</ele>
        <time>2011-04-29T07:20:47Z</time>
      </trkpt>
      <trkpt lat="43.64446" lon="3.12161">
        <ele>349.1</ele>
        <time>2011-04-29T07:20:50Z</time>
      </trkpt>
      <trkpt lat="43.64443" lon="3.12142">
        <ele>346.21</ele>
        <time>2011-04-29T07:21:03Z</time>
      </trkpt>
      <trkpt lat="43.64443" lon="3.12136">
        <ele>345.73</ele>
        <time>2011-04-29T07:21:08Z</time>
      </trkpt>
      <trkpt lat="43.64445" lon="3.12118">
        <ele>345.25</ele>
        <time>2011-04-29T07:21:19Z</time>
      </trkpt>
      <trkpt lat="43.64451" lon="3.12099">
        <ele>344.29</ele>
        <time>2011-04-29T07:21:32Z</time>
      </trkpt>
      <trkpt lat="43.64451" lon="3.12098">
        <ele>344.29</ele>
        <time>2011-04-29T07:21:33Z</time>
      </trkpt>
      <trkpt lat="43.64455" lon="3.12087">
        <ele>340.92</ele>
        <time>2011-04-29T07:21:40Z</time>
      </trkpt>
      <trkpt lat="43.64456" lon="3.12085">
        <ele>341.89</ele>
        <time>2011-04-29T07:21:41Z</time>
      </trkpt>
      <trkpt lat="43.64466" lon="3.12069">
        <ele>339.96</ele>
        <time>2011-04-29T07:21:55Z</time>
      </trkpt>
      <trkpt lat="43.64474" lon="3.12051">
        <ele>338.52</ele>
        <time>2011-04-29T07:22:08Z</time>
      </trkpt>
      <trkpt lat="43.64475" lon="3.12047">
        <ele>337.56</ele>
        <time>2011-04-29T07:22:10Z</time>
      </trkpt>
      <trkpt lat="43.64478" lon="3.12041">
        <ele>337.56</ele>
        <time>2011-04-29T07:22:15Z</time>
      </trkpt>
      <trkpt lat="43.64483" lon="3.12024">
        <ele>334.68</ele>
        <time>2011-04-29T07:22:29Z</time>
      </trkpt>
      <trkpt lat="43.64489" lon="3.11997">
        <ele>333.23</ele>
        <time>2011-04-29T07:22:45Z</time>
      </trkpt>
      <trkpt lat="43.6449" lon="3.11991">
        <ele>332.27</ele>
        <time>2011-04-29T07:22:50Z</time>
      </trkpt>
      <trkpt lat="43.64492" lon="3.11967">
        <ele>329.39</ele>
        <time>2011-04-29T07:23:07Z</time>
      </trkpt>
      <trkpt lat="43.64491" lon="3.11943">
        <ele>326.5</ele>
        <time>2011-04-29T07:23:23Z</time>
      </trkpt>
      <trkpt lat="43.6449" lon="3.11916">
        <ele>325.06</ele>
        <time>2011-04-29T07:23:40Z</time>
      </trkpt>
      <trkpt lat="43.6449" lon="3.11912">
        <ele>323.62</ele>
        <time>2011-04-29T07:23:43Z</time>
      </trkpt>
      <trkpt lat="43.64491" lon="3.11891">
        <ele>321.22</ele>
        <time>2011-04-29T07:23:58Z</time>
      </trkpt>
      <trkpt lat="43.6449" lon="3.11874">
        <ele>319.78</ele>
        <time>2011-04-29T07:24:08Z</time>
      </trkpt>
      <trkpt lat="43.6449" lon="3.11849">
        <ele>316.89</ele>
        <time>2011-04-29T07:24:23Z</time>
      </trkpt>
      <trkpt lat="43.64487" lon="3.11821">
        <ele>314.01</ele>
        <time>2011-04-29T07:24:43Z</time>
      </trkpt>
      <trkpt lat="43.64483" lon="3.11803">
        <ele>306.32</ele>
        <time>2011-04-29T07:24:54Z</time>
      </trkpt>
      <trkpt lat="43.64483" lon="3.11802">
        <ele>314.49</ele>
        <time>2011-04-29T07:24:55Z</time>
      </trkpt>
      <trkpt lat="43.64481" lon="3.11796">
        <ele>308.72</ele>
        <time>2011-04-29T07:24:59Z</time>
      </trkpt>
      <trkpt lat="43.64481" lon="3.11794">
        <ele>314.01</ele>
        <time>2011-04-29T07:25:00Z</time>
      </trkpt>
      <trkpt lat="43.64481" lon="3.11793">
        <ele>304.39</ele>
        <time>2011-04-29T07:25:01Z</time>
      </trkpt>
      <trkpt lat="43.6448" lon="3.11791">
        <ele>312.09</ele>
        <time>2011-04-29T07:25:02Z</time>
      </trkpt>
      <trkpt lat="43.64478" lon="3.11783">
        <ele>310.64</ele>
        <time>2011-04-29T07:25:09Z</time>
      </trkpt>
      <trkpt lat="43.64475" lon="3.11779">
        <ele>314.01</ele>
        <time>2011-04-29T07:25:13Z</time>
      </trkpt>
      <trkpt lat="43.64472" lon="3.11771">
        <ele>310.64</ele>
        <time>2011-04-29T07:25:19Z</time>
      </trkpt>
      <trkpt lat="43.64472" lon="3.1177">
        <ele>311.12</ele>
        <time>2011-04-29T07:25:20Z</time>
      </trkpt>
      <trkpt lat="43.6447" lon="3.11758">
        <ele>310.64</ele>
        <time>2011-04-29T07:25:36Z</time>
      </trkpt>
      <trkpt lat="43.6447" lon="3.11758">
        <ele>306.32</ele>
        <time>2011-04-29T07:25:45Z</time>
      </trkpt>
      <trkpt lat="43.6447" lon="3.11758">
        <ele>306.32</ele>
        <time>2011-04-29T07:25:46Z</time>
      </trkpt>
      <trkpt lat="43.64471" lon="3.11758">
        <ele>310.64</ele>
        <time>2011-04-29T07:25:47Z</time>
      </trkpt>
      <trkpt lat="43.64471" lon="3.11758">
        <ele>310.16</ele>
        <time>2011-04-29T07:25:48Z</time>
      </trkpt>
      <trkpt lat="43.64469" lon="3.11754">
        <ele>309.2</ele>
        <time>2011-04-29T07:26:11Z</time>
      </trkpt>
      <trkpt lat="43.64468" lon="3.1175">
        <ele>308.72</ele>
        <time>2011-04-29T07:26:14Z</time>
      </trkpt>
      <trkpt lat="43.64466" lon="3.11741">
        <ele>307.76</ele>
        <time>2011-04-29T07:26:19Z</time>
      </trkpt>
      <trkpt lat="43.6446" lon="3.11719">
        <ele>305.84</ele>
        <time>2011-04-29T07:26:34Z</time>
      </trkpt>
      <trkpt lat="43.64459" lon="3.11712">
        <ele>305.36</ele>
        <time>2011-04-29T07:26:38Z</time>
      </trkpt>
      <trkpt lat="43.64455" lon="3.11705">
        <ele>304.88</ele>
        <time>2011-04-29T07:26:42Z</time>
      </trkpt>
      <trkpt lat="43.64452" lon="3.11698">
        <ele>303.91</ele>
        <time>2011-04-29T07:26:48Z</time>
      </trkpt>
      <trkpt lat="43.64441" lon="3.1168">
        <ele>301.99</ele>
        <time>2011-04-29T07:27:05Z</time>
      </trkpt>
      <trkpt lat="43.64437" lon="3.11671">
        <ele>301.03</ele>
        <time>2011-04-29T07:27:11Z</time>
      </trkpt>
      <trkpt lat="43.64431" lon="3.11653">
        <ele>299.59</ele>
        <time>2011-04-29T07:27:26Z</time>
      </trkpt>
      <trkpt lat="43.64424" lon="3.11635">
        <ele>298.63</ele>
        <time>2011-04-29T07:27:42Z</time>
      </trkpt>
      <trkpt lat="43.64413" lon="3.11617">
        <ele>297.18</ele>
        <time>2011-04-29T07:27:59Z</time>
      </trkpt>
      <trkpt lat="43.64401" lon="3.11598">
        <ele>294.78</ele>
        <time>2011-04-29T07:28:17Z</time>
      </trkpt>
      <trkpt lat="43.64397" lon="3.11577">
        <ele>292.86</ele>
        <time>2011-04-29T07:28:34Z</time>
      </trkpt>
      <trkpt lat="43.64392" lon="3.11556">
        <ele>290.46</ele>
        <time>2011-04-29T07:28:47Z</time>
      </trkpt>
      <trkpt lat="43.64391" lon="3.11552">
        <ele>291.42</ele>
        <time>2011-04-29T07:28:50Z</time>
      </trkpt>
      <trkpt lat="43.64388" lon="3.11537">
        <ele>289.01</ele>
        <time>2011-04-29T07:29:00Z</time>
      </trkpt>
      <trkpt lat="43.64379" lon="3.11513">
        <ele>287.57</ele>
        <time>2011-04-29T07:29:18Z</time>
      </trkpt>
      <trkpt lat="43.64367" lon="3.11495">
        <ele>286.61</ele>
        <time>2011-04-29T07:29:34Z</time>
      </trkpt>
      <trkpt lat="43.64353" lon="3.11479">
        <ele>285.65</ele>
        <time>2011-04-29T07:29:51Z</time>
      </trkpt>
      <trkpt lat="43.64338" lon="3.11468">
        <ele>286.61</ele>
        <time>2011-04-29T07:30:08Z</time>
      </trkpt>
      <trkpt lat="43.64315" lon="3.11461">
        <ele>287.09</ele>
        <time>2011-04-29T07:30:26Z</time>
      </trkpt>
      <trkpt lat="43.64295" lon="3.11454">
        <ele>288.05</ele>
        <time>2011-04-29T07:30:47Z</time>
      </trkpt>
      <trkpt lat="43.64274" lon="3.11438">
        <ele>286.13</ele>
        <time>2011-04-29T07:31:10Z</time>
      </trkpt>
      <trkpt lat="43.6426" lon="3.11425">
        <ele>283.25</ele>
        <time>2011-04-29T07:31:28Z</time>
      </trkpt>
      <trkpt lat="43.64235" lon="3.11416">
        <ele>280.36</ele>
        <time>2011-04-29T07:31:48Z</time>
      </trkpt>
      <trkpt lat="43.64218" lon="3.11411">
        <ele>277.96</ele>
        <time>2011-04-29T07:32:07Z</time>
      </trkpt>
      <trkpt lat="43.64208" lon="3.11406">
        <ele>275.56</ele>
        <time>2011-04-29T07:32:17Z</time>
      </trkpt>
      <trkpt lat="43.64206" lon="3.11405">
        <ele>274.11</ele>
        <time>2011-04-29T07:32:19Z</time>
      </trkpt>
      <trkpt lat="43.64204" lon="3.11403">
        <ele>275.07</ele>
        <time>2011-04-29T07:32:22Z</time>
      </trkpt>
      <trkpt lat="43.64196" lon="3.11397">
        <ele>273.15</ele>
        <time>2011-04-29T07:32:30Z</time>
      </trkpt>
      <trkpt lat="43.64178" lon="3.11386">
        <ele>270.27</ele>
        <time>2011-04-29T07:32:46Z</time>
      </trkpt>
      <trkpt lat="43.64161" lon="3.11379">
        <ele>266.42</ele>
        <time>2011-04-29T07:33:03Z</time>
      </trkpt>
      <trkpt lat="43.64141" lon="3.11373">
        <ele>263.06</ele>
        <time>2011-04-29T07:33:22Z</time>
      </trkpt>
      <trkpt lat="43.64128" lon="3.11371">
        <ele>260.65</ele>
        <time>2011-04-29T07:33:35Z</time>
      </trkpt>
      <trkpt lat="43.64121" lon="3.11369">
        <ele>259.69</ele>
        <time>2011-04-29T07:33:41Z</time>
      </trkpt>
      <trkpt lat="43.64111" lon="3.11365">
        <ele>252</ele>
        <time>2011-04-29T07:33:53Z</time>
      </trkpt>
      <trkpt lat="43.64111" lon="3.11365">
        <ele>259.21</ele>
        <time>2011-04-29T07:33:54Z</time>
      </trkpt>
      <trkpt lat="43.64111" lon="3.11365">
        <ele>261.62</ele>
        <time>2011-04-29T07:33:57Z</time>
      </trkpt>
      <trkpt lat="43.64111" lon="3.11365">
        <ele>255.85</ele>
        <time>2011-04-29T07:33:59Z</time>
      </trkpt>
      <trkpt lat="43.64111" lon="3.11365">
        <ele>259.21</ele>
        <time>2011-04-29T07:34:00Z</time>
      </trkpt>
      <trkpt lat="43.6411" lon="3.11365">
        <ele>247.2</ele>
        <time>2011-04-29T07:34:03Z</time>
      </trkpt>
      <trkpt lat="43.6411" lon="3.11365">
        <ele>261.14</ele>
        <time>2011-04-29T07:34:04Z</time>
      </trkpt>
      <trkpt lat="43.6411" lon="3.11365">
        <ele>256.33</ele>
        <time>2011-04-29T07:34:10Z</time>
      </trkpt>
      <trkpt lat="43.6411" lon="3.11365">
        <ele>259.21</ele>
        <time>2011-04-29T07:34:12Z</time>
      </trkpt>
      <trkpt lat="43.6411" lon="3.11365">
        <ele>258.73</ele>
        <time>2011-04-29T07:34:13Z</time>
      </trkpt>
      <trkpt lat="43.64109" lon="3.11367">
        <ele>258.73</ele>
        <time>2011-04-29T07:34:24Z</time>
      </trkpt>
      <trkpt lat="43.64107" lon="3.11368">
        <ele>251.52</ele>
        <time>2011-04-29T07:34:34Z</time>
      </trkpt>
      <trkpt lat="43.64106" lon="3.11369">
        <ele>259.69</ele>
        <time>2011-04-29T07:34:35Z</time>
      </trkpt>
      <trkpt lat="43.64106" lon="3.1137">
        <ele>259.69</ele>
        <time>2011-04-29T07:34:36Z</time>
      </trkpt>
      <trkpt lat="43.64093" lon="3.11383">
        <ele>261.14</ele>
        <time>2011-04-29T07:34:52Z</time>
      </trkpt>
      <trkpt lat="43.6408" lon="3.11397">
        <ele>264.02</ele>
        <time>2011-04-29T07:35:10Z</time>
      </trkpt>
      <trkpt lat="43.64067" lon="3.11411">
        <ele>264.5</ele>
        <time>2011-04-29T07:35:26Z</time>
      </trkpt>
      <trkpt lat="43.64066" lon="3.11412">
        <ele>269.79</ele>
        <time>2011-04-29T07:35:27Z</time>
      </trkpt>
      <trkpt lat="43.64065" lon="3.11413">
        <ele>266.42</ele>
        <time>2011-04-29T07:35:28Z</time>
      </trkpt>
      <trkpt lat="43.64064" lon="3.11413">
        <ele>269.79</ele>
        <time>2011-04-29T07:35:29Z</time>
      </trkpt>
      <trkpt lat="43.64063" lon="3.11414">
        <ele>275.56</ele>
        <time>2011-04-29T07:35:30Z</time>
      </trkpt>
      <trkpt lat="43.64063" lon="3.11415">
        <ele>267.38</ele>
        <time>2011-04-29T07:35:31Z</time>
      </trkpt>
      <trkpt lat="43.64062" lon="3.11415">
        <ele>243.83</ele>
        <time>2011-04-29T07:35:32Z</time>
      </trkpt>
      <trkpt lat="43.64061" lon="3.11416">
        <ele>269.79</ele>
        <time>2011-04-29T07:35:33Z</time>
      </trkpt>
      <trkpt lat="43.6406" lon="3.11417">
        <ele>259.21</ele>
        <time>2011-04-29T07:35:35Z</time>
      </trkpt>
      <trkpt lat="43.64058" lon="3.11419">
        <ele>269.31</ele>
        <time>2011-04-29T07:35:37Z</time>
      </trkpt>
      <trkpt lat="43.64056" lon="3.11421">
        <ele>264.02</ele>
        <time>2011-04-29T07:35:39Z</time>
      </trkpt>
      <trkpt lat="43.64055" lon="3.11422">
        <ele>267.86</ele>
        <time>2011-04-29T07:35:40Z</time>
      </trkpt>
      <trkpt lat="43.64045" lon="3.11437">
        <ele>267.38</ele>
        <time>2011-04-29T07:35:56Z</time>
      </trkpt>
      <trkpt lat="43.64042" lon="3.11438">
        <ele>267.86</ele>
        <time>2011-04-29T07:36:11Z</time>
      </trkpt>
      <trkpt lat="43.64032" lon="3.11446">
        <ele>268.35</ele>
        <time>2011-04-29T07:36:27Z</time>
      </trkpt>
      <trkpt lat="43.6403" lon="3.11446">
        <ele>268.35</ele>
        <time>2011-04-29T07:36:30Z</time>
      </trkpt>
      <trkpt lat="43.64014" lon="3.11448">
        <ele>270.27</ele>
        <time>2011-04-29T07:36:47Z</time>
      </trkpt>
      <trkpt lat="43.64" lon="3.1145">
        <ele>271.23</ele>
        <time>2011-04-29T07:37:02Z</time>
      </trkpt>
      <trkpt lat="43.63994" lon="3.11453">
        <ele>272.19</ele>
        <time>2011-04-29T07:37:11Z</time>
      </trkpt>
      <trkpt lat="43.63981" lon="3.11463">
        <ele>273.15</ele>
        <time>2011-04-29T07:37:26Z</time>
      </trkpt>
      <trkpt lat="43.63969" lon="3.11469">
        <ele>274.59</ele>
        <time>2011-04-29T07:37:41Z</time>
      </trkpt>
      <trkpt lat="43.63958" lon="3.11474">
        <ele>275.07</ele>
        <time>2011-04-29T07:37:55Z</time>
      </trkpt>
      <trkpt lat="43.63944" lon="3.1148">
        <ele>275.56</ele>
        <time>2011-04-29T07:38:10Z</time>
      </trkpt>
      <trkpt lat="43.63932" lon="3.11483">
        <ele>276.04</ele>
        <time>2011-04-29T07:38:25Z</time>
      </trkpt>
      <trkpt lat="43.63915" lon="3.11483">
        <ele>277</ele>
        <time>2011-04-29T07:38:42Z</time>
      </trkpt>
      <trkpt lat="43.63907" lon="3.11482">
        <ele>277</ele>
        <time>2011-04-29T07:38:49Z</time>
      </trkpt>
      <trkpt lat="43.6389" lon="3.11476">
        <ele>277.96</ele>
        <time>2011-04-29T07:39:07Z</time>
      </trkpt>
      <trkpt lat="43.63873" lon="3.11474">
        <ele>278.92</ele>
        <time>2011-04-29T07:39:26Z</time>
      </trkpt>
      <trkpt lat="43.63856" lon="3.11475">
        <ele>280.36</ele>
        <time>2011-04-29T07:39:45Z</time>
      </trkpt>
      <trkpt lat="43.63841" lon="3.1148">
        <ele>281.32</ele>
        <time>2011-04-29T07:40:01Z</time>
      </trkpt>
      <trkpt lat="43.63836" lon="3.11482">
        <ele>281.8</ele>
        <time>2011-04-29T07:40:06Z</time>
      </trkpt>
      <trkpt lat="43.63828" lon="3.11485">
        <ele>282.77</ele>
        <time>2011-04-29T07:40:13Z</time>
      </trkpt>
      <trkpt lat="43.63811" lon="3.11489">
        <ele>283.73</ele>
        <time>2011-04-29T07:40:31Z</time>
      </trkpt>
      <trkpt lat="43.63811" lon="3.11488">
        <ele>284.21</ele>
        <time>2011-04-29T07:40:32Z</time>
      </trkpt>
      <trkpt lat="43.63807" lon="3.11489">
        <ele>283.73</ele>
        <time>2011-04-29T07:40:36Z</time>
      </trkpt>
      <trkpt lat="43.63804" lon="3.1149">
        <ele>283.25</ele>
        <time>2011-04-29T07:40:48Z</time>
      </trkpt>
      <trkpt lat="43.63785" lon="3.11491">
        <ele>284.69</ele>
        <time>2011-04-29T07:41:05Z</time>
      </trkpt>
      <trkpt lat="43.63768" lon="3.11492">
        <ele>283.73</ele>
        <time>2011-04-29T07:41:22Z</time>
      </trkpt>
      <trkpt lat="43.63751" lon="3.11495">
        <ele>284.69</ele>
        <time>2011-04-29T07:41:39Z</time>
      </trkpt>
      <trkpt lat="43.63745" lon="3.11495">
        <ele>284.69</ele>
        <time>2011-04-29T07:41:44Z</time>
      </trkpt>
      <trkpt lat="43.63729" lon="3.11498">
        <ele>284.69</ele>
        <time>2011-04-29T07:42:00Z</time>
      </trkpt>
      <trkpt lat="43.63711" lon="3.11499">
        <ele>285.65</ele>
        <time>2011-04-29T07:42:17Z</time>
      </trkpt>
      <trkpt lat="43.63694" lon="3.11497">
        <ele>286.13</ele>
        <time>2011-04-29T07:42:33Z</time>
      </trkpt>
      <trkpt lat="43.63692" lon="3.11497">
        <ele>286.13</ele>
        <time>2011-04-29T07:42:38Z</time>
      </trkpt>
      <trkpt lat="43.63676" lon="3.11487">
        <ele>287.09</ele>
        <time>2011-04-29T07:42:55Z</time>
      </trkpt>
      <trkpt lat="43.63673" lon="3.11484">
        <ele>286.13</ele>
        <time>2011-04-29T07:42:58Z</time>
      </trkpt>
      <trkpt lat="43.63667" lon="3.1148">
        <ele>280.36</ele>
        <time>2011-04-29T07:43:05Z</time>
      </trkpt>
      <trkpt lat="43.63667" lon="3.11479">
        <ele>289.01</ele>
        <time>2011-04-29T07:43:06Z</time>
      </trkpt>
      <trkpt lat="43.63666" lon="3.11478">
        <ele>288.53</ele>
        <time>2011-04-29T07:43:07Z</time>
      </trkpt>
      <trkpt lat="43.6366" lon="3.11475">
        <ele>292.86</ele>
        <time>2011-04-29T07:43:22Z</time>
      </trkpt>
      <trkpt lat="43.63658" lon="3.11474">
        <ele>282.28</ele>
        <time>2011-04-29T07:43:23Z</time>
      </trkpt>
      <trkpt lat="43.63657" lon="3.11473">
        <ele>287.57</ele>
        <time>2011-04-29T07:43:24Z</time>
      </trkpt>
      <trkpt lat="43.63639" lon="3.11461">
        <ele>288.05</ele>
        <time>2011-04-29T07:43:41Z</time>
      </trkpt>
      <trkpt lat="43.63629" lon="3.11454">
        <ele>287.09</ele>
        <time>2011-04-29T07:43:51Z</time>
      </trkpt>
      <trkpt lat="43.63618" lon="3.11446">
        <ele>278.92</ele>
        <time>2011-04-29T07:44:02Z</time>
      </trkpt>
      <trkpt lat="43.63618" lon="3.11446">
        <ele>292.86</ele>
        <time>2011-04-29T07:44:03Z</time>
      </trkpt>
      <trkpt lat="43.63617" lon="3.11447">
        <ele>287.57</ele>
        <time>2011-04-29T07:44:04Z</time>
      </trkpt>
      <trkpt lat="43.63617" lon="3.11447">
        <ele>286.61</ele>
        <time>2011-04-29T07:44:06Z</time>
      </trkpt>
      <trkpt lat="43.63614" lon="3.11454">
        <ele>286.61</ele>
        <time>2011-04-29T07:44:45Z</time>
      </trkpt>
      <trkpt lat="43.63622" lon="3.11445">
        <ele>287.57</ele>
        <time>2011-04-29T07:44:53Z</time>
      </trkpt>
      <trkpt lat="43.63621" lon="3.11443">
        <ele>286.13</ele>
        <time>2011-04-29T07:44:55Z</time>
      </trkpt>
      <trkpt lat="43.6362" lon="3.11442">
        <ele>285.65</ele>
        <time>2011-04-29T07:44:56Z</time>
      </trkpt>
      <trkpt lat="43.63616" lon="3.11439">
        <ele>285.17</ele>
        <time>2011-04-29T07:45:00Z</time>
      </trkpt>
      <trkpt lat="43.63614" lon="3.11437">
        <ele>284.21</ele>
        <time>2011-04-29T07:45:02Z</time>
      </trkpt>
      <trkpt lat="43.63602" lon="3.11425">
        <ele>282.28</ele>
        <time>2011-04-29T07:45:18Z</time>
      </trkpt>
      <trkpt lat="43.63594" lon="3.11398">
        <ele>279.88</ele>
        <time>2011-04-29T07:45:36Z</time>
      </trkpt>
      <trkpt lat="43.6359" lon="3.11374">
        <ele>278.44</ele>
        <time>2011-04-29T07:45:53Z</time>
      </trkpt>
      <trkpt lat="43.63586" lon="3.11362">
        <ele>277</ele>
        <time>2011-04-29T07:46:03Z</time>
      </trkpt>
      <trkpt lat="43.63572" lon="3.11331">
        <ele>275.56</ele>
        <time>2011-04-29T07:46:23Z</time>
      </trkpt>
      <trkpt lat="43.63558" lon="3.11311">
        <ele>273.15</ele>
        <time>2011-04-29T07:46:43Z</time>
      </trkpt>
      <trkpt lat="43.63553" lon="3.11296">
        <ele>272.19</ele>
        <time>2011-04-29T07:46:53Z</time>
      </trkpt>
      <trkpt lat="43.63551" lon="3.11288">
        <ele>270.75</ele>
        <time>2011-04-29T07:46:59Z</time>
      </trkpt>
      <trkpt lat="43.63542" lon="3.11276">
        <ele>269.79</ele>
        <time>2011-04-29T07:47:09Z</time>
      </trkpt>
      <trkpt lat="43.63542" lon="3.11269">
        <ele>271.23</ele>
        <time>2011-04-29T07:47:11Z</time>
      </trkpt>
      <trkpt lat="43.63543" lon="3.11258">
        <ele>269.79</ele>
        <time>2011-04-29T07:47:16Z</time>
      </trkpt>
      <trkpt lat="43.6354" lon="3.11253">
        <ele>270.27</ele>
        <time>2011-04-29T07:47:21Z</time>
      </trkpt>
      <trkpt lat="43.63526" lon="3.11239">
        <ele>270.75</ele>
        <time>2011-04-29T07:47:39Z</time>
      </trkpt>
      <trkpt lat="43.63525" lon="3.11238">
        <ele>270.75</ele>
        <time>2011-04-29T07:47:41Z</time>
      </trkpt>
      <trkpt lat="43.6351" lon="3.11221">
        <ele>270.27</ele>
        <time>2011-04-29T07:47:59Z</time>
      </trkpt>
      <trkpt lat="43.63495" lon="3.11203">
        <ele>268.83</ele>
        <time>2011-04-29T07:48:16Z</time>
      </trkpt>
      <trkpt lat="43.63481" lon="3.11187">
        <ele>267.38</ele>
        <time>2011-04-29T07:48:32Z</time>
      </trkpt>
      <trkpt lat="43.63462" lon="3.11172">
        <ele>265.94</ele>
        <time>2011-04-29T07:48:50Z</time>
      </trkpt>
      <trkpt lat="43.63444" lon="3.11163">
        <ele>264.02</ele>
        <time>2011-04-29T07:49:06Z</time>
      </trkpt>
      <trkpt lat="43.63427" lon="3.11154">
        <ele>264.5</ele>
        <time>2011-04-29T07:49:22Z</time>
      </trkpt>
      <trkpt lat="43.63411" lon="3.11143">
        <ele>264.5</ele>
        <time>2011-04-29T07:49:38Z</time>
      </trkpt>
      <trkpt lat="43.63395" lon="3.1113">
        <ele>266.9</ele>
        <time>2011-04-29T07:49:55Z</time>
      </trkpt>
      <trkpt lat="43.6338" lon="3.11122">
        <ele>268.35</ele>
        <time>2011-04-29T07:50:12Z</time>
      </trkpt>
      <trkpt lat="43.63367" lon="3.11118">
        <ele>270.27</ele>
        <time>2011-04-29T07:50:28Z</time>
      </trkpt>
      <trkpt lat="43.63349" lon="3.11119">
        <ele>271.71</ele>
        <time>2011-04-29T07:50:46Z</time>
      </trkpt>
      <trkpt lat="43.63338" lon="3.1113">
        <ele>273.15</ele>
        <time>2011-04-29T07:51:01Z</time>
      </trkpt>
      <trkpt lat="43.63329" lon="3.11141">
        <ele>272.19</ele>
        <time>2011-04-29T07:51:16Z</time>
      </trkpt>
      <trkpt lat="43.63324" lon="3.11152">
        <ele>271.23</ele>
        <time>2011-04-29T07:51:27Z</time>
      </trkpt>
      <trkpt lat="43.63307" lon="3.11163">
        <ele>271.23</ele>
        <time>2011-04-29T07:51:44Z</time>
      </trkpt>
      <trkpt lat="43.63291" lon="3.11169">
        <ele>272.19</ele>
        <time>2011-04-29T07:51:59Z</time>
      </trkpt>
      <trkpt lat="43.6328" lon="3.11174">
        <ele>271.71</ele>
        <time>2011-04-29T07:52:12Z</time>
      </trkpt>
      <trkpt lat="43.63265" lon="3.11184">
        <ele>271.71</ele>
        <time>2011-04-29T07:52:27Z</time>
      </trkpt>
      <trkpt lat="43.63246" lon="3.11201">
        <ele>271.23</ele>
        <time>2011-04-29T07:52:47Z</time>
      </trkpt>
      <trkpt lat="43.63229" lon="3.11215">
        <ele>272.67</ele>
        <time>2011-04-29T07:53:05Z</time>
      </trkpt>
      <trkpt lat="43.6322" lon="3.11218">
        <ele>271.71</ele>
        <time>2011-04-29T07:53:20Z</time>
      </trkpt>
      <trkpt lat="43.6321" lon="3.11217">
        <ele>268.83</ele>
        <time>2011-04-29T07:53:35Z</time>
      </trkpt>
      <trkpt lat="43.63208" lon="3.11217">
        <ele>268.35</ele>
        <time>2011-04-29T07:53:37Z</time>
      </trkpt>
      <trkpt lat="43.63198" lon="3.11219">
        <ele>266.42</ele>
        <time>2011-04-29T07:53:49Z</time>
      </trkpt>
      <trkpt lat="43.63188" lon="3.11216">
        <ele>266.42</ele>
        <time>2011-04-29T07:54:04Z</time>
      </trkpt>
      <trkpt lat="43.63188" lon="3.11217">
        <ele>265.46</ele>
        <time>2011-04-29T07:54:13Z</time>
      </trkpt>
      <trkpt lat="43.63168" lon="3.11228">
        <ele>264.98</ele>
        <time>2011-04-29T07:54:31Z</time>
      </trkpt>
      <trkpt lat="43.63151" lon="3.11237">
        <ele>264.02</ele>
        <time>2011-04-29T07:54:48Z</time>
      </trkpt>
      <trkpt lat="43.63142" lon="3.11239">
        <ele>260.65</ele>
        <time>2011-04-29T07:54:57Z</time>
      </trkpt>
      <trkpt lat="43.6314" lon="3.1124">
        <ele>264.5</ele>
        <time>2011-04-29T07:54:58Z</time>
      </trkpt>
      <trkpt lat="43.63129" lon="3.11246">
        <ele>265.46</ele>
        <time>2011-04-29T07:55:08Z</time>
      </trkpt>
      <trkpt lat="43.63111" lon="3.11252">
        <ele>265.94</ele>
        <time>2011-04-29T07:55:23Z</time>
      </trkpt>
      <trkpt lat="43.63093" lon="3.11261">
        <ele>265.46</ele>
        <time>2011-04-29T07:55:41Z</time>
      </trkpt>
      <trkpt lat="43.63084" lon="3.11266">
        <ele>265.94</ele>
        <time>2011-04-29T07:55:51Z</time>
      </trkpt>
      <trkpt lat="43.63072" lon="3.11271">
        <ele>264.5</ele>
        <time>2011-04-29T07:56:06Z</time>
      </trkpt>
      <trkpt lat="43.63054" lon="3.11283">
        <ele>264.98</ele>
        <time>2011-04-29T07:56:23Z</time>
      </trkpt>
      <trkpt lat="43.63042" lon="3.11302">
        <ele>264.98</ele>
        <time>2011-04-29T07:56:40Z</time>
      </trkpt>
      <trkpt lat="43.63035" lon="3.11313">
        <ele>264.98</ele>
        <time>2011-04-29T07:56:49Z</time>
      </trkpt>
      <trkpt lat="43.63017" lon="3.11324">
        <ele>264.02</ele>
        <time>2011-04-29T07:57:07Z</time>
      </trkpt>
      <trkpt lat="43.63006" lon="3.11333">
        <ele>262.58</ele>
        <time>2011-04-29T07:57:18Z</time>
      </trkpt>
      <trkpt lat="43.63002" lon="3.11334">
        <ele>262.58</ele>
        <time>2011-04-29T07:57:22Z</time>
      </trkpt>
      <trkpt lat="43.62982" lon="3.11342">
        <ele>260.65</ele>
        <time>2011-04-29T07:57:39Z</time>
      </trkpt>
      <trkpt lat="43.62971" lon="3.11346">
        <ele>258.25</ele>
        <time>2011-04-29T07:57:52Z</time>
      </trkpt>
      <trkpt lat="43.62967" lon="3.11352">
        <ele>258.25</ele>
        <time>2011-04-29T07:57:57Z</time>
      </trkpt>
      <trkpt lat="43.62954" lon="3.11368">
        <ele>259.21</ele>
        <time>2011-04-29T07:58:14Z</time>
      </trkpt>
      <trkpt lat="43.62943" lon="3.11379">
        <ele>259.69</ele>
        <time>2011-04-29T07:58:29Z</time>
      </trkpt>
      <trkpt lat="43.62931" lon="3.11392">
        <ele>260.17</ele>
        <time>2011-04-29T07:58:44Z</time>
      </trkpt>
      <trkpt lat="43.62915" lon="3.11402">
        <ele>262.58</ele>
        <time>2011-04-29T07:59:01Z</time>
      </trkpt>
      <trkpt lat="43.62909" lon="3.11402">
        <ele>262.58</ele>
        <time>2011-04-29T07:59:08Z</time>
      </trkpt>
      <trkpt lat="43.6289" lon="3.11401">
        <ele>262.58</ele>
        <time>2011-04-29T07:59:26Z</time>
      </trkpt>
      <trkpt lat="43.62884" lon="3.11398">
        <ele>263.54</ele>
        <time>2011-04-29T07:59:31Z</time>
      </trkpt>
      <trkpt lat="43.62881" lon="3.11398">
        <ele>262.1</ele>
        <time>2011-04-29T07:59:33Z</time>
      </trkpt>
      <trkpt lat="43.62877" lon="3.11398">
        <ele>269.79</ele>
        <time>2011-04-29T07:59:36Z</time>
      </trkpt>
      <trkpt lat="43.62876" lon="3.11398">
        <ele>263.54</ele>
        <time>2011-04-29T07:59:37Z</time>
      </trkpt>
      <trkpt lat="43.62874" lon="3.11397">
        <ele>256.81</ele>
        <time>2011-04-29T07:59:39Z</time>
      </trkpt>
      <trkpt lat="43.62861" lon="3.11398">
        <ele>254.89</ele>
        <time>2011-04-29T07:59:50Z</time>
      </trkpt>
      <trkpt lat="43.6286" lon="3.11398">
        <ele>264.02</ele>
        <time>2011-04-29T07:59:51Z</time>
      </trkpt>
      <trkpt lat="43.62846" lon="3.114">
        <ele>258.25</ele>
        <time>2011-04-29T08:00:03Z</time>
      </trkpt>
      <trkpt lat="43.62845" lon="3.114">
        <ele>262.1</ele>
        <time>2011-04-29T08:00:04Z</time>
      </trkpt>
      <trkpt lat="43.62839" lon="3.11401">
        <ele>257.77</ele>
        <time>2011-04-29T08:00:09Z</time>
      </trkpt>
      <trkpt lat="43.62838" lon="3.11402">
        <ele>261.62</ele>
        <time>2011-04-29T08:00:10Z</time>
      </trkpt>
      <trkpt lat="43.6282" lon="3.11411">
        <ele>260.17</ele>
        <time>2011-04-29T08:00:27Z</time>
      </trkpt>
      <trkpt lat="43.62804" lon="3.11408">
        <ele>257.77</ele>
        <time>2011-04-29T08:00:42Z</time>
      </trkpt>
      <trkpt lat="43.6279" lon="3.11408">
        <ele>255.37</ele>
        <time>2011-04-29T08:00:55Z</time>
      </trkpt>
      <trkpt lat="43.62782" lon="3.11409">
        <ele>253.93</ele>
        <time>2011-04-29T08:01:02Z</time>
      </trkpt>
      <trkpt lat="43.62774" lon="3.11412">
        <ele>253.93</ele>
        <time>2011-04-29T08:01:09Z</time>
      </trkpt>
      <trkpt lat="43.62768" lon="3.1141">
        <ele>252.48</ele>
        <time>2011-04-29T08:01:16Z</time>
      </trkpt>
      <trkpt lat="43.62752" lon="3.11391">
        <ele>249.6</ele>
        <time>2011-04-29T08:01:35Z</time>
      </trkpt>
      <trkpt lat="43.62739" lon="3.11389">
        <ele>247.68</ele>
        <time>2011-04-29T08:01:52Z</time>
      </trkpt>
      <trkpt lat="43.62739" lon="3.11379">
        <ele>244.31</ele>
        <time>2011-04-29T08:02:08Z</time>
      </trkpt>
      <trkpt lat="43.62734" lon="3.11377">
        <ele>241.43</ele>
        <time>2011-04-29T08:02:22Z</time>
      </trkpt>
      <trkpt lat="43.62716" lon="3.11371">
        <ele>239.51</ele>
        <time>2011-04-29T08:02:38Z</time>
      </trkpt>
      <trkpt lat="43.62706" lon="3.11375">
        <ele>238.06</ele>
        <time>2011-04-29T08:02:49Z</time>
      </trkpt>
      <trkpt lat="43.62694" lon="3.11384">
        <ele>234.7</ele>
        <time>2011-04-29T08:03:07Z</time>
      </trkpt>
      <trkpt lat="43.62684" lon="3.11376">
        <ele>232.3</ele>
        <time>2011-04-29T08:03:26Z</time>
      </trkpt>
      <trkpt lat="43.62679" lon="3.1138">
        <ele>230.85</ele>
        <time>2011-04-29T08:03:34Z</time>
      </trkpt>
      <trkpt lat="43.62666" lon="3.11403">
        <ele>229.89</ele>
        <time>2011-04-29T08:03:53Z</time>
      </trkpt>
      <trkpt lat="43.62652" lon="3.11423">
        <ele>227.01</ele>
        <time>2011-04-29T08:04:12Z</time>
      </trkpt>
      <trkpt lat="43.62641" lon="3.11453">
        <ele>225.09</ele>
        <time>2011-04-29T08:04:32Z</time>
      </trkpt>
      <trkpt lat="43.62637" lon="3.11473">
        <ele>223.64</ele>
        <time>2011-04-29T08:04:48Z</time>
      </trkpt>
      <trkpt lat="43.62628" lon="3.11487">
        <ele>221.24</ele>
        <time>2011-04-29T08:05:03Z</time>
      </trkpt>
      <trkpt lat="43.62627" lon="3.11486">
        <ele>221.72</ele>
        <time>2011-04-29T08:05:05Z</time>
      </trkpt>
      <trkpt lat="43.62608" lon="3.11483">
        <ele>220.76</ele>
        <time>2011-04-29T08:05:23Z</time>
      </trkpt>
      <trkpt lat="43.62595" lon="3.11481">
        <ele>218.84</ele>
        <time>2011-04-29T08:05:38Z</time>
      </trkpt>
      <trkpt lat="43.62577" lon="3.1148">
        <ele>218.36</ele>
        <time>2011-04-29T08:05:58Z</time>
      </trkpt>
      <trkpt lat="43.62565" lon="3.11478">
        <ele>216.43</ele>
        <time>2011-04-29T08:06:13Z</time>
      </trkpt>
      <trkpt lat="43.62553" lon="3.11478">
        <ele>215.95</ele>
        <time>2011-04-29T08:06:28Z</time>
      </trkpt>
      <trkpt lat="43.62538" lon="3.11475">
        <ele>214.51</ele>
        <time>2011-04-29T08:06:45Z</time>
      </trkpt>
      <trkpt lat="43.62521" lon="3.11472">
        <ele>213.07</ele>
        <time>2011-04-29T08:07:00Z</time>
      </trkpt>
      <trkpt lat="43.62505" lon="3.1147">
        <ele>213.07</ele>
        <time>2011-04-29T08:07:16Z</time>
      </trkpt>
      <trkpt lat="43.62503" lon="3.11469">
        <ele>211.63</ele>
        <time>2011-04-29T08:07:19Z</time>
      </trkpt>
      <trkpt lat="43.62487" lon="3.11469">
        <ele>211.15</ele>
        <time>2011-04-29T08:07:34Z</time>
      </trkpt>
      <trkpt lat="43.62481" lon="3.11474">
        <ele>205.86</ele>
        <time>2011-04-29T08:07:42Z</time>
      </trkpt>
      <trkpt lat="43.62482" lon="3.11474">
        <ele>212.11</ele>
        <time>2011-04-29T08:07:43Z</time>
      </trkpt>
      <trkpt lat="43.62482" lon="3.11474">
        <ele>211.63</ele>
        <time>2011-04-29T08:07:44Z</time>
      </trkpt>
      <trkpt lat="43.62482" lon="3.11476">
        <ele>210.67</ele>
        <time>2011-04-29T08:07:46Z</time>
      </trkpt>
      <trkpt lat="43.62482" lon="3.11478">
        <ele>215.95</ele>
        <time>2011-04-29T08:07:55Z</time>
      </trkpt>
      <trkpt lat="43.62482" lon="3.11478">
        <ele>208.74</ele>
        <time>2011-04-29T08:07:56Z</time>
      </trkpt>
      <trkpt lat="43.62482" lon="3.11478">
        <ele>213.55</ele>
        <time>2011-04-29T08:08:00Z</time>
      </trkpt>
      <trkpt lat="43.62482" lon="3.11478">
        <ele>209.7</ele>
        <time>2011-04-29T08:08:04Z</time>
      </trkpt>
      <trkpt lat="43.62482" lon="3.11478">
        <ele>213.55</ele>
        <time>2011-04-29T08:08:09Z</time>
      </trkpt>
      <trkpt lat="43.62481" lon="3.1148">
        <ele>213.55</ele>
        <time>2011-04-29T08:08:11Z</time>
      </trkpt>
      <trkpt lat="43.62481" lon="3.11484">
        <ele>215.95</ele>
        <time>2011-04-29T08:08:14Z</time>
      </trkpt>
      <trkpt lat="43.62481" lon="3.11485">
        <ele>212.11</ele>
        <time>2011-04-29T08:08:15Z</time>
      </trkpt>
      <trkpt lat="43.62485" lon="3.11498">
        <ele>205.86</ele>
        <time>2011-04-29T08:08:24Z</time>
      </trkpt>
      <trkpt lat="43.62486" lon="3.115">
        <ele>214.51</ele>
        <time>2011-04-29T08:08:25Z</time>
      </trkpt>
      <trkpt lat="43.62486" lon="3.115">
        <ele>213.07</ele>
        <time>2011-04-29T08:08:26Z</time>
      </trkpt>
      <trkpt lat="43.62486" lon="3.11502">
        <ele>211.15</ele>
        <time>2011-04-29T08:08:28Z</time>
      </trkpt>
      <trkpt lat="43.62488" lon="3.11508">
        <ele>216.43</ele>
        <time>2011-04-29T08:08:32Z</time>
      </trkpt>
      <trkpt lat="43.62489" lon="3.11509">
        <ele>211.63</ele>
        <time>2011-04-29T08:08:33Z</time>
      </trkpt>
      <trkpt lat="43.6249" lon="3.11515">
        <ele>210.67</ele>
        <time>2011-04-29T08:08:37Z</time>
      </trkpt>
      <trkpt lat="43.62495" lon="3.11526">
        <ele>214.99</ele>
        <time>2011-04-29T08:08:46Z</time>
      </trkpt>
      <trkpt lat="43.62495" lon="3.11527">
        <ele>211.63</ele>
        <time>2011-04-29T08:08:47Z</time>
      </trkpt>
      <trkpt lat="43.62496" lon="3.11529">
        <ele>210.19</ele>
        <time>2011-04-29T08:08:49Z</time>
      </trkpt>
      <trkpt lat="43.62499" lon="3.11538">
        <ele>210.19</ele>
        <time>2011-04-29T08:08:56Z</time>
      </trkpt>
      <trkpt lat="43.62502" lon="3.11546">
        <ele>215.47</ele>
        <time>2011-04-29T08:09:01Z</time>
      </trkpt>
      <trkpt lat="43.62502" lon="3.11548">
        <ele>210.67</ele>
        <time>2011-04-29T08:09:02Z</time>
      </trkpt>
      <trkpt lat="43.62506" lon="3.11556">
        <ele>214.51</ele>
        <time>2011-04-29T08:09:09Z</time>
      </trkpt>
      <trkpt lat="43.62507" lon="3.11557">
        <ele>210.67</ele>
        <time>2011-04-29T08:09:10Z</time>
      </trkpt>
      <trkpt lat="43.62513" lon="3.1157">
        <ele>209.7</ele>
        <time>2011-04-29T08:09:26Z</time>
      </trkpt>
      <trkpt lat="43.62515" lon="3.1158">
        <ele>208.74</ele>
        <time>2011-04-29T08:09:39Z</time>
      </trkpt>
      <trkpt lat="43.62519" lon="3.11598">
        <ele>209.22</ele>
        <time>2011-04-29T08:09:54Z</time>
      </trkpt>
      <trkpt lat="43.62529" lon="3.11627">
        <ele>210.19</ele>
        <time>2011-04-29T08:10:11Z</time>
      </trkpt>
      <trkpt lat="43.62533" lon="3.11644">
        <ele>209.7</ele>
        <time>2011-04-29T08:10:28Z</time>
      </trkpt>
      <trkpt lat="43.6253" lon="3.11653">
        <ele>210.67</ele>
        <time>2011-04-29T08:10:43Z</time>
      </trkpt>
      <trkpt lat="43.62517" lon="3.1166">
        <ele>214.51</ele>
        <time>2011-04-29T08:11:00Z</time>
      </trkpt>
      <trkpt lat="43.62509" lon="3.1166">
        <ele>218.84</ele>
        <time>2011-04-29T08:11:12Z</time>
      </trkpt>
      <trkpt lat="43.62507" lon="3.11658">
        <ele>216.91</ele>
        <time>2011-04-29T08:11:34Z</time>
      </trkpt>
      <trkpt lat="43.62499" lon="3.11657">
        <ele>218.36</ele>
        <time>2011-04-29T08:11:50Z</time>
      </trkpt>
      <trkpt lat="43.62499" lon="3.11657">
        <ele>225.09</ele>
        <time>2011-04-29T08:11:54Z</time>
      </trkpt>
      <trkpt lat="43.62499" lon="3.11657">
        <ele>219.8</ele>
        <time>2011-04-29T08:11:55Z</time>
      </trkpt>
      <trkpt lat="43.62499" lon="3.11657">
        <ele>218.84</ele>
        <time>2011-04-29T08:11:57Z</time>
      </trkpt>
      <trkpt lat="43.62498" lon="3.11657">
        <ele>219.32</ele>
        <time>2011-04-29T08:12:07Z</time>
      </trkpt>
      <trkpt lat="43.62485" lon="3.11657">
        <ele>219.32</ele>
        <time>2011-04-29T08:12:25Z</time>
      </trkpt>
      <trkpt lat="43.62482" lon="3.11657">
        <ele>222.68</ele>
        <time>2011-04-29T08:12:37Z</time>
      </trkpt>
      <trkpt lat="43.62472" lon="3.11656">
        <ele>225.57</ele>
        <time>2011-04-29T08:12:55Z</time>
      </trkpt>
      <trkpt lat="43.62469" lon="3.11657">
        <ele>229.89</ele>
        <time>2011-04-29T08:13:06Z</time>
      </trkpt>
      <trkpt lat="43.62466" lon="3.1166">
        <ele>226.05</ele>
        <time>2011-04-29T08:13:09Z</time>
      </trkpt>
      <trkpt lat="43.62459" lon="3.11677">
        <ele>224.61</ele>
        <time>2011-04-29T08:13:23Z</time>
      </trkpt>
      <trkpt lat="43.62456" lon="3.11683">
        <ele>224.12</ele>
        <time>2011-04-29T08:13:28Z</time>
      </trkpt>
      <trkpt lat="43.62451" lon="3.11691">
        <ele>225.09</ele>
        <time>2011-04-29T08:13:43Z</time>
      </trkpt>
      <trkpt lat="43.62432" lon="3.11699">
        <ele>226.05</ele>
        <time>2011-04-29T08:14:00Z</time>
      </trkpt>
      <trkpt lat="43.62427" lon="3.11699">
        <ele>226.05</ele>
        <time>2011-04-29T08:14:05Z</time>
      </trkpt>
      <trkpt lat="43.62407" lon="3.11697">
        <ele>226.53</ele>
        <time>2011-04-29T08:14:23Z</time>
      </trkpt>
      <trkpt lat="43.62398" lon="3.11694">
        <ele>227.49</ele>
        <time>2011-04-29T08:14:38Z</time>
      </trkpt>
      <trkpt lat="43.62389" lon="3.11693">
        <ele>228.93</ele>
        <time>2011-04-29T08:14:48Z</time>
      </trkpt>
      <trkpt lat="43.62378" lon="3.11685">
        <ele>220.76</ele>
        <time>2011-04-29T08:14:56Z</time>
      </trkpt>
      <trkpt lat="43.62377" lon="3.11684">
        <ele>229.89</ele>
        <time>2011-04-29T08:14:57Z</time>
      </trkpt>
      <trkpt lat="43.62366" lon="3.11676">
        <ele>230.85</ele>
        <time>2011-04-29T08:15:15Z</time>
      </trkpt>
      <trkpt lat="43.62353" lon="3.11668">
        <ele>236.14</ele>
        <time>2011-04-29T08:15:25Z</time>
      </trkpt>
      <trkpt lat="43.6235" lon="3.11666">
        <ele>232.3</ele>
        <time>2011-04-29T08:15:27Z</time>
      </trkpt>
      <trkpt lat="43.62349" lon="3.11665">
        <ele>232.3</ele>
        <time>2011-04-29T08:15:28Z</time>
      </trkpt>
      <trkpt lat="43.62342" lon="3.11644">
        <ele>233.74</ele>
        <time>2011-04-29T08:15:44Z</time>
      </trkpt>
      <trkpt lat="43.62342" lon="3.1164">
        <ele>227.97</ele>
        <time>2011-04-29T08:15:47Z</time>
      </trkpt>
      <trkpt lat="43.62342" lon="3.11639">
        <ele>234.22</ele>
        <time>2011-04-29T08:15:48Z</time>
      </trkpt>
      <trkpt lat="43.62341" lon="3.11626">
        <ele>235.18</ele>
        <time>2011-04-29T08:15:59Z</time>
      </trkpt>
      <trkpt lat="43.6234" lon="3.11617">
        <ele>235.18</ele>
        <time>2011-04-29T08:16:05Z</time>
      </trkpt>
      <trkpt lat="43.62336" lon="3.11591">
        <ele>236.14</ele>
        <time>2011-04-29T08:16:22Z</time>
      </trkpt>
      <trkpt lat="43.62334" lon="3.11563">
        <ele>236.62</ele>
        <time>2011-04-29T08:16:40Z</time>
      </trkpt>
      <trkpt lat="43.62334" lon="3.11555">
        <ele>240.95</ele>
        <time>2011-04-29T08:16:46Z</time>
      </trkpt>
      <trkpt lat="43.62334" lon="3.11553">
        <ele>238.06</ele>
        <time>2011-04-29T08:16:47Z</time>
      </trkpt>
      <trkpt lat="43.62334" lon="3.1155">
        <ele>234.22</ele>
        <time>2011-04-29T08:16:49Z</time>
      </trkpt>
      <trkpt lat="43.62334" lon="3.11549">
        <ele>237.58</ele>
        <time>2011-04-29T08:16:50Z</time>
      </trkpt>
      <trkpt lat="43.62334" lon="3.11535">
        <ele>234.22</ele>
        <time>2011-04-29T08:17:00Z</time>
      </trkpt>
      <trkpt lat="43.62334" lon="3.11533">
        <ele>238.06</ele>
        <time>2011-04-29T08:17:01Z</time>
      </trkpt>
      <trkpt lat="43.62334" lon="3.11526">
        <ele>232.78</ele>
        <time>2011-04-29T08:17:06Z</time>
      </trkpt>
      <trkpt lat="43.62334" lon="3.11525">
        <ele>237.58</ele>
        <time>2011-04-29T08:17:07Z</time>
      </trkpt>
      <trkpt lat="43.62335" lon="3.11503">
        <ele>238.54</ele>
        <time>2011-04-29T08:17:23Z</time>
      </trkpt>
      <trkpt lat="43.62336" lon="3.11483">
        <ele>239.51</ele>
        <time>2011-04-29T08:17:37Z</time>
      </trkpt>
      <trkpt lat="43.62337" lon="3.1146">
        <ele>240.95</ele>
        <time>2011-04-29T08:17:52Z</time>
      </trkpt>
      <trkpt lat="43.62338" lon="3.11441">
        <ele>241.91</ele>
        <time>2011-04-29T08:18:07Z</time>
      </trkpt>
      <trkpt lat="43.6234" lon="3.11415">
        <ele>243.35</ele>
        <time>2011-04-29T08:18:23Z</time>
      </trkpt>
      <trkpt lat="43.62344" lon="3.11387">
        <ele>242.87</ele>
        <time>2011-04-29T08:18:43Z</time>
      </trkpt>
      <trkpt lat="43.62344" lon="3.11366">
        <ele>243.35</ele>
        <time>2011-04-29T08:18:58Z</time>
      </trkpt>
      <trkpt lat="43.62341" lon="3.11346">
        <ele>244.31</ele>
        <time>2011-04-29T08:19:12Z</time>
      </trkpt>
      <trkpt lat="43.62339" lon="3.11332">
        <ele>245.27</ele>
        <time>2011-04-29T08:19:21Z</time>
      </trkpt>
      <trkpt lat="43.62335" lon="3.11305">
        <ele>246.23</ele>
        <time>2011-04-29T08:19:37Z</time>
      </trkpt>
      <trkpt lat="43.62333" lon="3.1128">
        <ele>239.51</ele>
        <time>2011-04-29T08:19:52Z</time>
      </trkpt>
      <trkpt lat="43.62333" lon="3.11278">
        <ele>247.68</ele>
        <time>2011-04-29T08:19:53Z</time>
      </trkpt>
      <trkpt lat="43.62331" lon="3.1126">
        <ele>243.35</ele>
        <time>2011-04-29T08:20:05Z</time>
      </trkpt>
      <trkpt lat="43.62331" lon="3.11258">
        <ele>248.64</ele>
        <time>2011-04-29T08:20:06Z</time>
      </trkpt>
      <trkpt lat="43.62331" lon="3.11234">
        <ele>250.08</ele>
        <time>2011-04-29T08:20:22Z</time>
      </trkpt>
      <trkpt lat="43.62331" lon="3.11215">
        <ele>250.08</ele>
        <time>2011-04-29T08:20:37Z</time>
      </trkpt>
      <trkpt lat="43.62334" lon="3.11191">
        <ele>250.56</ele>
        <time>2011-04-29T08:20:51Z</time>
      </trkpt>
      <trkpt lat="43.62336" lon="3.1117">
        <ele>252</ele>
        <time>2011-04-29T08:21:05Z</time>
      </trkpt>
      <trkpt lat="43.62337" lon="3.1115">
        <ele>252</ele>
        <time>2011-04-29T08:21:18Z</time>
      </trkpt>
      <trkpt lat="43.62336" lon="3.11131">
        <ele>253.93</ele>
        <time>2011-04-29T08:21:30Z</time>
      </trkpt>
      <trkpt lat="43.62331" lon="3.11108">
        <ele>254.89</ele>
        <time>2011-04-29T08:21:46Z</time>
      </trkpt>
      <trkpt lat="43.62332" lon="3.11086">
        <ele>255.37</ele>
        <time>2011-04-29T08:22:00Z</time>
      </trkpt>
      <trkpt lat="43.62335" lon="3.11066">
        <ele>256.81</ele>
        <time>2011-04-29T08:22:15Z</time>
      </trkpt>
      <trkpt lat="43.62335" lon="3.11045">
        <ele>257.77</ele>
        <time>2011-04-29T08:22:29Z</time>
      </trkpt>
      <trkpt lat="43.62334" lon="3.11034">
        <ele>261.62</ele>
        <time>2011-04-29T08:22:35Z</time>
      </trkpt>
      <trkpt lat="43.62334" lon="3.11032">
        <ele>260.65</ele>
        <time>2011-04-29T08:22:36Z</time>
      </trkpt>
      <trkpt lat="43.6233" lon="3.11007">
        <ele>259.21</ele>
        <time>2011-04-29T08:22:53Z</time>
      </trkpt>
      <trkpt lat="43.62326" lon="3.10988">
        <ele>259.69</ele>
        <time>2011-04-29T08:23:06Z</time>
      </trkpt>
      <trkpt lat="43.62322" lon="3.10969">
        <ele>261.14</ele>
        <time>2011-04-29T08:23:20Z</time>
      </trkpt>
      <trkpt lat="43.6232" lon="3.10951">
        <ele>261.62</ele>
        <time>2011-04-29T08:23:33Z</time>
      </trkpt>
      <trkpt lat="43.62322" lon="3.10931">
        <ele>262.58</ele>
        <time>2011-04-29T08:23:48Z</time>
      </trkpt>
      <trkpt lat="43.62328" lon="3.10909">
        <ele>263.54</ele>
        <time>2011-04-29T08:24:03Z</time>
      </trkpt>
      <trkpt lat="43.62329" lon="3.10908">
        <ele>264.02</ele>
        <time>2011-04-29T08:24:04Z</time>
      </trkpt>
      <trkpt lat="43.62333" lon="3.10906">
        <ele>264.02</ele>
        <time>2011-04-29T08:24:08Z</time>
      </trkpt>
      <trkpt lat="43.6234" lon="3.10909">
        <ele>264.5</ele>
        <time>2011-04-29T08:24:14Z</time>
      </trkpt>
      <trkpt lat="43.62343" lon="3.10926">
        <ele>268.83</ele>
        <time>2011-04-29T08:24:26Z</time>
      </trkpt>
      <trkpt lat="43.62343" lon="3.10927">
        <ele>267.38</ele>
        <time>2011-04-29T08:24:27Z</time>
      </trkpt>
      <trkpt lat="43.62341" lon="3.10938">
        <ele>263.06</ele>
        <time>2011-04-29T08:24:35Z</time>
      </trkpt>
      <trkpt lat="43.62341" lon="3.1094">
        <ele>269.79</ele>
        <time>2011-04-29T08:24:36Z</time>
      </trkpt>
      <trkpt lat="43.62341" lon="3.10941">
        <ele>267.38</ele>
        <time>2011-04-29T08:24:37Z</time>
      </trkpt>
      <trkpt lat="43.62343" lon="3.10965">
        <ele>266.9</ele>
        <time>2011-04-29T08:24:53Z</time>
      </trkpt>
      <trkpt lat="43.62348" lon="3.10984">
        <ele>267.38</ele>
        <time>2011-04-29T08:25:07Z</time>
      </trkpt>
      <trkpt lat="43.62349" lon="3.10985">
        <ele>267.38</ele>
        <time>2011-04-29T08:25:09Z</time>
      </trkpt>
      <trkpt lat="43.62355" lon="3.10986">
        <ele>268.35</ele>
        <time>2011-04-29T08:25:15Z</time>
      </trkpt>
      <trkpt lat="43.62356" lon="3.10975">
        <ele>268.83</ele>
        <time>2011-04-29T08:25:23Z</time>
      </trkpt>
      <trkpt lat="43.62353" lon="3.10949">
        <ele>270.27</ele>
        <time>2011-04-29T08:25:41Z</time>
      </trkpt>
      <trkpt lat="43.62359" lon="3.10932">
        <ele>270.75</ele>
        <time>2011-04-29T08:25:54Z</time>
      </trkpt>
      <trkpt lat="43.62372" lon="3.10911">
        <ele>272.19</ele>
        <time>2011-04-29T08:26:11Z</time>
      </trkpt>
      <trkpt lat="43.62374" lon="3.1089">
        <ele>272.67</ele>
        <time>2011-04-29T08:26:25Z</time>
      </trkpt>
      <trkpt lat="43.62374" lon="3.10881">
        <ele>276.04</ele>
        <time>2011-04-29T08:26:31Z</time>
      </trkpt>
      <trkpt lat="43.62373" lon="3.10876">
        <ele>273.15</ele>
        <time>2011-04-29T08:26:34Z</time>
      </trkpt>
      <trkpt lat="43.62371" lon="3.10873">
        <ele>253.44</ele>
        <time>2011-04-29T08:26:36Z</time>
      </trkpt>
      <trkpt lat="43.62371" lon="3.10872">
        <ele>283.73</ele>
        <time>2011-04-29T08:26:37Z</time>
      </trkpt>
      <trkpt lat="43.62371" lon="3.1087">
        <ele>276.04</ele>
        <time>2011-04-29T08:26:38Z</time>
      </trkpt>
      <trkpt lat="43.6237" lon="3.10867">
        <ele>273.63</ele>
        <time>2011-04-29T08:26:40Z</time>
      </trkpt>
      <trkpt lat="43.62368" lon="3.10863">
        <ele>278.44</ele>
        <time>2011-04-29T08:26:43Z</time>
      </trkpt>
      <trkpt lat="43.62366" lon="3.10861">
        <ele>275.07</ele>
        <time>2011-04-29T08:26:45Z</time>
      </trkpt>
      <trkpt lat="43.62364" lon="3.10854">
        <ele>280.36</ele>
        <time>2011-04-29T08:26:50Z</time>
      </trkpt>
      <trkpt lat="43.62363" lon="3.10853">
        <ele>275.07</ele>
        <time>2011-04-29T08:26:51Z</time>
      </trkpt>
      <trkpt lat="43.62348" lon="3.10835">
        <ele>275.07</ele>
        <time>2011-04-29T08:27:09Z</time>
      </trkpt>
      <trkpt lat="43.62343" lon="3.10821">
        <ele>275.56</ele>
        <time>2011-04-29T08:27:22Z</time>
      </trkpt>
      <trkpt lat="43.6234" lon="3.10813">
        <ele>276.52</ele>
        <time>2011-04-29T08:27:29Z</time>
      </trkpt>
      <trkpt lat="43.62339" lon="3.10796">
        <ele>277.96</ele>
        <time>2011-04-29T08:27:44Z</time>
      </trkpt>
      <trkpt lat="43.6234" lon="3.10784">
        <ele>278.92</ele>
        <time>2011-04-29T08:27:58Z</time>
      </trkpt>
      <trkpt lat="43.6234" lon="3.10784">
        <ele>280.36</ele>
        <time>2011-04-29T08:28:08Z</time>
      </trkpt>
      <trkpt lat="43.62345" lon="3.1078">
        <ele>281.8</ele>
        <time>2011-04-29T08:28:21Z</time>
      </trkpt>
      <trkpt lat="43.62346" lon="3.1078">
        <ele>286.13</ele>
        <time>2011-04-29T08:28:22Z</time>
      </trkpt>
      <trkpt lat="43.62347" lon="3.1078">
        <ele>285.17</ele>
        <time>2011-04-29T08:28:23Z</time>
      </trkpt>
      <trkpt lat="43.62347" lon="3.1078">
        <ele>282.28</ele>
        <time>2011-04-29T08:28:24Z</time>
      </trkpt>
      <trkpt lat="43.6235" lon="3.10781">
        <ele>282.28</ele>
        <time>2011-04-29T08:28:27Z</time>
      </trkpt>
      <trkpt lat="43.62364" lon="3.10795">
        <ele>283.25</ele>
        <time>2011-04-29T08:28:45Z</time>
      </trkpt>
      <trkpt lat="43.62376" lon="3.10805">
        <ele>284.69</ele>
        <time>2011-04-29T08:28:59Z</time>
      </trkpt>
      <trkpt lat="43.62388" lon="3.10812">
        <ele>285.17</ele>
        <time>2011-04-29T08:29:14Z</time>
      </trkpt>
      <trkpt lat="43.62391" lon="3.10813">
        <ele>286.13</ele>
        <time>2011-04-29T08:29:17Z</time>
      </trkpt>
      <trkpt lat="43.62409" lon="3.10814">
        <ele>286.61</ele>
        <time>2011-04-29T08:29:34Z</time>
      </trkpt>
      <trkpt lat="43.62435" lon="3.10812">
        <ele>288.05</ele>
        <time>2011-04-29T08:29:53Z</time>
      </trkpt>
      <trkpt lat="43.6245" lon="3.10813">
        <ele>289.49</ele>
        <time>2011-04-29T08:30:08Z</time>
      </trkpt>
      <trkpt lat="43.62469" lon="3.10809">
        <ele>290.46</ele>
        <time>2011-04-29T08:30:25Z</time>
      </trkpt>
      <trkpt lat="43.62483" lon="3.10798">
        <ele>291.9</ele>
        <time>2011-04-29T08:30:40Z</time>
      </trkpt>
      <trkpt lat="43.62493" lon="3.10788">
        <ele>292.38</ele>
        <time>2011-04-29T08:30:53Z</time>
      </trkpt>
      <trkpt lat="43.62503" lon="3.10767">
        <ele>298.63</ele>
        <time>2011-04-29T08:31:10Z</time>
      </trkpt>
      <trkpt lat="43.62504" lon="3.10765">
        <ele>298.63</ele>
        <time>2011-04-29T08:31:11Z</time>
      </trkpt>
      <trkpt lat="43.62505" lon="3.10763">
        <ele>294.3</ele>
        <time>2011-04-29T08:31:13Z</time>
      </trkpt>
      <trkpt lat="43.62506" lon="3.1076">
        <ele>301.03</ele>
        <time>2011-04-29T08:31:15Z</time>
      </trkpt>
      <trkpt lat="43.62507" lon="3.10759">
        <ele>296.7</ele>
        <time>2011-04-29T08:31:16Z</time>
      </trkpt>
      <trkpt lat="43.62508" lon="3.10755">
        <ele>293.82</ele>
        <time>2011-04-29T08:31:19Z</time>
      </trkpt>
      <trkpt lat="43.62509" lon="3.10753">
        <ele>299.59</ele>
        <time>2011-04-29T08:31:21Z</time>
      </trkpt>
      <trkpt lat="43.6251" lon="3.10751">
        <ele>294.78</ele>
        <time>2011-04-29T08:31:22Z</time>
      </trkpt>
      <trkpt lat="43.62511" lon="3.10749">
        <ele>294.3</ele>
        <time>2011-04-29T08:31:24Z</time>
      </trkpt>
      <trkpt lat="43.6252" lon="3.10738">
        <ele>294.78</ele>
        <time>2011-04-29T08:31:38Z</time>
      </trkpt>
      <trkpt lat="43.6253" lon="3.10711">
        <ele>296.22</ele>
        <time>2011-04-29T08:31:57Z</time>
      </trkpt>
      <trkpt lat="43.62538" lon="3.10694">
        <ele>296.7</ele>
        <time>2011-04-29T08:32:11Z</time>
      </trkpt>
      <trkpt lat="43.6254" lon="3.10683">
        <ele>296.7</ele>
        <time>2011-04-29T08:32:18Z</time>
      </trkpt>
      <trkpt lat="43.6254" lon="3.10679">
        <ele>297.18</ele>
        <time>2011-04-29T08:32:21Z</time>
      </trkpt>
      <trkpt lat="43.62549" lon="3.10656">
        <ele>297.67</ele>
        <time>2011-04-29T08:32:38Z</time>
      </trkpt>
      <trkpt lat="43.62552" lon="3.10649">
        <ele>297.67</ele>
        <time>2011-04-29T08:32:51Z</time>
      </trkpt>
      <trkpt lat="43.62553" lon="3.10648">
        <ele>289.01</ele>
        <time>2011-04-29T08:32:56Z</time>
      </trkpt>
      <trkpt lat="43.62553" lon="3.10647">
        <ele>302.47</ele>
        <time>2011-04-29T08:32:57Z</time>
      </trkpt>
      <trkpt lat="43.62555" lon="3.10643">
        <ele>298.63</ele>
        <time>2011-04-29T08:33:00Z</time>
      </trkpt>
      <trkpt lat="43.62561" lon="3.10623">
        <ele>299.11</ele>
        <time>2011-04-29T08:33:14Z</time>
      </trkpt>
      <trkpt lat="43.62564" lon="3.10612">
        <ele>299.11</ele>
        <time>2011-04-29T08:33:21Z</time>
      </trkpt>
      <trkpt lat="43.62573" lon="3.10583">
        <ele>300.55</ele>
        <time>2011-04-29T08:33:41Z</time>
      </trkpt>
      <trkpt lat="43.62574" lon="3.1058">
        <ele>300.55</ele>
        <time>2011-04-29T08:33:45Z</time>
      </trkpt>
      <trkpt lat="43.62582" lon="3.10567">
        <ele>308.24</ele>
        <time>2011-04-29T08:33:57Z</time>
      </trkpt>
      <trkpt lat="43.62583" lon="3.10566">
        <ele>301.99</ele>
        <time>2011-04-29T08:33:58Z</time>
      </trkpt>
      <trkpt lat="43.62587" lon="3.10562">
        <ele>306.8</ele>
        <time>2011-04-29T08:34:03Z</time>
      </trkpt>
      <trkpt lat="43.6259" lon="3.10562">
        <ele>301.51</ele>
        <time>2011-04-29T08:34:06Z</time>
      </trkpt>
      <trkpt lat="43.626" lon="3.10558">
        <ele>301.99</ele>
        <time>2011-04-29T08:34:20Z</time>
      </trkpt>
      <trkpt lat="43.626" lon="3.10558">
        <ele>297.18</ele>
        <time>2011-04-29T08:34:30Z</time>
      </trkpt>
      <trkpt lat="43.626" lon="3.10558">
        <ele>301.99</ele>
        <time>2011-04-29T08:45:24Z</time>
      </trkpt>
      <trkpt lat="43.626" lon="3.10558">
        <ele>302.47</ele>
        <time>2011-04-29T08:45:25Z</time>
      </trkpt>
      <trkpt lat="43.62609" lon="3.10543">
        <ele>301.99</ele>
        <time>2011-04-29T08:45:28Z</time>
      </trkpt>
      <trkpt lat="43.62608" lon="3.10549">
        <ele>301.51</ele>
        <time>2011-04-29T08:45:42Z</time>
      </trkpt>
      <trkpt lat="43.62614" lon="3.10538">
        <ele>303.43</ele>
        <time>2011-04-29T08:45:52Z</time>
      </trkpt>
      <trkpt lat="43.62615" lon="3.10535">
        <ele>302.47</ele>
        <time>2011-04-29T08:45:54Z</time>
      </trkpt>
      <trkpt lat="43.62626" lon="3.10512">
        <ele>303.91</ele>
        <time>2011-04-29T08:46:12Z</time>
      </trkpt>
      <trkpt lat="43.62631" lon="3.10501">
        <ele>303.91</ele>
        <time>2011-04-29T08:46:21Z</time>
      </trkpt>
      <trkpt lat="43.62631" lon="3.10499">
        <ele>304.88</ele>
        <time>2011-04-29T08:46:23Z</time>
      </trkpt>
      <trkpt lat="43.62637" lon="3.10474">
        <ele>305.84</ele>
        <time>2011-04-29T08:46:40Z</time>
      </trkpt>
      <trkpt lat="43.62642" lon="3.10447">
        <ele>306.32</ele>
        <time>2011-04-29T08:46:58Z</time>
      </trkpt>
      <trkpt lat="43.62645" lon="3.10424">
        <ele>307.28</ele>
        <time>2011-04-29T08:47:14Z</time>
      </trkpt>
      <trkpt lat="43.62645" lon="3.10404">
        <ele>308.24</ele>
        <time>2011-04-29T08:47:30Z</time>
      </trkpt>
      <trkpt lat="43.62639" lon="3.10376">
        <ele>309.2</ele>
        <time>2011-04-29T08:47:48Z</time>
      </trkpt>
      <trkpt lat="43.62632" lon="3.10348">
        <ele>311.6</ele>
        <time>2011-04-29T08:48:06Z</time>
      </trkpt>
      <trkpt lat="43.62631" lon="3.10341">
        <ele>312.09</ele>
        <time>2011-04-29T08:48:11Z</time>
      </trkpt>
      <trkpt lat="43.62622" lon="3.10316">
        <ele>313.53</ele>
        <time>2011-04-29T08:48:29Z</time>
      </trkpt>
      <trkpt lat="43.62609" lon="3.10301">
        <ele>314.49</ele>
        <time>2011-04-29T08:48:45Z</time>
      </trkpt>
      <trkpt lat="43.626" lon="3.10294">
        <ele>314.97</ele>
        <time>2011-04-29T08:48:52Z</time>
      </trkpt>
      <trkpt lat="43.62594" lon="3.10285">
        <ele>314.97</ele>
        <time>2011-04-29T08:49:01Z</time>
      </trkpt>
      <trkpt lat="43.62579" lon="3.10267">
        <ele>316.41</ele>
        <time>2011-04-29T08:49:20Z</time>
      </trkpt>
      <trkpt lat="43.62572" lon="3.10259">
        <ele>316.41</ele>
        <time>2011-04-29T08:49:29Z</time>
      </trkpt>
      <trkpt lat="43.62566" lon="3.10254">
        <ele>316.89</ele>
        <time>2011-04-29T08:49:33Z</time>
      </trkpt>
      <trkpt lat="43.62561" lon="3.10249">
        <ele>311.6</ele>
        <time>2011-04-29T08:49:39Z</time>
      </trkpt>
      <trkpt lat="43.6256" lon="3.10248">
        <ele>319.78</ele>
        <time>2011-04-29T08:49:40Z</time>
      </trkpt>
      <trkpt lat="43.62542" lon="3.10229">
        <ele>317.85</ele>
        <time>2011-04-29T08:49:59Z</time>
      </trkpt>
      <trkpt lat="43.62531" lon="3.10216">
        <ele>317.37</ele>
        <time>2011-04-29T08:50:12Z</time>
      </trkpt>
      <trkpt lat="43.62519" lon="3.10198">
        <ele>316.89</ele>
        <time>2011-04-29T08:50:27Z</time>
      </trkpt>
      <trkpt lat="43.62506" lon="3.10182">
        <ele>316.89</ele>
        <time>2011-04-29T08:50:42Z</time>
      </trkpt>
      <trkpt lat="43.62494" lon="3.10167">
        <ele>315.45</ele>
        <time>2011-04-29T08:50:56Z</time>
      </trkpt>
      <trkpt lat="43.6248" lon="3.10148">
        <ele>315.45</ele>
        <time>2011-04-29T08:51:14Z</time>
      </trkpt>
      <trkpt lat="43.62468" lon="3.10129">
        <ele>314.97</ele>
        <time>2011-04-29T08:51:31Z</time>
      </trkpt>
      <trkpt lat="43.62453" lon="3.10109">
        <ele>313.53</ele>
        <time>2011-04-29T08:51:50Z</time>
      </trkpt>
      <trkpt lat="43.62452" lon="3.10108">
        <ele>313.53</ele>
        <time>2011-04-29T08:51:51Z</time>
      </trkpt>
      <trkpt lat="43.62437" lon="3.10084">
        <ele>312.57</ele>
        <time>2011-04-29T08:52:11Z</time>
      </trkpt>
      <trkpt lat="43.6242" lon="3.10078">
        <ele>310.64</ele>
        <time>2011-04-29T08:52:27Z</time>
      </trkpt>
      <trkpt lat="43.62404" lon="3.10076">
        <ele>308.72</ele>
        <time>2011-04-29T08:52:44Z</time>
      </trkpt>
      <trkpt lat="43.6239" lon="3.10062">
        <ele>308.72</ele>
        <time>2011-04-29T08:52:58Z</time>
      </trkpt>
      <trkpt lat="43.62383" lon="3.10052">
        <ele>307.28</ele>
        <time>2011-04-29T08:53:07Z</time>
      </trkpt>
      <trkpt lat="43.62369" lon="3.10036">
        <ele>307.28</ele>
        <time>2011-04-29T08:53:24Z</time>
      </trkpt>
      <trkpt lat="43.62358" lon="3.10024">
        <ele>305.84</ele>
        <time>2011-04-29T08:53:38Z</time>
      </trkpt>
      <trkpt lat="43.62343" lon="3.10015">
        <ele>305.84</ele>
        <time>2011-04-29T08:53:52Z</time>
      </trkpt>
      <trkpt lat="43.62321" lon="3.10007">
        <ele>305.84</ele>
        <time>2011-04-29T08:54:08Z</time>
      </trkpt>
      <trkpt lat="43.62306" lon="3.10005">
        <ele>306.8</ele>
        <time>2011-04-29T08:54:23Z</time>
      </trkpt>
      <trkpt lat="43.62292" lon="3.09997">
        <ele>306.32</ele>
        <time>2011-04-29T08:54:37Z</time>
      </trkpt>
      <trkpt lat="43.62271" lon="3.09985">
        <ele>306.32</ele>
        <time>2011-04-29T08:54:53Z</time>
      </trkpt>
      <trkpt lat="43.62292" lon="3.09997">
        <ele>359.19</ele>
        <time>2011-04-29T09:02:46Z</time>
      </trkpt>
      <trkpt lat="43.62292" lon="3.09997">
        <ele>274.11</ele>
        <time>2011-04-29T09:02:47Z</time>
      </trkpt>
      <trkpt lat="43.62292" lon="3.09997">
        <ele>274.11</ele>
        <time>2011-04-29T09:02:48Z</time>
      </trkpt>
      <trkpt lat="43.62292" lon="3.09997">
        <ele>274.59</ele>
        <time>2011-04-29T09:02:50Z</time>
      </trkpt>
      <trkpt lat="43.62048" lon="3.0982">
        <ele>274.59</ele>
        <time>2011-04-29T09:02:52Z</time>
      </trkpt>
      <trkpt lat="43.62035" lon="3.0983">
        <ele>274.11</ele>
        <time>2011-04-29T09:03:07Z</time>
      </trkpt>
      <trkpt lat="43.62026" lon="3.09832">
        <ele>271.71</ele>
        <time>2011-04-29T09:03:17Z</time>
      </trkpt>
      <trkpt lat="43.62022" lon="3.09833">
        <ele>267.86</ele>
        <time>2011-04-29T09:03:20Z</time>
      </trkpt>
      <trkpt lat="43.62022" lon="3.09833">
        <ele>271.23</ele>
        <time>2011-04-29T09:14:53Z</time>
      </trkpt>
      <trkpt lat="43.62022" lon="3.09833">
        <ele>275.07</ele>
        <time>2011-04-29T09:14:54Z</time>
      </trkpt>
      <trkpt lat="43.62022" lon="3.09833">
        <ele>275.07</ele>
        <time>2011-04-29T09:14:55Z</time>
      </trkpt>
      <trkpt lat="43.614" lon="3.09635">
        <ele>276.52</ele>
        <time>2011-04-29T09:14:56Z</time>
      </trkpt>
      <trkpt lat="43.61407" lon="3.09615">
        <ele>277.48</ele>
        <time>2011-04-29T09:15:12Z</time>
      </trkpt>
      <trkpt lat="43.61408" lon="3.09609">
        <ele>279.88</ele>
        <time>2011-04-29T09:15:16Z</time>
      </trkpt>
      <trkpt lat="43.61408" lon="3.096">
        <ele>272.19</ele>
        <time>2011-04-29T09:15:22Z</time>
      </trkpt>
      <trkpt lat="43.61408" lon="3.09599">
        <ele>278.92</ele>
        <time>2011-04-29T09:15:23Z</time>
      </trkpt>
      <trkpt lat="43.61408" lon="3.09596">
        <ele>278.44</ele>
        <time>2011-04-29T09:15:25Z</time>
      </trkpt>
      <trkpt lat="43.61407" lon="3.09592">
        <ele>277.96</ele>
        <time>2011-04-29T09:15:28Z</time>
      </trkpt>
      <trkpt lat="43.61401" lon="3.09583">
        <ele>266.9</ele>
        <time>2011-04-29T09:15:36Z</time>
      </trkpt>
      <trkpt lat="43.61401" lon="3.09583">
        <ele>276.52</ele>
        <time>2011-04-29T09:21:48Z</time>
      </trkpt>
      <trkpt lat="43.61401" lon="3.09583">
        <ele>301.03</ele>
        <time>2011-04-29T09:21:49Z</time>
      </trkpt>
      <trkpt lat="43.61116" lon="3.09506">
        <ele>299.59</ele>
        <time>2011-04-29T09:21:51Z</time>
      </trkpt>
      <trkpt lat="43.61119" lon="3.09493">
        <ele>303.43</ele>
        <time>2011-04-29T09:21:59Z</time>
      </trkpt>
      <trkpt lat="43.61119" lon="3.0949">
        <ele>300.07</ele>
        <time>2011-04-29T09:22:02Z</time>
      </trkpt>
      <trkpt lat="43.6112" lon="3.09489">
        <ele>300.07</ele>
        <time>2011-04-29T09:22:07Z</time>
      </trkpt>
      <trkpt lat="43.61119" lon="3.09486">
        <ele>300.55</ele>
        <time>2011-04-29T09:22:10Z</time>
      </trkpt>
      <trkpt lat="43.61118" lon="3.09481">
        <ele>300.07</ele>
        <time>2011-04-29T09:22:14Z</time>
      </trkpt>
      <trkpt lat="43.61121" lon="3.09475">
        <ele>289.49</ele>
        <time>2011-04-29T09:22:20Z</time>
      </trkpt>
      <trkpt lat="43.61121" lon="3.09474">
        <ele>301.51</ele>
        <time>2011-04-29T09:22:21Z</time>
      </trkpt>
      <trkpt lat="43.61127" lon="3.09449">
        <ele>301.03</ele>
        <time>2011-04-29T09:22:38Z</time>
      </trkpt>
      <trkpt lat="43.61129" lon="3.09444">
        <ele>291.9</ele>
        <time>2011-04-29T09:22:42Z</time>
      </trkpt>
      <trkpt lat="43.6113" lon="3.09443">
        <ele>295.74</ele>
        <time>2011-04-29T09:22:43Z</time>
      </trkpt>
      <trkpt lat="43.6113" lon="3.09441">
        <ele>301.99</ele>
        <time>2011-04-29T09:22:44Z</time>
      </trkpt>
      <trkpt lat="43.6113" lon="3.0944">
        <ele>300.07</ele>
        <time>2011-04-29T09:22:45Z</time>
      </trkpt>
      <trkpt lat="43.61131" lon="3.09439">
        <ele>305.36</ele>
        <time>2011-04-29T09:22:46Z</time>
      </trkpt>
      <trkpt lat="43.61131" lon="3.09437">
        <ele>303.43</ele>
        <time>2011-04-29T09:22:47Z</time>
      </trkpt>
      <trkpt lat="43.61132" lon="3.09434">
        <ele>298.63</ele>
        <time>2011-04-29T09:22:49Z</time>
      </trkpt>
      <trkpt lat="43.61133" lon="3.09432">
        <ele>295.26</ele>
        <time>2011-04-29T09:22:50Z</time>
      </trkpt>
      <trkpt lat="43.61133" lon="3.09431">
        <ele>305.36</ele>
        <time>2011-04-29T09:22:51Z</time>
      </trkpt>
      <trkpt lat="43.61133" lon="3.09429">
        <ele>280.84</ele>
        <time>2011-04-29T09:22:52Z</time>
      </trkpt>
      <trkpt lat="43.61134" lon="3.09428">
        <ele>311.6</ele>
        <time>2011-04-29T09:22:53Z</time>
      </trkpt>
      <trkpt lat="43.61134" lon="3.09426">
        <ele>303.91</ele>
        <time>2011-04-29T09:22:54Z</time>
      </trkpt>
      <trkpt lat="43.61137" lon="3.09415">
        <ele>296.22</ele>
        <time>2011-04-29T09:23:01Z</time>
      </trkpt>
      <trkpt lat="43.61137" lon="3.09414">
        <ele>302.95</ele>
        <time>2011-04-29T09:23:02Z</time>
      </trkpt>
      <trkpt lat="43.61137" lon="3.09412">
        <ele>287.09</ele>
        <time>2011-04-29T09:23:03Z</time>
      </trkpt>
      <trkpt lat="43.61138" lon="3.0941">
        <ele>293.82</ele>
        <time>2011-04-29T09:23:04Z</time>
      </trkpt>
      <trkpt lat="43.61138" lon="3.09409">
        <ele>307.28</ele>
        <time>2011-04-29T09:23:05Z</time>
      </trkpt>
      <trkpt lat="43.61139" lon="3.09407">
        <ele>304.39</ele>
        <time>2011-04-29T09:23:06Z</time>
      </trkpt>
      <trkpt lat="43.6114" lon="3.09403">
        <ele>309.2</ele>
        <time>2011-04-29T09:23:09Z</time>
      </trkpt>
      <trkpt lat="43.6114" lon="3.09402">
        <ele>305.36</ele>
        <time>2011-04-29T09:23:10Z</time>
      </trkpt>
      <trkpt lat="43.61143" lon="3.09389">
        <ele>301.03</ele>
        <time>2011-04-29T09:23:19Z</time>
      </trkpt>
      <trkpt lat="43.61143" lon="3.09389">
        <ele>303.91</ele>
        <time>2011-04-29T09:36:10Z</time>
      </trkpt>
      <trkpt lat="43.61143" lon="3.09389">
        <ele>306.32</ele>
        <time>2011-04-29T09:36:11Z</time>
      </trkpt>
      <trkpt lat="43.60574" lon="3.08833">
        <ele>306.8</ele>
        <time>2011-04-29T09:36:16Z</time>
      </trkpt>
      <trkpt lat="43.60576" lon="3.0884">
        <ele>305.84</ele>
        <time>2011-04-29T09:36:22Z</time>
      </trkpt>
      <trkpt lat="43.60575" lon="3.08837">
        <ele>305.84</ele>
        <time>2011-04-29T09:36:28Z</time>
      </trkpt>
      <trkpt lat="43.60573" lon="3.08834">
        <ele>304.39</ele>
        <time>2011-04-29T09:36:31Z</time>
      </trkpt>
      <trkpt lat="43.60573" lon="3.08832">
        <ele>309.2</ele>
        <time>2011-04-29T09:36:32Z</time>
      </trkpt>
      <trkpt lat="43.60573" lon="3.08831">
        <ele>305.36</ele>
        <time>2011-04-29T09:36:33Z</time>
      </trkpt>
      <trkpt lat="43.60572" lon="3.08829">
        <ele>303.91</ele>
        <time>2011-04-29T09:36:35Z</time>
      </trkpt>
      <trkpt lat="43.60571" lon="3.08825">
        <ele>302.95</ele>
        <time>2011-04-29T09:36:43Z</time>
      </trkpt>
      <trkpt lat="43.60571" lon="3.0883">
        <ele>302.95</ele>
        <time>2011-04-29T09:36:48Z</time>
      </trkpt>
      <trkpt lat="43.60574" lon="3.08841">
        <ele>305.36</ele>
        <time>2011-04-29T09:37:00Z</time>
      </trkpt>
      <trkpt lat="43.60575" lon="3.08855">
        <ele>306.8</ele>
        <time>2011-04-29T09:37:11Z</time>
      </trkpt>
      <trkpt lat="43.60575" lon="3.08868">
        <ele>307.28</ele>
        <time>2011-04-29T09:37:28Z</time>
      </trkpt>
      <trkpt lat="43.60571" lon="3.08871">
        <ele>307.76</ele>
        <time>2011-04-29T09:37:39Z</time>
      </trkpt>
      <trkpt lat="43.60551" lon="3.0888">
        <ele>305.36</ele>
        <time>2011-04-29T09:37:58Z</time>
      </trkpt>
      <trkpt lat="43.60545" lon="3.08875">
        <ele>303.43</ele>
        <time>2011-04-29T09:38:05Z</time>
      </trkpt>
      <trkpt lat="43.60532" lon="3.08855">
        <ele>301.51</ele>
        <time>2011-04-29T09:38:21Z</time>
      </trkpt>
      <trkpt lat="43.60532" lon="3.08845">
        <ele>301.03</ele>
        <time>2011-04-29T09:38:27Z</time>
      </trkpt>
      <trkpt lat="43.6051" lon="3.08841">
        <ele>299.59</ele>
        <time>2011-04-29T09:38:44Z</time>
      </trkpt>
      <trkpt lat="43.60509" lon="3.08841">
        <ele>306.8</ele>
        <time>2011-04-29T09:38:51Z</time>
      </trkpt>
      <trkpt lat="43.60508" lon="3.0884">
        <ele>302.95</ele>
        <time>2011-04-29T09:38:52Z</time>
      </trkpt>
      <trkpt lat="43.60508" lon="3.0884">
        <ele>299.59</ele>
        <time>2011-04-29T09:38:53Z</time>
      </trkpt>
      <trkpt lat="43.60507" lon="3.0884">
        <ele>299.59</ele>
        <time>2011-04-29T09:38:54Z</time>
      </trkpt>
      <trkpt lat="43.60507" lon="3.0884">
        <ele>295.26</ele>
        <time>2011-04-29T09:38:55Z</time>
      </trkpt>
      <trkpt lat="43.60506" lon="3.0884">
        <ele>301.03</ele>
        <time>2011-04-29T09:38:56Z</time>
      </trkpt>
      <trkpt lat="43.60504" lon="3.0884">
        <ele>297.18</ele>
        <time>2011-04-29T09:38:59Z</time>
      </trkpt>
      <trkpt lat="43.60498" lon="3.08838">
        <ele>295.26</ele>
        <time>2011-04-29T09:39:09Z</time>
      </trkpt>
      <trkpt lat="43.6049" lon="3.08836">
        <ele>292.86</ele>
        <time>2011-04-29T09:39:21Z</time>
      </trkpt>
      <trkpt lat="43.60484" lon="3.08833">
        <ele>290.46</ele>
        <time>2011-04-29T09:39:29Z</time>
      </trkpt>
      <trkpt lat="43.60474" lon="3.08828">
        <ele>288.53</ele>
        <time>2011-04-29T09:39:41Z</time>
      </trkpt>
      <trkpt lat="43.60462" lon="3.08824">
        <ele>285.65</ele>
        <time>2011-04-29T09:39:55Z</time>
      </trkpt>
      <trkpt lat="43.60462" lon="3.08823">
        <ele>287.09</ele>
        <time>2011-04-29T09:39:58Z</time>
      </trkpt>
      <trkpt lat="43.60462" lon="3.08823">
        <ele>283.25</ele>
        <time>2011-04-29T09:40:00Z</time>
      </trkpt>
      <trkpt lat="43.60462" lon="3.08823">
        <ele>288.53</ele>
        <time>2011-04-29T09:40:01Z</time>
      </trkpt>
      <trkpt lat="43.60462" lon="3.08823">
        <ele>284.69</ele>
        <time>2011-04-29T09:40:02Z</time>
      </trkpt>
      <trkpt lat="43.60461" lon="3.0882">
        <ele>288.05</ele>
        <time>2011-04-29T09:40:14Z</time>
      </trkpt>
      <trkpt lat="43.60459" lon="3.0881">
        <ele>284.69</ele>
        <time>2011-04-29T09:40:22Z</time>
      </trkpt>
      <trkpt lat="43.60456" lon="3.08806">
        <ele>280.84</ele>
        <time>2011-04-29T09:40:28Z</time>
      </trkpt>
      <trkpt lat="43.60455" lon="3.08805">
        <ele>284.69</ele>
        <time>2011-04-29T09:40:29Z</time>
      </trkpt>
      <trkpt lat="43.6045" lon="3.08801">
        <ele>280.84</ele>
        <time>2011-04-29T09:40:35Z</time>
      </trkpt>
      <trkpt lat="43.60446" lon="3.08799">
        <ele>274.59</ele>
        <time>2011-04-29T09:40:41Z</time>
      </trkpt>
      <trkpt lat="43.60445" lon="3.08799">
        <ele>284.21</ele>
        <time>2011-04-29T09:40:42Z</time>
      </trkpt>
      <trkpt lat="43.60443" lon="3.08798">
        <ele>280.36</ele>
        <time>2011-04-29T09:40:44Z</time>
      </trkpt>
      <trkpt lat="43.60434" lon="3.08796">
        <ele>277</ele>
        <time>2011-04-29T09:40:53Z</time>
      </trkpt>
      <trkpt lat="43.60432" lon="3.08794">
        <ele>276.52</ele>
        <time>2011-04-29T09:40:55Z</time>
      </trkpt>
      <trkpt lat="43.60425" lon="3.0879">
        <ele>274.59</ele>
        <time>2011-04-29T09:41:05Z</time>
      </trkpt>
      <trkpt lat="43.60416" lon="3.08785">
        <ele>279.4</ele>
        <time>2011-04-29T09:41:16Z</time>
      </trkpt>
      <trkpt lat="43.60416" lon="3.08785">
        <ele>275.56</ele>
        <time>2011-04-29T09:41:17Z</time>
      </trkpt>
      <trkpt lat="43.60413" lon="3.08783">
        <ele>260.17</ele>
        <time>2011-04-29T09:41:20Z</time>
      </trkpt>
      <trkpt lat="43.60412" lon="3.08783">
        <ele>273.63</ele>
        <time>2011-04-29T09:41:21Z</time>
      </trkpt>
      <trkpt lat="43.6041" lon="3.08782">
        <ele>277</ele>
        <time>2011-04-29T09:41:23Z</time>
      </trkpt>
      <trkpt lat="43.60409" lon="3.08781">
        <ele>275.07</ele>
        <time>2011-04-29T09:41:24Z</time>
      </trkpt>
      <trkpt lat="43.60408" lon="3.0878">
        <ele>263.06</ele>
        <time>2011-04-29T09:41:25Z</time>
      </trkpt>
      <trkpt lat="43.60407" lon="3.08779">
        <ele>270.75</ele>
        <time>2011-04-29T09:41:26Z</time>
      </trkpt>
      <trkpt lat="43.60406" lon="3.08779">
        <ele>276.04</ele>
        <time>2011-04-29T09:41:27Z</time>
      </trkpt>
      <trkpt lat="43.60405" lon="3.08778">
        <ele>262.1</ele>
        <time>2011-04-29T09:41:28Z</time>
      </trkpt>
      <trkpt lat="43.60404" lon="3.08778">
        <ele>267.86</ele>
        <time>2011-04-29T09:41:29Z</time>
      </trkpt>
      <trkpt lat="43.60403" lon="3.08777">
        <ele>271.71</ele>
        <time>2011-04-29T09:41:30Z</time>
      </trkpt>
      <trkpt lat="43.60402" lon="3.08776">
        <ele>271.23</ele>
        <time>2011-04-29T09:41:31Z</time>
      </trkpt>
      <trkpt lat="43.60399" lon="3.08774">
        <ele>269.31</ele>
        <time>2011-04-29T09:41:34Z</time>
      </trkpt>
      <trkpt lat="43.60384" lon="3.08765">
        <ele>266.42</ele>
        <time>2011-04-29T09:41:50Z</time>
      </trkpt>
      <trkpt lat="43.60377" lon="3.08762">
        <ele>264.98</ele>
        <time>2011-04-29T09:41:58Z</time>
      </trkpt>
      <trkpt lat="43.60374" lon="3.0876">
        <ele>264.98</ele>
        <time>2011-04-29T09:42:01Z</time>
      </trkpt>
      <trkpt lat="43.60364" lon="3.08744">
        <ele>262.1</ele>
        <time>2011-04-29T09:42:14Z</time>
      </trkpt>
      <trkpt lat="43.60346" lon="3.08734">
        <ele>260.65</ele>
        <time>2011-04-29T09:42:32Z</time>
      </trkpt>
      <trkpt lat="43.60326" lon="3.08719">
        <ele>259.69</ele>
        <time>2011-04-29T09:42:50Z</time>
      </trkpt>
      <trkpt lat="43.60324" lon="3.08717">
        <ele>258.73</ele>
        <time>2011-04-29T09:42:53Z</time>
      </trkpt>
      <trkpt lat="43.60305" lon="3.08709">
        <ele>256.81</ele>
        <time>2011-04-29T09:43:12Z</time>
      </trkpt>
      <trkpt lat="43.60299" lon="3.08707">
        <ele>256.33</ele>
        <time>2011-04-29T09:43:19Z</time>
      </trkpt>
      <trkpt lat="43.60286" lon="3.08697">
        <ele>256.33</ele>
        <time>2011-04-29T09:43:34Z</time>
      </trkpt>
      <trkpt lat="43.6028" lon="3.08703">
        <ele>255.37</ele>
        <time>2011-04-29T09:43:48Z</time>
      </trkpt>
      <trkpt lat="43.60271" lon="3.08712">
        <ele>250.56</ele>
        <time>2011-04-29T09:43:55Z</time>
      </trkpt>
      <trkpt lat="43.6027" lon="3.08713">
        <ele>256.33</ele>
        <time>2011-04-29T09:43:56Z</time>
      </trkpt>
      <trkpt lat="43.6026" lon="3.0872">
        <ele>254.89</ele>
        <time>2011-04-29T09:44:08Z</time>
      </trkpt>
      <trkpt lat="43.60242" lon="3.08713">
        <ele>253.93</ele>
        <time>2011-04-29T09:44:25Z</time>
      </trkpt>
      <trkpt lat="43.60234" lon="3.08711">
        <ele>253.93</ele>
        <time>2011-04-29T09:44:32Z</time>
      </trkpt>
      <trkpt lat="43.60225" lon="3.08699">
        <ele>253.44</ele>
        <time>2011-04-29T09:44:47Z</time>
      </trkpt>
      <trkpt lat="43.60227" lon="3.08698">
        <ele>252.48</ele>
        <time>2011-04-29T09:44:50Z</time>
      </trkpt>
      <trkpt lat="43.60232" lon="3.0868">
        <ele>252.48</ele>
        <time>2011-04-29T09:45:06Z</time>
      </trkpt>
      <trkpt lat="43.60231" lon="3.08676">
        <ele>252</ele>
        <time>2011-04-29T09:45:08Z</time>
      </trkpt>
      <trkpt lat="43.60224" lon="3.08652">
        <ele>252</ele>
        <time>2011-04-29T09:45:26Z</time>
      </trkpt>
      <trkpt lat="43.60226" lon="3.08643">
        <ele>251.04</ele>
        <time>2011-04-29T09:45:35Z</time>
      </trkpt>
      <trkpt lat="43.60224" lon="3.08631">
        <ele>251.52</ele>
        <time>2011-04-29T09:45:40Z</time>
      </trkpt>
      <trkpt lat="43.60217" lon="3.08604">
        <ele>250.56</ele>
        <time>2011-04-29T09:45:57Z</time>
      </trkpt>
      <trkpt lat="43.60208" lon="3.08585">
        <ele>249.12</ele>
        <time>2011-04-29T09:46:12Z</time>
      </trkpt>
      <trkpt lat="43.60194" lon="3.0857">
        <ele>249.6</ele>
        <time>2011-04-29T09:46:29Z</time>
      </trkpt>
      <trkpt lat="43.60187" lon="3.08571">
        <ele>249.6</ele>
        <time>2011-04-29T09:47:04Z</time>
      </trkpt>
      <trkpt lat="43.60181" lon="3.08565">
        <ele>248.64</ele>
        <time>2011-04-29T09:47:10Z</time>
      </trkpt>
      <trkpt lat="43.60175" lon="3.08561">
        <ele>249.6</ele>
        <time>2011-04-29T09:47:15Z</time>
      </trkpt>
      <trkpt lat="43.60172" lon="3.08558">
        <ele>249.12</ele>
        <time>2011-04-29T09:47:19Z</time>
      </trkpt>
      <trkpt lat="43.6016" lon="3.08546">
        <ele>246.72</ele>
        <time>2011-04-29T09:47:33Z</time>
      </trkpt>
      <trkpt lat="43.60148" lon="3.08537">
        <ele>244.31</ele>
        <time>2011-04-29T09:47:49Z</time>
      </trkpt>
      <trkpt lat="43.60138" lon="3.08525">
        <ele>243.35</ele>
        <time>2011-04-29T09:48:02Z</time>
      </trkpt>
      <trkpt lat="43.60131" lon="3.08518">
        <ele>241.43</ele>
        <time>2011-04-29T09:48:17Z</time>
      </trkpt>
      <trkpt lat="43.60129" lon="3.08511">
        <ele>239.51</ele>
        <time>2011-04-29T09:48:31Z</time>
      </trkpt>
      <trkpt lat="43.60125" lon="3.08504">
        <ele>236.62</ele>
        <time>2011-04-29T09:48:47Z</time>
      </trkpt>
      <trkpt lat="43.60119" lon="3.08498">
        <ele>234.7</ele>
        <time>2011-04-29T09:49:00Z</time>
      </trkpt>
      <trkpt lat="43.60113" lon="3.08498">
        <ele>232.3</ele>
        <time>2011-04-29T09:49:15Z</time>
      </trkpt>
      <trkpt lat="43.60109" lon="3.08497">
        <ele>231.81</ele>
        <time>2011-04-29T09:49:29Z</time>
      </trkpt>
      <trkpt lat="43.60101" lon="3.08488">
        <ele>229.89</ele>
        <time>2011-04-29T09:49:45Z</time>
      </trkpt>
      <trkpt lat="43.60094" lon="3.08477">
        <ele>226.53</ele>
        <time>2011-04-29T09:50:00Z</time>
      </trkpt>
      <trkpt lat="43.60094" lon="3.08476">
        <ele>227.01</ele>
        <time>2011-04-29T09:50:03Z</time>
      </trkpt>
      <trkpt lat="43.60093" lon="3.08474">
        <ele>226.05</ele>
        <time>2011-04-29T09:50:05Z</time>
      </trkpt>
      <trkpt lat="43.60086" lon="3.08457">
        <ele>224.12</ele>
        <time>2011-04-29T09:50:21Z</time>
      </trkpt>
      <trkpt lat="43.60085" lon="3.08457">
        <ele>224.61</ele>
        <time>2011-04-29T09:50:22Z</time>
      </trkpt>
      <trkpt lat="43.60076" lon="3.08447">
        <ele>223.16</ele>
        <time>2011-04-29T09:50:38Z</time>
      </trkpt>
      <trkpt lat="43.60065" lon="3.08448">
        <ele>223.16</ele>
        <time>2011-04-29T09:50:48Z</time>
      </trkpt>
      <trkpt lat="43.60053" lon="3.08445">
        <ele>221.72</ele>
        <time>2011-04-29T09:50:56Z</time>
      </trkpt>
      <trkpt lat="43.6005" lon="3.08444">
        <ele>221.72</ele>
        <time>2011-04-29T09:50:59Z</time>
      </trkpt>
      <trkpt lat="43.60033" lon="3.0844">
        <ele>220.76</ele>
        <time>2011-04-29T09:51:16Z</time>
      </trkpt>
      <trkpt lat="43.60019" lon="3.08441">
        <ele>218.36</ele>
        <time>2011-04-29T09:51:32Z</time>
      </trkpt>
      <trkpt lat="43.60015" lon="3.08438">
        <ele>215.95</ele>
        <time>2011-04-29T09:51:46Z</time>
      </trkpt>
      <trkpt lat="43.60005" lon="3.08445">
        <ele>213.07</ele>
        <time>2011-04-29T09:52:05Z</time>
      </trkpt>
      <trkpt lat="43.60002" lon="3.08445">
        <ele>212.59</ele>
        <time>2011-04-29T09:52:09Z</time>
      </trkpt>
      <trkpt lat="43.59995" lon="3.08446">
        <ele>211.63</ele>
        <time>2011-04-29T09:52:16Z</time>
      </trkpt>
      <trkpt lat="43.59989" lon="3.08448">
        <ele>210.19</ele>
        <time>2011-04-29T09:52:24Z</time>
      </trkpt>
      <trkpt lat="43.59986" lon="3.08452">
        <ele>209.7</ele>
        <time>2011-04-29T09:52:29Z</time>
      </trkpt>
      <trkpt lat="43.5998" lon="3.08462">
        <ele>206.34</ele>
        <time>2011-04-29T09:52:46Z</time>
      </trkpt>
      <trkpt lat="43.59979" lon="3.08463">
        <ele>206.82</ele>
        <time>2011-04-29T09:52:48Z</time>
      </trkpt>
      <trkpt lat="43.59968" lon="3.08451">
        <ele>206.34</ele>
        <time>2011-04-29T09:53:05Z</time>
      </trkpt>
      <trkpt lat="43.59962" lon="3.08445">
        <ele>203.46</ele>
        <time>2011-04-29T09:53:19Z</time>
      </trkpt>
      <trkpt lat="43.5996" lon="3.08438">
        <ele>201.53</ele>
        <time>2011-04-29T09:53:29Z</time>
      </trkpt>
      <trkpt lat="43.59955" lon="3.0842">
        <ele>201.05</ele>
        <time>2011-04-29T09:53:45Z</time>
      </trkpt>
      <trkpt lat="43.59955" lon="3.08414">
        <ele>200.57</ele>
        <time>2011-04-29T09:53:48Z</time>
      </trkpt>
      <trkpt lat="43.59952" lon="3.08404">
        <ele>196.73</ele>
        <time>2011-04-29T09:53:59Z</time>
      </trkpt>
      <trkpt lat="43.59951" lon="3.08391">
        <ele>197.69</ele>
        <time>2011-04-29T09:54:12Z</time>
      </trkpt>
      <trkpt lat="43.59948" lon="3.08388">
        <ele>198.17</ele>
        <time>2011-04-29T09:54:30Z</time>
      </trkpt>
      <trkpt lat="43.59944" lon="3.08388">
        <ele>191.92</ele>
        <time>2011-04-29T09:54:47Z</time>
      </trkpt>
      <trkpt lat="43.59944" lon="3.08388">
        <ele>206.34</ele>
        <time>2011-04-29T09:54:48Z</time>
      </trkpt>
      <trkpt lat="43.59944" lon="3.08388">
        <ele>203.46</ele>
        <time>2011-04-29T09:54:49Z</time>
      </trkpt>
      <trkpt lat="43.59944" lon="3.08388">
        <ele>194.8</ele>
        <time>2011-04-29T09:54:50Z</time>
      </trkpt>
      <trkpt lat="43.59944" lon="3.08388">
        <ele>202.98</ele>
        <time>2011-04-29T09:54:51Z</time>
      </trkpt>
      <trkpt lat="43.59944" lon="3.08388">
        <ele>199.13</ele>
        <time>2011-04-29T09:54:53Z</time>
      </trkpt>
      <trkpt lat="43.59944" lon="3.08388">
        <ele>194.8</ele>
        <time>2011-04-29T09:54:54Z</time>
      </trkpt>
      <trkpt lat="43.59944" lon="3.08388">
        <ele>199.13</ele>
        <time>2011-04-29T09:54:55Z</time>
      </trkpt>
      <trkpt lat="43.59942" lon="3.08389">
        <ele>194.8</ele>
        <time>2011-04-29T09:54:57Z</time>
      </trkpt>
      <trkpt lat="43.59941" lon="3.08389">
        <ele>200.09</ele>
        <time>2011-04-29T09:54:58Z</time>
      </trkpt>
      <trkpt lat="43.59931" lon="3.08387">
        <ele>197.69</ele>
        <time>2011-04-29T09:55:12Z</time>
      </trkpt>
      <trkpt lat="43.59912" lon="3.08388">
        <ele>198.17</ele>
        <time>2011-04-29T09:55:29Z</time>
      </trkpt>
      <trkpt lat="43.59891" lon="3.08391">
        <ele>198.17</ele>
        <time>2011-04-29T09:55:46Z</time>
      </trkpt>
      <trkpt lat="43.5989" lon="3.08391">
        <ele>203.94</ele>
        <time>2011-04-29T09:55:47Z</time>
      </trkpt>
      <trkpt lat="43.59889" lon="3.08391">
        <ele>198.17</ele>
        <time>2011-04-29T09:55:48Z</time>
      </trkpt>
      <trkpt lat="43.59886" lon="3.0839">
        <ele>192.4</ele>
        <time>2011-04-29T09:55:50Z</time>
      </trkpt>
      <trkpt lat="43.59885" lon="3.08391">
        <ele>202.98</ele>
        <time>2011-04-29T09:55:51Z</time>
      </trkpt>
      <trkpt lat="43.59884" lon="3.08391">
        <ele>197.69</ele>
        <time>2011-04-29T09:55:52Z</time>
      </trkpt>
      <trkpt lat="43.59881" lon="3.08392">
        <ele>202.01</ele>
        <time>2011-04-29T09:55:55Z</time>
      </trkpt>
      <trkpt lat="43.5988" lon="3.08392">
        <ele>198.65</ele>
        <time>2011-04-29T09:55:56Z</time>
      </trkpt>
      <trkpt lat="43.59868" lon="3.0839">
        <ele>197.21</ele>
        <time>2011-04-29T09:56:05Z</time>
      </trkpt>
      <trkpt lat="43.59852" lon="3.08389">
        <ele>195.77</ele>
        <time>2011-04-29T09:56:20Z</time>
      </trkpt>
      <trkpt lat="43.59835" lon="3.08394">
        <ele>194.8</ele>
        <time>2011-04-29T09:56:37Z</time>
      </trkpt>
      <trkpt lat="43.59813" lon="3.08396">
        <ele>194.8</ele>
        <time>2011-04-29T09:56:53Z</time>
      </trkpt>
      <trkpt lat="43.59798" lon="3.08395">
        <ele>194.32</ele>
        <time>2011-04-29T09:57:09Z</time>
      </trkpt>
      <trkpt lat="43.59779" lon="3.08398">
        <ele>193.36</ele>
        <time>2011-04-29T09:57:26Z</time>
      </trkpt>
      <trkpt lat="43.59756" lon="3.08405">
        <ele>192.88</ele>
        <time>2011-04-29T09:57:41Z</time>
      </trkpt>
      <trkpt lat="43.59734" lon="3.08406">
        <ele>192.88</ele>
        <time>2011-04-29T09:58:01Z</time>
      </trkpt>
      <trkpt lat="43.59718" lon="3.08412">
        <ele>191.44</ele>
        <time>2011-04-29T09:58:14Z</time>
      </trkpt>
      <trkpt lat="43.597" lon="3.08414">
        <ele>191.92</ele>
        <time>2011-04-29T09:58:31Z</time>
      </trkpt>
      <trkpt lat="43.59676" lon="3.08427">
        <ele>190.96</ele>
        <time>2011-04-29T09:58:48Z</time>
      </trkpt>
      <trkpt lat="43.59655" lon="3.08436">
        <ele>190.96</ele>
        <time>2011-04-29T09:59:06Z</time>
      </trkpt>
      <trkpt lat="43.59633" lon="3.08445">
        <ele>189.52</ele>
        <time>2011-04-29T09:59:24Z</time>
      </trkpt>
      <trkpt lat="43.59614" lon="3.08454">
        <ele>190</ele>
        <time>2011-04-29T09:59:45Z</time>
      </trkpt>
      <trkpt lat="43.59591" lon="3.0846">
        <ele>190</ele>
        <time>2011-04-29T10:00:04Z</time>
      </trkpt>
      <trkpt lat="43.59588" lon="3.0846">
        <ele>189.04</ele>
        <time>2011-04-29T10:00:06Z</time>
      </trkpt>
      <trkpt lat="43.59582" lon="3.08458">
        <ele>190</ele>
        <time>2011-04-29T10:00:10Z</time>
      </trkpt>
      <trkpt lat="43.59573" lon="3.08434">
        <ele>189.04</ele>
        <time>2011-04-29T10:00:27Z</time>
      </trkpt>
      <trkpt lat="43.59577" lon="3.08402">
        <ele>190.48</ele>
        <time>2011-04-29T10:00:43Z</time>
      </trkpt>
      <trkpt lat="43.59574" lon="3.08394">
        <ele>190</ele>
        <time>2011-04-29T10:00:48Z</time>
      </trkpt>
      <trkpt lat="43.59569" lon="3.08381">
        <ele>189.52</ele>
        <time>2011-04-29T10:00:59Z</time>
      </trkpt>
      <trkpt lat="43.59574" lon="3.08355">
        <ele>190.48</ele>
        <time>2011-04-29T10:01:14Z</time>
      </trkpt>
      <trkpt lat="43.5957" lon="3.0833">
        <ele>190</ele>
        <time>2011-04-29T10:01:31Z</time>
      </trkpt>
      <trkpt lat="43.5957" lon="3.08306">
        <ele>190.96</ele>
        <time>2011-04-29T10:01:47Z</time>
      </trkpt>
      <trkpt lat="43.59572" lon="3.08298">
        <ele>191.44</ele>
        <time>2011-04-29T10:01:53Z</time>
      </trkpt>
      <trkpt lat="43.59574" lon="3.08269">
        <ele>191.44</ele>
        <time>2011-04-29T10:02:12Z</time>
      </trkpt>
      <trkpt lat="43.59579" lon="3.08242">
        <ele>192.88</ele>
        <time>2011-04-29T10:02:29Z</time>
      </trkpt>
      <trkpt lat="43.59577" lon="3.08242">
        <ele>193.36</ele>
        <time>2011-04-29T10:02:43Z</time>
      </trkpt>
      <trkpt lat="43.59572" lon="3.08238">
        <ele>192.88</ele>
        <time>2011-04-29T10:02:53Z</time>
      </trkpt>
      <trkpt lat="43.59556" lon="3.08225">
        <ele>192.88</ele>
        <time>2011-04-29T10:03:01Z</time>
      </trkpt>
      <trkpt lat="43.5954" lon="3.08218">
        <ele>192.4</ele>
        <time>2011-04-29T10:03:14Z</time>
      </trkpt>
      <trkpt lat="43.59526" lon="3.08221">
        <ele>193.36</ele>
        <time>2011-04-29T10:03:30Z</time>
      </trkpt>
      <trkpt lat="43.59524" lon="3.08212">
        <ele>192.88</ele>
        <time>2011-04-29T10:03:45Z</time>
      </trkpt>
      <trkpt lat="43.59524" lon="3.08212">
        <ele>192.4</ele>
        <time>2011-04-29T10:03:59Z</time>
      </trkpt>
      <trkpt lat="43.59523" lon="3.08213">
        <ele>191.44</ele>
        <time>2011-04-29T10:04:06Z</time>
      </trkpt>
      <trkpt lat="43.59522" lon="3.08216">
        <ele>190.96</ele>
        <time>2011-04-29T10:04:09Z</time>
      </trkpt>
      <trkpt lat="43.59522" lon="3.08217">
        <ele>194.32</ele>
        <time>2011-04-29T10:04:10Z</time>
      </trkpt>
      <trkpt lat="43.59522" lon="3.08219">
        <ele>186.63</ele>
        <time>2011-04-29T10:04:13Z</time>
      </trkpt>
      <trkpt lat="43.59522" lon="3.0822">
        <ele>196.73</ele>
        <time>2011-04-29T10:04:14Z</time>
      </trkpt>
      <trkpt lat="43.59522" lon="3.0822">
        <ele>194.32</ele>
        <time>2011-04-29T10:04:15Z</time>
      </trkpt>
      <trkpt lat="43.59523" lon="3.08222">
        <ele>193.36</ele>
        <time>2011-04-29T10:04:17Z</time>
      </trkpt>
      <trkpt lat="43.59522" lon="3.08227">
        <ele>193.36</ele>
        <time>2011-04-29T10:04:40Z</time>
      </trkpt>
      <trkpt lat="43.59517" lon="3.08225">
        <ele>192.88</ele>
        <time>2011-04-29T10:04:53Z</time>
      </trkpt>
      <trkpt lat="43.59516" lon="3.08225">
        <ele>193.84</ele>
        <time>2011-04-29T10:04:55Z</time>
      </trkpt>
      <trkpt lat="43.59517" lon="3.08226">
        <ele>193.36</ele>
        <time>2011-04-29T10:05:19Z</time>
      </trkpt>
      <trkpt lat="43.59515" lon="3.08221">
        <ele>193.36</ele>
        <time>2011-04-29T10:06:56Z</time>
      </trkpt>
      <trkpt lat="43.59512" lon="3.0822">
        <ele>193.36</ele>
        <time>2011-04-29T10:07:23Z</time>
      </trkpt>
      <trkpt lat="43.59503" lon="3.08222">
        <ele>181.83</ele>
        <time>2011-04-29T10:07:37Z</time>
      </trkpt>
      <trkpt lat="43.59502" lon="3.08222">
        <ele>194.32</ele>
        <time>2011-04-29T10:07:38Z</time>
      </trkpt>
      <trkpt lat="43.595" lon="3.08221">
        <ele>194.8</ele>
        <time>2011-04-29T10:07:40Z</time>
      </trkpt>
      <trkpt lat="43.59484" lon="3.08216">
        <ele>193.84</ele>
        <time>2011-04-29T10:07:59Z</time>
      </trkpt>
      <trkpt lat="43.59468" lon="3.08216">
        <ele>194.8</ele>
        <time>2011-04-29T10:08:09Z</time>
      </trkpt>
      <trkpt lat="43.59466" lon="3.08212">
        <ele>194.32</ele>
        <time>2011-04-29T10:08:14Z</time>
      </trkpt>
      <trkpt lat="43.59468" lon="3.08188">
        <ele>195.77</ele>
        <time>2011-04-29T10:08:31Z</time>
      </trkpt>
      <trkpt lat="43.59465" lon="3.08163">
        <ele>197.21</ele>
        <time>2011-04-29T10:08:48Z</time>
      </trkpt>
      <trkpt lat="43.59462" lon="3.08139">
        <ele>199.13</ele>
        <time>2011-04-29T10:09:05Z</time>
      </trkpt>
      <trkpt lat="43.59461" lon="3.08115">
        <ele>200.57</ele>
        <time>2011-04-29T10:09:22Z</time>
      </trkpt>
      <trkpt lat="43.59459" lon="3.08098">
        <ele>202.49</ele>
        <time>2011-04-29T10:09:35Z</time>
      </trkpt>
      <trkpt lat="43.5946" lon="3.08094">
        <ele>202.49</ele>
        <time>2011-04-29T10:09:38Z</time>
      </trkpt>
      <trkpt lat="43.59452" lon="3.08077">
        <ele>203.94</ele>
        <time>2011-04-29T10:09:52Z</time>
      </trkpt>
      <trkpt lat="43.59452" lon="3.08053">
        <ele>205.86</ele>
        <time>2011-04-29T10:10:11Z</time>
      </trkpt>
      <trkpt lat="43.59455" lon="3.08043">
        <ele>206.82</ele>
        <time>2011-04-29T10:10:21Z</time>
      </trkpt>
      <trkpt lat="43.5947" lon="3.0803">
        <ele>209.22</ele>
        <time>2011-04-29T10:10:37Z</time>
      </trkpt>
      <trkpt lat="43.59479" lon="3.08017">
        <ele>210.19</ele>
        <time>2011-04-29T10:10:53Z</time>
      </trkpt>
      <trkpt lat="43.59482" lon="3.08007">
        <ele>210.67</ele>
        <time>2011-04-29T10:11:00Z</time>
      </trkpt>
      <trkpt lat="43.59483" lon="3.07982">
        <ele>213.07</ele>
        <time>2011-04-29T10:11:16Z</time>
      </trkpt>
      <trkpt lat="43.59483" lon="3.07963">
        <ele>214.99</ele>
        <time>2011-04-29T10:11:32Z</time>
      </trkpt>
      <trkpt lat="43.5948" lon="3.07946">
        <ele>218.36</ele>
        <time>2011-04-29T10:11:47Z</time>
      </trkpt>
      <trkpt lat="43.59476" lon="3.07926">
        <ele>220.28</ele>
        <time>2011-04-29T10:12:04Z</time>
      </trkpt>
      <trkpt lat="43.59469" lon="3.07912">
        <ele>222.68</ele>
        <time>2011-04-29T10:12:20Z</time>
      </trkpt>
      <trkpt lat="43.5946" lon="3.07902">
        <ele>226.05</ele>
        <time>2011-04-29T10:12:37Z</time>
      </trkpt>
      <trkpt lat="43.59447" lon="3.07894">
        <ele>228.93</ele>
        <time>2011-04-29T10:12:54Z</time>
      </trkpt>
      <trkpt lat="43.59437" lon="3.07888">
        <ele>230.85</ele>
        <time>2011-04-29T10:13:11Z</time>
      </trkpt>
      <trkpt lat="43.59437" lon="3.07885">
        <ele>232.78</ele>
        <time>2011-04-29T10:13:20Z</time>
      </trkpt>
      <trkpt lat="43.59447" lon="3.07879">
        <ele>234.22</ele>
        <time>2011-04-29T10:13:36Z</time>
      </trkpt>
      <trkpt lat="43.59451" lon="3.07877">
        <ele>234.7</ele>
        <time>2011-04-29T10:13:44Z</time>
      </trkpt>
      <trkpt lat="43.59465" lon="3.0786">
        <ele>237.58</ele>
        <time>2011-04-29T10:14:05Z</time>
      </trkpt>
      <trkpt lat="43.59467" lon="3.07842">
        <ele>240.47</ele>
        <time>2011-04-29T10:14:20Z</time>
      </trkpt>
      <trkpt lat="43.59461" lon="3.07838">
        <ele>242.87</ele>
        <time>2011-04-29T10:14:39Z</time>
      </trkpt>
      <trkpt lat="43.59459" lon="3.07838">
        <ele>243.83</ele>
        <time>2011-04-29T10:14:43Z</time>
      </trkpt>
      <trkpt lat="43.59439" lon="3.07831">
        <ele>245.75</ele>
        <time>2011-04-29T10:15:04Z</time>
      </trkpt>
      <trkpt lat="43.59433" lon="3.07829">
        <ele>247.68</ele>
        <time>2011-04-29T10:15:15Z</time>
      </trkpt>
      <trkpt lat="43.59414" lon="3.07821">
        <ele>248.64</ele>
        <time>2011-04-29T10:15:32Z</time>
      </trkpt>
      <trkpt lat="43.59395" lon="3.07815">
        <ele>251.52</ele>
        <time>2011-04-29T10:15:50Z</time>
      </trkpt>
      <trkpt lat="43.59386" lon="3.07812">
        <ele>252.48</ele>
        <time>2011-04-29T10:15:59Z</time>
      </trkpt>
      <trkpt lat="43.5938" lon="3.07796">
        <ele>254.89</ele>
        <time>2011-04-29T10:16:17Z</time>
      </trkpt>
      <trkpt lat="43.59378" lon="3.07787">
        <ele>255.37</ele>
        <time>2011-04-29T10:16:24Z</time>
      </trkpt>
      <trkpt lat="43.59376" lon="3.0777">
        <ele>258.25</ele>
        <time>2011-04-29T10:16:39Z</time>
      </trkpt>
      <trkpt lat="43.59373" lon="3.07763">
        <ele>258.73</ele>
        <time>2011-04-29T10:16:49Z</time>
      </trkpt>
      <trkpt lat="43.5937" lon="3.0776">
        <ele>260.17</ele>
        <time>2011-04-29T10:16:54Z</time>
      </trkpt>
      <trkpt lat="43.59358" lon="3.07751">
        <ele>262.1</ele>
        <time>2011-04-29T10:17:09Z</time>
      </trkpt>
      <trkpt lat="43.59348" lon="3.07745">
        <ele>263.54</ele>
        <time>2011-04-29T10:17:19Z</time>
      </trkpt>
      <trkpt lat="43.59331" lon="3.07742">
        <ele>264.98</ele>
        <time>2011-04-29T10:17:33Z</time>
      </trkpt>
      <trkpt lat="43.59323" lon="3.07743">
        <ele>266.9</ele>
        <time>2011-04-29T10:17:49Z</time>
      </trkpt>
      <trkpt lat="43.59316" lon="3.07746">
        <ele>267.86</ele>
        <time>2011-04-29T10:18:00Z</time>
      </trkpt>
      <trkpt lat="43.59313" lon="3.07747">
        <ele>269.31</ele>
        <time>2011-04-29T10:18:10Z</time>
      </trkpt>
      <trkpt lat="43.59307" lon="3.07748">
        <ele>270.27</ele>
        <time>2011-04-29T10:18:16Z</time>
      </trkpt>
      <trkpt lat="43.59277" lon="3.07753">
        <ele>271.71</ele>
        <time>2011-04-29T10:18:33Z</time>
      </trkpt>
      <trkpt lat="43.59264" lon="3.07748">
        <ele>274.59</ele>
        <time>2011-04-29T10:18:52Z</time>
      </trkpt>
      <trkpt lat="43.59262" lon="3.07747">
        <ele>275.56</ele>
        <time>2011-04-29T10:19:05Z</time>
      </trkpt>
      <trkpt lat="43.59262" lon="3.07747">
        <ele>275.07</ele>
        <time>2011-04-29T10:19:06Z</time>
      </trkpt>
      <trkpt lat="43.59276" lon="3.07734">
        <ele>277.48</ele>
        <time>2011-04-29T10:19:23Z</time>
      </trkpt>
      <trkpt lat="43.59285" lon="3.07727">
        <ele>277.96</ele>
        <time>2011-04-29T10:19:39Z</time>
      </trkpt>
      <trkpt lat="43.59296" lon="3.07715">
        <ele>277.48</ele>
        <time>2011-04-29T10:19:55Z</time>
      </trkpt>
      <trkpt lat="43.59299" lon="3.07713">
        <ele>278.44</ele>
        <time>2011-04-29T10:20:00Z</time>
      </trkpt>
      <trkpt lat="43.59314" lon="3.07697">
        <ele>279.88</ele>
        <time>2011-04-29T10:20:17Z</time>
      </trkpt>
      <trkpt lat="43.59328" lon="3.07683">
        <ele>281.8</ele>
        <time>2011-04-29T10:20:33Z</time>
      </trkpt>
      <trkpt lat="43.59337" lon="3.07678">
        <ele>283.73</ele>
        <time>2011-04-29T10:20:46Z</time>
      </trkpt>
      <trkpt lat="43.59353" lon="3.07659">
        <ele>285.17</ele>
        <time>2011-04-29T10:21:05Z</time>
      </trkpt>
      <trkpt lat="43.5936" lon="3.07655">
        <ele>286.61</ele>
        <time>2011-04-29T10:21:19Z</time>
      </trkpt>
      <trkpt lat="43.59372" lon="3.07646">
        <ele>288.05</ele>
        <time>2011-04-29T10:21:35Z</time>
      </trkpt>
      <trkpt lat="43.59375" lon="3.07638">
        <ele>289.01</ele>
        <time>2011-04-29T10:21:40Z</time>
      </trkpt>
      <trkpt lat="43.59384" lon="3.07615">
        <ele>291.42</ele>
        <time>2011-04-29T10:22:01Z</time>
      </trkpt>
      <trkpt lat="43.59384" lon="3.0761">
        <ele>291.9</ele>
        <time>2011-04-29T10:22:05Z</time>
      </trkpt>
      <trkpt lat="43.5939" lon="3.07594">
        <ele>293.82</ele>
        <time>2011-04-29T10:22:23Z</time>
      </trkpt>
      <trkpt lat="43.59394" lon="3.07576">
        <ele>294.78</ele>
        <time>2011-04-29T10:22:36Z</time>
      </trkpt>
      <trkpt lat="43.59392" lon="3.07567">
        <ele>295.26</ele>
        <time>2011-04-29T10:22:43Z</time>
      </trkpt>
      <trkpt lat="43.59377" lon="3.07561">
        <ele>296.7</ele>
        <time>2011-04-29T10:22:59Z</time>
      </trkpt>
      <trkpt lat="43.59357" lon="3.07559">
        <ele>296.22</ele>
        <time>2011-04-29T10:23:14Z</time>
      </trkpt>
      <trkpt lat="43.59347" lon="3.07555">
        <ele>300.55</ele>
        <time>2011-04-29T10:23:23Z</time>
      </trkpt>
      <trkpt lat="43.59346" lon="3.07556">
        <ele>294.78</ele>
        <time>2011-04-29T10:23:24Z</time>
      </trkpt>
      <trkpt lat="43.59344" lon="3.07556">
        <ele>302.95</ele>
        <time>2011-04-29T10:23:26Z</time>
      </trkpt>
      <trkpt lat="43.59344" lon="3.07557">
        <ele>297.18</ele>
        <time>2011-04-29T10:23:27Z</time>
      </trkpt>
      <trkpt lat="43.59342" lon="3.07557">
        <ele>296.22</ele>
        <time>2011-04-29T10:23:29Z</time>
      </trkpt>
      <trkpt lat="43.5934" lon="3.07555">
        <ele>296.22</ele>
        <time>2011-04-29T10:23:33Z</time>
      </trkpt>
      <trkpt lat="43.59325" lon="3.07542">
        <ele>296.22</ele>
        <time>2011-04-29T10:23:49Z</time>
      </trkpt>
      <trkpt lat="43.5932" lon="3.07531">
        <ele>296.22</ele>
        <time>2011-04-29T10:23:59Z</time>
      </trkpt>
      <trkpt lat="43.59317" lon="3.07525">
        <ele>295.74</ele>
        <time>2011-04-29T10:24:05Z</time>
      </trkpt>
      <trkpt lat="43.593" lon="3.07507">
        <ele>296.22</ele>
        <time>2011-04-29T10:24:23Z</time>
      </trkpt>
      <trkpt lat="43.59291" lon="3.07477">
        <ele>289.01</ele>
        <time>2011-04-29T10:24:39Z</time>
      </trkpt>
      <trkpt lat="43.5929" lon="3.07476">
        <ele>295.74</ele>
        <time>2011-04-29T10:24:40Z</time>
      </trkpt>
      <trkpt lat="43.5929" lon="3.0747">
        <ele>299.11</ele>
        <time>2011-04-29T10:24:43Z</time>
      </trkpt>
      <trkpt lat="43.59289" lon="3.07461">
        <ele>296.7</ele>
        <time>2011-04-29T10:24:49Z</time>
      </trkpt>
      <trkpt lat="43.5929" lon="3.07452">
        <ele>297.18</ele>
        <time>2011-04-29T10:24:55Z</time>
      </trkpt>
      <trkpt lat="43.59295" lon="3.07442">
        <ele>296.7</ele>
        <time>2011-04-29T10:25:07Z</time>
      </trkpt>
      <trkpt lat="43.59304" lon="3.07431">
        <ele>297.67</ele>
        <time>2011-04-29T10:25:20Z</time>
      </trkpt>
      <trkpt lat="43.59314" lon="3.07417">
        <ele>298.63</ele>
        <time>2011-04-29T10:25:35Z</time>
      </trkpt>
      <trkpt lat="43.59322" lon="3.07407">
        <ele>299.59</ele>
        <time>2011-04-29T10:25:47Z</time>
      </trkpt>
      <trkpt lat="43.59331" lon="3.07393">
        <ele>300.07</ele>
        <time>2011-04-29T10:26:01Z</time>
      </trkpt>
      <trkpt lat="43.5934" lon="3.07386">
        <ele>301.99</ele>
        <time>2011-04-29T10:26:15Z</time>
      </trkpt>
      <trkpt lat="43.59349" lon="3.07368">
        <ele>303.43</ele>
        <time>2011-04-29T10:26:29Z</time>
      </trkpt>
      <trkpt lat="43.59356" lon="3.07353">
        <ele>305.36</ele>
        <time>2011-04-29T10:26:44Z</time>
      </trkpt>
      <trkpt lat="43.59364" lon="3.07336">
        <ele>306.8</ele>
        <time>2011-04-29T10:27:00Z</time>
      </trkpt>
      <trkpt lat="43.59372" lon="3.0732">
        <ele>308.24</ele>
        <time>2011-04-29T10:27:16Z</time>
      </trkpt>
      <trkpt lat="43.59379" lon="3.07305">
        <ele>309.68</ele>
        <time>2011-04-29T10:27:32Z</time>
      </trkpt>
      <trkpt lat="43.59386" lon="3.07291">
        <ele>311.6</ele>
        <time>2011-04-29T10:27:46Z</time>
      </trkpt>
      <trkpt lat="43.59395" lon="3.07278">
        <ele>313.53</ele>
        <time>2011-04-29T10:28:00Z</time>
      </trkpt>
      <trkpt lat="43.59403" lon="3.07266">
        <ele>314.49</ele>
        <time>2011-04-29T10:28:16Z</time>
      </trkpt>
      <trkpt lat="43.59406" lon="3.07263">
        <ele>315.45</ele>
        <time>2011-04-29T10:28:20Z</time>
      </trkpt>
      <trkpt lat="43.59416" lon="3.07251">
        <ele>317.37</ele>
        <time>2011-04-29T10:28:37Z</time>
      </trkpt>
      <trkpt lat="43.59427" lon="3.07239">
        <ele>319.3</ele>
        <time>2011-04-29T10:28:55Z</time>
      </trkpt>
      <trkpt lat="43.5944" lon="3.07229">
        <ele>320.74</ele>
        <time>2011-04-29T10:29:12Z</time>
      </trkpt>
      <trkpt lat="43.59443" lon="3.07226">
        <ele>322.18</ele>
        <time>2011-04-29T10:29:15Z</time>
      </trkpt>
      <trkpt lat="43.59456" lon="3.07214">
        <ele>322.66</ele>
        <time>2011-04-29T10:29:32Z</time>
      </trkpt>
      <trkpt lat="43.59465" lon="3.07201">
        <ele>324.1</ele>
        <time>2011-04-29T10:29:48Z</time>
      </trkpt>
      <trkpt lat="43.59472" lon="3.07186">
        <ele>325.06</ele>
        <time>2011-04-29T10:30:04Z</time>
      </trkpt>
      <trkpt lat="43.59478" lon="3.07174">
        <ele>327.47</ele>
        <time>2011-04-29T10:30:21Z</time>
      </trkpt>
      <trkpt lat="43.59479" lon="3.07171">
        <ele>327.47</ele>
        <time>2011-04-29T10:30:25Z</time>
      </trkpt>
      <trkpt lat="43.59479" lon="3.07162">
        <ele>329.87</ele>
        <time>2011-04-29T10:30:39Z</time>
      </trkpt>
      <trkpt lat="43.59483" lon="3.0714">
        <ele>332.27</ele>
        <time>2011-04-29T10:30:55Z</time>
      </trkpt>
      <trkpt lat="43.59486" lon="3.07122">
        <ele>333.71</ele>
        <time>2011-04-29T10:31:09Z</time>
      </trkpt>
      <trkpt lat="43.59488" lon="3.07115">
        <ele>336.12</ele>
        <time>2011-04-29T10:31:25Z</time>
      </trkpt>
      <trkpt lat="43.59489" lon="3.07109">
        <ele>339</ele>
        <time>2011-04-29T10:31:42Z</time>
      </trkpt>
      <trkpt lat="43.59494" lon="3.07082">
        <ele>340.92</ele>
        <time>2011-04-29T10:31:55Z</time>
      </trkpt>
      <trkpt lat="43.59503" lon="3.07051">
        <ele>341.89</ele>
        <time>2011-04-29T10:32:10Z</time>
      </trkpt>
      <trkpt lat="43.59508" lon="3.07041">
        <ele>343.33</ele>
        <time>2011-04-29T10:32:24Z</time>
      </trkpt>
      <trkpt lat="43.59512" lon="3.0702">
        <ele>345.25</ele>
        <time>2011-04-29T10:32:39Z</time>
      </trkpt>
      <trkpt lat="43.59514" lon="3.07006">
        <ele>346.69</ele>
        <time>2011-04-29T10:32:49Z</time>
      </trkpt>
      <trkpt lat="43.59511" lon="3.06985">
        <ele>346.69</ele>
        <time>2011-04-29T10:33:01Z</time>
      </trkpt>
      <trkpt lat="43.59518" lon="3.06967">
        <ele>347.65</ele>
        <time>2011-04-29T10:33:18Z</time>
      </trkpt>
      <trkpt lat="43.59524" lon="3.06956">
        <ele>349.1</ele>
        <time>2011-04-29T10:33:35Z</time>
      </trkpt>
      <trkpt lat="43.59533" lon="3.06942">
        <ele>351.5</ele>
        <time>2011-04-29T10:33:52Z</time>
      </trkpt>
      <trkpt lat="43.59538" lon="3.06926">
        <ele>352.46</ele>
        <time>2011-04-29T10:34:02Z</time>
      </trkpt>
      <trkpt lat="43.59539" lon="3.06902">
        <ele>353.9</ele>
        <time>2011-04-29T10:34:16Z</time>
      </trkpt>
      <trkpt lat="43.5954" lon="3.06893">
        <ele>354.86</ele>
        <time>2011-04-29T10:34:31Z</time>
      </trkpt>
      <trkpt lat="43.59539" lon="3.06881">
        <ele>356.31</ele>
        <time>2011-04-29T10:34:47Z</time>
      </trkpt>
      <trkpt lat="43.59539" lon="3.06875">
        <ele>356.79</ele>
        <time>2011-04-29T10:34:51Z</time>
      </trkpt>
      <trkpt lat="43.59537" lon="3.06854">
        <ele>358.71</ele>
        <time>2011-04-29T10:35:08Z</time>
      </trkpt>
      <trkpt lat="43.59532" lon="3.06833">
        <ele>360.63</ele>
        <time>2011-04-29T10:35:23Z</time>
      </trkpt>
      <trkpt lat="43.59527" lon="3.06817">
        <ele>363.04</ele>
        <time>2011-04-29T10:35:39Z</time>
      </trkpt>
      <trkpt lat="43.59522" lon="3.06805">
        <ele>365.92</ele>
        <time>2011-04-29T10:35:57Z</time>
      </trkpt>
      <trkpt lat="43.5952" lon="3.06801">
        <ele>365.92</ele>
        <time>2011-04-29T10:36:02Z</time>
      </trkpt>
      <trkpt lat="43.59514" lon="3.06795">
        <ele>368.32</ele>
        <time>2011-04-29T10:36:13Z</time>
      </trkpt>
      <trkpt lat="43.59516" lon="3.06791">
        <ele>368.32</ele>
        <time>2011-04-29T10:36:17Z</time>
      </trkpt>
      <trkpt lat="43.59528" lon="3.06784">
        <ele>369.28</ele>
        <time>2011-04-29T10:36:33Z</time>
      </trkpt>
      <trkpt lat="43.59541" lon="3.0678">
        <ele>369.76</ele>
        <time>2011-04-29T10:36:46Z</time>
      </trkpt>
      <trkpt lat="43.5955" lon="3.06777">
        <ele>373.61</ele>
        <time>2011-04-29T10:36:56Z</time>
      </trkpt>
      <trkpt lat="43.59553" lon="3.06777">
        <ele>372.65</ele>
        <time>2011-04-29T10:36:59Z</time>
      </trkpt>
      <trkpt lat="43.59555" lon="3.06778">
        <ele>371.21</ele>
        <time>2011-04-29T10:37:02Z</time>
      </trkpt>
      <trkpt lat="43.59561" lon="3.06779">
        <ele>375.05</ele>
        <time>2011-04-29T10:37:08Z</time>
      </trkpt>
      <trkpt lat="43.59564" lon="3.06778">
        <ele>372.65</ele>
        <time>2011-04-29T10:37:11Z</time>
      </trkpt>
      <trkpt lat="43.59566" lon="3.06776">
        <ele>365.92</ele>
        <time>2011-04-29T10:37:14Z</time>
      </trkpt>
      <trkpt lat="43.59567" lon="3.06776">
        <ele>372.17</ele>
        <time>2011-04-29T10:37:15Z</time>
      </trkpt>
      <trkpt lat="43.59569" lon="3.06774">
        <ele>371.69</ele>
        <time>2011-04-29T10:37:17Z</time>
      </trkpt>
      <trkpt lat="43.59577" lon="3.06774">
        <ele>373.13</ele>
        <time>2011-04-29T10:37:26Z</time>
      </trkpt>
      <trkpt lat="43.59588" lon="3.06779">
        <ele>374.09</ele>
        <time>2011-04-29T10:37:41Z</time>
      </trkpt>
      <trkpt lat="43.5959" lon="3.0678">
        <ele>374.57</ele>
        <time>2011-04-29T10:37:44Z</time>
      </trkpt>
      <trkpt lat="43.59608" lon="3.06774">
        <ele>376.97</ele>
        <time>2011-04-29T10:38:03Z</time>
      </trkpt>
      <trkpt lat="43.59608" lon="3.06773">
        <ele>376.97</ele>
        <time>2011-04-29T10:38:04Z</time>
      </trkpt>
      <trkpt lat="43.59624" lon="3.06759">
        <ele>378.42</ele>
        <time>2011-04-29T10:38:21Z</time>
      </trkpt>
      <trkpt lat="43.59636" lon="3.06751">
        <ele>380.34</ele>
        <time>2011-04-29T10:38:37Z</time>
      </trkpt>
      <trkpt lat="43.59648" lon="3.06742">
        <ele>381.3</ele>
        <time>2011-04-29T10:38:52Z</time>
      </trkpt>
      <trkpt lat="43.59665" lon="3.0673">
        <ele>383.22</ele>
        <time>2011-04-29T10:39:09Z</time>
      </trkpt>
      <trkpt lat="43.59681" lon="3.0672">
        <ele>383.22</ele>
        <time>2011-04-29T10:39:23Z</time>
      </trkpt>
      <trkpt lat="43.59693" lon="3.06711">
        <ele>384.66</ele>
        <time>2011-04-29T10:39:39Z</time>
      </trkpt>
      <trkpt lat="43.59704" lon="3.06706">
        <ele>385.15</ele>
        <time>2011-04-29T10:39:53Z</time>
      </trkpt>
      <trkpt lat="43.59723" lon="3.06687">
        <ele>386.59</ele>
        <time>2011-04-29T10:40:10Z</time>
      </trkpt>
      <trkpt lat="43.59738" lon="3.06677">
        <ele>387.55</ele>
        <time>2011-04-29T10:40:27Z</time>
      </trkpt>
      <trkpt lat="43.59741" lon="3.06674">
        <ele>388.51</ele>
        <time>2011-04-29T10:40:31Z</time>
      </trkpt>
      <trkpt lat="43.5975" lon="3.06667">
        <ele>388.51</ele>
        <time>2011-04-29T10:40:41Z</time>
      </trkpt>
      <trkpt lat="43.59764" lon="3.06657">
        <ele>389.95</ele>
        <time>2011-04-29T10:40:57Z</time>
      </trkpt>
      <trkpt lat="43.59778" lon="3.06651">
        <ele>391.39</ele>
        <time>2011-04-29T10:41:11Z</time>
      </trkpt>
      <trkpt lat="43.59792" lon="3.0664">
        <ele>392.36</ele>
        <time>2011-04-29T10:41:26Z</time>
      </trkpt>
      <trkpt lat="43.59804" lon="3.06631">
        <ele>393.32</ele>
        <time>2011-04-29T10:41:41Z</time>
      </trkpt>
      <trkpt lat="43.59824" lon="3.06616">
        <ele>394.76</ele>
        <time>2011-04-29T10:41:58Z</time>
      </trkpt>
      <trkpt lat="43.59834" lon="3.0661">
        <ele>397.64</ele>
        <time>2011-04-29T10:42:14Z</time>
      </trkpt>
      <trkpt lat="43.59839" lon="3.06608">
        <ele>397.64</ele>
        <time>2011-04-29T10:42:21Z</time>
      </trkpt>
      <trkpt lat="43.59853" lon="3.06598">
        <ele>399.08</ele>
        <time>2011-04-29T10:42:39Z</time>
      </trkpt>
      <trkpt lat="43.59862" lon="3.06586">
        <ele>401.01</ele>
        <time>2011-04-29T10:42:52Z</time>
      </trkpt>
      <trkpt lat="43.59871" lon="3.06573">
        <ele>402.45</ele>
        <time>2011-04-29T10:43:07Z</time>
      </trkpt>
      <trkpt lat="43.59882" lon="3.06552">
        <ele>404.85</ele>
        <time>2011-04-29T10:43:22Z</time>
      </trkpt>
      <trkpt lat="43.59888" lon="3.06533">
        <ele>406.77</ele>
        <time>2011-04-29T10:43:35Z</time>
      </trkpt>
      <trkpt lat="43.59897" lon="3.06512">
        <ele>407.26</ele>
        <time>2011-04-29T10:43:51Z</time>
      </trkpt>
      <trkpt lat="43.59898" lon="3.06509">
        <ele>408.22</ele>
        <time>2011-04-29T10:43:53Z</time>
      </trkpt>
      <trkpt lat="43.59904" lon="3.0649">
        <ele>410.14</ele>
        <time>2011-04-29T10:44:09Z</time>
      </trkpt>
      <trkpt lat="43.59905" lon="3.06481">
        <ele>411.1</ele>
        <time>2011-04-29T10:44:15Z</time>
      </trkpt>
      <trkpt lat="43.59906" lon="3.0647">
        <ele>406.77</ele>
        <time>2011-04-29T10:44:22Z</time>
      </trkpt>
      <trkpt lat="43.59907" lon="3.06468">
        <ele>412.06</ele>
        <time>2011-04-29T10:44:23Z</time>
      </trkpt>
      <trkpt lat="43.59907" lon="3.06464">
        <ele>415.43</ele>
        <time>2011-04-29T10:44:26Z</time>
      </trkpt>
      <trkpt lat="43.59904" lon="3.06458">
        <ele>413.5</ele>
        <time>2011-04-29T10:44:41Z</time>
      </trkpt>
      <trkpt lat="43.59904" lon="3.06456">
        <ele>415.91</ele>
        <time>2011-04-29T10:44:48Z</time>
      </trkpt>
      <trkpt lat="43.59902" lon="3.06454">
        <ele>413.98</ele>
        <time>2011-04-29T10:44:50Z</time>
      </trkpt>
      <trkpt lat="43.59901" lon="3.0644">
        <ele>415.91</ele>
        <time>2011-04-29T10:45:04Z</time>
      </trkpt>
      <trkpt lat="43.59902" lon="3.06424">
        <ele>416.87</ele>
        <time>2011-04-29T10:45:21Z</time>
      </trkpt>
      <trkpt lat="43.59903" lon="3.06406">
        <ele>418.31</ele>
        <time>2011-04-29T10:45:37Z</time>
      </trkpt>
      <trkpt lat="43.59903" lon="3.06402">
        <ele>418.31</ele>
        <time>2011-04-29T10:45:40Z</time>
      </trkpt>
      <trkpt lat="43.59911" lon="3.06389">
        <ele>421.19</ele>
        <time>2011-04-29T10:45:56Z</time>
      </trkpt>
      <trkpt lat="43.59914" lon="3.06387">
        <ele>422.64</ele>
        <time>2011-04-29T10:46:07Z</time>
      </trkpt>
      <trkpt lat="43.59916" lon="3.06383">
        <ele>423.12</ele>
        <time>2011-04-29T10:46:10Z</time>
      </trkpt>
      <trkpt lat="43.59918" lon="3.06379">
        <ele>424.56</ele>
        <time>2011-04-29T10:46:22Z</time>
      </trkpt>
      <trkpt lat="43.59918" lon="3.06377">
        <ele>425.52</ele>
        <time>2011-04-29T10:46:24Z</time>
      </trkpt>
      <trkpt lat="43.5992" lon="3.06373">
        <ele>426</ele>
        <time>2011-04-29T10:46:26Z</time>
      </trkpt>
      <trkpt lat="43.59924" lon="3.06354">
        <ele>427.44</ele>
        <time>2011-04-29T10:46:43Z</time>
      </trkpt>
      <trkpt lat="43.59923" lon="3.06352">
        <ele>427.92</ele>
        <time>2011-04-29T10:46:45Z</time>
      </trkpt>
      <trkpt lat="43.59924" lon="3.06349">
        <ele>430.33</ele>
        <time>2011-04-29T10:47:01Z</time>
      </trkpt>
      <trkpt lat="43.5992" lon="3.06341">
        <ele>432.73</ele>
        <time>2011-04-29T10:47:23Z</time>
      </trkpt>
      <trkpt lat="43.5992" lon="3.06319">
        <ele>434.17</ele>
        <time>2011-04-29T10:47:32Z</time>
      </trkpt>
      <trkpt lat="43.5992" lon="3.06315">
        <ele>435.61</ele>
        <time>2011-04-29T10:47:37Z</time>
      </trkpt>
      <trkpt lat="43.59921" lon="3.06303">
        <ele>436.1</ele>
        <time>2011-04-29T10:47:43Z</time>
      </trkpt>
      <trkpt lat="43.59921" lon="3.06299">
        <ele>440.9</ele>
        <time>2011-04-29T10:47:55Z</time>
      </trkpt>
      <trkpt lat="43.59921" lon="3.06299">
        <ele>439.94</ele>
        <time>2011-04-29T10:47:56Z</time>
      </trkpt>
      <trkpt lat="43.59921" lon="3.06299">
        <ele>438.98</ele>
        <time>2011-04-29T10:47:58Z</time>
      </trkpt>
      <trkpt lat="43.59915" lon="3.06278">
        <ele>439.46</ele>
        <time>2011-04-29T10:48:16Z</time>
      </trkpt>
      <trkpt lat="43.59912" lon="3.06277">
        <ele>439.46</ele>
        <time>2011-04-29T10:48:17Z</time>
      </trkpt>
      <trkpt lat="43.59903" lon="3.06271">
        <ele>441.38</ele>
        <time>2011-04-29T10:48:34Z</time>
      </trkpt>
      <trkpt lat="43.59898" lon="3.06261">
        <ele>444.27</ele>
        <time>2011-04-29T10:48:50Z</time>
      </trkpt>
      <trkpt lat="43.59887" lon="3.06253">
        <ele>447.15</ele>
        <time>2011-04-29T10:49:07Z</time>
      </trkpt>
      <trkpt lat="43.59873" lon="3.06255">
        <ele>450.03</ele>
        <time>2011-04-29T10:49:26Z</time>
      </trkpt>
      <trkpt lat="43.59871" lon="3.06255">
        <ele>449.55</ele>
        <time>2011-04-29T10:49:28Z</time>
      </trkpt>
      <trkpt lat="43.59867" lon="3.06255">
        <ele>450.03</ele>
        <time>2011-04-29T10:49:32Z</time>
      </trkpt>
      <trkpt lat="43.59859" lon="3.06257">
        <ele>452.44</ele>
        <time>2011-04-29T10:49:47Z</time>
      </trkpt>
      <trkpt lat="43.5985" lon="3.06256">
        <ele>454.36</ele>
        <time>2011-04-29T10:49:56Z</time>
      </trkpt>
      <trkpt lat="43.59844" lon="3.06243">
        <ele>456.76</ele>
        <time>2011-04-29T10:50:12Z</time>
      </trkpt>
      <trkpt lat="43.59839" lon="3.06233">
        <ele>459.65</ele>
        <time>2011-04-29T10:50:28Z</time>
      </trkpt>
      <trkpt lat="43.59837" lon="3.06224">
        <ele>461.57</ele>
        <time>2011-04-29T10:50:42Z</time>
      </trkpt>
      <trkpt lat="43.59832" lon="3.06209">
        <ele>464.45</ele>
        <time>2011-04-29T10:51:01Z</time>
      </trkpt>
      <trkpt lat="43.59829" lon="3.06192">
        <ele>467.34</ele>
        <time>2011-04-29T10:51:17Z</time>
      </trkpt>
      <trkpt lat="43.59827" lon="3.06183">
        <ele>469.74</ele>
        <time>2011-04-29T10:51:31Z</time>
      </trkpt>
      <trkpt lat="43.59827" lon="3.06183">
        <ele>472.63</ele>
        <time>2011-04-29T10:51:39Z</time>
      </trkpt>
      <trkpt lat="43.59827" lon="3.06183">
        <ele>467.34</ele>
        <time>2011-04-29T10:51:41Z</time>
      </trkpt>
      <trkpt lat="43.59827" lon="3.06183">
        <ele>469.26</ele>
        <time>2011-04-29T10:51:42Z</time>
      </trkpt>
      <trkpt lat="43.59827" lon="3.06183">
        <ele>470.22</ele>
        <time>2011-04-29T10:51:44Z</time>
      </trkpt>
      <trkpt lat="43.59819" lon="3.06162">
        <ele>471.18</ele>
        <time>2011-04-29T10:52:02Z</time>
      </trkpt>
      <trkpt lat="43.59818" lon="3.06145">
        <ele>472.14</ele>
        <time>2011-04-29T10:52:16Z</time>
      </trkpt>
      <trkpt lat="43.59817" lon="3.06139">
        <ele>473.11</ele>
        <time>2011-04-29T10:52:28Z</time>
      </trkpt>
      <trkpt lat="43.59821" lon="3.06125">
        <ele>474.55</ele>
        <time>2011-04-29T10:52:44Z</time>
      </trkpt>
      <trkpt lat="43.59823" lon="3.06112">
        <ele>475.03</ele>
        <time>2011-04-29T10:52:52Z</time>
      </trkpt>
      <trkpt lat="43.59819" lon="3.06096">
        <ele>475.99</ele>
        <time>2011-04-29T10:53:08Z</time>
      </trkpt>
      <trkpt lat="43.59816" lon="3.06087">
        <ele>475.51</ele>
        <time>2011-04-29T10:53:17Z</time>
      </trkpt>
      <trkpt lat="43.59811" lon="3.06062">
        <ele>472.14</ele>
        <time>2011-04-29T10:53:30Z</time>
      </trkpt>
      <trkpt lat="43.59812" lon="3.06061">
        <ele>475.99</ele>
        <time>2011-04-29T10:53:31Z</time>
      </trkpt>
      <trkpt lat="43.59812" lon="3.06058">
        <ele>467.34</ele>
        <time>2011-04-29T10:53:33Z</time>
      </trkpt>
      <trkpt lat="43.59812" lon="3.06057">
        <ele>476.95</ele>
        <time>2011-04-29T10:53:34Z</time>
      </trkpt>
      <trkpt lat="43.59814" lon="3.06041">
        <ele>481.28</ele>
        <time>2011-04-29T10:53:40Z</time>
      </trkpt>
      <trkpt lat="43.59813" lon="3.06039">
        <ele>477.91</ele>
        <time>2011-04-29T10:53:41Z</time>
      </trkpt>
      <trkpt lat="43.59813" lon="3.06036">
        <ele>475.99</ele>
        <time>2011-04-29T10:53:42Z</time>
      </trkpt>
      <trkpt lat="43.59815" lon="3.0602">
        <ele>475.99</ele>
        <time>2011-04-29T10:53:52Z</time>
      </trkpt>
      <trkpt lat="43.59815" lon="3.06016">
        <ele>475.51</ele>
        <time>2011-04-29T10:53:55Z</time>
      </trkpt>
      <trkpt lat="43.59813" lon="3.05997">
        <ele>476.47</ele>
        <time>2011-04-29T10:54:09Z</time>
      </trkpt>
      <trkpt lat="43.59809" lon="3.05976">
        <ele>477.91</ele>
        <time>2011-04-29T10:54:25Z</time>
      </trkpt>
      <trkpt lat="43.59807" lon="3.05963">
        <ele>478.87</ele>
        <time>2011-04-29T10:54:40Z</time>
      </trkpt>
      <trkpt lat="43.59807" lon="3.05948">
        <ele>478.39</ele>
        <time>2011-04-29T10:54:54Z</time>
      </trkpt>
      <trkpt lat="43.59808" lon="3.0594">
        <ele>478.39</ele>
        <time>2011-04-29T10:54:58Z</time>
      </trkpt>
      <trkpt lat="43.59808" lon="3.05932">
        <ele>477.91</ele>
        <time>2011-04-29T10:55:03Z</time>
      </trkpt>
      <trkpt lat="43.59808" lon="3.05909">
        <ele>477.43</ele>
        <time>2011-04-29T10:55:16Z</time>
      </trkpt>
      <trkpt lat="43.59809" lon="3.05891">
        <ele>477.43</ele>
        <time>2011-04-29T10:55:28Z</time>
      </trkpt>
      <trkpt lat="43.59811" lon="3.05883">
        <ele>476.95</ele>
        <time>2011-04-29T10:55:35Z</time>
      </trkpt>
      <trkpt lat="43.59811" lon="3.05847">
        <ele>475.51</ele>
        <time>2011-04-29T10:55:51Z</time>
      </trkpt>
      <trkpt lat="43.59812" lon="3.05827">
        <ele>474.07</ele>
        <time>2011-04-29T10:56:05Z</time>
      </trkpt>
      <trkpt lat="43.59817" lon="3.05819">
        <ele>474.07</ele>
        <time>2011-04-29T10:56:11Z</time>
      </trkpt>
      <trkpt lat="43.59816" lon="3.05803">
        <ele>474.07</ele>
        <time>2011-04-29T10:56:28Z</time>
      </trkpt>
      <trkpt lat="43.59817" lon="3.058">
        <ele>473.59</ele>
        <time>2011-04-29T10:56:31Z</time>
      </trkpt>
      <trkpt lat="43.59818" lon="3.05792">
        <ele>473.11</ele>
        <time>2011-04-29T10:56:36Z</time>
      </trkpt>
      <trkpt lat="43.59819" lon="3.05784">
        <ele>472.14</ele>
        <time>2011-04-29T10:56:41Z</time>
      </trkpt>
      <trkpt lat="43.59819" lon="3.05749">
        <ele>471.66</ele>
        <time>2011-04-29T10:56:59Z</time>
      </trkpt>
      <trkpt lat="43.59816" lon="3.05738">
        <ele>471.66</ele>
        <time>2011-04-29T10:57:14Z</time>
      </trkpt>
      <trkpt lat="43.59817" lon="3.05729">
        <ele>472.14</ele>
        <time>2011-04-29T10:57:24Z</time>
      </trkpt>
      <trkpt lat="43.59821" lon="3.05694">
        <ele>470.7</ele>
        <time>2011-04-29T10:57:38Z</time>
      </trkpt>
      <trkpt lat="43.59822" lon="3.05671">
        <ele>470.7</ele>
        <time>2011-04-29T10:57:52Z</time>
      </trkpt>
      <trkpt lat="43.59826" lon="3.05646">
        <ele>468.3</ele>
        <time>2011-04-29T10:58:10Z</time>
      </trkpt>
      <trkpt lat="43.59827" lon="3.05624">
        <ele>466.86</ele>
        <time>2011-04-29T10:58:23Z</time>
      </trkpt>
      <trkpt lat="43.59831" lon="3.0561">
        <ele>466.38</ele>
        <time>2011-04-29T10:58:33Z</time>
      </trkpt>
      <trkpt lat="43.59836" lon="3.05591">
        <ele>464.45</ele>
        <time>2011-04-29T10:58:50Z</time>
      </trkpt>
      <trkpt lat="43.59851" lon="3.05581">
        <ele>463.01</ele>
        <time>2011-04-29T10:59:06Z</time>
      </trkpt>
      <trkpt lat="43.59857" lon="3.05573">
        <ele>461.57</ele>
        <time>2011-04-29T10:59:18Z</time>
      </trkpt>
      <trkpt lat="43.59872" lon="3.05557">
        <ele>461.09</ele>
        <time>2011-04-29T10:59:36Z</time>
      </trkpt>
      <trkpt lat="43.59883" lon="3.05533">
        <ele>459.17</ele>
        <time>2011-04-29T10:59:51Z</time>
      </trkpt>
      <trkpt lat="43.59891" lon="3.05517">
        <ele>457.72</ele>
        <time>2011-04-29T11:00:05Z</time>
      </trkpt>
      <trkpt lat="43.59894" lon="3.05513">
        <ele>457.72</ele>
        <time>2011-04-29T11:00:08Z</time>
      </trkpt>
      <trkpt lat="43.59899" lon="3.05492">
        <ele>455.8</ele>
        <time>2011-04-29T11:00:24Z</time>
      </trkpt>
      <trkpt lat="43.59902" lon="3.05467">
        <ele>456.76</ele>
        <time>2011-04-29T11:00:40Z</time>
      </trkpt>
      <trkpt lat="43.59904" lon="3.05457">
        <ele>457.72</ele>
        <time>2011-04-29T11:00:49Z</time>
      </trkpt>
      <trkpt lat="43.59908" lon="3.0543">
        <ele>458.21</ele>
        <time>2011-04-29T11:01:05Z</time>
      </trkpt>
      <trkpt lat="43.59908" lon="3.05425">
        <ele>457.72</ele>
        <time>2011-04-29T11:01:08Z</time>
      </trkpt>
      <trkpt lat="43.59916" lon="3.05405">
        <ele>457.72</ele>
        <time>2011-04-29T11:01:23Z</time>
      </trkpt>
      <trkpt lat="43.59924" lon="3.05389">
        <ele>456.28</ele>
        <time>2011-04-29T11:01:36Z</time>
      </trkpt>
      <trkpt lat="43.59927" lon="3.05372">
        <ele>454.84</ele>
        <time>2011-04-29T11:01:54Z</time>
      </trkpt>
      <trkpt lat="43.59929" lon="3.05351">
        <ele>453.88</ele>
        <time>2011-04-29T11:02:12Z</time>
      </trkpt>
      <trkpt lat="43.59929" lon="3.05332">
        <ele>453.4</ele>
        <time>2011-04-29T11:02:26Z</time>
      </trkpt>
      <trkpt lat="43.59933" lon="3.05312">
        <ele>453.88</ele>
        <time>2011-04-29T11:02:33Z</time>
      </trkpt>
      <trkpt lat="43.5992" lon="3.05302">
        <ele>454.36</ele>
        <time>2011-04-29T11:02:52Z</time>
      </trkpt>
      <trkpt lat="43.5991" lon="3.05295">
        <ele>454.84</ele>
        <time>2011-04-29T11:03:07Z</time>
      </trkpt>
      <trkpt lat="43.59901" lon="3.05274">
        <ele>454.84</ele>
        <time>2011-04-29T11:03:23Z</time>
      </trkpt>
      <trkpt lat="43.59896" lon="3.05257">
        <ele>455.8</ele>
        <time>2011-04-29T11:03:39Z</time>
      </trkpt>
      <trkpt lat="43.59892" lon="3.05243">
        <ele>455.8</ele>
        <time>2011-04-29T11:03:54Z</time>
      </trkpt>
      <trkpt lat="43.59892" lon="3.05243">
        <ele>443.31</ele>
        <time>2011-04-29T11:03:55Z</time>
      </trkpt>
      <trkpt lat="43.59892" lon="3.05243">
        <ele>441.38</ele>
        <time>2011-04-29T11:30:21Z</time>
      </trkpt>
      <trkpt lat="43.59892" lon="3.05243">
        <ele>456.76</ele>
        <time>2011-04-29T11:30:22Z</time>
      </trkpt>
      <trkpt lat="43.59892" lon="3.05243">
        <ele>452.92</ele>
        <time>2011-04-29T11:30:28Z</time>
      </trkpt>
      <trkpt lat="43.59891" lon="3.05235">
        <ele>452.92</ele>
        <time>2011-04-29T11:30:29Z</time>
      </trkpt>
      <trkpt lat="43.59892" lon="3.05236">
        <ele>456.76</ele>
        <time>2011-04-29T11:30:30Z</time>
      </trkpt>
      <trkpt lat="43.59891" lon="3.05236">
        <ele>456.28</ele>
        <time>2011-04-29T11:30:31Z</time>
      </trkpt>
      <trkpt lat="43.59892" lon="3.05232">
        <ele>450.52</ele>
        <time>2011-04-29T11:30:37Z</time>
      </trkpt>
      <trkpt lat="43.59893" lon="3.05231">
        <ele>456.76</ele>
        <time>2011-04-29T11:30:38Z</time>
      </trkpt>
      <trkpt lat="43.59893" lon="3.05231">
        <ele>460.61</ele>
        <time>2011-04-29T11:30:39Z</time>
      </trkpt>
      <trkpt lat="43.59893" lon="3.05229">
        <ele>457.24</ele>
        <time>2011-04-29T11:30:42Z</time>
      </trkpt>
      <trkpt lat="43.59894" lon="3.05226">
        <ele>450.52</ele>
        <time>2011-04-29T11:30:47Z</time>
      </trkpt>
      <trkpt lat="43.59894" lon="3.05226">
        <ele>457.72</ele>
        <time>2011-04-29T11:30:48Z</time>
      </trkpt>
      <trkpt lat="43.59898" lon="3.05215">
        <ele>457.24</ele>
        <time>2011-04-29T11:31:07Z</time>
      </trkpt>
      <trkpt lat="43.5991" lon="3.05197">
        <ele>456.28</ele>
        <time>2011-04-29T11:31:27Z</time>
      </trkpt>
      <trkpt lat="43.59921" lon="3.05186">
        <ele>456.76</ele>
        <time>2011-04-29T11:31:43Z</time>
      </trkpt>
      <trkpt lat="43.59929" lon="3.05178">
        <ele>456.28</ele>
        <time>2011-04-29T11:31:52Z</time>
      </trkpt>
      <trkpt lat="43.59948" lon="3.05168">
        <ele>457.24</ele>
        <time>2011-04-29T11:32:09Z</time>
      </trkpt>
      <trkpt lat="43.59961" lon="3.05161">
        <ele>457.72</ele>
        <time>2011-04-29T11:32:24Z</time>
      </trkpt>
      <trkpt lat="43.5998" lon="3.05155">
        <ele>458.69</ele>
        <time>2011-04-29T11:32:41Z</time>
      </trkpt>
      <trkpt lat="43.59995" lon="3.05147">
        <ele>458.69</ele>
        <time>2011-04-29T11:32:56Z</time>
      </trkpt>
      <trkpt lat="43.60007" lon="3.05141">
        <ele>458.21</ele>
        <time>2011-04-29T11:33:13Z</time>
      </trkpt>
      <trkpt lat="43.6002" lon="3.05136">
        <ele>457.24</ele>
        <time>2011-04-29T11:33:26Z</time>
      </trkpt>
      <trkpt lat="43.60033" lon="3.05127">
        <ele>456.28</ele>
        <time>2011-04-29T11:33:41Z</time>
      </trkpt>
      <trkpt lat="43.60045" lon="3.05116">
        <ele>456.28</ele>
        <time>2011-04-29T11:33:55Z</time>
      </trkpt>
      <trkpt lat="43.6006" lon="3.05112">
        <ele>455.32</ele>
        <time>2011-04-29T11:34:11Z</time>
      </trkpt>
      <trkpt lat="43.60072" lon="3.05107">
        <ele>454.36</ele>
        <time>2011-04-29T11:34:25Z</time>
      </trkpt>
      <trkpt lat="43.60086" lon="3.05098">
        <ele>452.92</ele>
        <time>2011-04-29T11:34:40Z</time>
      </trkpt>
      <trkpt lat="43.60098" lon="3.05096">
        <ele>451.96</ele>
        <time>2011-04-29T11:34:55Z</time>
      </trkpt>
      <trkpt lat="43.60113" lon="3.05086">
        <ele>451.48</ele>
        <time>2011-04-29T11:35:10Z</time>
      </trkpt>
      <trkpt lat="43.60126" lon="3.05082">
        <ele>450.03</ele>
        <time>2011-04-29T11:35:24Z</time>
      </trkpt>
      <trkpt lat="43.60139" lon="3.05083">
        <ele>448.59</ele>
        <time>2011-04-29T11:35:38Z</time>
      </trkpt>
      <trkpt lat="43.60156" lon="3.05083">
        <ele>446.19</ele>
        <time>2011-04-29T11:35:53Z</time>
      </trkpt>
      <trkpt lat="43.60173" lon="3.05086">
        <ele>445.23</ele>
        <time>2011-04-29T11:36:10Z</time>
      </trkpt>
      <trkpt lat="43.60189" lon="3.05087">
        <ele>445.23</ele>
        <time>2011-04-29T11:36:25Z</time>
      </trkpt>
      <trkpt lat="43.60204" lon="3.05087">
        <ele>445.23</ele>
        <time>2011-04-29T11:36:41Z</time>
      </trkpt>
      <trkpt lat="43.60222" lon="3.05086">
        <ele>445.23</ele>
        <time>2011-04-29T11:36:57Z</time>
      </trkpt>
      <trkpt lat="43.60235" lon="3.05085">
        <ele>445.71</ele>
        <time>2011-04-29T11:37:13Z</time>
      </trkpt>
      <trkpt lat="43.60244" lon="3.05084">
        <ele>446.19</ele>
        <time>2011-04-29T11:37:19Z</time>
      </trkpt>
      <trkpt lat="43.60248" lon="3.05081">
        <ele>445.71</ele>
        <time>2011-04-29T11:37:22Z</time>
      </trkpt>
      <trkpt lat="43.60258" lon="3.05077">
        <ele>445.71</ele>
        <time>2011-04-29T11:37:29Z</time>
      </trkpt>
      <trkpt lat="43.60279" lon="3.05074">
        <ele>445.71</ele>
        <time>2011-04-29T11:37:47Z</time>
      </trkpt>
      <trkpt lat="43.60295" lon="3.05072">
        <ele>445.23</ele>
        <time>2011-04-29T11:38:00Z</time>
      </trkpt>
      <trkpt lat="43.60313" lon="3.0507">
        <ele>443.79</ele>
        <time>2011-04-29T11:38:16Z</time>
      </trkpt>
      <trkpt lat="43.60329" lon="3.05067">
        <ele>443.79</ele>
        <time>2011-04-29T11:38:32Z</time>
      </trkpt>
      <trkpt lat="43.60343" lon="3.05065">
        <ele>444.27</ele>
        <time>2011-04-29T11:38:46Z</time>
      </trkpt>
      <trkpt lat="43.6036" lon="3.0507">
        <ele>445.71</ele>
        <time>2011-04-29T11:39:03Z</time>
      </trkpt>
      <trkpt lat="43.60371" lon="3.05074">
        <ele>446.67</ele>
        <time>2011-04-29T11:39:16Z</time>
      </trkpt>
      <trkpt lat="43.60381" lon="3.05071">
        <ele>446.67</ele>
        <time>2011-04-29T11:39:30Z</time>
      </trkpt>
      <trkpt lat="43.60384" lon="3.05067">
        <ele>446.67</ele>
        <time>2011-04-29T11:39:35Z</time>
      </trkpt>
      <trkpt lat="43.604" lon="3.05052">
        <ele>448.59</ele>
        <time>2011-04-29T11:39:52Z</time>
      </trkpt>
      <trkpt lat="43.60412" lon="3.0504">
        <ele>447.63</ele>
        <time>2011-04-29T11:40:05Z</time>
      </trkpt>
      <trkpt lat="43.60428" lon="3.05027">
        <ele>446.19</ele>
        <time>2011-04-29T11:40:21Z</time>
      </trkpt>
      <trkpt lat="43.6043" lon="3.05025">
        <ele>445.71</ele>
        <time>2011-04-29T11:40:24Z</time>
      </trkpt>
      <trkpt lat="43.60446" lon="3.05014">
        <ele>444.75</ele>
        <time>2011-04-29T11:40:39Z</time>
      </trkpt>
      <trkpt lat="43.60464" lon="3.05011">
        <ele>443.31</ele>
        <time>2011-04-29T11:40:55Z</time>
      </trkpt>
      <trkpt lat="43.6048" lon="3.05005">
        <ele>442.34</ele>
        <time>2011-04-29T11:41:10Z</time>
      </trkpt>
      <trkpt lat="43.60484" lon="3.05006">
        <ele>441.38</ele>
        <time>2011-04-29T11:41:14Z</time>
      </trkpt>
      <trkpt lat="43.605" lon="3.05003">
        <ele>441.38</ele>
        <time>2011-04-29T11:41:28Z</time>
      </trkpt>
      <trkpt lat="43.60503" lon="3.04996">
        <ele>443.31</ele>
        <time>2011-04-29T11:41:44Z</time>
      </trkpt>
      <trkpt lat="43.605" lon="3.04988">
        <ele>445.71</ele>
        <time>2011-04-29T11:42:02Z</time>
      </trkpt>
      <trkpt lat="43.60499" lon="3.04988">
        <ele>446.19</ele>
        <time>2011-04-29T11:42:06Z</time>
      </trkpt>
      <trkpt lat="43.6049" lon="3.04975">
        <ele>448.11</ele>
        <time>2011-04-29T11:42:16Z</time>
      </trkpt>
      <trkpt lat="43.60487" lon="3.04972">
        <ele>448.11</ele>
        <time>2011-04-29T11:42:20Z</time>
      </trkpt>
      <trkpt lat="43.60478" lon="3.04959">
        <ele>450.52</ele>
        <time>2011-04-29T11:42:38Z</time>
      </trkpt>
      <trkpt lat="43.60477" lon="3.04957">
        <ele>451.48</ele>
        <time>2011-04-29T11:42:43Z</time>
      </trkpt>
      <trkpt lat="43.60472" lon="3.04953">
        <ele>451.96</ele>
        <time>2011-04-29T11:42:50Z</time>
      </trkpt>
      <trkpt lat="43.60468" lon="3.04951">
        <ele>452.44</ele>
        <time>2011-04-29T11:42:55Z</time>
      </trkpt>
      <trkpt lat="43.60461" lon="3.04934">
        <ele>453.88</ele>
        <time>2011-04-29T11:43:12Z</time>
      </trkpt>
      <trkpt lat="43.60461" lon="3.04934">
        <ele>454.36</ele>
        <time>2011-04-29T11:43:13Z</time>
      </trkpt>
      <trkpt lat="43.60458" lon="3.0492">
        <ele>455.8</ele>
        <time>2011-04-29T11:43:23Z</time>
      </trkpt>
      <trkpt lat="43.60456" lon="3.04917">
        <ele>455.8</ele>
        <time>2011-04-29T11:43:26Z</time>
      </trkpt>
      <trkpt lat="43.60449" lon="3.04907">
        <ele>456.76</ele>
        <time>2011-04-29T11:43:41Z</time>
      </trkpt>
      <trkpt lat="43.60437" lon="3.0489">
        <ele>459.17</ele>
        <time>2011-04-29T11:43:59Z</time>
      </trkpt>
      <trkpt lat="43.60428" lon="3.04877">
        <ele>461.09</ele>
        <time>2011-04-29T11:44:15Z</time>
      </trkpt>
      <trkpt lat="43.60423" lon="3.04869">
        <ele>463.49</ele>
        <time>2011-04-29T11:44:30Z</time>
      </trkpt>
      <trkpt lat="43.60419" lon="3.04865">
        <ele>464.93</ele>
        <time>2011-04-29T11:44:41Z</time>
      </trkpt>
      <trkpt lat="43.60414" lon="3.04862">
        <ele>466.38</ele>
        <time>2011-04-29T11:44:50Z</time>
      </trkpt>
      <trkpt lat="43.60407" lon="3.04859">
        <ele>466.86</ele>
        <time>2011-04-29T11:44:56Z</time>
      </trkpt>
      <trkpt lat="43.60402" lon="3.04858">
        <ele>467.82</ele>
        <time>2011-04-29T11:45:02Z</time>
      </trkpt>
      <trkpt lat="43.60397" lon="3.04854">
        <ele>469.26</ele>
        <time>2011-04-29T11:45:10Z</time>
      </trkpt>
      <trkpt lat="43.60395" lon="3.04853">
        <ele>469.26</ele>
        <time>2011-04-29T11:45:12Z</time>
      </trkpt>
      <trkpt lat="43.60393" lon="3.04851">
        <ele>469.74</ele>
        <time>2011-04-29T11:45:14Z</time>
      </trkpt>
      <trkpt lat="43.60382" lon="3.04843">
        <ele>471.66</ele>
        <time>2011-04-29T11:45:28Z</time>
      </trkpt>
      <trkpt lat="43.60375" lon="3.04834">
        <ele>474.07</ele>
        <time>2011-04-29T11:45:42Z</time>
      </trkpt>
      <trkpt lat="43.60371" lon="3.04824">
        <ele>475.03</ele>
        <time>2011-04-29T11:45:57Z</time>
      </trkpt>
      <trkpt lat="43.60368" lon="3.04819">
        <ele>475.99</ele>
        <time>2011-04-29T11:46:05Z</time>
      </trkpt>
      <trkpt lat="43.60362" lon="3.04817">
        <ele>476.95</ele>
        <time>2011-04-29T11:46:10Z</time>
      </trkpt>
      <trkpt lat="43.60353" lon="3.04812">
        <ele>479.35</ele>
        <time>2011-04-29T11:46:24Z</time>
      </trkpt>
      <trkpt lat="43.60346" lon="3.04805">
        <ele>481.28</ele>
        <time>2011-04-29T11:46:40Z</time>
      </trkpt>
      <trkpt lat="43.60343" lon="3.04804">
        <ele>482.24</ele>
        <time>2011-04-29T11:46:47Z</time>
      </trkpt>
      <trkpt lat="43.60334" lon="3.04794">
        <ele>482.72</ele>
        <time>2011-04-29T11:46:56Z</time>
      </trkpt>
      <trkpt lat="43.60322" lon="3.04787">
        <ele>485.12</ele>
        <time>2011-04-29T11:47:15Z</time>
      </trkpt>
      <trkpt lat="43.60321" lon="3.04783">
        <ele>485.6</ele>
        <time>2011-04-29T11:47:20Z</time>
      </trkpt>
      <trkpt lat="43.60315" lon="3.04772">
        <ele>488.01</ele>
        <time>2011-04-29T11:47:35Z</time>
      </trkpt>
      <trkpt lat="43.60303" lon="3.04761">
        <ele>489.93</ele>
        <time>2011-04-29T11:47:50Z</time>
      </trkpt>
      <trkpt lat="43.60293" lon="3.04756">
        <ele>491.85</ele>
        <time>2011-04-29T11:48:05Z</time>
      </trkpt>
      <trkpt lat="43.60292" lon="3.04752">
        <ele>493.29</ele>
        <time>2011-04-29T11:48:15Z</time>
      </trkpt>
      <trkpt lat="43.60293" lon="3.04749">
        <ele>493.77</ele>
        <time>2011-04-29T11:48:17Z</time>
      </trkpt>
      <trkpt lat="43.60294" lon="3.04744">
        <ele>494.26</ele>
        <time>2011-04-29T11:48:23Z</time>
      </trkpt>
      <trkpt lat="43.60295" lon="3.04732">
        <ele>497.14</ele>
        <time>2011-04-29T11:48:37Z</time>
      </trkpt>
      <trkpt lat="43.60295" lon="3.04732">
        <ele>496.18</ele>
        <time>2011-04-29T11:48:42Z</time>
      </trkpt>
      <trkpt lat="43.60294" lon="3.04729">
        <ele>498.58</ele>
        <time>2011-04-29T11:48:55Z</time>
      </trkpt>
      <trkpt lat="43.6029" lon="3.0473">
        <ele>499.54</ele>
        <time>2011-04-29T11:49:04Z</time>
      </trkpt>
      <trkpt lat="43.60289" lon="3.04731">
        <ele>498.1</ele>
        <time>2011-04-29T11:49:06Z</time>
      </trkpt>
      <trkpt lat="43.60284" lon="3.04736">
        <ele>502.43</ele>
        <time>2011-04-29T11:49:11Z</time>
      </trkpt>
      <trkpt lat="43.60283" lon="3.04737">
        <ele>497.14</ele>
        <time>2011-04-29T11:49:12Z</time>
      </trkpt>
      <trkpt lat="43.60283" lon="3.04739">
        <ele>500.98</ele>
        <time>2011-04-29T11:49:13Z</time>
      </trkpt>
      <trkpt lat="43.60282" lon="3.0474">
        <ele>495.22</ele>
        <time>2011-04-29T11:49:14Z</time>
      </trkpt>
      <trkpt lat="43.60282" lon="3.04742">
        <ele>501.46</ele>
        <time>2011-04-29T11:49:15Z</time>
      </trkpt>
      <trkpt lat="43.60283" lon="3.04745">
        <ele>497.14</ele>
        <time>2011-04-29T11:49:17Z</time>
      </trkpt>
      <trkpt lat="43.60283" lon="3.04746">
        <ele>500.02</ele>
        <time>2011-04-29T11:49:18Z</time>
      </trkpt>
      <trkpt lat="43.60283" lon="3.04753">
        <ele>497.14</ele>
        <time>2011-04-29T11:49:23Z</time>
      </trkpt>
      <trkpt lat="43.60285" lon="3.04762">
        <ele>497.14</ele>
        <time>2011-04-29T11:49:37Z</time>
      </trkpt>
      <trkpt lat="43.60282" lon="3.04774">
        <ele>499.06</ele>
        <time>2011-04-29T11:49:51Z</time>
      </trkpt>
      <trkpt lat="43.60281" lon="3.04782">
        <ele>500.5</ele>
        <time>2011-04-29T11:50:00Z</time>
      </trkpt>
      <trkpt lat="43.60293" lon="3.0473">
        <ele>497.62</ele>
        <time>2011-04-29T11:50:01Z</time>
      </trkpt>
      <trkpt lat="43.60296" lon="3.04731">
        <ele>497.14</ele>
        <time>2011-04-29T11:50:08Z</time>
      </trkpt>
      <trkpt lat="43.60292" lon="3.04731">
        <ele>497.14</ele>
        <time>2011-04-29T11:50:31Z</time>
      </trkpt>
      <trkpt lat="43.60289" lon="3.0473">
        <ele>496.66</ele>
        <time>2011-04-29T11:50:58Z</time>
      </trkpt>
      <trkpt lat="43.60291" lon="3.04729">
        <ele>468.3</ele>
        <time>2011-04-29T11:51:20Z</time>
      </trkpt>
      <trkpt lat="43.60291" lon="3.04729">
        <ele>497.14</ele>
        <time>2011-04-29T11:51:21Z</time>
      </trkpt>
      <trkpt lat="43.60291" lon="3.04729">
        <ele>501.46</ele>
        <time>2011-04-29T11:51:22Z</time>
      </trkpt>
      <trkpt lat="43.60291" lon="3.04729">
        <ele>498.58</ele>
        <time>2011-04-29T11:51:23Z</time>
      </trkpt>
      <trkpt lat="43.60291" lon="3.0473">
        <ele>497.14</ele>
        <time>2011-04-29T11:51:25Z</time>
      </trkpt>
      <trkpt lat="43.6029" lon="3.04734">
        <ele>496.66</ele>
        <time>2011-04-29T11:51:47Z</time>
      </trkpt>
      <trkpt lat="43.6029" lon="3.04734">
        <ele>496.18</ele>
        <time>2011-04-29T11:54:03Z</time>
      </trkpt>
      <trkpt lat="43.60289" lon="3.04726">
        <ele>496.66</ele>
        <time>2011-04-29T11:54:34Z</time>
      </trkpt>
      <trkpt lat="43.60292" lon="3.0473">
        <ele>496.66</ele>
        <time>2011-04-29T11:54:42Z</time>
      </trkpt>
      <trkpt lat="43.60292" lon="3.04733">
        <ele>496.18</ele>
        <time>2011-04-29T11:54:59Z</time>
      </trkpt>
      <trkpt lat="43.60304" lon="3.04722">
        <ele>499.54</ele>
        <time>2011-04-29T11:55:15Z</time>
      </trkpt>
      <trkpt lat="43.6031" lon="3.04708">
        <ele>502.43</ele>
        <time>2011-04-29T11:55:30Z</time>
      </trkpt>
      <trkpt lat="43.60311" lon="3.04707">
        <ele>502.91</ele>
        <time>2011-04-29T11:55:32Z</time>
      </trkpt>
      <trkpt lat="43.60307" lon="3.0471">
        <ele>502.43</ele>
        <time>2011-04-29T11:55:41Z</time>
      </trkpt>
      <trkpt lat="43.60299" lon="3.04713">
        <ele>501.95</ele>
        <time>2011-04-29T11:55:48Z</time>
      </trkpt>
      <trkpt lat="43.60283" lon="3.04706">
        <ele>501.95</ele>
        <time>2011-04-29T11:56:04Z</time>
      </trkpt>
      <trkpt lat="43.6028" lon="3.04706">
        <ele>502.43</ele>
        <time>2011-04-29T11:56:07Z</time>
      </trkpt>
      <trkpt lat="43.60272" lon="3.04696">
        <ele>508.67</ele>
        <time>2011-04-29T11:56:14Z</time>
      </trkpt>
      <trkpt lat="43.60272" lon="3.04695">
        <ele>503.87</ele>
        <time>2011-04-29T11:56:15Z</time>
      </trkpt>
      <trkpt lat="43.6027" lon="3.04693">
        <ele>502.91</ele>
        <time>2011-04-29T11:56:17Z</time>
      </trkpt>
      <trkpt lat="43.60263" lon="3.04683">
        <ele>503.39</ele>
        <time>2011-04-29T11:56:27Z</time>
      </trkpt>
      <trkpt lat="43.60255" lon="3.04666">
        <ele>505.31</ele>
        <time>2011-04-29T11:56:44Z</time>
      </trkpt>
      <trkpt lat="43.6026" lon="3.04656">
        <ele>507.71</ele>
        <time>2011-04-29T11:56:57Z</time>
      </trkpt>
      <trkpt lat="43.60262" lon="3.04648">
        <ele>510.12</ele>
        <time>2011-04-29T11:57:11Z</time>
      </trkpt>
      <trkpt lat="43.60267" lon="3.04637">
        <ele>513</ele>
        <time>2011-04-29T11:57:25Z</time>
      </trkpt>
      <trkpt lat="43.60273" lon="3.04627">
        <ele>514.92</ele>
        <time>2011-04-29T11:57:36Z</time>
      </trkpt>
      <trkpt lat="43.60281" lon="3.04624">
        <ele>519.25</ele>
        <time>2011-04-29T11:57:47Z</time>
      </trkpt>
      <trkpt lat="43.60288" lon="3.04624">
        <ele>518.29</ele>
        <time>2011-04-29T11:57:57Z</time>
      </trkpt>
      <trkpt lat="43.6029" lon="3.04626">
        <ele>517.81</ele>
        <time>2011-04-29T11:57:59Z</time>
      </trkpt>
      <trkpt lat="43.60299" lon="3.04629">
        <ele>517.81</ele>
        <time>2011-04-29T11:58:11Z</time>
      </trkpt>
      <trkpt lat="43.60317" lon="3.04637">
        <ele>517.81</ele>
        <time>2011-04-29T11:58:29Z</time>
      </trkpt>
      <trkpt lat="43.6032" lon="3.04635">
        <ele>517.33</ele>
        <time>2011-04-29T11:58:32Z</time>
      </trkpt>
      <trkpt lat="43.60344" lon="3.04625">
        <ele>516.37</ele>
        <time>2011-04-29T11:58:50Z</time>
      </trkpt>
      <trkpt lat="43.60357" lon="3.0463">
        <ele>515.88</ele>
        <time>2011-04-29T11:59:02Z</time>
      </trkpt>
      <trkpt lat="43.60378" lon="3.04636">
        <ele>517.33</ele>
        <time>2011-04-29T11:59:21Z</time>
      </trkpt>
      <trkpt lat="43.60398" lon="3.04653">
        <ele>516.85</ele>
        <time>2011-04-29T11:59:41Z</time>
      </trkpt>
      <trkpt lat="43.60404" lon="3.04658">
        <ele>517.81</ele>
        <time>2011-04-29T11:59:47Z</time>
      </trkpt>
      <trkpt lat="43.60422" lon="3.04678">
        <ele>517.81</ele>
        <time>2011-04-29T12:00:07Z</time>
      </trkpt>
      <trkpt lat="43.60438" lon="3.04693">
        <ele>519.25</ele>
        <time>2011-04-29T12:00:24Z</time>
      </trkpt>
      <trkpt lat="43.6044" lon="3.04695">
        <ele>519.25</ele>
        <time>2011-04-29T12:00:26Z</time>
      </trkpt>
      <trkpt lat="43.60456" lon="3.04703">
        <ele>521.17</ele>
        <time>2011-04-29T12:00:45Z</time>
      </trkpt>
      <trkpt lat="43.60448" lon="3.04689">
        <ele>523.09</ele>
        <time>2011-04-29T12:01:00Z</time>
      </trkpt>
      <trkpt lat="43.6044" lon="3.0467">
        <ele>525.02</ele>
        <time>2011-04-29T12:01:16Z</time>
      </trkpt>
      <trkpt lat="43.60431" lon="3.04655">
        <ele>527.42</ele>
        <time>2011-04-29T12:01:31Z</time>
      </trkpt>
      <trkpt lat="43.60427" lon="3.04649">
        <ele>528.38</ele>
        <time>2011-04-29T12:01:38Z</time>
      </trkpt>
      <trkpt lat="43.60411" lon="3.04626">
        <ele>528.38</ele>
        <time>2011-04-29T12:01:57Z</time>
      </trkpt>
      <trkpt lat="43.60397" lon="3.04613">
        <ele>527.9</ele>
        <time>2011-04-29T12:02:12Z</time>
      </trkpt>
      <trkpt lat="43.60384" lon="3.04598">
        <ele>528.38</ele>
        <time>2011-04-29T12:02:26Z</time>
      </trkpt>
      <trkpt lat="43.60377" lon="3.0459">
        <ele>529.34</ele>
        <time>2011-04-29T12:02:35Z</time>
      </trkpt>
      <trkpt lat="43.60355" lon="3.04588">
        <ele>528.38</ele>
        <time>2011-04-29T12:02:52Z</time>
      </trkpt>
      <trkpt lat="43.60336" lon="3.04579">
        <ele>529.34</ele>
        <time>2011-04-29T12:03:09Z</time>
      </trkpt>
      <trkpt lat="43.60325" lon="3.04571">
        <ele>531.27</ele>
        <time>2011-04-29T12:03:26Z</time>
      </trkpt>
      <trkpt lat="43.60326" lon="3.04568">
        <ele>531.75</ele>
        <time>2011-04-29T12:03:28Z</time>
      </trkpt>
      <trkpt lat="43.60326" lon="3.04567">
        <ele>531.75</ele>
        <time>2011-04-29T12:03:30Z</time>
      </trkpt>
      <trkpt lat="43.60329" lon="3.04562">
        <ele>533.19</ele>
        <time>2011-04-29T12:03:38Z</time>
      </trkpt>
      <trkpt lat="43.60338" lon="3.04552">
        <ele>535.59</ele>
        <time>2011-04-29T12:03:53Z</time>
      </trkpt>
      <trkpt lat="43.60349" lon="3.04547">
        <ele>538.48</ele>
        <time>2011-04-29T12:04:08Z</time>
      </trkpt>
      <trkpt lat="43.60353" lon="3.04546">
        <ele>539.92</ele>
        <time>2011-04-29T12:04:18Z</time>
      </trkpt>
      <trkpt lat="43.60362" lon="3.04544">
        <ele>542.32</ele>
        <time>2011-04-29T12:04:35Z</time>
      </trkpt>
      <trkpt lat="43.60367" lon="3.04545">
        <ele>545.69</ele>
        <time>2011-04-29T12:04:49Z</time>
      </trkpt>
      <trkpt lat="43.60375" lon="3.04545">
        <ele>548.57</ele>
        <time>2011-04-29T12:05:03Z</time>
      </trkpt>
      <trkpt lat="43.60385" lon="3.04547">
        <ele>550.01</ele>
        <time>2011-04-29T12:05:19Z</time>
      </trkpt>
      <trkpt lat="43.60398" lon="3.04549">
        <ele>552.41</ele>
        <time>2011-04-29T12:05:37Z</time>
      </trkpt>
      <trkpt lat="43.60406" lon="3.04546">
        <ele>554.82</ele>
        <time>2011-04-29T12:05:52Z</time>
      </trkpt>
      <trkpt lat="43.60408" lon="3.04548">
        <ele>555.78</ele>
        <time>2011-04-29T12:05:58Z</time>
      </trkpt>
      <trkpt lat="43.60417" lon="3.04548">
        <ele>556.74</ele>
        <time>2011-04-29T12:06:06Z</time>
      </trkpt>
      <trkpt lat="43.60424" lon="3.04549">
        <ele>558.66</ele>
        <time>2011-04-29T12:06:23Z</time>
      </trkpt>
      <trkpt lat="43.60424" lon="3.04549">
        <ele>559.14</ele>
        <time>2011-04-29T12:06:25Z</time>
      </trkpt>
      <trkpt lat="43.60425" lon="3.0455">
        <ele>559.14</ele>
        <time>2011-04-29T12:06:27Z</time>
      </trkpt>
      <trkpt lat="43.60427" lon="3.04551">
        <ele>560.59</ele>
        <time>2011-04-29T12:06:34Z</time>
      </trkpt>
      <trkpt lat="43.60432" lon="3.04554">
        <ele>560.11</ele>
        <time>2011-04-29T12:06:37Z</time>
      </trkpt>
      <trkpt lat="43.60433" lon="3.04555">
        <ele>561.07</ele>
        <time>2011-04-29T12:06:40Z</time>
      </trkpt>
      <trkpt lat="43.60436" lon="3.04557">
        <ele>562.51</ele>
        <time>2011-04-29T12:06:47Z</time>
      </trkpt>
      <trkpt lat="43.60443" lon="3.0456">
        <ele>565.39</ele>
        <time>2011-04-29T12:07:04Z</time>
      </trkpt>
      <trkpt lat="43.60459" lon="3.0457">
        <ele>566.35</ele>
        <time>2011-04-29T12:07:18Z</time>
      </trkpt>
      <trkpt lat="43.60471" lon="3.04577">
        <ele>568.76</ele>
        <time>2011-04-29T12:07:34Z</time>
      </trkpt>
      <trkpt lat="43.60473" lon="3.04577">
        <ele>569.72</ele>
        <time>2011-04-29T12:07:36Z</time>
      </trkpt>
      <trkpt lat="43.60473" lon="3.04577">
        <ele>568.76</ele>
        <time>2011-04-29T12:07:37Z</time>
      </trkpt>
      <trkpt lat="43.6048" lon="3.04583">
        <ele>569.72</ele>
        <time>2011-04-29T12:07:42Z</time>
      </trkpt>
      <trkpt lat="43.60481" lon="3.04585">
        <ele>570.2</ele>
        <time>2011-04-29T12:07:44Z</time>
      </trkpt>
      <trkpt lat="43.60482" lon="3.04586">
        <ele>570.2</ele>
        <time>2011-04-29T12:07:52Z</time>
      </trkpt>
      <trkpt lat="43.60495" lon="3.04592">
        <ele>572.6</ele>
        <time>2011-04-29T12:08:10Z</time>
      </trkpt>
      <trkpt lat="43.60501" lon="3.04594">
        <ele>575.01</ele>
        <time>2011-04-29T12:08:22Z</time>
      </trkpt>
      <trkpt lat="43.60511" lon="3.04607">
        <ele>577.41</ele>
        <time>2011-04-29T12:08:38Z</time>
      </trkpt>
      <trkpt lat="43.60514" lon="3.04609">
        <ele>577.41</ele>
        <time>2011-04-29T12:08:56Z</time>
      </trkpt>
      <trkpt lat="43.60514" lon="3.04607">
        <ele>577.41</ele>
        <time>2011-04-29T12:09:27Z</time>
      </trkpt>
      <trkpt lat="43.60515" lon="3.04608">
        <ele>577.89</ele>
        <time>2011-04-29T12:10:29Z</time>
      </trkpt>
      <trkpt lat="43.60524" lon="3.0461">
        <ele>578.37</ele>
        <time>2011-04-29T12:10:53Z</time>
      </trkpt>
      <trkpt lat="43.60525" lon="3.0461">
        <ele>578.37</ele>
        <time>2011-04-29T12:11:20Z</time>
      </trkpt>
      <trkpt lat="43.60524" lon="3.04608">
        <ele>579.33</ele>
        <time>2011-04-29T12:11:48Z</time>
      </trkpt>
      <trkpt lat="43.6052" lon="3.04598">
        <ele>581.25</ele>
        <time>2011-04-29T12:12:02Z</time>
      </trkpt>
      <trkpt lat="43.60521" lon="3.04588">
        <ele>583.66</ele>
        <time>2011-04-29T12:12:16Z</time>
      </trkpt>
      <trkpt lat="43.60521" lon="3.04582">
        <ele>586.06</ele>
        <time>2011-04-29T12:12:29Z</time>
      </trkpt>
      <trkpt lat="43.60522" lon="3.04568">
        <ele>587.98</ele>
        <time>2011-04-29T12:12:44Z</time>
      </trkpt>
      <trkpt lat="43.60524" lon="3.04562">
        <ele>589.43</ele>
        <time>2011-04-29T12:12:58Z</time>
      </trkpt>
      <trkpt lat="43.60528" lon="3.0457">
        <ele>591.35</ele>
        <time>2011-04-29T12:13:14Z</time>
      </trkpt>
      <trkpt lat="43.60537" lon="3.04578">
        <ele>592.79</ele>
        <time>2011-04-29T12:13:28Z</time>
      </trkpt>
      <trkpt lat="43.60549" lon="3.04577">
        <ele>595.67</ele>
        <time>2011-04-29T12:13:45Z</time>
      </trkpt>
      <trkpt lat="43.60555" lon="3.04576">
        <ele>598.08</ele>
        <time>2011-04-29T12:14:01Z</time>
      </trkpt>
      <trkpt lat="43.60559" lon="3.04567">
        <ele>600</ele>
        <time>2011-04-29T12:14:16Z</time>
      </trkpt>
      <trkpt lat="43.60559" lon="3.04566">
        <ele>600.96</ele>
        <time>2011-04-29T12:14:19Z</time>
      </trkpt>
      <trkpt lat="43.60565" lon="3.0456">
        <ele>603.36</ele>
        <time>2011-04-29T12:14:37Z</time>
      </trkpt>
      <trkpt lat="43.60566" lon="3.04559">
        <ele>603.36</ele>
        <time>2011-04-29T12:14:39Z</time>
      </trkpt>
      <trkpt lat="43.60576" lon="3.04552">
        <ele>604.81</ele>
        <time>2011-04-29T12:14:48Z</time>
      </trkpt>
      <trkpt lat="43.60588" lon="3.04548">
        <ele>607.21</ele>
        <time>2011-04-29T12:15:06Z</time>
      </trkpt>
      <trkpt lat="43.60596" lon="3.04547">
        <ele>609.13</ele>
        <time>2011-04-29T12:15:21Z</time>
      </trkpt>
      <trkpt lat="43.60604" lon="3.04539">
        <ele>611.54</ele>
        <time>2011-04-29T12:15:36Z</time>
      </trkpt>
      <trkpt lat="43.60614" lon="3.04538">
        <ele>614.9</ele>
        <time>2011-04-29T12:15:53Z</time>
      </trkpt>
      <trkpt lat="43.60623" lon="3.04534">
        <ele>617.3</ele>
        <time>2011-04-29T12:16:08Z</time>
      </trkpt>
      <trkpt lat="43.60628" lon="3.04534">
        <ele>618.75</ele>
        <time>2011-04-29T12:16:23Z</time>
      </trkpt>
      <trkpt lat="43.60631" lon="3.04533">
        <ele>621.15</ele>
        <time>2011-04-29T12:16:44Z</time>
      </trkpt>
      <trkpt lat="43.60633" lon="3.04529">
        <ele>621.63</ele>
        <time>2011-04-29T12:16:48Z</time>
      </trkpt>
      <trkpt lat="43.60639" lon="3.04529">
        <ele>616.82</ele>
        <time>2011-04-29T12:16:55Z</time>
      </trkpt>
      <trkpt lat="43.60639" lon="3.04529">
        <ele>623.55</ele>
        <time>2011-04-29T12:16:56Z</time>
      </trkpt>
      <trkpt lat="43.60643" lon="3.04528">
        <ele>628.36</ele>
        <time>2011-04-29T12:17:14Z</time>
      </trkpt>
      <trkpt lat="43.60644" lon="3.04528">
        <ele>626.92</ele>
        <time>2011-04-29T12:17:15Z</time>
      </trkpt>
      <trkpt lat="43.60644" lon="3.04528">
        <ele>625.96</ele>
        <time>2011-04-29T12:17:17Z</time>
      </trkpt>
      <trkpt lat="43.60664" lon="3.04512">
        <ele>627.88</ele>
        <time>2011-04-29T12:17:35Z</time>
      </trkpt>
      <trkpt lat="43.60676" lon="3.04497">
        <ele>630.28</ele>
        <time>2011-04-29T12:17:52Z</time>
      </trkpt>
      <trkpt lat="43.60679" lon="3.04492">
        <ele>625.96</ele>
        <time>2011-04-29T12:18:04Z</time>
      </trkpt>
      <trkpt lat="43.60679" lon="3.04492">
        <ele>632.2</ele>
        <time>2011-04-29T12:18:05Z</time>
      </trkpt>
      <trkpt lat="43.60679" lon="3.04492">
        <ele>633.65</ele>
        <time>2011-04-29T12:18:34Z</time>
      </trkpt>
      <trkpt lat="43.60679" lon="3.04492">
        <ele>629.32</ele>
        <time>2011-04-29T12:18:42Z</time>
      </trkpt>
      <trkpt lat="43.60679" lon="3.04492">
        <ele>635.57</ele>
        <time>2011-04-29T12:18:43Z</time>
      </trkpt>
      <trkpt lat="43.60679" lon="3.04493">
        <ele>630.76</ele>
        <time>2011-04-29T12:18:44Z</time>
      </trkpt>
      <trkpt lat="43.6068" lon="3.04492">
        <ele>632.2</ele>
        <time>2011-04-29T12:19:06Z</time>
      </trkpt>
      <trkpt lat="43.60682" lon="3.04494">
        <ele>631.72</ele>
        <time>2011-04-29T12:19:30Z</time>
      </trkpt>
      <trkpt lat="43.60682" lon="3.04494">
        <ele>631.72</ele>
        <time>2011-04-29T12:19:45Z</time>
      </trkpt>
      <trkpt lat="43.60676" lon="3.04486">
        <ele>631.72</ele>
        <time>2011-04-29T12:19:58Z</time>
      </trkpt>
      <trkpt lat="43.60676" lon="3.04485">
        <ele>633.65</ele>
        <time>2011-04-29T12:20:25Z</time>
      </trkpt>
      <trkpt lat="43.60676" lon="3.04485">
        <ele>632.68</ele>
        <time>2011-04-29T12:20:26Z</time>
      </trkpt>
      <trkpt lat="43.60669" lon="3.04485">
        <ele>631.24</ele>
        <time>2011-04-29T12:20:30Z</time>
      </trkpt>
      <trkpt lat="43.60668" lon="3.04484">
        <ele>633.17</ele>
        <time>2011-04-29T12:20:36Z</time>
      </trkpt>
      <trkpt lat="43.60667" lon="3.04482">
        <ele>631.72</ele>
        <time>2011-04-29T12:21:04Z</time>
      </trkpt>
      <trkpt lat="43.6066" lon="3.0447">
        <ele>632.68</ele>
        <time>2011-04-29T12:21:20Z</time>
      </trkpt>
      <trkpt lat="43.60657" lon="3.04459">
        <ele>633.17</ele>
        <time>2011-04-29T12:21:30Z</time>
      </trkpt>
      <trkpt lat="43.60657" lon="3.04451">
        <ele>633.17</ele>
        <time>2011-04-29T12:21:35Z</time>
      </trkpt>
      <trkpt lat="43.60654" lon="3.04435">
        <ele>633.65</ele>
        <time>2011-04-29T12:21:53Z</time>
      </trkpt>
      <trkpt lat="43.60644" lon="3.04417">
        <ele>633.65</ele>
        <time>2011-04-29T12:22:23Z</time>
      </trkpt>
      <trkpt lat="43.60636" lon="3.044">
        <ele>634.61</ele>
        <time>2011-04-29T12:22:39Z</time>
      </trkpt>
      <trkpt lat="43.60627" lon="3.04377">
        <ele>635.09</ele>
        <time>2011-04-29T12:22:56Z</time>
      </trkpt>
      <trkpt lat="43.60622" lon="3.04357">
        <ele>636.05</ele>
        <time>2011-04-29T12:23:16Z</time>
      </trkpt>
      <trkpt lat="43.60622" lon="3.04354">
        <ele>636.05</ele>
        <time>2011-04-29T12:23:20Z</time>
      </trkpt>
      <trkpt lat="43.60619" lon="3.04346">
        <ele>636.53</ele>
        <time>2011-04-29T12:23:26Z</time>
      </trkpt>
      <trkpt lat="43.60619" lon="3.04335">
        <ele>637.01</ele>
        <time>2011-04-29T12:23:36Z</time>
      </trkpt>
      <trkpt lat="43.60623" lon="3.04319">
        <ele>637.97</ele>
        <time>2011-04-29T12:23:46Z</time>
      </trkpt>
      <trkpt lat="43.60631" lon="3.0431">
        <ele>637.97</ele>
        <time>2011-04-29T12:24:01Z</time>
      </trkpt>
      <trkpt lat="43.60643" lon="3.04313">
        <ele>637.97</ele>
        <time>2011-04-29T12:24:15Z</time>
      </trkpt>
      <trkpt lat="43.6065" lon="3.04317">
        <ele>637.97</ele>
        <time>2011-04-29T12:24:20Z</time>
      </trkpt>
      <trkpt lat="43.60665" lon="3.04332">
        <ele>638.93</ele>
        <time>2011-04-29T12:24:35Z</time>
      </trkpt>
      <trkpt lat="43.60677" lon="3.04343">
        <ele>639.41</ele>
        <time>2011-04-29T12:24:50Z</time>
      </trkpt>
      <trkpt lat="43.60685" lon="3.04342">
        <ele>640.38</ele>
        <time>2011-04-29T12:24:58Z</time>
      </trkpt>
      <trkpt lat="43.607" lon="3.04348">
        <ele>640.86</ele>
        <time>2011-04-29T12:25:14Z</time>
      </trkpt>
      <trkpt lat="43.60712" lon="3.04346">
        <ele>642.3</ele>
        <time>2011-04-29T12:25:27Z</time>
      </trkpt>
      <trkpt lat="43.60723" lon="3.04342">
        <ele>643.26</ele>
        <time>2011-04-29T12:25:40Z</time>
      </trkpt>
      <trkpt lat="43.60738" lon="3.04331">
        <ele>644.22</ele>
        <time>2011-04-29T12:25:55Z</time>
      </trkpt>
      <trkpt lat="43.60749" lon="3.04324">
        <ele>645.66</ele>
        <time>2011-04-29T12:26:09Z</time>
      </trkpt>
      <trkpt lat="43.60758" lon="3.04313">
        <ele>647.1</ele>
        <time>2011-04-29T12:26:23Z</time>
      </trkpt>
      <trkpt lat="43.60771" lon="3.04296">
        <ele>648.07</ele>
        <time>2011-04-29T12:26:41Z</time>
      </trkpt>
      <trkpt lat="43.60785" lon="3.04277">
        <ele>649.51</ele>
        <time>2011-04-29T12:26:57Z</time>
      </trkpt>
      <trkpt lat="43.60795" lon="3.04256">
        <ele>651.43</ele>
        <time>2011-04-29T12:27:16Z</time>
      </trkpt>
      <trkpt lat="43.60796" lon="3.04255">
        <ele>651.43</ele>
        <time>2011-04-29T12:27:17Z</time>
      </trkpt>
      <trkpt lat="43.60799" lon="3.04251">
        <ele>651.91</ele>
        <time>2011-04-29T12:27:25Z</time>
      </trkpt>
      <trkpt lat="43.60801" lon="3.0425">
        <ele>651.91</ele>
        <time>2011-04-29T12:27:27Z</time>
      </trkpt>
      <trkpt lat="43.60813" lon="3.04231">
        <ele>652.87</ele>
        <time>2011-04-29T12:27:45Z</time>
      </trkpt>
      <trkpt lat="43.60824" lon="3.04211">
        <ele>653.83</ele>
        <time>2011-04-29T12:27:59Z</time>
      </trkpt>
      <trkpt lat="43.60837" lon="3.04196">
        <ele>654.8</ele>
        <time>2011-04-29T12:28:17Z</time>
      </trkpt>
      <trkpt lat="43.60841" lon="3.04192">
        <ele>655.28</ele>
        <time>2011-04-29T12:28:20Z</time>
      </trkpt>
      <trkpt lat="43.60854" lon="3.0418">
        <ele>656.24</ele>
        <time>2011-04-29T12:28:37Z</time>
      </trkpt>
      <trkpt lat="43.60872" lon="3.04167">
        <ele>658.64</ele>
        <time>2011-04-29T12:28:54Z</time>
      </trkpt>
      <trkpt lat="43.60884" lon="3.0416">
        <ele>663.45</ele>
        <time>2011-04-29T12:29:04Z</time>
      </trkpt>
      <trkpt lat="43.60887" lon="3.04158">
        <ele>660.08</ele>
        <time>2011-04-29T12:29:07Z</time>
      </trkpt>
      <trkpt lat="43.60898" lon="3.04159">
        <ele>661.04</ele>
        <time>2011-04-29T12:29:16Z</time>
      </trkpt>
      <trkpt lat="43.60911" lon="3.04163">
        <ele>661.52</ele>
        <time>2011-04-29T12:29:28Z</time>
      </trkpt>
      <trkpt lat="43.60927" lon="3.04169">
        <ele>662.49</ele>
        <time>2011-04-29T12:29:45Z</time>
      </trkpt>
      <trkpt lat="43.60945" lon="3.04175">
        <ele>663.93</ele>
        <time>2011-04-29T12:30:02Z</time>
      </trkpt>
      <trkpt lat="43.60961" lon="3.04183">
        <ele>666.33</ele>
        <time>2011-04-29T12:30:17Z</time>
      </trkpt>
      <trkpt lat="43.60977" lon="3.04199">
        <ele>667.77</ele>
        <time>2011-04-29T12:30:33Z</time>
      </trkpt>
      <trkpt lat="43.6099" lon="3.0421">
        <ele>668.73</ele>
        <time>2011-04-29T12:30:50Z</time>
      </trkpt>
      <trkpt lat="43.61005" lon="3.04219">
        <ele>669.7</ele>
        <time>2011-04-29T12:31:04Z</time>
      </trkpt>
      <trkpt lat="43.61015" lon="3.04227">
        <ele>671.14</ele>
        <time>2011-04-29T12:31:13Z</time>
      </trkpt>
      <trkpt lat="43.61024" lon="3.04231">
        <ele>675.94</ele>
        <time>2011-04-29T12:31:21Z</time>
      </trkpt>
      <trkpt lat="43.61024" lon="3.04232">
        <ele>672.1</ele>
        <time>2011-04-29T12:31:22Z</time>
      </trkpt>
      <trkpt lat="43.61025" lon="3.04232">
        <ele>671.14</ele>
        <time>2011-04-29T12:31:24Z</time>
      </trkpt>
      <trkpt lat="43.61043" lon="3.04229">
        <ele>672.58</ele>
        <time>2011-04-29T12:31:41Z</time>
      </trkpt>
      <trkpt lat="43.61058" lon="3.04221">
        <ele>673.06</ele>
        <time>2011-04-29T12:31:53Z</time>
      </trkpt>
      <trkpt lat="43.61074" lon="3.04218">
        <ele>674.02</ele>
        <time>2011-04-29T12:32:08Z</time>
      </trkpt>
      <trkpt lat="43.61078" lon="3.04219">
        <ele>674.5</ele>
        <time>2011-04-29T12:32:12Z</time>
      </trkpt>
      <trkpt lat="43.61072" lon="3.04227">
        <ele>675.46</ele>
        <time>2011-04-29T12:32:20Z</time>
      </trkpt>
      <trkpt lat="43.61068" lon="3.04229">
        <ele>674.98</ele>
        <time>2011-04-29T12:32:24Z</time>
      </trkpt>
      <trkpt lat="43.61046" lon="3.04241">
        <ele>673.54</ele>
        <time>2011-04-29T12:32:43Z</time>
      </trkpt>
      <trkpt lat="43.61045" lon="3.04242">
        <ele>677.39</ele>
        <time>2011-04-29T12:32:44Z</time>
      </trkpt>
      <trkpt lat="43.61031" lon="3.04254">
        <ele>675.46</ele>
        <time>2011-04-29T12:32:58Z</time>
      </trkpt>
      <trkpt lat="43.61036" lon="3.0427">
        <ele>676.91</ele>
        <time>2011-04-29T12:33:12Z</time>
      </trkpt>
      <trkpt lat="43.61036" lon="3.04271">
        <ele>677.39</ele>
        <time>2011-04-29T12:33:13Z</time>
      </trkpt>
      <trkpt lat="43.61043" lon="3.04272">
        <ele>677.87</ele>
        <time>2011-04-29T12:33:20Z</time>
      </trkpt>
      <trkpt lat="43.6106" lon="3.04273">
        <ele>679.31</ele>
        <time>2011-04-29T12:33:35Z</time>
      </trkpt>
      <trkpt lat="43.61076" lon="3.04267">
        <ele>679.79</ele>
        <time>2011-04-29T12:33:50Z</time>
      </trkpt>
      <trkpt lat="43.61089" lon="3.04265">
        <ele>673.54</ele>
        <time>2011-04-29T12:34:02Z</time>
      </trkpt>
      <trkpt lat="43.6109" lon="3.04265">
        <ele>683.15</ele>
        <time>2011-04-29T12:34:03Z</time>
      </trkpt>
      <trkpt lat="43.61107" lon="3.04257">
        <ele>682.67</ele>
        <time>2011-04-29T12:34:20Z</time>
      </trkpt>
      <trkpt lat="43.61122" lon="3.04252">
        <ele>683.15</ele>
        <time>2011-04-29T12:34:36Z</time>
      </trkpt>
      <trkpt lat="43.61138" lon="3.0424">
        <ele>684.12</ele>
        <time>2011-04-29T12:34:51Z</time>
      </trkpt>
      <trkpt lat="43.61145" lon="3.04238">
        <ele>685.08</ele>
        <time>2011-04-29T12:34:59Z</time>
      </trkpt>
      <trkpt lat="43.61151" lon="3.04238">
        <ele>685.08</ele>
        <time>2011-04-29T12:35:04Z</time>
      </trkpt>
      <trkpt lat="43.61168" lon="3.04234">
        <ele>686.52</ele>
        <time>2011-04-29T12:35:19Z</time>
      </trkpt>
      <trkpt lat="43.61186" lon="3.04217">
        <ele>687</ele>
        <time>2011-04-29T12:35:37Z</time>
      </trkpt>
      <trkpt lat="43.61203" lon="3.04205">
        <ele>687.48</ele>
        <time>2011-04-29T12:35:53Z</time>
      </trkpt>
      <trkpt lat="43.61213" lon="3.04197">
        <ele>687.48</ele>
        <time>2011-04-29T12:36:03Z</time>
      </trkpt>
      <trkpt lat="43.61228" lon="3.04181">
        <ele>687.48</ele>
        <time>2011-04-29T12:36:18Z</time>
      </trkpt>
      <trkpt lat="43.61238" lon="3.04162">
        <ele>687.96</ele>
        <time>2011-04-29T12:36:33Z</time>
      </trkpt>
      <trkpt lat="43.61251" lon="3.04141">
        <ele>688.44</ele>
        <time>2011-04-29T12:36:50Z</time>
      </trkpt>
      <trkpt lat="43.61262" lon="3.0412">
        <ele>688.92</ele>
        <time>2011-04-29T12:37:05Z</time>
      </trkpt>
      <trkpt lat="43.61273" lon="3.04101">
        <ele>689.4</ele>
        <time>2011-04-29T12:37:20Z</time>
      </trkpt>
      <trkpt lat="43.61286" lon="3.04096">
        <ele>691.33</ele>
        <time>2011-04-29T12:37:33Z</time>
      </trkpt>
      <trkpt lat="43.61287" lon="3.04097">
        <ele>690.84</ele>
        <time>2011-04-29T12:37:34Z</time>
      </trkpt>
      <trkpt lat="43.61305" lon="3.04098">
        <ele>693.25</ele>
        <time>2011-04-29T12:37:50Z</time>
      </trkpt>
      <trkpt lat="43.61314" lon="3.04096">
        <ele>694.69</ele>
        <time>2011-04-29T12:38:03Z</time>
      </trkpt>
      <trkpt lat="43.61327" lon="3.04094">
        <ele>695.65</ele>
        <time>2011-04-29T12:38:16Z</time>
      </trkpt>
      <trkpt lat="43.61342" lon="3.04096">
        <ele>696.61</ele>
        <time>2011-04-29T12:38:31Z</time>
      </trkpt>
      <trkpt lat="43.61355" lon="3.04097">
        <ele>697.57</ele>
        <time>2011-04-29T12:38:40Z</time>
      </trkpt>
      <trkpt lat="43.61361" lon="3.04092">
        <ele>697.57</ele>
        <time>2011-04-29T12:38:46Z</time>
      </trkpt>
      <trkpt lat="43.61366" lon="3.04092">
        <ele>697.57</ele>
        <time>2011-04-29T12:38:50Z</time>
      </trkpt>
      <trkpt lat="43.61375" lon="3.04082">
        <ele>697.09</ele>
        <time>2011-04-29T12:38:58Z</time>
      </trkpt>
      <trkpt lat="43.61379" lon="3.04074">
        <ele>698.05</ele>
        <time>2011-04-29T12:39:06Z</time>
      </trkpt>
      <trkpt lat="43.61385" lon="3.04076">
        <ele>703.34</ele>
        <time>2011-04-29T12:39:12Z</time>
      </trkpt>
      <trkpt lat="43.61386" lon="3.04076">
        <ele>698.53</ele>
        <time>2011-04-29T12:39:13Z</time>
      </trkpt>
      <trkpt lat="43.61387" lon="3.04075">
        <ele>698.05</ele>
        <time>2011-04-29T12:39:15Z</time>
      </trkpt>
      <trkpt lat="43.61391" lon="3.04072">
        <ele>697.09</ele>
        <time>2011-04-29T12:39:22Z</time>
      </trkpt>
      <trkpt lat="43.61396" lon="3.0405">
        <ele>697.09</ele>
        <time>2011-04-29T12:39:35Z</time>
      </trkpt>
      <trkpt lat="43.61397" lon="3.04048">
        <ele>693.73</ele>
        <time>2011-04-29T12:39:37Z</time>
      </trkpt>
      <trkpt lat="43.61397" lon="3.04047">
        <ele>698.53</ele>
        <time>2011-04-29T12:39:38Z</time>
      </trkpt>
      <trkpt lat="43.61398" lon="3.04046">
        <ele>698.05</ele>
        <time>2011-04-29T12:39:39Z</time>
      </trkpt>
      <trkpt lat="43.61399" lon="3.04042">
        <ele>691.81</ele>
        <time>2011-04-29T12:39:42Z</time>
      </trkpt>
      <trkpt lat="43.61398" lon="3.0404">
        <ele>700.94</ele>
        <time>2011-04-29T12:39:43Z</time>
      </trkpt>
      <trkpt lat="43.61398" lon="3.04037">
        <ele>698.53</ele>
        <time>2011-04-29T12:39:45Z</time>
      </trkpt>
      <trkpt lat="43.61399" lon="3.04019">
        <ele>699.5</ele>
        <time>2011-04-29T12:40:00Z</time>
      </trkpt>
      <trkpt lat="43.614" lon="3.04012">
        <ele>700.46</ele>
        <time>2011-04-29T12:40:05Z</time>
      </trkpt>
      <trkpt lat="43.61399" lon="3.03989">
        <ele>699.98</ele>
        <time>2011-04-29T12:40:20Z</time>
      </trkpt>
      <trkpt lat="43.61396" lon="3.03965">
        <ele>700.46</ele>
        <time>2011-04-29T12:40:38Z</time>
      </trkpt>
      <trkpt lat="43.61396" lon="3.03956">
        <ele>700.94</ele>
        <time>2011-04-29T12:40:44Z</time>
      </trkpt>
      <trkpt lat="43.61399" lon="3.03929">
        <ele>701.9</ele>
        <time>2011-04-29T12:41:02Z</time>
      </trkpt>
      <trkpt lat="43.614" lon="3.0391">
        <ele>703.82</ele>
        <time>2011-04-29T12:41:10Z</time>
      </trkpt>
      <trkpt lat="43.61401" lon="3.03906">
        <ele>692.77</ele>
        <time>2011-04-29T12:41:12Z</time>
      </trkpt>
      <trkpt lat="43.61401" lon="3.03904">
        <ele>703.82</ele>
        <time>2011-04-29T12:41:13Z</time>
      </trkpt>
      <trkpt lat="43.61401" lon="3.03903">
        <ele>694.69</ele>
        <time>2011-04-29T12:41:14Z</time>
      </trkpt>
      <trkpt lat="43.61402" lon="3.03899">
        <ele>707.19</ele>
        <time>2011-04-29T12:41:15Z</time>
      </trkpt>
      <trkpt lat="43.61402" lon="3.03896">
        <ele>706.23</ele>
        <time>2011-04-29T12:41:16Z</time>
      </trkpt>
      <trkpt lat="43.61403" lon="3.03891">
        <ele>704.3</ele>
        <time>2011-04-29T12:41:18Z</time>
      </trkpt>
      <trkpt lat="43.61404" lon="3.03889">
        <ele>704.3</ele>
        <time>2011-04-29T12:41:19Z</time>
      </trkpt>
      <trkpt lat="43.61408" lon="3.03873">
        <ele>698.53</ele>
        <time>2011-04-29T12:41:26Z</time>
      </trkpt>
      <trkpt lat="43.61408" lon="3.03871">
        <ele>710.07</ele>
        <time>2011-04-29T12:41:27Z</time>
      </trkpt>
      <trkpt lat="43.61408" lon="3.03869">
        <ele>704.78</ele>
        <time>2011-04-29T12:41:28Z</time>
      </trkpt>
      <trkpt lat="43.61408" lon="3.03867">
        <ele>705.26</ele>
        <time>2011-04-29T12:41:29Z</time>
      </trkpt>
      <trkpt lat="43.61413" lon="3.03844">
        <ele>706.71</ele>
        <time>2011-04-29T12:41:45Z</time>
      </trkpt>
      <trkpt lat="43.61416" lon="3.0383">
        <ele>705.75</ele>
        <time>2011-04-29T12:41:59Z</time>
      </trkpt>
      <trkpt lat="43.61417" lon="3.03811">
        <ele>704.78</ele>
        <time>2011-04-29T12:42:09Z</time>
      </trkpt>
      <trkpt lat="43.61418" lon="3.03807">
        <ele>704.3</ele>
        <time>2011-04-29T12:42:13Z</time>
      </trkpt>
      <trkpt lat="43.6142" lon="3.03793">
        <ele>704.78</ele>
        <time>2011-04-29T12:42:21Z</time>
      </trkpt>
      <trkpt lat="43.61423" lon="3.03784">
        <ele>705.75</ele>
        <time>2011-04-29T12:42:29Z</time>
      </trkpt>
      <trkpt lat="43.61426" lon="3.03762">
        <ele>708.63</ele>
        <time>2011-04-29T12:42:46Z</time>
      </trkpt>
      <trkpt lat="43.61428" lon="3.03747">
        <ele>710.55</ele>
        <time>2011-04-29T12:43:01Z</time>
      </trkpt>
      <trkpt lat="43.61431" lon="3.03731">
        <ele>712.95</ele>
        <time>2011-04-29T12:43:14Z</time>
      </trkpt>
      <trkpt lat="43.61434" lon="3.03715">
        <ele>714.4</ele>
        <time>2011-04-29T12:43:26Z</time>
      </trkpt>
      <trkpt lat="43.61434" lon="3.03713">
        <ele>714.88</ele>
        <time>2011-04-29T12:43:30Z</time>
      </trkpt>
      <trkpt lat="43.61436" lon="3.03709">
        <ele>714.88</ele>
        <time>2011-04-29T12:43:32Z</time>
      </trkpt>
      <trkpt lat="43.61437" lon="3.03701">
        <ele>715.84</ele>
        <time>2011-04-29T12:43:36Z</time>
      </trkpt>
      <trkpt lat="43.61437" lon="3.03699">
        <ele>716.8</ele>
        <time>2011-04-29T12:43:41Z</time>
      </trkpt>
      <trkpt lat="43.61437" lon="3.03684">
        <ele>720.16</ele>
        <time>2011-04-29T12:43:51Z</time>
      </trkpt>
      <trkpt lat="43.61429" lon="3.03667">
        <ele>721.13</ele>
        <time>2011-04-29T12:44:07Z</time>
      </trkpt>
      <trkpt lat="43.61429" lon="3.03665">
        <ele>720.65</ele>
        <time>2011-04-29T12:44:08Z</time>
      </trkpt>
      <trkpt lat="43.61426" lon="3.03659">
        <ele>724.01</ele>
        <time>2011-04-29T12:44:17Z</time>
      </trkpt>
      <trkpt lat="43.61426" lon="3.03658">
        <ele>722.57</ele>
        <time>2011-04-29T12:44:18Z</time>
      </trkpt>
      <trkpt lat="43.61424" lon="3.03647">
        <ele>731.7</ele>
        <time>2011-04-29T12:44:33Z</time>
      </trkpt>
      <trkpt lat="43.61424" lon="3.03647">
        <ele>724.97</ele>
        <time>2011-04-29T12:44:34Z</time>
      </trkpt>
      <trkpt lat="43.61424" lon="3.03647">
        <ele>728.34</ele>
        <time>2011-04-29T12:44:35Z</time>
      </trkpt>
      <trkpt lat="43.61424" lon="3.03647">
        <ele>726.89</ele>
        <time>2011-04-29T12:44:38Z</time>
      </trkpt>
      <trkpt lat="43.61422" lon="3.03637">
        <ele>726.41</ele>
        <time>2011-04-29T12:44:50Z</time>
      </trkpt>
      <trkpt lat="43.61415" lon="3.03627">
        <ele>729.3</ele>
        <time>2011-04-29T12:45:00Z</time>
      </trkpt>
      <trkpt lat="43.61412" lon="3.03613">
        <ele>730.74</ele>
        <time>2011-04-29T12:45:16Z</time>
      </trkpt>
      <trkpt lat="43.61408" lon="3.03597">
        <ele>734.1</ele>
        <time>2011-04-29T12:45:31Z</time>
      </trkpt>
      <trkpt lat="43.61399" lon="3.03581">
        <ele>736.99</ele>
        <time>2011-04-29T12:45:49Z</time>
      </trkpt>
      <trkpt lat="43.61397" lon="3.03565">
        <ele>739.39</ele>
        <time>2011-04-29T12:46:07Z</time>
      </trkpt>
      <trkpt lat="43.61394" lon="3.03559">
        <ele>740.83</ele>
        <time>2011-04-29T12:46:14Z</time>
      </trkpt>
      <trkpt lat="43.61393" lon="3.03553">
        <ele>740.83</ele>
        <time>2011-04-29T12:46:21Z</time>
      </trkpt>
      <trkpt lat="43.61391" lon="3.03548">
        <ele>741.31</ele>
        <time>2011-04-29T12:46:25Z</time>
      </trkpt>
      <trkpt lat="43.61385" lon="3.03527">
        <ele>743.24</ele>
        <time>2011-04-29T12:46:41Z</time>
      </trkpt>
      <trkpt lat="43.61379" lon="3.03507">
        <ele>745.16</ele>
        <time>2011-04-29T12:46:58Z</time>
      </trkpt>
      <trkpt lat="43.61377" lon="3.035">
        <ele>745.64</ele>
        <time>2011-04-29T12:47:03Z</time>
      </trkpt>
      <trkpt lat="43.61375" lon="3.03488">
        <ele>746.6</ele>
        <time>2011-04-29T12:47:12Z</time>
      </trkpt>
      <trkpt lat="43.61375" lon="3.03484">
        <ele>746.6</ele>
        <time>2011-04-29T12:47:15Z</time>
      </trkpt>
      <trkpt lat="43.61374" lon="3.03477">
        <ele>742.76</ele>
        <time>2011-04-29T12:47:20Z</time>
      </trkpt>
      <trkpt lat="43.61374" lon="3.03475">
        <ele>746.6</ele>
        <time>2011-04-29T12:47:21Z</time>
      </trkpt>
      <trkpt lat="43.61374" lon="3.03467">
        <ele>747.08</ele>
        <time>2011-04-29T12:47:26Z</time>
      </trkpt>
      <trkpt lat="43.61375" lon="3.03447">
        <ele>749</ele>
        <time>2011-04-29T12:47:41Z</time>
      </trkpt>
      <trkpt lat="43.61376" lon="3.03443">
        <ele>749.49</ele>
        <time>2011-04-29T12:47:45Z</time>
      </trkpt>
      <trkpt lat="43.61376" lon="3.03424">
        <ele>751.41</ele>
        <time>2011-04-29T12:47:59Z</time>
      </trkpt>
      <trkpt lat="43.61377" lon="3.03408">
        <ele>752.85</ele>
        <time>2011-04-29T12:48:12Z</time>
      </trkpt>
      <trkpt lat="43.61376" lon="3.03392">
        <ele>755.73</ele>
        <time>2011-04-29T12:48:28Z</time>
      </trkpt>
      <trkpt lat="43.61377" lon="3.03376">
        <ele>757.66</ele>
        <time>2011-04-29T12:48:41Z</time>
      </trkpt>
      <trkpt lat="43.61374" lon="3.03363">
        <ele>758.62</ele>
        <time>2011-04-29T12:48:51Z</time>
      </trkpt>
      <trkpt lat="43.61373" lon="3.03355">
        <ele>759.1</ele>
        <time>2011-04-29T12:48:57Z</time>
      </trkpt>
      <trkpt lat="43.61369" lon="3.03348">
        <ele>760.06</ele>
        <time>2011-04-29T12:49:05Z</time>
      </trkpt>
      <trkpt lat="43.61361" lon="3.03336">
        <ele>760.54</ele>
        <time>2011-04-29T12:49:19Z</time>
      </trkpt>
      <trkpt lat="43.61361" lon="3.03335">
        <ele>760.54</ele>
        <time>2011-04-29T12:49:20Z</time>
      </trkpt>
      <trkpt lat="43.61363" lon="3.03322">
        <ele>761.98</ele>
        <time>2011-04-29T12:49:35Z</time>
      </trkpt>
      <trkpt lat="43.61369" lon="3.03314">
        <ele>759.1</ele>
        <time>2011-04-29T12:49:45Z</time>
      </trkpt>
      <trkpt lat="43.61369" lon="3.03314">
        <ele>763.42</ele>
        <time>2011-04-29T12:49:46Z</time>
      </trkpt>
      <trkpt lat="43.61368" lon="3.03315">
        <ele>761.5</ele>
        <time>2011-04-29T12:49:50Z</time>
      </trkpt>
      <trkpt lat="43.61364" lon="3.0332">
        <ele>761.5</ele>
        <time>2011-04-29T12:49:55Z</time>
      </trkpt>
      <trkpt lat="43.61357" lon="3.03321">
        <ele>761.02</ele>
        <time>2011-04-29T12:50:04Z</time>
      </trkpt>
      <trkpt lat="43.61345" lon="3.03306">
        <ele>759.1</ele>
        <time>2011-04-29T12:50:17Z</time>
      </trkpt>
      <trkpt lat="43.61336" lon="3.033">
        <ele>757.18</ele>
        <time>2011-04-29T12:50:27Z</time>
      </trkpt>
      <trkpt lat="43.61325" lon="3.0328">
        <ele>754.29</ele>
        <time>2011-04-29T12:50:42Z</time>
      </trkpt>
      <trkpt lat="43.61323" lon="3.03278">
        <ele>753.81</ele>
        <time>2011-04-29T12:50:45Z</time>
      </trkpt>
      <trkpt lat="43.61313" lon="3.03264">
        <ele>750.93</ele>
        <time>2011-04-29T12:50:59Z</time>
      </trkpt>
      <trkpt lat="43.61307" lon="3.03251">
        <ele>749.97</ele>
        <time>2011-04-29T12:51:06Z</time>
      </trkpt>
      <trkpt lat="43.61297" lon="3.03241">
        <ele>747.08</ele>
        <time>2011-04-29T12:51:19Z</time>
      </trkpt>
      <trkpt lat="43.61281" lon="3.0322">
        <ele>745.64</ele>
        <time>2011-04-29T12:51:34Z</time>
      </trkpt>
      <trkpt lat="43.61269" lon="3.03203">
        <ele>745.64</ele>
        <time>2011-04-29T12:51:49Z</time>
      </trkpt>
      <trkpt lat="43.61254" lon="3.03183">
        <ele>746.12</ele>
        <time>2011-04-29T12:52:03Z</time>
      </trkpt>
      <trkpt lat="43.61242" lon="3.03168">
        <ele>746.6</ele>
        <time>2011-04-29T12:52:17Z</time>
      </trkpt>
      <trkpt lat="43.61231" lon="3.03153">
        <ele>748.52</ele>
        <time>2011-04-29T12:52:34Z</time>
      </trkpt>
      <trkpt lat="43.61222" lon="3.0314">
        <ele>750.93</ele>
        <time>2011-04-29T12:52:48Z</time>
      </trkpt>
      <trkpt lat="43.61215" lon="3.03117">
        <ele>752.37</ele>
        <time>2011-04-29T12:53:04Z</time>
      </trkpt>
      <trkpt lat="43.61213" lon="3.03111">
        <ele>751.89</ele>
        <time>2011-04-29T12:53:09Z</time>
      </trkpt>
      <trkpt lat="43.61213" lon="3.03103">
        <ele>750.93</ele>
        <time>2011-04-29T12:53:13Z</time>
      </trkpt>
      <trkpt lat="43.6122" lon="3.03077">
        <ele>749</ele>
        <time>2011-04-29T12:53:30Z</time>
      </trkpt>
      <trkpt lat="43.61228" lon="3.03054">
        <ele>749</ele>
        <time>2011-04-29T12:53:46Z</time>
      </trkpt>
      <trkpt lat="43.61233" lon="3.03034">
        <ele>747.08</ele>
        <time>2011-04-29T12:53:59Z</time>
      </trkpt>
      <trkpt lat="43.61234" lon="3.03032">
        <ele>746.6</ele>
        <time>2011-04-29T12:54:00Z</time>
      </trkpt>
      <trkpt lat="43.61243" lon="3.03003">
        <ele>746.12</ele>
        <time>2011-04-29T12:54:18Z</time>
      </trkpt>
      <trkpt lat="43.61252" lon="3.02976">
        <ele>744.68</ele>
        <time>2011-04-29T12:54:36Z</time>
      </trkpt>
      <trkpt lat="43.61258" lon="3.02953">
        <ele>740.35</ele>
        <time>2011-04-29T12:54:51Z</time>
      </trkpt>
      <trkpt lat="43.61259" lon="3.02951">
        <ele>740.35</ele>
        <time>2011-04-29T12:54:52Z</time>
      </trkpt>
      <trkpt lat="43.6126" lon="3.02949">
        <ele>741.31</ele>
        <time>2011-04-29T12:54:54Z</time>
      </trkpt>
      <trkpt lat="43.61266" lon="3.0293">
        <ele>738.43</ele>
        <time>2011-04-29T12:55:09Z</time>
      </trkpt>
      <trkpt lat="43.61276" lon="3.02908">
        <ele>736.03</ele>
        <time>2011-04-29T12:55:26Z</time>
      </trkpt>
      <trkpt lat="43.61284" lon="3.02879">
        <ele>734.1</ele>
        <time>2011-04-29T12:55:40Z</time>
      </trkpt>
      <trkpt lat="43.61289" lon="3.02852">
        <ele>731.22</ele>
        <time>2011-04-29T12:55:57Z</time>
      </trkpt>
      <trkpt lat="43.61296" lon="3.02838">
        <ele>729.3</ele>
        <time>2011-04-29T12:56:07Z</time>
      </trkpt>
      <trkpt lat="43.61302" lon="3.02813">
        <ele>728.82</ele>
        <time>2011-04-29T12:56:22Z</time>
      </trkpt>
      <trkpt lat="43.61303" lon="3.02795">
        <ele>728.34</ele>
        <time>2011-04-29T12:56:34Z</time>
      </trkpt>
      <trkpt lat="43.61303" lon="3.0279">
        <ele>728.82</ele>
        <time>2011-04-29T12:56:49Z</time>
      </trkpt>
      <trkpt lat="43.61303" lon="3.02789">
        <ele>729.3</ele>
        <time>2011-04-29T12:56:50Z</time>
      </trkpt>
      <trkpt lat="43.61302" lon="3.02766">
        <ele>730.74</ele>
        <time>2011-04-29T12:57:05Z</time>
      </trkpt>
      <trkpt lat="43.61302" lon="3.02763">
        <ele>730.74</ele>
        <time>2011-04-29T12:57:07Z</time>
      </trkpt>
      <trkpt lat="43.61302" lon="3.02738">
        <ele>731.22</ele>
        <time>2011-04-29T12:57:24Z</time>
      </trkpt>
      <trkpt lat="43.61301" lon="3.02724">
        <ele>724.49</ele>
        <time>2011-04-29T12:57:35Z</time>
      </trkpt>
      <trkpt lat="43.613" lon="3.02722">
        <ele>731.7</ele>
        <time>2011-04-29T12:57:36Z</time>
      </trkpt>
      <trkpt lat="43.61299" lon="3.02703">
        <ele>730.26</ele>
        <time>2011-04-29T12:57:50Z</time>
      </trkpt>
      <trkpt lat="43.61296" lon="3.02687">
        <ele>730.26</ele>
        <time>2011-04-29T12:58:05Z</time>
      </trkpt>
      <trkpt lat="43.61296" lon="3.02685">
        <ele>730.26</ele>
        <time>2011-04-29T12:58:09Z</time>
      </trkpt>
      <trkpt lat="43.61298" lon="3.02668">
        <ele>729.78</ele>
        <time>2011-04-29T12:58:24Z</time>
      </trkpt>
      <trkpt lat="43.61299" lon="3.02662">
        <ele>728.34</ele>
        <time>2011-04-29T12:58:42Z</time>
      </trkpt>
      <trkpt lat="43.61302" lon="3.0265">
        <ele>727.37</ele>
        <time>2011-04-29T12:58:56Z</time>
      </trkpt>
      <trkpt lat="43.61309" lon="3.02629">
        <ele>724.97</ele>
        <time>2011-04-29T12:59:13Z</time>
      </trkpt>
      <trkpt lat="43.61311" lon="3.02628">
        <ele>724.97</ele>
        <time>2011-04-29T12:59:20Z</time>
      </trkpt>
      <trkpt lat="43.61316" lon="3.02621">
        <ele>724.01</ele>
        <time>2011-04-29T12:59:28Z</time>
      </trkpt>
      <trkpt lat="43.61319" lon="3.02613">
        <ele>723.05</ele>
        <time>2011-04-29T12:59:36Z</time>
      </trkpt>
      <trkpt lat="43.61323" lon="3.02597">
        <ele>720.16</ele>
        <time>2011-04-29T12:59:51Z</time>
      </trkpt>
      <trkpt lat="43.61329" lon="3.02583">
        <ele>717.28</ele>
        <time>2011-04-29T13:00:05Z</time>
      </trkpt>
      <trkpt lat="43.6133" lon="3.02573">
        <ele>714.4</ele>
        <time>2011-04-29T13:00:14Z</time>
      </trkpt>
      <trkpt lat="43.61333" lon="3.02568">
        <ele>712.95</ele>
        <time>2011-04-29T13:00:29Z</time>
      </trkpt>
      <trkpt lat="43.61335" lon="3.0256">
        <ele>711.99</ele>
        <time>2011-04-29T13:00:36Z</time>
      </trkpt>
      <trkpt lat="43.61334" lon="3.02554">
        <ele>710.55</ele>
        <time>2011-04-29T13:00:40Z</time>
      </trkpt>
      <trkpt lat="43.61337" lon="3.02536">
        <ele>707.67</ele>
        <time>2011-04-29T13:00:56Z</time>
      </trkpt>
      <trkpt lat="43.61337" lon="3.02522">
        <ele>704.78</ele>
        <time>2011-04-29T13:01:10Z</time>
      </trkpt>
      <trkpt lat="43.61338" lon="3.02519">
        <ele>704.78</ele>
        <time>2011-04-29T13:01:31Z</time>
      </trkpt>
      <trkpt lat="43.61339" lon="3.02517">
        <ele>703.82</ele>
        <time>2011-04-29T13:01:35Z</time>
      </trkpt>
      <trkpt lat="43.61342" lon="3.02505">
        <ele>700.94</ele>
        <time>2011-04-29T13:01:48Z</time>
      </trkpt>
      <trkpt lat="43.61345" lon="3.02499">
        <ele>698.53</ele>
        <time>2011-04-29T13:02:01Z</time>
      </trkpt>
      <trkpt lat="43.61351" lon="3.02489">
        <ele>696.13</ele>
        <time>2011-04-29T13:02:13Z</time>
      </trkpt>
      <trkpt lat="43.61357" lon="3.02479">
        <ele>692.77</ele>
        <time>2011-04-29T13:02:27Z</time>
      </trkpt>
      <trkpt lat="43.6136" lon="3.02479">
        <ele>691.33</ele>
        <time>2011-04-29T13:02:32Z</time>
      </trkpt>
      <trkpt lat="43.61364" lon="3.02478">
        <ele>689.88</ele>
        <time>2011-04-29T13:02:40Z</time>
      </trkpt>
      <trkpt lat="43.61365" lon="3.02477">
        <ele>688.92</ele>
        <time>2011-04-29T13:02:53Z</time>
      </trkpt>
      <trkpt lat="43.61369" lon="3.02475">
        <ele>687.48</ele>
        <time>2011-04-29T13:03:08Z</time>
      </trkpt>
      <trkpt lat="43.61375" lon="3.02474">
        <ele>686.04</ele>
        <time>2011-04-29T13:03:20Z</time>
      </trkpt>
      <trkpt lat="43.61379" lon="3.02473">
        <ele>685.08</ele>
        <time>2011-04-29T13:03:32Z</time>
      </trkpt>
      <trkpt lat="43.61385" lon="3.02471">
        <ele>682.19</ele>
        <time>2011-04-29T13:03:43Z</time>
      </trkpt>
      <trkpt lat="43.6139" lon="3.02467">
        <ele>680.27</ele>
        <time>2011-04-29T13:03:56Z</time>
      </trkpt>
      <trkpt lat="43.61396" lon="3.02463">
        <ele>676.91</ele>
        <time>2011-04-29T13:04:10Z</time>
      </trkpt>
      <trkpt lat="43.61402" lon="3.02462">
        <ele>674.5</ele>
        <time>2011-04-29T13:04:22Z</time>
      </trkpt>
      <trkpt lat="43.61409" lon="3.02463">
        <ele>672.58</ele>
        <time>2011-04-29T13:04:37Z</time>
      </trkpt>
      <trkpt lat="43.61412" lon="3.0247">
        <ele>670.18</ele>
        <time>2011-04-29T13:04:50Z</time>
      </trkpt>
      <trkpt lat="43.61419" lon="3.02476">
        <ele>667.77</ele>
        <time>2011-04-29T13:05:03Z</time>
      </trkpt>
      <trkpt lat="43.61427" lon="3.02474">
        <ele>665.37</ele>
        <time>2011-04-29T13:05:18Z</time>
      </trkpt>
      <trkpt lat="43.61434" lon="3.02466">
        <ele>662.97</ele>
        <time>2011-04-29T13:05:32Z</time>
      </trkpt>
      <trkpt lat="43.61443" lon="3.02462">
        <ele>660.56</ele>
        <time>2011-04-29T13:05:46Z</time>
      </trkpt>
      <trkpt lat="43.61444" lon="3.02462">
        <ele>660.56</ele>
        <time>2011-04-29T13:06:09Z</time>
      </trkpt>
      <trkpt lat="43.61444" lon="3.02462">
        <ele>662.49</ele>
        <time>2011-04-29T13:06:14Z</time>
      </trkpt>
      <trkpt lat="43.61446" lon="3.02457">
        <ele>660.56</ele>
        <time>2011-04-29T13:06:32Z</time>
      </trkpt>
      <trkpt lat="43.61446" lon="3.02449">
        <ele>662.49</ele>
        <time>2011-04-29T13:06:57Z</time>
      </trkpt>
      <trkpt lat="43.61447" lon="3.02436">
        <ele>664.89</ele>
        <time>2011-04-29T13:07:10Z</time>
      </trkpt>
      <trkpt lat="43.61449" lon="3.02421">
        <ele>667.77</ele>
        <time>2011-04-29T13:07:25Z</time>
      </trkpt>
      <trkpt lat="43.6145" lon="3.02408">
        <ele>670.18</ele>
        <time>2011-04-29T13:07:38Z</time>
      </trkpt>
      <trkpt lat="43.61455" lon="3.02394">
        <ele>673.06</ele>
        <time>2011-04-29T13:07:53Z</time>
      </trkpt>
      <trkpt lat="43.61462" lon="3.02385">
        <ele>675.46</ele>
        <time>2011-04-29T13:08:07Z</time>
      </trkpt>
      <trkpt lat="43.61466" lon="3.02376">
        <ele>677.87</ele>
        <time>2011-04-29T13:08:21Z</time>
      </trkpt>
      <trkpt lat="43.61472" lon="3.02383">
        <ele>679.79</ele>
        <time>2011-04-29T13:08:31Z</time>
      </trkpt>
      <trkpt lat="43.6148" lon="3.0239">
        <ele>682.67</ele>
        <time>2011-04-29T13:08:44Z</time>
      </trkpt>
      <trkpt lat="43.61487" lon="3.02399">
        <ele>684.6</ele>
        <time>2011-04-29T13:08:58Z</time>
      </trkpt>
      <trkpt lat="43.61495" lon="3.02408">
        <ele>687.48</ele>
        <time>2011-04-29T13:09:14Z</time>
      </trkpt>
      <trkpt lat="43.61501" lon="3.02402">
        <ele>689.88</ele>
        <time>2011-04-29T13:09:27Z</time>
      </trkpt>
      <trkpt lat="43.61505" lon="3.02394">
        <ele>696.61</ele>
        <time>2011-04-29T13:09:38Z</time>
      </trkpt>
      <trkpt lat="43.61505" lon="3.02394">
        <ele>695.65</ele>
        <time>2011-04-29T13:09:39Z</time>
      </trkpt>
      <trkpt lat="43.61506" lon="3.02394">
        <ele>692.77</ele>
        <time>2011-04-29T13:09:44Z</time>
      </trkpt>
      <trkpt lat="43.61506" lon="3.02393">
        <ele>693.73</ele>
        <time>2011-04-29T13:10:00Z</time>
      </trkpt>
      <trkpt lat="43.61506" lon="3.02393">
        <ele>682.19</ele>
        <time>2011-04-29T13:10:02Z</time>
      </trkpt>
      <trkpt lat="43.61506" lon="3.02393">
        <ele>692.77</ele>
        <time>2011-04-29T13:10:03Z</time>
      </trkpt>
      <trkpt lat="43.61507" lon="3.02391">
        <ele>692.29</ele>
        <time>2011-04-29T13:10:10Z</time>
      </trkpt>
      <trkpt lat="43.61518" lon="3.02384">
        <ele>693.25</ele>
        <time>2011-04-29T13:10:22Z</time>
      </trkpt>
      <trkpt lat="43.61524" lon="3.02365">
        <ele>695.17</ele>
        <time>2011-04-29T13:10:39Z</time>
      </trkpt>
      <trkpt lat="43.61525" lon="3.02353">
        <ele>696.61</ele>
        <time>2011-04-29T13:10:49Z</time>
      </trkpt>
      <trkpt lat="43.61526" lon="3.02332">
        <ele>699.02</ele>
        <time>2011-04-29T13:11:05Z</time>
      </trkpt>
      <trkpt lat="43.61527" lon="3.02322">
        <ele>698.53</ele>
        <time>2011-04-29T13:11:13Z</time>
      </trkpt>
      <trkpt lat="43.61526" lon="3.02296">
        <ele>699.98</ele>
        <time>2011-04-29T13:11:32Z</time>
      </trkpt>
      <trkpt lat="43.61525" lon="3.02281">
        <ele>701.42</ele>
        <time>2011-04-29T13:11:46Z</time>
      </trkpt>
      <trkpt lat="43.61525" lon="3.02264">
        <ele>702.38</ele>
        <time>2011-04-29T13:12:03Z</time>
      </trkpt>
      <trkpt lat="43.61526" lon="3.02248">
        <ele>704.3</ele>
        <time>2011-04-29T13:12:17Z</time>
      </trkpt>
      <trkpt lat="43.61529" lon="3.02235">
        <ele>705.26</ele>
        <time>2011-04-29T13:12:31Z</time>
      </trkpt>
      <trkpt lat="43.6153" lon="3.02216">
        <ele>707.19</ele>
        <time>2011-04-29T13:12:44Z</time>
      </trkpt>
      <trkpt lat="43.6153" lon="3.02215">
        <ele>707.19</ele>
        <time>2011-04-29T13:12:45Z</time>
      </trkpt>
      <trkpt lat="43.61532" lon="3.02201">
        <ele>708.15</ele>
        <time>2011-04-29T13:13:00Z</time>
      </trkpt>
      <trkpt lat="43.61536" lon="3.02187">
        <ele>709.59</ele>
        <time>2011-04-29T13:13:15Z</time>
      </trkpt>
      <trkpt lat="43.61542" lon="3.02171">
        <ele>710.55</ele>
        <time>2011-04-29T13:13:30Z</time>
      </trkpt>
      <trkpt lat="43.61548" lon="3.02159">
        <ele>711.51</ele>
        <time>2011-04-29T13:13:44Z</time>
      </trkpt>
      <trkpt lat="43.61552" lon="3.02145">
        <ele>712.47</ele>
        <time>2011-04-29T13:13:57Z</time>
      </trkpt>
      <trkpt lat="43.61554" lon="3.02127">
        <ele>713.92</ele>
        <time>2011-04-29T13:14:15Z</time>
      </trkpt>
      <trkpt lat="43.61555" lon="3.02111">
        <ele>715.84</ele>
        <time>2011-04-29T13:14:29Z</time>
      </trkpt>
      <trkpt lat="43.61561" lon="3.0209">
        <ele>714.88</ele>
        <time>2011-04-29T13:14:49Z</time>
      </trkpt>
      <trkpt lat="43.61567" lon="3.02071">
        <ele>715.36</ele>
        <time>2011-04-29T13:15:04Z</time>
      </trkpt>
      <trkpt lat="43.6157" lon="3.02059">
        <ele>715.36</ele>
        <time>2011-04-29T13:15:12Z</time>
      </trkpt>
      <trkpt lat="43.61578" lon="3.02041">
        <ele>715.36</ele>
        <time>2011-04-29T13:15:27Z</time>
      </trkpt>
      <trkpt lat="43.61579" lon="3.02032">
        <ele>714.88</ele>
        <time>2011-04-29T13:15:34Z</time>
      </trkpt>
      <trkpt lat="43.61579" lon="3.02027">
        <ele>714.4</ele>
        <time>2011-04-29T13:15:38Z</time>
      </trkpt>
      <trkpt lat="43.61586" lon="3.02011">
        <ele>714.4</ele>
        <time>2011-04-29T13:15:54Z</time>
      </trkpt>
      <trkpt lat="43.61596" lon="3.02014">
        <ele>715.84</ele>
        <time>2011-04-29T13:16:08Z</time>
      </trkpt>
      <trkpt lat="43.61599" lon="3.02016">
        <ele>716.32</ele>
        <time>2011-04-29T13:16:15Z</time>
      </trkpt>
      <trkpt lat="43.61614" lon="3.02024">
        <ele>716.8</ele>
        <time>2011-04-29T13:16:31Z</time>
      </trkpt>
      <trkpt lat="43.61636" lon="3.02019">
        <ele>718.72</ele>
        <time>2011-04-29T13:16:47Z</time>
      </trkpt>
      <trkpt lat="43.61639" lon="3.0201">
        <ele>721.13</ele>
        <time>2011-04-29T13:17:01Z</time>
      </trkpt>
      <trkpt lat="43.61644" lon="3.01997">
        <ele>724.01</ele>
        <time>2011-04-29T13:17:15Z</time>
      </trkpt>
      <trkpt lat="43.61648" lon="3.01988">
        <ele>725.45</ele>
        <time>2011-04-29T13:17:27Z</time>
      </trkpt>
      <trkpt lat="43.61651" lon="3.01973">
        <ele>728.34</ele>
        <time>2011-04-29T13:17:43Z</time>
      </trkpt>
      <trkpt lat="43.61652" lon="3.01955">
        <ele>731.22</ele>
        <time>2011-04-29T13:17:59Z</time>
      </trkpt>
      <trkpt lat="43.61652" lon="3.0194">
        <ele>733.14</ele>
        <time>2011-04-29T13:18:11Z</time>
      </trkpt>
      <trkpt lat="43.6165" lon="3.01921">
        <ele>735.55</ele>
        <time>2011-04-29T13:18:27Z</time>
      </trkpt>
      <trkpt lat="43.61653" lon="3.01901">
        <ele>737.47</ele>
        <time>2011-04-29T13:18:43Z</time>
      </trkpt>
      <trkpt lat="43.6165" lon="3.01887">
        <ele>738.43</ele>
        <time>2011-04-29T13:18:57Z</time>
      </trkpt>
      <trkpt lat="43.6164" lon="3.01877">
        <ele>741.79</ele>
        <time>2011-04-29T13:19:11Z</time>
      </trkpt>
      <trkpt lat="43.61633" lon="3.01867">
        <ele>745.16</ele>
        <time>2011-04-29T13:19:24Z</time>
      </trkpt>
      <trkpt lat="43.61626" lon="3.01852">
        <ele>746.6</ele>
        <time>2011-04-29T13:19:39Z</time>
      </trkpt>
      <trkpt lat="43.61623" lon="3.01839">
        <ele>748.04</ele>
        <time>2011-04-29T13:19:55Z</time>
      </trkpt>
      <trkpt lat="43.61617" lon="3.01826">
        <ele>749.97</ele>
        <time>2011-04-29T13:20:12Z</time>
      </trkpt>
      <trkpt lat="43.6161" lon="3.01813">
        <ele>751.89</ele>
        <time>2011-04-29T13:20:26Z</time>
      </trkpt>
      <trkpt lat="43.61602" lon="3.01802">
        <ele>753.81</ele>
        <time>2011-04-29T13:20:40Z</time>
      </trkpt>
      <trkpt lat="43.61594" lon="3.0179">
        <ele>755.73</ele>
        <time>2011-04-29T13:20:54Z</time>
      </trkpt>
      <trkpt lat="43.61588" lon="3.01779">
        <ele>759.1</ele>
        <time>2011-04-29T13:21:09Z</time>
      </trkpt>
      <trkpt lat="43.61581" lon="3.01767">
        <ele>761.98</ele>
        <time>2011-04-29T13:21:25Z</time>
      </trkpt>
      <trkpt lat="43.61575" lon="3.01754">
        <ele>764.87</ele>
        <time>2011-04-29T13:21:41Z</time>
      </trkpt>
      <trkpt lat="43.61575" lon="3.01734">
        <ele>768.23</ele>
        <time>2011-04-29T13:22:00Z</time>
      </trkpt>
      <trkpt lat="43.61573" lon="3.01714">
        <ele>771.11</ele>
        <time>2011-04-29T13:22:19Z</time>
      </trkpt>
      <trkpt lat="43.61572" lon="3.01697">
        <ele>774</ele>
        <time>2011-04-29T13:22:36Z</time>
      </trkpt>
      <trkpt lat="43.61571" lon="3.0168">
        <ele>776.4</ele>
        <time>2011-04-29T13:22:52Z</time>
      </trkpt>
      <trkpt lat="43.61571" lon="3.01662">
        <ele>779.77</ele>
        <time>2011-04-29T13:23:07Z</time>
      </trkpt>
      <trkpt lat="43.61571" lon="3.01642">
        <ele>782.65</ele>
        <time>2011-04-29T13:23:25Z</time>
      </trkpt>
      <trkpt lat="43.6157" lon="3.01639">
        <ele>783.13</ele>
        <time>2011-04-29T13:23:27Z</time>
      </trkpt>
      <trkpt lat="43.61568" lon="3.01631">
        <ele>779.29</ele>
        <time>2011-04-29T13:23:33Z</time>
      </trkpt>
      <trkpt lat="43.61568" lon="3.0163">
        <ele>784.09</ele>
        <time>2011-04-29T13:23:34Z</time>
      </trkpt>
      <trkpt lat="43.61569" lon="3.01615">
        <ele>786.02</ele>
        <time>2011-04-29T13:23:51Z</time>
      </trkpt>
      <trkpt lat="43.61568" lon="3.01604">
        <ele>787.46</ele>
        <time>2011-04-29T13:24:04Z</time>
      </trkpt>
      <trkpt lat="43.61568" lon="3.01629">
        <ele>830.24</ele>
        <time>2011-04-29T13:24:56Z</time>
      </trkpt>
      <trkpt lat="43.61568" lon="3.01629">
        <ele>807.64</ele>
        <time>2011-04-29T13:24:57Z</time>
      </trkpt>
      <trkpt lat="43.61568" lon="3.01629">
        <ele>808.61</ele>
        <time>2011-04-29T13:24:58Z</time>
      </trkpt>
      <trkpt lat="43.61568" lon="3.01565">
        <ele>806.2</ele>
        <time>2011-04-29T13:25:06Z</time>
      </trkpt>
      <trkpt lat="43.61568" lon="3.01564">
        <ele>809.57</ele>
        <time>2011-04-29T13:25:07Z</time>
      </trkpt>
      <trkpt lat="43.61568" lon="3.01563">
        <ele>806.2</ele>
        <time>2011-04-29T13:25:08Z</time>
      </trkpt>
      <trkpt lat="43.61567" lon="3.01561">
        <ele>804.28</ele>
        <time>2011-04-29T13:25:10Z</time>
      </trkpt>
      <trkpt lat="43.61568" lon="3.01557">
        <ele>802.84</ele>
        <time>2011-04-29T13:25:13Z</time>
      </trkpt>
      <trkpt lat="43.61564" lon="3.01545">
        <ele>799.47</ele>
        <time>2011-04-29T13:25:25Z</time>
      </trkpt>
      <trkpt lat="43.61564" lon="3.01543">
        <ele>799.47</ele>
        <time>2011-04-29T13:25:27Z</time>
      </trkpt>
      <trkpt lat="43.61562" lon="3.01532">
        <ele>797.55</ele>
        <time>2011-04-29T13:25:42Z</time>
      </trkpt>
      <trkpt lat="43.61563" lon="3.01533">
        <ele>793.71</ele>
        <time>2011-04-29T13:26:04Z</time>
      </trkpt>
      <trkpt lat="43.61562" lon="3.01534">
        <ele>794.67</ele>
        <time>2011-04-29T13:26:33Z</time>
      </trkpt>
      <trkpt lat="43.61562" lon="3.01534">
        <ele>793.71</ele>
        <time>2011-04-29T13:27:08Z</time>
      </trkpt>
      <trkpt lat="43.6156" lon="3.01525">
        <ele>795.15</ele>
        <time>2011-04-29T13:27:50Z</time>
      </trkpt>
      <trkpt lat="43.61559" lon="3.01515">
        <ele>796.11</ele>
        <time>2011-04-29T13:28:10Z</time>
      </trkpt>
      <trkpt lat="43.61556" lon="3.01495">
        <ele>798.51</ele>
        <time>2011-04-29T13:28:25Z</time>
      </trkpt>
      <trkpt lat="43.61554" lon="3.01474">
        <ele>801.4</ele>
        <time>2011-04-29T13:28:43Z</time>
      </trkpt>
      <trkpt lat="43.61553" lon="3.01457">
        <ele>804.28</ele>
        <time>2011-04-29T13:29:00Z</time>
      </trkpt>
      <trkpt lat="43.61552" lon="3.01442">
        <ele>805.72</ele>
        <time>2011-04-29T13:29:13Z</time>
      </trkpt>
      <trkpt lat="43.61553" lon="3.01438">
        <ele>806.2</ele>
        <time>2011-04-29T13:29:17Z</time>
      </trkpt>
      <trkpt lat="43.61555" lon="3.01421">
        <ele>807.64</ele>
        <time>2011-04-29T13:29:32Z</time>
      </trkpt>
      <trkpt lat="43.61557" lon="3.01399">
        <ele>810.05</ele>
        <time>2011-04-29T13:29:50Z</time>
      </trkpt>
      <trkpt lat="43.61557" lon="3.01397">
        <ele>810.53</ele>
        <time>2011-04-29T13:29:51Z</time>
      </trkpt>
      <trkpt lat="43.6156" lon="3.01381">
        <ele>811.01</ele>
        <time>2011-04-29T13:30:08Z</time>
      </trkpt>
      <trkpt lat="43.61565" lon="3.01355">
        <ele>810.53</ele>
        <time>2011-04-29T13:30:24Z</time>
      </trkpt>
      <trkpt lat="43.61571" lon="3.01335">
        <ele>810.53</ele>
        <time>2011-04-29T13:30:38Z</time>
      </trkpt>
      <trkpt lat="43.61575" lon="3.01312">
        <ele>810.53</ele>
        <time>2011-04-29T13:30:52Z</time>
      </trkpt>
      <trkpt lat="43.61579" lon="3.01282">
        <ele>811.49</ele>
        <time>2011-04-29T13:31:11Z</time>
      </trkpt>
      <trkpt lat="43.6158" lon="3.01278">
        <ele>811.01</ele>
        <time>2011-04-29T13:31:14Z</time>
      </trkpt>
      <trkpt lat="43.61578" lon="3.01255">
        <ele>811.49</ele>
        <time>2011-04-29T13:31:30Z</time>
      </trkpt>
      <trkpt lat="43.61572" lon="3.0123">
        <ele>811.97</ele>
        <time>2011-04-29T13:31:47Z</time>
      </trkpt>
      <trkpt lat="43.61566" lon="3.01203">
        <ele>812.45</ele>
        <time>2011-04-29T13:32:04Z</time>
      </trkpt>
      <trkpt lat="43.61556" lon="3.01181">
        <ele>811.97</ele>
        <time>2011-04-29T13:32:22Z</time>
      </trkpt>
      <trkpt lat="43.61555" lon="3.01178">
        <ele>809.09</ele>
        <time>2011-04-29T13:32:25Z</time>
      </trkpt>
      <trkpt lat="43.61554" lon="3.01177">
        <ele>812.93</ele>
        <time>2011-04-29T13:32:26Z</time>
      </trkpt>
      <trkpt lat="43.61539" lon="3.01159">
        <ele>810.53</ele>
        <time>2011-04-29T13:32:43Z</time>
      </trkpt>
      <trkpt lat="43.61532" lon="3.01152">
        <ele>810.05</ele>
        <time>2011-04-29T13:32:52Z</time>
      </trkpt>
      <trkpt lat="43.61526" lon="3.01149">
        <ele>809.57</ele>
        <time>2011-04-29T13:32:57Z</time>
      </trkpt>
      <trkpt lat="43.61508" lon="3.01138">
        <ele>808.61</ele>
        <time>2011-04-29T13:33:13Z</time>
      </trkpt>
      <trkpt lat="43.61495" lon="3.01129">
        <ele>807.64</ele>
        <time>2011-04-29T13:33:27Z</time>
      </trkpt>
      <trkpt lat="43.6148" lon="3.01112">
        <ele>807.64</ele>
        <time>2011-04-29T13:33:43Z</time>
      </trkpt>
      <trkpt lat="43.61472" lon="3.01099">
        <ele>808.13</ele>
        <time>2011-04-29T13:33:55Z</time>
      </trkpt>
      <trkpt lat="43.61467" lon="3.01093">
        <ele>808.13</ele>
        <time>2011-04-29T13:34:01Z</time>
      </trkpt>
      <trkpt lat="43.61457" lon="3.01071">
        <ele>808.13</ele>
        <time>2011-04-29T13:34:18Z</time>
      </trkpt>
      <trkpt lat="43.61453" lon="3.01045">
        <ele>809.09</ele>
        <time>2011-04-29T13:34:35Z</time>
      </trkpt>
      <trkpt lat="43.61448" lon="3.01021">
        <ele>809.57</ele>
        <time>2011-04-29T13:34:51Z</time>
      </trkpt>
      <trkpt lat="43.61441" lon="3.00997">
        <ele>809.09</ele>
        <time>2011-04-29T13:35:07Z</time>
      </trkpt>
      <trkpt lat="43.61433" lon="3.00976">
        <ele>808.61</ele>
        <time>2011-04-29T13:35:21Z</time>
      </trkpt>
      <trkpt lat="43.61429" lon="3.00959">
        <ele>808.13</ele>
        <time>2011-04-29T13:35:34Z</time>
      </trkpt>
      <trkpt lat="43.61426" lon="3.00945">
        <ele>807.64</ele>
        <time>2011-04-29T13:35:50Z</time>
      </trkpt>
      <trkpt lat="43.61423" lon="3.0093">
        <ele>807.64</ele>
        <time>2011-04-29T13:36:00Z</time>
      </trkpt>
      <trkpt lat="43.61427" lon="3.00904">
        <ele>808.13</ele>
        <time>2011-04-29T13:36:16Z</time>
      </trkpt>
      <trkpt lat="43.61431" lon="3.00879">
        <ele>807.64</ele>
        <time>2011-04-29T13:36:32Z</time>
      </trkpt>
      <trkpt lat="43.61432" lon="3.00858">
        <ele>808.13</ele>
        <time>2011-04-29T13:36:46Z</time>
      </trkpt>
      <trkpt lat="43.61437" lon="3.00848">
        <ele>807.64</ele>
        <time>2011-04-29T13:36:55Z</time>
      </trkpt>
      <trkpt lat="43.61441" lon="3.00824">
        <ele>806.2</ele>
        <time>2011-04-29T13:37:09Z</time>
      </trkpt>
      <trkpt lat="43.61442" lon="3.00818">
        <ele>806.68</ele>
        <time>2011-04-29T13:37:13Z</time>
      </trkpt>
      <trkpt lat="43.61443" lon="3.00801">
        <ele>802.84</ele>
        <time>2011-04-29T13:37:23Z</time>
      </trkpt>
      <trkpt lat="43.61443" lon="3.008">
        <ele>809.57</ele>
        <time>2011-04-29T13:37:24Z</time>
      </trkpt>
      <trkpt lat="43.61444" lon="3.00796">
        <ele>806.2</ele>
        <time>2011-04-29T13:37:26Z</time>
      </trkpt>
      <trkpt lat="43.61444" lon="3.00794">
        <ele>805.72</ele>
        <time>2011-04-29T13:37:27Z</time>
      </trkpt>
      <trkpt lat="43.61446" lon="3.0077">
        <ele>806.2</ele>
        <time>2011-04-29T13:37:42Z</time>
      </trkpt>
      <trkpt lat="43.61451" lon="3.00748">
        <ele>805.24</ele>
        <time>2011-04-29T13:37:57Z</time>
      </trkpt>
      <trkpt lat="43.61455" lon="3.00723">
        <ele>805.72</ele>
        <time>2011-04-29T13:38:12Z</time>
      </trkpt>
      <trkpt lat="43.61459" lon="3.00699">
        <ele>804.76</ele>
        <time>2011-04-29T13:38:27Z</time>
      </trkpt>
      <trkpt lat="43.61464" lon="3.00675">
        <ele>803.8</ele>
        <time>2011-04-29T13:38:43Z</time>
      </trkpt>
      <trkpt lat="43.61464" lon="3.00651">
        <ele>803.8</ele>
        <time>2011-04-29T13:38:58Z</time>
      </trkpt>
      <trkpt lat="43.61459" lon="3.00644">
        <ele>803.8</ele>
        <time>2011-04-29T13:39:05Z</time>
      </trkpt>
      <trkpt lat="43.61457" lon="3.00644">
        <ele>803.32</ele>
        <time>2011-04-29T13:39:07Z</time>
      </trkpt>
      <trkpt lat="43.61454" lon="3.00649">
        <ele>800.44</ele>
        <time>2011-04-29T13:39:20Z</time>
      </trkpt>
      <trkpt lat="43.61454" lon="3.00648">
        <ele>801.88</ele>
        <time>2011-04-29T13:39:21Z</time>
      </trkpt>
      <trkpt lat="43.61455" lon="3.00647">
        <ele>803.8</ele>
        <time>2011-04-29T13:39:23Z</time>
      </trkpt>
      <trkpt lat="43.61453" lon="3.00637">
        <ele>803.32</ele>
        <time>2011-04-29T13:39:30Z</time>
      </trkpt>
      <trkpt lat="43.61439" lon="3.00642">
        <ele>802.36</ele>
        <time>2011-04-29T13:39:45Z</time>
      </trkpt>
      <trkpt lat="43.61434" lon="3.00647">
        <ele>798.03</ele>
        <time>2011-04-29T13:39:56Z</time>
      </trkpt>
      <trkpt lat="43.61434" lon="3.00648">
        <ele>805.24</ele>
        <time>2011-04-29T13:39:57Z</time>
      </trkpt>
      <trkpt lat="43.61431" lon="3.00651">
        <ele>802.36</ele>
        <time>2011-04-29T13:40:00Z</time>
      </trkpt>
      <trkpt lat="43.61415" lon="3.00665">
        <ele>798.03</ele>
        <time>2011-04-29T13:40:16Z</time>
      </trkpt>
      <trkpt lat="43.61414" lon="3.00666">
        <ele>798.51</ele>
        <time>2011-04-29T13:40:17Z</time>
      </trkpt>
      <trkpt lat="43.61413" lon="3.00668">
        <ele>801.88</ele>
        <time>2011-04-29T13:40:18Z</time>
      </trkpt>
      <trkpt lat="43.61412" lon="3.00669">
        <ele>801.4</ele>
        <time>2011-04-29T13:40:19Z</time>
      </trkpt>
      <trkpt lat="43.6141" lon="3.00671">
        <ele>796.59</ele>
        <time>2011-04-29T13:40:21Z</time>
      </trkpt>
      <trkpt lat="43.61409" lon="3.00672">
        <ele>801.4</ele>
        <time>2011-04-29T13:40:22Z</time>
      </trkpt>
      <trkpt lat="43.61408" lon="3.00675">
        <ele>804.28</ele>
        <time>2011-04-29T13:40:25Z</time>
      </trkpt>
      <trkpt lat="43.61407" lon="3.00677">
        <ele>802.84</ele>
        <time>2011-04-29T13:40:26Z</time>
      </trkpt>
      <trkpt lat="43.61406" lon="3.0068">
        <ele>800.92</ele>
        <time>2011-04-29T13:40:28Z</time>
      </trkpt>
      <trkpt lat="43.61396" lon="3.00695">
        <ele>798.51</ele>
        <time>2011-04-29T13:40:41Z</time>
      </trkpt>
      <trkpt lat="43.61389" lon="3.00706">
        <ele>796.59</ele>
        <time>2011-04-29T13:40:51Z</time>
      </trkpt>
      <trkpt lat="43.6137" lon="3.00722">
        <ele>794.19</ele>
        <time>2011-04-29T13:41:08Z</time>
      </trkpt>
      <trkpt lat="43.61369" lon="3.00723">
        <ele>794.19</ele>
        <time>2011-04-29T13:41:09Z</time>
      </trkpt>
      <trkpt lat="43.6135" lon="3.00724">
        <ele>791.78</ele>
        <time>2011-04-29T13:41:25Z</time>
      </trkpt>
      <trkpt lat="43.61332" lon="3.00721">
        <ele>788.42</ele>
        <time>2011-04-29T13:41:40Z</time>
      </trkpt>
      <trkpt lat="43.61319" lon="3.00722">
        <ele>787.46</ele>
        <time>2011-04-29T13:41:51Z</time>
      </trkpt>
      <trkpt lat="43.61314" lon="3.00726">
        <ele>786.5</ele>
        <time>2011-04-29T13:41:56Z</time>
      </trkpt>
      <trkpt lat="43.61297" lon="3.00737">
        <ele>777.84</ele>
        <time>2011-04-29T13:42:11Z</time>
      </trkpt>
      <trkpt lat="43.61296" lon="3.00737">
        <ele>784.57</ele>
        <time>2011-04-29T13:42:12Z</time>
      </trkpt>
      <trkpt lat="43.6128" lon="3.00732">
        <ele>781.69</ele>
        <time>2011-04-29T13:42:24Z</time>
      </trkpt>
      <trkpt lat="43.61264" lon="3.00744">
        <ele>779.29</ele>
        <time>2011-04-29T13:42:40Z</time>
      </trkpt>
      <trkpt lat="43.61253" lon="3.00762">
        <ele>777.36</ele>
        <time>2011-04-29T13:42:55Z</time>
      </trkpt>
      <trkpt lat="43.61252" lon="3.00766">
        <ele>777.36</ele>
        <time>2011-04-29T13:42:58Z</time>
      </trkpt>
      <trkpt lat="43.61246" lon="3.00776">
        <ele>776.4</ele>
        <time>2011-04-29T13:43:06Z</time>
      </trkpt>
      <trkpt lat="43.61238" lon="3.00791">
        <ele>774.48</ele>
        <time>2011-04-29T13:43:18Z</time>
      </trkpt>
      <trkpt lat="43.61232" lon="3.00796">
        <ele>769.19</ele>
        <time>2011-04-29T13:43:22Z</time>
      </trkpt>
      <trkpt lat="43.61231" lon="3.00796">
        <ele>774</ele>
        <time>2011-04-29T13:43:23Z</time>
      </trkpt>
      <trkpt lat="43.61218" lon="3.00808">
        <ele>773.04</ele>
        <time>2011-04-29T13:43:34Z</time>
      </trkpt>
      <trkpt lat="43.61213" lon="3.00814">
        <ele>772.08</ele>
        <time>2011-04-29T13:43:38Z</time>
      </trkpt>
      <trkpt lat="43.61196" lon="3.00831">
        <ele>768.71</ele>
        <time>2011-04-29T13:43:55Z</time>
      </trkpt>
      <trkpt lat="43.6118" lon="3.00838">
        <ele>763.42</ele>
        <time>2011-04-29T13:44:10Z</time>
      </trkpt>
      <trkpt lat="43.61179" lon="3.00837">
        <ele>767.27</ele>
        <time>2011-04-29T13:44:11Z</time>
      </trkpt>
      <trkpt lat="43.61178" lon="3.00836">
        <ele>763.9</ele>
        <time>2011-04-29T13:44:12Z</time>
      </trkpt>
      <trkpt lat="43.61176" lon="3.00832">
        <ele>764.87</ele>
        <time>2011-04-29T13:44:15Z</time>
      </trkpt>
      <trkpt lat="43.61175" lon="3.0083">
        <ele>766.79</ele>
        <time>2011-04-29T13:44:16Z</time>
      </trkpt>
      <trkpt lat="43.61169" lon="3.00813">
        <ele>764.39</ele>
        <time>2011-04-29T13:44:32Z</time>
      </trkpt>
      <trkpt lat="43.61166" lon="3.00808">
        <ele>758.14</ele>
        <time>2011-04-29T13:44:39Z</time>
      </trkpt>
      <trkpt lat="43.61165" lon="3.00807">
        <ele>764.39</ele>
        <time>2011-04-29T13:44:40Z</time>
      </trkpt>
      <trkpt lat="43.61157" lon="3.00797">
        <ele>763.9</ele>
        <time>2011-04-29T13:45:00Z</time>
      </trkpt>
      <trkpt lat="43.61158" lon="3.00796">
        <ele>762.94</ele>
        <time>2011-04-29T13:45:02Z</time>
      </trkpt>
      <trkpt lat="43.61165" lon="3.00786">
        <ele>763.42</ele>
        <time>2011-04-29T13:45:26Z</time>
      </trkpt>
      <trkpt lat="43.61164" lon="3.00786">
        <ele>758.14</ele>
        <time>2011-04-29T13:45:27Z</time>
      </trkpt>
      <trkpt lat="43.61164" lon="3.00786">
        <ele>764.39</ele>
        <time>2011-04-29T13:45:28Z</time>
      </trkpt>
      <trkpt lat="43.61155" lon="3.00807">
        <ele>763.42</ele>
        <time>2011-04-29T13:45:40Z</time>
      </trkpt>
      <trkpt lat="43.61131" lon="3.00816">
        <ele>763.42</ele>
        <time>2011-04-29T13:45:59Z</time>
      </trkpt>
      <trkpt lat="43.61125" lon="3.00821">
        <ele>763.9</ele>
        <time>2011-04-29T13:46:04Z</time>
      </trkpt>
      <trkpt lat="43.6112" lon="3.00825">
        <ele>768.23</ele>
        <time>2011-04-29T13:46:09Z</time>
      </trkpt>
      <trkpt lat="43.61119" lon="3.00826">
        <ele>764.39</ele>
        <time>2011-04-29T13:46:10Z</time>
      </trkpt>
      <trkpt lat="43.61117" lon="3.00829">
        <ele>763.42</ele>
        <time>2011-04-29T13:46:12Z</time>
      </trkpt>
      <trkpt lat="43.61108" lon="3.00834">
        <ele>763.42</ele>
        <time>2011-04-29T13:46:21Z</time>
      </trkpt>
      <trkpt lat="43.61089" lon="3.00841">
        <ele>765.83</ele>
        <time>2011-04-29T13:46:38Z</time>
      </trkpt>
      <trkpt lat="43.61088" lon="3.00836">
        <ele>768.71</ele>
        <time>2011-04-29T13:46:53Z</time>
      </trkpt>
      <trkpt lat="43.61093" lon="3.00831">
        <ele>772.08</ele>
        <time>2011-04-29T13:47:13Z</time>
      </trkpt>
      <trkpt lat="43.61093" lon="3.00827">
        <ele>773.52</ele>
        <time>2011-04-29T13:47:22Z</time>
      </trkpt>
      <trkpt lat="43.6109" lon="3.00823">
        <ele>774</ele>
        <time>2011-04-29T13:47:28Z</time>
      </trkpt>
      <trkpt lat="43.61079" lon="3.00818">
        <ele>776.4</ele>
        <time>2011-04-29T13:47:44Z</time>
      </trkpt>
      <trkpt lat="43.61076" lon="3.00807">
        <ele>778.32</ele>
        <time>2011-04-29T13:47:48Z</time>
      </trkpt>
      <trkpt lat="43.61078" lon="3.00804">
        <ele>779.29</ele>
        <time>2011-04-29T13:47:52Z</time>
      </trkpt>
      <trkpt lat="43.6108" lon="3.00796">
        <ele>780.73</ele>
        <time>2011-04-29T13:48:09Z</time>
      </trkpt>
      <trkpt lat="43.61082" lon="3.00792">
        <ele>783.13</ele>
        <time>2011-04-29T13:48:25Z</time>
      </trkpt>
      <trkpt lat="43.61087" lon="3.00789">
        <ele>783.13</ele>
        <time>2011-04-29T13:48:29Z</time>
      </trkpt>
      <trkpt lat="43.61095" lon="3.00784">
        <ele>784.09</ele>
        <time>2011-04-29T13:48:35Z</time>
      </trkpt>
      <trkpt lat="43.61102" lon="3.00776">
        <ele>786.02</ele>
        <time>2011-04-29T13:48:52Z</time>
      </trkpt>
      <trkpt lat="43.61104" lon="3.00775">
        <ele>789.38</ele>
        <time>2011-04-29T13:49:10Z</time>
      </trkpt>
      <trkpt lat="43.61105" lon="3.0077">
        <ele>789.86</ele>
        <time>2011-04-29T13:49:32Z</time>
      </trkpt>
      <trkpt lat="43.61115" lon="3.00753">
        <ele>790.34</ele>
        <time>2011-04-29T13:49:49Z</time>
      </trkpt>
      <trkpt lat="43.61114" lon="3.0075">
        <ele>793.71</ele>
        <time>2011-04-29T13:50:03Z</time>
      </trkpt>
      <trkpt lat="43.61111" lon="3.00747">
        <ele>795.63</ele>
        <time>2011-04-29T13:50:20Z</time>
      </trkpt>
      <trkpt lat="43.6111" lon="3.00742">
        <ele>797.55</ele>
        <time>2011-04-29T13:50:29Z</time>
      </trkpt>
      <trkpt lat="43.61103" lon="3.00737">
        <ele>799.47</ele>
        <time>2011-04-29T13:50:43Z</time>
      </trkpt>
      <trkpt lat="43.61097" lon="3.00732">
        <ele>801.88</ele>
        <time>2011-04-29T13:51:00Z</time>
      </trkpt>
      <trkpt lat="43.61096" lon="3.00729">
        <ele>802.84</ele>
        <time>2011-04-29T13:51:13Z</time>
      </trkpt>
      <trkpt lat="43.61089" lon="3.00729">
        <ele>804.28</ele>
        <time>2011-04-29T13:51:27Z</time>
      </trkpt>
      <trkpt lat="43.61084" lon="3.00736">
        <ele>802.84</ele>
        <time>2011-04-29T13:51:40Z</time>
      </trkpt>
      <trkpt lat="43.61078" lon="3.00738">
        <ele>798.03</ele>
        <time>2011-04-29T13:51:49Z</time>
      </trkpt>
      <trkpt lat="43.61078" lon="3.00737">
        <ele>803.32</ele>
        <time>2011-04-29T13:51:50Z</time>
      </trkpt>
      <trkpt lat="43.61077" lon="3.0074">
        <ele>801.4</ele>
        <time>2011-04-29T13:52:09Z</time>
      </trkpt>
      <trkpt lat="43.61072" lon="3.00737">
        <ele>801.88</ele>
        <time>2011-04-29T13:52:23Z</time>
      </trkpt>
      <trkpt lat="43.61067" lon="3.00728">
        <ele>803.8</ele>
        <time>2011-04-29T13:52:40Z</time>
      </trkpt>
      <trkpt lat="43.61062" lon="3.00723">
        <ele>807.16</ele>
        <time>2011-04-29T13:52:51Z</time>
      </trkpt>
      <trkpt lat="43.6106" lon="3.00715">
        <ele>809.09</ele>
        <time>2011-04-29T13:53:06Z</time>
      </trkpt>
      <trkpt lat="43.61059" lon="3.00709">
        <ele>810.05</ele>
        <time>2011-04-29T13:53:22Z</time>
      </trkpt>
      <trkpt lat="43.61059" lon="3.007">
        <ele>813.41</ele>
        <time>2011-04-29T13:53:34Z</time>
      </trkpt>
      <trkpt lat="43.61058" lon="3.00695">
        <ele>814.85</ele>
        <time>2011-04-29T13:53:47Z</time>
      </trkpt>
      <trkpt lat="43.61064" lon="3.00691">
        <ele>816.78</ele>
        <time>2011-04-29T13:54:02Z</time>
      </trkpt>
      <trkpt lat="43.6107" lon="3.00685">
        <ele>819.18</ele>
        <time>2011-04-29T13:54:15Z</time>
      </trkpt>
      <trkpt lat="43.61071" lon="3.00685">
        <ele>818.22</ele>
        <time>2011-04-29T13:54:16Z</time>
      </trkpt>
      <trkpt lat="43.61077" lon="3.00678">
        <ele>820.62</ele>
        <time>2011-04-29T13:54:31Z</time>
      </trkpt>
      <trkpt lat="43.61081" lon="3.00669">
        <ele>822.55</ele>
        <time>2011-04-29T13:54:46Z</time>
      </trkpt>
      <trkpt lat="43.61083" lon="3.00661">
        <ele>825.91</ele>
        <time>2011-04-29T13:55:01Z</time>
      </trkpt>
      <trkpt lat="43.61083" lon="3.00657">
        <ele>827.83</ele>
        <time>2011-04-29T13:55:15Z</time>
      </trkpt>
      <trkpt lat="43.61083" lon="3.00656">
        <ele>828.79</ele>
        <time>2011-04-29T13:55:21Z</time>
      </trkpt>
      <trkpt lat="43.61083" lon="3.00651">
        <ele>828.31</ele>
        <time>2011-04-29T13:55:26Z</time>
      </trkpt>
      <trkpt lat="43.61078" lon="3.00643">
        <ele>832.64</ele>
        <time>2011-04-29T13:55:41Z</time>
      </trkpt>
      <trkpt lat="43.61077" lon="3.00632">
        <ele>833.12</ele>
        <time>2011-04-29T13:55:55Z</time>
      </trkpt>
      <trkpt lat="43.61077" lon="3.00625">
        <ele>836.48</ele>
        <time>2011-04-29T13:56:08Z</time>
      </trkpt>
      <trkpt lat="43.61074" lon="3.00625">
        <ele>837.45</ele>
        <time>2011-04-29T13:56:24Z</time>
      </trkpt>
      <trkpt lat="43.6107" lon="3.00621">
        <ele>837.45</ele>
        <time>2011-04-29T13:56:29Z</time>
      </trkpt>
      <trkpt lat="43.61063" lon="3.00617">
        <ele>840.33</ele>
        <time>2011-04-29T13:56:41Z</time>
      </trkpt>
      <trkpt lat="43.6106" lon="3.00609">
        <ele>841.77</ele>
        <time>2011-04-29T13:56:57Z</time>
      </trkpt>
      <trkpt lat="43.61059" lon="3.00604">
        <ele>844.18</ele>
        <time>2011-04-29T13:57:10Z</time>
      </trkpt>
      <trkpt lat="43.6106" lon="3.00598">
        <ele>846.1</ele>
        <time>2011-04-29T13:57:21Z</time>
      </trkpt>
      <trkpt lat="43.61059" lon="3.00594">
        <ele>847.54</ele>
        <time>2011-04-29T13:57:40Z</time>
      </trkpt>
      <trkpt lat="43.61056" lon="3.0059">
        <ele>850.9</ele>
        <time>2011-04-29T13:57:52Z</time>
      </trkpt>
      <trkpt lat="43.61055" lon="3.00589">
        <ele>849.94</ele>
        <time>2011-04-29T13:57:53Z</time>
      </trkpt>
      <trkpt lat="43.61052" lon="3.00583">
        <ele>854.27</ele>
        <time>2011-04-29T13:58:01Z</time>
      </trkpt>
      <trkpt lat="43.61052" lon="3.00583">
        <ele>845.14</ele>
        <time>2011-04-29T13:58:02Z</time>
      </trkpt>
      <trkpt lat="43.61052" lon="3.00583">
        <ele>856.19</ele>
        <time>2011-04-29T13:58:03Z</time>
      </trkpt>
      <trkpt lat="43.61052" lon="3.00583">
        <ele>852.83</ele>
        <time>2011-04-29T13:58:04Z</time>
      </trkpt>
      <trkpt lat="43.61052" lon="3.00583">
        <ele>851.38</ele>
        <time>2011-04-29T13:58:06Z</time>
      </trkpt>
      <trkpt lat="43.61054" lon="3.00574">
        <ele>854.27</ele>
        <time>2011-04-29T13:58:23Z</time>
      </trkpt>
      <trkpt lat="43.61053" lon="3.00563">
        <ele>857.15</ele>
        <time>2011-04-29T13:58:39Z</time>
      </trkpt>
      <trkpt lat="43.61053" lon="3.00556">
        <ele>859.56</ele>
        <time>2011-04-29T13:58:53Z</time>
      </trkpt>
      <trkpt lat="43.6105" lon="3.00553">
        <ele>863.4</ele>
        <time>2011-04-29T13:59:07Z</time>
      </trkpt>
      <trkpt lat="43.61049" lon="3.00549">
        <ele>862.92</ele>
        <time>2011-04-29T13:59:26Z</time>
      </trkpt>
      <trkpt lat="43.61049" lon="3.00541">
        <ele>865.8</ele>
        <time>2011-04-29T13:59:39Z</time>
      </trkpt>
      <trkpt lat="43.61044" lon="3.00536">
        <ele>867.73</ele>
        <time>2011-04-29T13:59:52Z</time>
      </trkpt>
      <trkpt lat="43.61037" lon="3.00531">
        <ele>870.13</ele>
        <time>2011-04-29T14:00:05Z</time>
      </trkpt>
      <trkpt lat="43.61031" lon="3.00524">
        <ele>873.5</ele>
        <time>2011-04-29T14:00:20Z</time>
      </trkpt>
      <trkpt lat="43.61029" lon="3.00518">
        <ele>875.42</ele>
        <time>2011-04-29T14:00:33Z</time>
      </trkpt>
      <trkpt lat="43.61019" lon="3.00511">
        <ele>876.86</ele>
        <time>2011-04-29T14:00:49Z</time>
      </trkpt>
      <trkpt lat="43.61015" lon="3.00505">
        <ele>879.26</ele>
        <time>2011-04-29T14:01:07Z</time>
      </trkpt>
      <trkpt lat="43.61009" lon="3.00497">
        <ele>882.15</ele>
        <time>2011-04-29T14:01:22Z</time>
      </trkpt>
      <trkpt lat="43.61006" lon="3.00495">
        <ele>889.36</ele>
        <time>2011-04-29T14:01:33Z</time>
      </trkpt>
      <trkpt lat="43.61006" lon="3.00495">
        <ele>887.43</ele>
        <time>2011-04-29T14:01:34Z</time>
      </trkpt>
      <trkpt lat="43.61006" lon="3.00495">
        <ele>883.59</ele>
        <time>2011-04-29T14:01:35Z</time>
      </trkpt>
      <trkpt lat="43.61006" lon="3.00495">
        <ele>883.59</ele>
        <time>2011-04-29T14:01:36Z</time>
      </trkpt>
      <trkpt lat="43.61002" lon="3.00492">
        <ele>884.55</ele>
        <time>2011-04-29T14:01:48Z</time>
      </trkpt>
      <trkpt lat="43.60997" lon="3.00485">
        <ele>887.91</ele>
        <time>2011-04-29T14:02:03Z</time>
      </trkpt>
      <trkpt lat="43.60995" lon="3.00474">
        <ele>890.8</ele>
        <time>2011-04-29T14:02:19Z</time>
      </trkpt>
      <trkpt lat="43.60991" lon="3.00468">
        <ele>893.2</ele>
        <time>2011-04-29T14:02:33Z</time>
      </trkpt>
      <trkpt lat="43.60988" lon="3.00463">
        <ele>895.12</ele>
        <time>2011-04-29T14:02:50Z</time>
      </trkpt>
      <trkpt lat="43.60979" lon="3.00456">
        <ele>897.05</ele>
        <time>2011-04-29T14:03:04Z</time>
      </trkpt>
      <trkpt lat="43.60972" lon="3.00445">
        <ele>899.93</ele>
        <time>2011-04-29T14:03:21Z</time>
      </trkpt>
      <trkpt lat="43.60965" lon="3.00436">
        <ele>903.3</ele>
        <time>2011-04-29T14:03:37Z</time>
      </trkpt>
      <trkpt lat="43.60963" lon="3.00425">
        <ele>905.7</ele>
        <time>2011-04-29T14:03:52Z</time>
      </trkpt>
      <trkpt lat="43.60959" lon="3.00414">
        <ele>907.62</ele>
        <time>2011-04-29T14:04:07Z</time>
      </trkpt>
      <trkpt lat="43.60953" lon="3.00406">
        <ele>910.99</ele>
        <time>2011-04-29T14:04:22Z</time>
      </trkpt>
      <trkpt lat="43.60953" lon="3.00405">
        <ele>905.22</ele>
        <time>2011-04-29T14:04:33Z</time>
      </trkpt>
      <trkpt lat="43.60953" lon="3.00405">
        <ele>911.95</ele>
        <time>2011-04-29T14:04:35Z</time>
      </trkpt>
      <trkpt lat="43.60953" lon="3.00405">
        <ele>910.99</ele>
        <time>2011-04-29T14:04:36Z</time>
      </trkpt>
      <trkpt lat="43.60953" lon="3.00405">
        <ele>912.43</ele>
        <time>2011-04-29T14:04:57Z</time>
      </trkpt>
      <trkpt lat="43.60944" lon="3.0039">
        <ele>915.31</ele>
        <time>2011-04-29T14:05:15Z</time>
      </trkpt>
      <trkpt lat="43.60933" lon="3.00379">
        <ele>917.24</ele>
        <time>2011-04-29T14:05:28Z</time>
      </trkpt>
      <trkpt lat="43.60928" lon="3.00369">
        <ele>918.68</ele>
        <time>2011-04-29T14:05:42Z</time>
      </trkpt>
      <trkpt lat="43.60926" lon="3.00359">
        <ele>921.56</ele>
        <time>2011-04-29T14:05:56Z</time>
      </trkpt>
      <trkpt lat="43.60919" lon="3.00351">
        <ele>924.45</ele>
        <time>2011-04-29T14:06:14Z</time>
      </trkpt>
      <trkpt lat="43.60913" lon="3.0035">
        <ele>925.41</ele>
        <time>2011-04-29T14:06:28Z</time>
      </trkpt>
      <trkpt lat="43.60907" lon="3.00343">
        <ele>927.33</ele>
        <time>2011-04-29T14:06:44Z</time>
      </trkpt>
      <trkpt lat="43.60906" lon="3.00341">
        <ele>928.29</ele>
        <time>2011-04-29T14:07:02Z</time>
      </trkpt>
      <trkpt lat="43.60903" lon="3.00341">
        <ele>928.77</ele>
        <time>2011-04-29T14:07:24Z</time>
      </trkpt>
      <trkpt lat="43.609" lon="3.00334">
        <ele>930.69</ele>
        <time>2011-04-29T14:07:38Z</time>
      </trkpt>
      <trkpt lat="43.60896" lon="3.00322">
        <ele>933.58</ele>
        <time>2011-04-29T14:07:54Z</time>
      </trkpt>
      <trkpt lat="43.60893" lon="3.00317">
        <ele>935.98</ele>
        <time>2011-04-29T14:08:07Z</time>
      </trkpt>
      <trkpt lat="43.60889" lon="3.00305">
        <ele>938.38</ele>
        <time>2011-04-29T14:08:21Z</time>
      </trkpt>
      <trkpt lat="43.60885" lon="3.00297">
        <ele>940.79</ele>
        <time>2011-04-29T14:08:34Z</time>
      </trkpt>
      <trkpt lat="43.60877" lon="3.00286">
        <ele>943.67</ele>
        <time>2011-04-29T14:08:50Z</time>
      </trkpt>
      <trkpt lat="43.60867" lon="3.00282">
        <ele>945.59</ele>
        <time>2011-04-29T14:09:04Z</time>
      </trkpt>
      <trkpt lat="43.60859" lon="3.00282">
        <ele>947.04</ele>
        <time>2011-04-29T14:09:12Z</time>
      </trkpt>
      <trkpt lat="43.60849" lon="3.00279">
        <ele>949.44</ele>
        <time>2011-04-29T14:09:27Z</time>
      </trkpt>
      <trkpt lat="43.60844" lon="3.00279">
        <ele>948.96</ele>
        <time>2011-04-29T14:09:46Z</time>
      </trkpt>
      <trkpt lat="43.60839" lon="3.00268">
        <ele>951.36</ele>
        <time>2011-04-29T14:09:59Z</time>
      </trkpt>
      <trkpt lat="43.60832" lon="3.00264">
        <ele>952.8</ele>
        <time>2011-04-29T14:10:13Z</time>
      </trkpt>
      <trkpt lat="43.60831" lon="3.00259">
        <ele>955.21</ele>
        <time>2011-04-29T14:10:19Z</time>
      </trkpt>
      <trkpt lat="43.60825" lon="3.00245">
        <ele>951.36</ele>
        <time>2011-04-29T14:10:34Z</time>
      </trkpt>
      <trkpt lat="43.60824" lon="3.00245">
        <ele>959.05</ele>
        <time>2011-04-29T14:10:36Z</time>
      </trkpt>
      <trkpt lat="43.60823" lon="3.00244">
        <ele>959.05</ele>
        <time>2011-04-29T14:10:37Z</time>
      </trkpt>
      <trkpt lat="43.60822" lon="3.00244">
        <ele>955.21</ele>
        <time>2011-04-29T14:10:38Z</time>
      </trkpt>
      <trkpt lat="43.60821" lon="3.00243">
        <ele>959.53</ele>
        <time>2011-04-29T14:10:40Z</time>
      </trkpt>
      <trkpt lat="43.6082" lon="3.00243">
        <ele>959.53</ele>
        <time>2011-04-29T14:10:41Z</time>
      </trkpt>
      <trkpt lat="43.60818" lon="3.00243">
        <ele>960.01</ele>
        <time>2011-04-29T14:10:44Z</time>
      </trkpt>
      <trkpt lat="43.60813" lon="3.0024">
        <ele>960.98</ele>
        <time>2011-04-29T14:10:51Z</time>
      </trkpt>
      <trkpt lat="43.60805" lon="3.00237">
        <ele>961.94</ele>
        <time>2011-04-29T14:11:00Z</time>
      </trkpt>
      <trkpt lat="43.60799" lon="3.00236">
        <ele>962.9</ele>
        <time>2011-04-29T14:11:16Z</time>
      </trkpt>
      <trkpt lat="43.60799" lon="3.00236">
        <ele>964.34</ele>
        <time>2011-04-29T14:11:26Z</time>
      </trkpt>
      <trkpt lat="43.60799" lon="3.00236">
        <ele>962.9</ele>
        <time>2011-04-29T14:11:28Z</time>
      </trkpt>
      <trkpt lat="43.60794" lon="3.00229">
        <ele>963.86</ele>
        <time>2011-04-29T14:11:38Z</time>
      </trkpt>
      <trkpt lat="43.60784" lon="3.00217">
        <ele>964.34</ele>
        <time>2011-04-29T14:11:53Z</time>
      </trkpt>
      <trkpt lat="43.6078" lon="3.00209">
        <ele>967.7</ele>
        <time>2011-04-29T14:12:04Z</time>
      </trkpt>
      <trkpt lat="43.6078" lon="3.00209">
        <ele>967.7</ele>
        <time>2011-04-29T14:12:05Z</time>
      </trkpt>
      <trkpt lat="43.60779" lon="3.00207">
        <ele>968.67</ele>
        <time>2011-04-29T14:12:22Z</time>
      </trkpt>
      <trkpt lat="43.6077" lon="3.00205">
        <ele>968.18</ele>
        <time>2011-04-29T14:12:37Z</time>
      </trkpt>
      <trkpt lat="43.60764" lon="3.002">
        <ele>969.63</ele>
        <time>2011-04-29T14:12:53Z</time>
      </trkpt>
      <trkpt lat="43.60766" lon="3.002">
        <ele>968.18</ele>
        <time>2011-04-29T14:13:30Z</time>
      </trkpt>
      <trkpt lat="43.60771" lon="3.00207">
        <ele>962.9</ele>
        <time>2011-04-29T14:13:42Z</time>
      </trkpt>
      <trkpt lat="43.60771" lon="3.00207">
        <ele>969.15</ele>
        <time>2011-04-29T14:13:43Z</time>
      </trkpt>
      <trkpt lat="43.60771" lon="3.00207">
        <ele>968.18</ele>
        <time>2011-04-29T14:14:06Z</time>
      </trkpt>
      <trkpt lat="43.60775" lon="3.00205">
        <ele>967.7</ele>
        <time>2011-04-29T14:15:10Z</time>
      </trkpt>
      <trkpt lat="43.60775" lon="3.00206">
        <ele>968.67</ele>
        <time>2011-04-29T14:15:49Z</time>
      </trkpt>
      <trkpt lat="43.60775" lon="3.00206">
        <ele>969.15</ele>
        <time>2011-04-29T14:16:05Z</time>
      </trkpt>
      <trkpt lat="43.60775" lon="3.00206">
        <ele>968.67</ele>
        <time>2011-04-29T14:16:25Z</time>
      </trkpt>
      <trkpt lat="43.60775" lon="3.00206">
        <ele>965.3</ele>
        <time>2011-04-29T14:16:36Z</time>
      </trkpt>
      <trkpt lat="43.60775" lon="3.00206">
        <ele>968.67</ele>
        <time>2011-04-29T14:16:39Z</time>
      </trkpt>
      <trkpt lat="43.60771" lon="3.00206">
        <ele>967.22</ele>
        <time>2011-04-29T14:19:15Z</time>
      </trkpt>
      <trkpt lat="43.60767" lon="3.00202">
        <ele>967.7</ele>
        <time>2011-04-29T14:19:21Z</time>
      </trkpt>
      <trkpt lat="43.60758" lon="3.00193">
        <ele>968.67</ele>
        <time>2011-04-29T14:19:34Z</time>
      </trkpt>
      <trkpt lat="43.60751" lon="3.00185">
        <ele>969.63</ele>
        <time>2011-04-29T14:19:43Z</time>
      </trkpt>
      <trkpt lat="43.60748" lon="3.00176">
        <ele>970.59</ele>
        <time>2011-04-29T14:19:52Z</time>
      </trkpt>
      <trkpt lat="43.60741" lon="3.00163">
        <ele>972.03</ele>
        <time>2011-04-29T14:20:06Z</time>
      </trkpt>
      <trkpt lat="43.60736" lon="3.00158">
        <ele>972.03</ele>
        <time>2011-04-29T14:20:13Z</time>
      </trkpt>
      <trkpt lat="43.60732" lon="3.0015">
        <ele>972.99</ele>
        <time>2011-04-29T14:20:20Z</time>
      </trkpt>
      <trkpt lat="43.60732" lon="3.00146">
        <ele>973.95</ele>
        <time>2011-04-29T14:20:23Z</time>
      </trkpt>
      <trkpt lat="43.60721" lon="3.00128">
        <ele>974.91</ele>
        <time>2011-04-29T14:20:41Z</time>
      </trkpt>
      <trkpt lat="43.60711" lon="3.00113">
        <ele>976.36</ele>
        <time>2011-04-29T14:20:57Z</time>
      </trkpt>
      <trkpt lat="43.60709" lon="3.00109">
        <ele>976.36</ele>
        <time>2011-04-29T14:21:00Z</time>
      </trkpt>
      <trkpt lat="43.60696" lon="3.00101">
        <ele>977.8</ele>
        <time>2011-04-29T14:21:13Z</time>
      </trkpt>
      <trkpt lat="43.6068" lon="3.0009">
        <ele>978.76</ele>
        <time>2011-04-29T14:21:29Z</time>
      </trkpt>
      <trkpt lat="43.6067" lon="3.00078">
        <ele>980.2</ele>
        <time>2011-04-29T14:21:44Z</time>
      </trkpt>
      <trkpt lat="43.60668" lon="3.00075">
        <ele>980.2</ele>
        <time>2011-04-29T14:21:47Z</time>
      </trkpt>
      <trkpt lat="43.60655" lon="3.00059">
        <ele>982.12</ele>
        <time>2011-04-29T14:22:04Z</time>
      </trkpt>
      <trkpt lat="43.6065" lon="3.00049">
        <ele>985.01</ele>
        <time>2011-04-29T14:22:17Z</time>
      </trkpt>
      <trkpt lat="43.60649" lon="3.0004">
        <ele>986.93</ele>
        <time>2011-04-29T14:22:33Z</time>
      </trkpt>
      <trkpt lat="43.60647" lon="3.00025">
        <ele>989.33</ele>
        <time>2011-04-29T14:22:47Z</time>
      </trkpt>
      <trkpt lat="43.60646" lon="3.00023">
        <ele>990.3</ele>
        <time>2011-04-29T14:22:49Z</time>
      </trkpt>
      <trkpt lat="43.60641" lon="3.00015">
        <ele>990.3</ele>
        <time>2011-04-29T14:22:58Z</time>
      </trkpt>
      <trkpt lat="43.60631" lon="3.00001">
        <ele>992.7</ele>
        <time>2011-04-29T14:23:14Z</time>
      </trkpt>
      <trkpt lat="43.60629" lon="2.99997">
        <ele>993.18</ele>
        <time>2011-04-29T14:23:20Z</time>
      </trkpt>
      <trkpt lat="43.60627" lon="2.99997">
        <ele>992.7</ele>
        <time>2011-04-29T14:23:23Z</time>
      </trkpt>
      <trkpt lat="43.6061" lon="2.99986">
        <ele>993.66</ele>
        <time>2011-04-29T14:23:40Z</time>
      </trkpt>
      <trkpt lat="43.60597" lon="2.99975">
        <ele>995.58</ele>
        <time>2011-04-29T14:23:56Z</time>
      </trkpt>
      <trkpt lat="43.60592" lon="2.99964">
        <ele>997.02</ele>
        <time>2011-04-29T14:24:10Z</time>
      </trkpt>
      <trkpt lat="43.60591" lon="2.99963">
        <ele>997.02</ele>
        <time>2011-04-29T14:24:11Z</time>
      </trkpt>
      <trkpt lat="43.60586" lon="2.99949">
        <ele>999.43</ele>
        <time>2011-04-29T14:24:26Z</time>
      </trkpt>
      <trkpt lat="43.60586" lon="2.99949">
        <ele>1001.83</ele>
        <time>2011-04-29T14:24:28Z</time>
      </trkpt>
      <trkpt lat="43.60586" lon="2.99949">
        <ele>999.91</ele>
        <time>2011-04-29T14:24:30Z</time>
      </trkpt>
      <trkpt lat="43.60585" lon="2.99948">
        <ele>999.91</ele>
        <time>2011-04-29T14:24:43Z</time>
      </trkpt>
      <trkpt lat="43.60574" lon="2.99929">
        <ele>1001.35</ele>
        <time>2011-04-29T14:25:01Z</time>
      </trkpt>
      <trkpt lat="43.60567" lon="2.99911">
        <ele>1002.31</ele>
        <time>2011-04-29T14:25:17Z</time>
      </trkpt>
      <trkpt lat="43.60566" lon="2.99908">
        <ele>1003.27</ele>
        <time>2011-04-29T14:25:20Z</time>
      </trkpt>
      <trkpt lat="43.6056" lon="2.99897">
        <ele>1005.2</ele>
        <time>2011-04-29T14:25:32Z</time>
      </trkpt>
      <trkpt lat="43.6055" lon="2.99889">
        <ele>1005.2</ele>
        <time>2011-04-29T14:25:49Z</time>
      </trkpt>
      <trkpt lat="43.60542" lon="2.99882">
        <ele>1005.68</ele>
        <time>2011-04-29T14:26:01Z</time>
      </trkpt>
      <trkpt lat="43.60535" lon="2.99863">
        <ele>1008.08</ele>
        <time>2011-04-29T14:26:19Z</time>
      </trkpt>
      <trkpt lat="43.60526" lon="2.99849">
        <ele>1009.04</ele>
        <time>2011-04-29T14:26:35Z</time>
      </trkpt>
      <trkpt lat="43.60521" lon="2.99835">
        <ele>1011.44</ele>
        <time>2011-04-29T14:26:50Z</time>
      </trkpt>
      <trkpt lat="43.60517" lon="2.9982">
        <ele>1013.85</ele>
        <time>2011-04-29T14:27:06Z</time>
      </trkpt>
      <trkpt lat="43.60516" lon="2.99818">
        <ele>1015.77</ele>
        <time>2011-04-29T14:27:08Z</time>
      </trkpt>
      <trkpt lat="43.60514" lon="2.9981">
        <ele>1015.29</ele>
        <time>2011-04-29T14:27:17Z</time>
      </trkpt>
      <trkpt lat="43.60506" lon="2.99801">
        <ele>1016.73</ele>
        <time>2011-04-29T14:27:28Z</time>
      </trkpt>
      <trkpt lat="43.60503" lon="2.99787">
        <ele>1018.17</ele>
        <time>2011-04-29T14:27:42Z</time>
      </trkpt>
      <trkpt lat="43.60498" lon="2.99774">
        <ele>1019.13</ele>
        <time>2011-04-29T14:27:56Z</time>
      </trkpt>
      <trkpt lat="43.6049" lon="2.99756">
        <ele>1021.54</ele>
        <time>2011-04-29T14:28:14Z</time>
      </trkpt>
      <trkpt lat="43.60481" lon="2.99745">
        <ele>1022.5</ele>
        <time>2011-04-29T14:28:28Z</time>
      </trkpt>
      <trkpt lat="43.60479" lon="2.99742">
        <ele>1022.5</ele>
        <time>2011-04-29T14:28:31Z</time>
      </trkpt>
      <trkpt lat="43.6047" lon="2.99727">
        <ele>1024.9</ele>
        <time>2011-04-29T14:28:46Z</time>
      </trkpt>
      <trkpt lat="43.60462" lon="2.9971">
        <ele>1026.83</ele>
        <time>2011-04-29T14:29:03Z</time>
      </trkpt>
      <trkpt lat="43.6046" lon="2.99701">
        <ele>1028.75</ele>
        <time>2011-04-29T14:29:18Z</time>
      </trkpt>
      <trkpt lat="43.60458" lon="2.99689">
        <ele>1030.19</ele>
        <time>2011-04-29T14:29:36Z</time>
      </trkpt>
      <trkpt lat="43.60451" lon="2.99676">
        <ele>1032.11</ele>
        <time>2011-04-29T14:29:51Z</time>
      </trkpt>
      <trkpt lat="43.60439" lon="2.99664">
        <ele>1034.52</ele>
        <time>2011-04-29T14:30:08Z</time>
      </trkpt>
      <trkpt lat="43.60439" lon="2.99655">
        <ele>1035.96</ele>
        <time>2011-04-29T14:30:24Z</time>
      </trkpt>
      <trkpt lat="43.6044" lon="2.99651">
        <ele>1036.44</ele>
        <time>2011-04-29T14:30:27Z</time>
      </trkpt>
      <trkpt lat="43.60436" lon="2.99641">
        <ele>1038.36</ele>
        <time>2011-04-29T14:30:41Z</time>
      </trkpt>
      <trkpt lat="43.60431" lon="2.99624">
        <ele>1040.28</ele>
        <time>2011-04-29T14:30:57Z</time>
      </trkpt>
      <trkpt lat="43.60429" lon="2.99607">
        <ele>1042.69</ele>
        <time>2011-04-29T14:31:11Z</time>
      </trkpt>
      <trkpt lat="43.60426" lon="2.99599">
        <ele>1042.69</ele>
        <time>2011-04-29T14:31:18Z</time>
      </trkpt>
      <trkpt lat="43.60421" lon="2.9958">
        <ele>1044.13</ele>
        <time>2011-04-29T14:31:35Z</time>
      </trkpt>
      <trkpt lat="43.60419" lon="2.99575">
        <ele>1044.13</ele>
        <time>2011-04-29T14:31:47Z</time>
      </trkpt>
      <trkpt lat="43.60418" lon="2.99563">
        <ele>1045.09</ele>
        <time>2011-04-29T14:32:03Z</time>
      </trkpt>
      <trkpt lat="43.60418" lon="2.99559">
        <ele>1045.57</ele>
        <time>2011-04-29T14:32:05Z</time>
      </trkpt>
      <trkpt lat="43.60417" lon="2.99547">
        <ele>1046.53</ele>
        <time>2011-04-29T14:32:18Z</time>
      </trkpt>
      <trkpt lat="43.60418" lon="2.99539">
        <ele>1046.53</ele>
        <time>2011-04-29T14:32:24Z</time>
      </trkpt>
      <trkpt lat="43.60418" lon="2.9953">
        <ele>1047.01</ele>
        <time>2011-04-29T14:32:29Z</time>
      </trkpt>
      <trkpt lat="43.60416" lon="2.99506">
        <ele>1048.45</ele>
        <time>2011-04-29T14:32:46Z</time>
      </trkpt>
      <trkpt lat="43.60416" lon="2.9949">
        <ele>1048.94</ele>
        <time>2011-04-29T14:33:00Z</time>
      </trkpt>
      <trkpt lat="43.60417" lon="2.99485">
        <ele>1048.94</ele>
        <time>2011-04-29T14:33:13Z</time>
      </trkpt>
      <trkpt lat="43.60415" lon="2.99485">
        <ele>1049.42</ele>
        <time>2011-04-29T14:33:38Z</time>
      </trkpt>
      <trkpt lat="43.60419" lon="2.99483">
        <ele>1048.45</ele>
        <time>2011-04-29T14:33:56Z</time>
      </trkpt>
      <trkpt lat="43.60418" lon="2.99466">
        <ele>1049.9</ele>
        <time>2011-04-29T14:34:12Z</time>
      </trkpt>
      <trkpt lat="43.60417" lon="2.99444">
        <ele>1050.38</ele>
        <time>2011-04-29T14:34:28Z</time>
      </trkpt>
      <trkpt lat="43.60414" lon="2.99433">
        <ele>1050.38</ele>
        <time>2011-04-29T14:34:43Z</time>
      </trkpt>
      <trkpt lat="43.60412" lon="2.99409">
        <ele>1051.34</ele>
        <time>2011-04-29T14:34:55Z</time>
      </trkpt>
      <trkpt lat="43.60409" lon="2.99392">
        <ele>1047.97</ele>
        <time>2011-04-29T14:35:06Z</time>
      </trkpt>
      <trkpt lat="43.60409" lon="2.9939">
        <ele>1054.22</ele>
        <time>2011-04-29T14:35:07Z</time>
      </trkpt>
      <trkpt lat="43.60409" lon="2.99385">
        <ele>1052.3</ele>
        <time>2011-04-29T14:35:10Z</time>
      </trkpt>
      <trkpt lat="43.60408" lon="2.99382">
        <ele>1050.86</ele>
        <time>2011-04-29T14:35:12Z</time>
      </trkpt>
      <trkpt lat="43.60408" lon="2.99379">
        <ele>1052.3</ele>
        <time>2011-04-29T14:35:14Z</time>
      </trkpt>
      <trkpt lat="43.60408" lon="2.99376">
        <ele>1056.63</ele>
        <time>2011-04-29T14:35:16Z</time>
      </trkpt>
      <trkpt lat="43.60408" lon="2.99374">
        <ele>1053.26</ele>
        <time>2011-04-29T14:35:17Z</time>
      </trkpt>
      <trkpt lat="43.60408" lon="2.9937">
        <ele>1051.82</ele>
        <time>2011-04-29T14:35:19Z</time>
      </trkpt>
      <trkpt lat="43.60405" lon="2.9934">
        <ele>1052.78</ele>
        <time>2011-04-29T14:35:39Z</time>
      </trkpt>
      <trkpt lat="43.60402" lon="2.9931">
        <ele>1052.78</ele>
        <time>2011-04-29T14:35:59Z</time>
      </trkpt>
      <trkpt lat="43.604" lon="2.99282">
        <ele>1052.78</ele>
        <time>2011-04-29T14:36:17Z</time>
      </trkpt>
      <trkpt lat="43.60398" lon="2.99255">
        <ele>1052.3</ele>
        <time>2011-04-29T14:36:35Z</time>
      </trkpt>
      <trkpt lat="43.60395" lon="2.99228">
        <ele>1052.3</ele>
        <time>2011-04-29T14:36:52Z</time>
      </trkpt>
      <trkpt lat="43.60393" lon="2.99216">
        <ele>1051.82</ele>
        <time>2011-04-29T14:37:00Z</time>
      </trkpt>
      <trkpt lat="43.60392" lon="2.99192">
        <ele>1050.86</ele>
        <time>2011-04-29T14:37:16Z</time>
      </trkpt>
      <trkpt lat="43.60391" lon="2.99174">
        <ele>1051.34</ele>
        <time>2011-04-29T14:37:29Z</time>
      </trkpt>
      <trkpt lat="43.60385" lon="2.99148">
        <ele>1051.34</ele>
        <time>2011-04-29T14:37:46Z</time>
      </trkpt>
      <trkpt lat="43.60378" lon="2.99121">
        <ele>1051.82</ele>
        <time>2011-04-29T14:38:04Z</time>
      </trkpt>
      <trkpt lat="43.60372" lon="2.99098">
        <ele>1051.82</ele>
        <time>2011-04-29T14:38:20Z</time>
      </trkpt>
      <trkpt lat="43.60365" lon="2.99073">
        <ele>1052.3</ele>
        <time>2011-04-29T14:38:37Z</time>
      </trkpt>
      <trkpt lat="43.60361" lon="2.9905">
        <ele>1053.26</ele>
        <time>2011-04-29T14:38:53Z</time>
      </trkpt>
      <trkpt lat="43.60359" lon="2.99044">
        <ele>1053.26</ele>
        <time>2011-04-29T14:38:57Z</time>
      </trkpt>
      <trkpt lat="43.60355" lon="2.99025">
        <ele>1053.26</ele>
        <time>2011-04-29T14:39:11Z</time>
      </trkpt>
      <trkpt lat="43.60349" lon="2.99002">
        <ele>1054.7</ele>
        <time>2011-04-29T14:39:27Z</time>
      </trkpt>
      <trkpt lat="43.60343" lon="2.9898">
        <ele>1055.67</ele>
        <time>2011-04-29T14:39:43Z</time>
      </trkpt>
      <trkpt lat="43.6034" lon="2.98958">
        <ele>1056.63</ele>
        <time>2011-04-29T14:39:58Z</time>
      </trkpt>
      <trkpt lat="43.60334" lon="2.98937">
        <ele>1057.59</ele>
        <time>2011-04-29T14:40:13Z</time>
      </trkpt>
      <trkpt lat="43.60327" lon="2.98921">
        <ele>1058.07</ele>
        <time>2011-04-29T14:40:26Z</time>
      </trkpt>
      <trkpt lat="43.60323" lon="2.98915">
        <ele>1058.55</ele>
        <time>2011-04-29T14:40:31Z</time>
      </trkpt>
      <trkpt lat="43.6032" lon="2.98909">
        <ele>1059.03</ele>
        <time>2011-04-29T14:40:36Z</time>
      </trkpt>
      <trkpt lat="43.60316" lon="2.98904">
        <ele>1058.55</ele>
        <time>2011-04-29T14:40:41Z</time>
      </trkpt>
      <trkpt lat="43.60303" lon="2.98881">
        <ele>1059.03</ele>
        <time>2011-04-29T14:40:59Z</time>
      </trkpt>
      <trkpt lat="43.60294" lon="2.9886">
        <ele>1058.55</ele>
        <time>2011-04-29T14:41:15Z</time>
      </trkpt>
      <trkpt lat="43.60289" lon="2.98849">
        <ele>1059.03</ele>
        <time>2011-04-29T14:41:24Z</time>
      </trkpt>
      <trkpt lat="43.6028" lon="2.98834">
        <ele>1059.99</ele>
        <time>2011-04-29T14:41:37Z</time>
      </trkpt>
      <trkpt lat="43.60266" lon="2.98813">
        <ele>1060.95</ele>
        <time>2011-04-29T14:41:56Z</time>
      </trkpt>
      <trkpt lat="43.60261" lon="2.98793">
        <ele>1060.47</ele>
        <time>2011-04-29T14:42:10Z</time>
      </trkpt>
      <trkpt lat="43.60257" lon="2.98771">
        <ele>1059.51</ele>
        <time>2011-04-29T14:42:25Z</time>
      </trkpt>
      <trkpt lat="43.60251" lon="2.98751">
        <ele>1057.59</ele>
        <time>2011-04-29T14:42:40Z</time>
      </trkpt>
      <trkpt lat="43.6025" lon="2.98748">
        <ele>1057.59</ele>
        <time>2011-04-29T14:42:43Z</time>
      </trkpt>
      <trkpt lat="43.60243" lon="2.98728">
        <ele>1054.7</ele>
        <time>2011-04-29T14:43:00Z</time>
      </trkpt>
      <trkpt lat="43.60236" lon="2.98714">
        <ele>1054.22</ele>
        <time>2011-04-29T14:43:10Z</time>
      </trkpt>
      <trkpt lat="43.60235" lon="2.98712">
        <ele>1053.74</ele>
        <time>2011-04-29T14:43:12Z</time>
      </trkpt>
      <trkpt lat="43.60233" lon="2.98706">
        <ele>1053.26</ele>
        <time>2011-04-29T14:43:16Z</time>
      </trkpt>
      <trkpt lat="43.60229" lon="2.98699">
        <ele>1052.78</ele>
        <time>2011-04-29T14:43:23Z</time>
      </trkpt>
      <trkpt lat="43.60227" lon="2.98682">
        <ele>1049.9</ele>
        <time>2011-04-29T14:43:38Z</time>
      </trkpt>
      <trkpt lat="43.60226" lon="2.98676">
        <ele>1048.94</ele>
        <time>2011-04-29T14:43:42Z</time>
      </trkpt>
      <trkpt lat="43.60225" lon="2.9867">
        <ele>1048.94</ele>
        <time>2011-04-29T14:43:46Z</time>
      </trkpt>
      <trkpt lat="43.60224" lon="2.98664">
        <ele>1047.97</ele>
        <time>2011-04-29T14:43:50Z</time>
      </trkpt>
      <trkpt lat="43.60225" lon="2.98638">
        <ele>1046.05</ele>
        <time>2011-04-29T14:44:06Z</time>
      </trkpt>
      <trkpt lat="43.60224" lon="2.98612">
        <ele>1044.13</ele>
        <time>2011-04-29T14:44:23Z</time>
      </trkpt>
      <trkpt lat="43.60227" lon="2.98592">
        <ele>1044.61</ele>
        <time>2011-04-29T14:44:37Z</time>
      </trkpt>
      <trkpt lat="43.60226" lon="2.98567">
        <ele>1044.13</ele>
        <time>2011-04-29T14:44:52Z</time>
      </trkpt>
      <trkpt lat="43.60229" lon="2.98551">
        <ele>1043.65</ele>
        <time>2011-04-29T14:45:02Z</time>
      </trkpt>
      <trkpt lat="43.60229" lon="2.98543">
        <ele>1044.61</ele>
        <time>2011-04-29T14:45:07Z</time>
      </trkpt>
      <trkpt lat="43.60227" lon="2.98536">
        <ele>1043.17</ele>
        <time>2011-04-29T14:45:12Z</time>
      </trkpt>
      <trkpt lat="43.60222" lon="2.9851">
        <ele>1042.21</ele>
        <time>2011-04-29T14:45:29Z</time>
      </trkpt>
      <trkpt lat="43.60221" lon="2.98503">
        <ele>1042.21</ele>
        <time>2011-04-29T14:45:33Z</time>
      </trkpt>
      <trkpt lat="43.60221" lon="2.98477">
        <ele>1041.25</ele>
        <time>2011-04-29T14:45:49Z</time>
      </trkpt>
      <trkpt lat="43.60218" lon="2.9845">
        <ele>1040.28</ele>
        <time>2011-04-29T14:46:06Z</time>
      </trkpt>
      <trkpt lat="43.60212" lon="2.9843">
        <ele>1038.84</ele>
        <time>2011-04-29T14:46:20Z</time>
      </trkpt>
      <trkpt lat="43.602" lon="2.98421">
        <ele>1038.36</ele>
        <time>2011-04-29T14:46:31Z</time>
      </trkpt>
      <trkpt lat="43.60193" lon="2.9842">
        <ele>1038.84</ele>
        <time>2011-04-29T14:46:37Z</time>
      </trkpt>
      <trkpt lat="43.60189" lon="2.98412">
        <ele>1037.4</ele>
        <time>2011-04-29T14:46:44Z</time>
      </trkpt>
      <trkpt lat="43.60188" lon="2.98405">
        <ele>1037.88</ele>
        <time>2011-04-29T14:47:01Z</time>
      </trkpt>
      <trkpt lat="43.60185" lon="2.98402">
        <ele>1037.4</ele>
        <time>2011-04-29T14:47:05Z</time>
      </trkpt>
      <trkpt lat="43.60177" lon="2.98396">
        <ele>1037.88</ele>
        <time>2011-04-29T14:47:12Z</time>
      </trkpt>
      <trkpt lat="43.60174" lon="2.98392">
        <ele>1037.88</ele>
        <time>2011-04-29T14:47:29Z</time>
      </trkpt>
      <trkpt lat="43.60171" lon="2.98387">
        <ele>1037.4</ele>
        <time>2011-04-29T14:47:46Z</time>
      </trkpt>
      <trkpt lat="43.60166" lon="2.98362">
        <ele>1036.92</ele>
        <time>2011-04-29T14:48:03Z</time>
      </trkpt>
      <trkpt lat="43.60158" lon="2.9834">
        <ele>1036.92</ele>
        <time>2011-04-29T14:48:19Z</time>
      </trkpt>
      <trkpt lat="43.60155" lon="2.98334">
        <ele>1037.4</ele>
        <time>2011-04-29T14:48:27Z</time>
      </trkpt>
      <trkpt lat="43.60149" lon="2.98326">
        <ele>1038.36</ele>
        <time>2011-04-29T14:48:43Z</time>
      </trkpt>
      <trkpt lat="43.60146" lon="2.98322">
        <ele>1037.88</ele>
        <time>2011-04-29T14:48:52Z</time>
      </trkpt>
      <trkpt lat="43.60134" lon="2.98307">
        <ele>1038.84</ele>
        <time>2011-04-29T14:49:10Z</time>
      </trkpt>
      <trkpt lat="43.60131" lon="2.98297">
        <ele>1042.21</ele>
        <time>2011-04-29T14:49:21Z</time>
      </trkpt>
      <trkpt lat="43.60126" lon="2.98293">
        <ele>1039.32</ele>
        <time>2011-04-29T14:49:27Z</time>
      </trkpt>
      <trkpt lat="43.60117" lon="2.98283">
        <ele>1039.32</ele>
        <time>2011-04-29T14:49:41Z</time>
      </trkpt>
      <trkpt lat="43.6011" lon="2.98275">
        <ele>1039.8</ele>
        <time>2011-04-29T14:49:56Z</time>
      </trkpt>
      <trkpt lat="43.60107" lon="2.98272">
        <ele>1040.76</ele>
        <time>2011-04-29T14:49:59Z</time>
      </trkpt>
      <trkpt lat="43.60094" lon="2.98259">
        <ele>1042.21</ele>
        <time>2011-04-29T14:50:14Z</time>
      </trkpt>
      <trkpt lat="43.60084" lon="2.98244">
        <ele>1043.17</ele>
        <time>2011-04-29T14:50:28Z</time>
      </trkpt>
      <trkpt lat="43.60073" lon="2.98228">
        <ele>1045.09</ele>
        <time>2011-04-29T14:50:45Z</time>
      </trkpt>
      <trkpt lat="43.60063" lon="2.98214">
        <ele>1047.01</ele>
        <time>2011-04-29T14:51:00Z</time>
      </trkpt>
      <trkpt lat="43.60062" lon="2.98211">
        <ele>1047.49</ele>
        <time>2011-04-29T14:51:02Z</time>
      </trkpt>
      <trkpt lat="43.60054" lon="2.98201">
        <ele>1048.94</ele>
        <time>2011-04-29T14:51:14Z</time>
      </trkpt>
      <trkpt lat="43.60046" lon="2.98185">
        <ele>1050.38</ele>
        <time>2011-04-29T14:51:29Z</time>
      </trkpt>
      <trkpt lat="43.60033" lon="2.98169">
        <ele>1051.82</ele>
        <time>2011-04-29T14:51:46Z</time>
      </trkpt>
      <trkpt lat="43.60032" lon="2.98168">
        <ele>1052.3</ele>
        <time>2011-04-29T14:51:47Z</time>
      </trkpt>
      <trkpt lat="43.6003" lon="2.98165">
        <ele>1052.78</ele>
        <time>2011-04-29T14:51:50Z</time>
      </trkpt>
      <trkpt lat="43.60025" lon="2.98158">
        <ele>1052.78</ele>
        <time>2011-04-29T14:51:56Z</time>
      </trkpt>
      <trkpt lat="43.60023" lon="2.98156">
        <ele>1050.38</ele>
        <time>2011-04-29T14:51:59Z</time>
      </trkpt>
      <trkpt lat="43.60021" lon="2.98154">
        <ele>1053.74</ele>
        <time>2011-04-29T14:52:01Z</time>
      </trkpt>
      <trkpt lat="43.6002" lon="2.98154">
        <ele>1053.26</ele>
        <time>2011-04-29T14:52:02Z</time>
      </trkpt>
      <trkpt lat="43.60008" lon="2.98138">
        <ele>1053.74</ele>
        <time>2011-04-29T14:52:17Z</time>
      </trkpt>
      <trkpt lat="43.59998" lon="2.98124">
        <ele>1054.7</ele>
        <time>2011-04-29T14:52:32Z</time>
      </trkpt>
      <trkpt lat="43.59995" lon="2.98119">
        <ele>1055.18</ele>
        <time>2011-04-29T14:52:37Z</time>
      </trkpt>
      <trkpt lat="43.59987" lon="2.98108">
        <ele>1055.18</ele>
        <time>2011-04-29T14:52:47Z</time>
      </trkpt>
      <trkpt lat="43.59986" lon="2.98101">
        <ele>1055.18</ele>
        <time>2011-04-29T14:52:52Z</time>
      </trkpt>
      <trkpt lat="43.59984" lon="2.98099">
        <ele>1057.11</ele>
        <time>2011-04-29T14:52:55Z</time>
      </trkpt>
      <trkpt lat="43.59982" lon="2.98097">
        <ele>1056.15</ele>
        <time>2011-04-29T14:52:57Z</time>
      </trkpt>
      <trkpt lat="43.59968" lon="2.98083">
        <ele>1055.67</ele>
        <time>2011-04-29T14:53:12Z</time>
      </trkpt>
      <trkpt lat="43.59956" lon="2.98066">
        <ele>1055.67</ele>
        <time>2011-04-29T14:53:28Z</time>
      </trkpt>
      <trkpt lat="43.59955" lon="2.98065">
        <ele>1055.67</ele>
        <time>2011-04-29T14:53:30Z</time>
      </trkpt>
      <trkpt lat="43.59952" lon="2.98061">
        <ele>1055.67</ele>
        <time>2011-04-29T14:53:35Z</time>
      </trkpt>
      <trkpt lat="43.59935" lon="2.9805">
        <ele>1053.74</ele>
        <time>2011-04-29T14:53:50Z</time>
      </trkpt>
      <trkpt lat="43.59925" lon="2.9803">
        <ele>1053.74</ele>
        <time>2011-04-29T14:54:07Z</time>
      </trkpt>
      <trkpt lat="43.59914" lon="2.98011">
        <ele>1054.7</ele>
        <time>2011-04-29T14:54:22Z</time>
      </trkpt>
      <trkpt lat="43.5991" lon="2.98006">
        <ele>1046.53</ele>
        <time>2011-04-29T14:54:28Z</time>
      </trkpt>
      <trkpt lat="43.5991" lon="2.98005">
        <ele>1054.22</ele>
        <time>2011-04-29T14:54:29Z</time>
      </trkpt>
      <trkpt lat="43.59896" lon="2.97994">
        <ele>1053.74</ele>
        <time>2011-04-29T14:54:44Z</time>
      </trkpt>
      <trkpt lat="43.59889" lon="2.97979">
        <ele>1053.74</ele>
        <time>2011-04-29T14:54:59Z</time>
      </trkpt>
      <trkpt lat="43.59888" lon="2.97977">
        <ele>1054.7</ele>
        <time>2011-04-29T14:55:01Z</time>
      </trkpt>
      <trkpt lat="43.59885" lon="2.97967">
        <ele>1054.7</ele>
        <time>2011-04-29T14:55:09Z</time>
      </trkpt>
      <trkpt lat="43.59881" lon="2.97962">
        <ele>1055.67</ele>
        <time>2011-04-29T14:55:14Z</time>
      </trkpt>
      <trkpt lat="43.59873" lon="2.97942">
        <ele>1056.15</ele>
        <time>2011-04-29T14:55:29Z</time>
      </trkpt>
      <trkpt lat="43.59862" lon="2.97929">
        <ele>1057.59</ele>
        <time>2011-04-29T14:55:43Z</time>
      </trkpt>
      <trkpt lat="43.59857" lon="2.97921">
        <ele>1058.07</ele>
        <time>2011-04-29T14:55:53Z</time>
      </trkpt>
      <trkpt lat="43.59855" lon="2.97912">
        <ele>1059.03</ele>
        <time>2011-04-29T14:56:00Z</time>
      </trkpt>
      <trkpt lat="43.59849" lon="2.979">
        <ele>1059.51</ele>
        <time>2011-04-29T14:56:09Z</time>
      </trkpt>
      <trkpt lat="43.59835" lon="2.97878">
        <ele>1061.43</ele>
        <time>2011-04-29T14:56:28Z</time>
      </trkpt>
      <trkpt lat="43.59823" lon="2.97859">
        <ele>1061.91</ele>
        <time>2011-04-29T14:56:44Z</time>
      </trkpt>
      <trkpt lat="43.59814" lon="2.97844">
        <ele>1063.36</ele>
        <time>2011-04-29T14:56:59Z</time>
      </trkpt>
      <trkpt lat="43.598" lon="2.97836">
        <ele>1063.84</ele>
        <time>2011-04-29T14:57:14Z</time>
      </trkpt>
      <trkpt lat="43.59787" lon="2.97835">
        <ele>1064.32</ele>
        <time>2011-04-29T14:57:31Z</time>
      </trkpt>
      <trkpt lat="43.59776" lon="2.97836">
        <ele>1056.15</ele>
        <time>2011-04-29T14:57:39Z</time>
      </trkpt>
      <trkpt lat="43.59774" lon="2.97836">
        <ele>1064.32</ele>
        <time>2011-04-29T14:57:40Z</time>
      </trkpt>
      <trkpt lat="43.5977" lon="2.97835">
        <ele>1068.16</ele>
        <time>2011-04-29T14:57:43Z</time>
      </trkpt>
      <trkpt lat="43.59767" lon="2.97835">
        <ele>1064.32</ele>
        <time>2011-04-29T14:57:45Z</time>
      </trkpt>
      <trkpt lat="43.59756" lon="2.97837">
        <ele>1064.32</ele>
        <time>2011-04-29T14:57:53Z</time>
      </trkpt>
      <trkpt lat="43.59744" lon="2.97837">
        <ele>1063.84</ele>
        <time>2011-04-29T14:58:03Z</time>
      </trkpt>
      <trkpt lat="43.59726" lon="2.9784">
        <ele>1062.39</ele>
        <time>2011-04-29T14:58:22Z</time>
      </trkpt>
      <trkpt lat="43.59725" lon="2.9784">
        <ele>1062.87</ele>
        <time>2011-04-29T14:58:23Z</time>
      </trkpt>
      <trkpt lat="43.59708" lon="2.97833">
        <ele>1062.39</ele>
        <time>2011-04-29T14:58:39Z</time>
      </trkpt>
      <trkpt lat="43.59691" lon="2.97819">
        <ele>1062.87</ele>
        <time>2011-04-29T14:58:56Z</time>
      </trkpt>
      <trkpt lat="43.59684" lon="2.97809">
        <ele>1062.87</ele>
        <time>2011-04-29T14:59:06Z</time>
      </trkpt>
      <trkpt lat="43.59676" lon="2.97806">
        <ele>1062.39</ele>
        <time>2011-04-29T14:59:15Z</time>
      </trkpt>
      <trkpt lat="43.5967" lon="2.97801">
        <ele>1061.91</ele>
        <time>2011-04-29T14:59:20Z</time>
      </trkpt>
      <trkpt lat="43.59661" lon="2.9779">
        <ele>1063.36</ele>
        <time>2011-04-29T14:59:39Z</time>
      </trkpt>
      <trkpt lat="43.5965" lon="2.97777">
        <ele>1062.39</ele>
        <time>2011-04-29T14:59:58Z</time>
      </trkpt>
      <trkpt lat="43.59649" lon="2.97773">
        <ele>1062.39</ele>
        <time>2011-04-29T15:00:00Z</time>
      </trkpt>
      <trkpt lat="43.59638" lon="2.97765">
        <ele>1061.91</ele>
        <time>2011-04-29T15:00:08Z</time>
      </trkpt>
      <trkpt lat="43.59626" lon="2.97756">
        <ele>1061.43</ele>
        <time>2011-04-29T15:00:19Z</time>
      </trkpt>
      <trkpt lat="43.59613" lon="2.97743">
        <ele>1061.43</ele>
        <time>2011-04-29T15:00:32Z</time>
      </trkpt>
      <trkpt lat="43.59609" lon="2.97738">
        <ele>1061.43</ele>
        <time>2011-04-29T15:00:37Z</time>
      </trkpt>
      <trkpt lat="43.59592" lon="2.97723">
        <ele>1062.39</ele>
        <time>2011-04-29T15:00:54Z</time>
      </trkpt>
      <trkpt lat="43.59591" lon="2.97723">
        <ele>1061.91</ele>
        <time>2011-04-29T15:00:55Z</time>
      </trkpt>
      <trkpt lat="43.59584" lon="2.97722">
        <ele>1071.05</ele>
        <time>2011-04-29T15:01:05Z</time>
      </trkpt>
      <trkpt lat="43.59584" lon="2.97722">
        <ele>1066.72</ele>
        <time>2011-04-29T15:01:06Z</time>
      </trkpt>
      <trkpt lat="43.59584" lon="2.97722">
        <ele>1062.87</ele>
        <time>2011-04-29T15:01:07Z</time>
      </trkpt>
      <trkpt lat="43.59584" lon="2.97722">
        <ele>1062.39</ele>
        <time>2011-04-29T15:01:08Z</time>
      </trkpt>
      <trkpt lat="43.59584" lon="2.97722">
        <ele>1053.26</ele>
        <time>2011-04-29T15:01:12Z</time>
      </trkpt>
      <trkpt lat="43.59584" lon="2.97722">
        <ele>1064.8</ele>
        <time>2011-04-29T15:01:13Z</time>
      </trkpt>
      <trkpt lat="43.59584" lon="2.97722">
        <ele>1068.16</ele>
        <time>2011-04-29T15:01:15Z</time>
      </trkpt>
      <trkpt lat="43.59584" lon="2.97722">
        <ele>1063.36</ele>
        <time>2011-04-29T15:01:16Z</time>
      </trkpt>
      <trkpt lat="43.59584" lon="2.97722">
        <ele>1061.91</ele>
        <time>2011-04-29T15:01:18Z</time>
      </trkpt>
      <trkpt lat="43.59583" lon="2.97713">
        <ele>1061.91</ele>
        <time>2011-04-29T15:01:33Z</time>
      </trkpt>
      <trkpt lat="43.59583" lon="2.97713">
        <ele>1058.07</ele>
        <time>2011-04-29T15:01:45Z</time>
      </trkpt>
      <trkpt lat="43.59583" lon="2.97713">
        <ele>1062.87</ele>
        <time>2011-04-29T15:01:46Z</time>
      </trkpt>
      <trkpt lat="43.59583" lon="2.97713">
        <ele>1068.16</ele>
        <time>2011-04-29T15:01:47Z</time>
      </trkpt>
      <trkpt lat="43.59583" lon="2.97713">
        <ele>1063.36</ele>
        <time>2011-04-29T15:01:48Z</time>
      </trkpt>
      <trkpt lat="43.59583" lon="2.97713">
        <ele>1061.91</ele>
        <time>2011-04-29T15:01:50Z</time>
      </trkpt>
      <trkpt lat="43.59583" lon="2.97713">
        <ele>1057.11</ele>
        <time>2011-04-29T15:01:53Z</time>
      </trkpt>
      <trkpt lat="43.59583" lon="2.97714">
        <ele>1061.91</ele>
        <time>2011-04-29T15:01:54Z</time>
      </trkpt>
      <trkpt lat="43.59586" lon="2.97719">
        <ele>1061.91</ele>
        <time>2011-04-29T15:02:10Z</time>
      </trkpt>
      <trkpt lat="43.59582" lon="2.97713">
        <ele>1062.39</ele>
        <time>2011-04-29T15:02:34Z</time>
      </trkpt>
      <trkpt lat="43.59581" lon="2.97722">
        <ele>1061.91</ele>
        <time>2011-04-29T15:02:54Z</time>
      </trkpt>
      <trkpt lat="43.59578" lon="2.97727">
        <ele>1068.64</ele>
        <time>2011-04-29T15:02:59Z</time>
      </trkpt>
      <trkpt lat="43.59578" lon="2.97727">
        <ele>1066.72</ele>
        <time>2011-04-29T15:03:00Z</time>
      </trkpt>
      <trkpt lat="43.59577" lon="2.97727">
        <ele>1063.36</ele>
        <time>2011-04-29T15:03:01Z</time>
      </trkpt>
      <trkpt lat="43.59575" lon="2.97727">
        <ele>1061.91</ele>
        <time>2011-04-29T15:03:03Z</time>
      </trkpt>
      <trkpt lat="43.59575" lon="2.97729">
        <ele>1054.22</ele>
        <time>2011-04-29T15:03:12Z</time>
      </trkpt>
      <trkpt lat="43.59575" lon="2.97729">
        <ele>1057.11</ele>
        <time>2011-04-29T15:03:13Z</time>
      </trkpt>
      <trkpt lat="43.59575" lon="2.97729">
        <ele>1065.76</ele>
        <time>2011-04-29T15:03:14Z</time>
      </trkpt>
      <trkpt lat="43.59575" lon="2.97729">
        <ele>1062.39</ele>
        <time>2011-04-29T15:03:15Z</time>
      </trkpt>
      <trkpt lat="43.59573" lon="2.97729">
        <ele>1066.24</ele>
        <time>2011-04-29T15:03:21Z</time>
      </trkpt>
      <trkpt lat="43.59571" lon="2.97728">
        <ele>1061.43</ele>
        <time>2011-04-29T15:03:24Z</time>
      </trkpt>
      <trkpt lat="43.5957" lon="2.97728">
        <ele>1061.43</ele>
        <time>2011-04-29T15:03:25Z</time>
      </trkpt>
      <trkpt lat="43.5957" lon="2.97728">
        <ele>1048.45</ele>
        <time>2011-04-29T15:03:27Z</time>
      </trkpt>
      <trkpt lat="43.5957" lon="2.97728">
        <ele>1069.6</ele>
        <time>2011-04-29T15:03:28Z</time>
      </trkpt>
      <trkpt lat="43.5957" lon="2.97728">
        <ele>1065.76</ele>
        <time>2011-04-29T15:03:29Z</time>
      </trkpt>
      <trkpt lat="43.5957" lon="2.97728">
        <ele>1062.39</ele>
        <time>2011-04-29T15:03:30Z</time>
      </trkpt>
      <trkpt lat="43.59578" lon="2.97727">
        <ele>1061.91</ele>
        <time>2011-04-29T15:03:44Z</time>
      </trkpt>
      <trkpt lat="43.59586" lon="2.97723">
        <ele>1062.39</ele>
        <time>2011-04-29T15:03:55Z</time>
      </trkpt>
      <trkpt lat="43.59587" lon="2.97722">
        <ele>1062.39</ele>
        <time>2011-04-29T15:03:56Z</time>
      </trkpt>
      <trkpt lat="43.59596" lon="2.9771">
        <ele>1062.87</ele>
        <time>2011-04-29T15:04:10Z</time>
      </trkpt>
      <trkpt lat="43.59597" lon="2.97709">
        <ele>1062.87</ele>
        <time>2011-04-29T15:04:12Z</time>
      </trkpt>
      <trkpt lat="43.59601" lon="2.97707">
        <ele>1070.57</ele>
        <time>2011-04-29T15:04:23Z</time>
      </trkpt>
      <trkpt lat="43.59601" lon="2.97707">
        <ele>1064.32</ele>
        <time>2011-04-29T15:04:24Z</time>
      </trkpt>
      <trkpt lat="43.59601" lon="2.97707">
        <ele>1062.87</ele>
        <time>2011-04-29T15:04:26Z</time>
      </trkpt>
      <trkpt lat="43.59607" lon="2.97704">
        <ele>1053.74</ele>
        <time>2011-04-29T15:04:35Z</time>
      </trkpt>
      <trkpt lat="43.59608" lon="2.97704">
        <ele>1063.84</ele>
        <time>2011-04-29T15:04:36Z</time>
      </trkpt>
      <trkpt lat="43.5961" lon="2.97703">
        <ele>1071.05</ele>
        <time>2011-04-29T15:04:37Z</time>
      </trkpt>
      <trkpt lat="43.59611" lon="2.97702">
        <ele>1064.32</ele>
        <time>2011-04-29T15:04:38Z</time>
      </trkpt>
      <trkpt lat="43.59612" lon="2.97701">
        <ele>1062.87</ele>
        <time>2011-04-29T15:04:40Z</time>
      </trkpt>
      <trkpt lat="43.59615" lon="2.97699">
        <ele>1055.18</ele>
        <time>2011-04-29T15:04:43Z</time>
      </trkpt>
      <trkpt lat="43.59616" lon="2.97698">
        <ele>1067.68</ele>
        <time>2011-04-29T15:04:44Z</time>
      </trkpt>
      <trkpt lat="43.59617" lon="2.97698">
        <ele>1064.32</ele>
        <time>2011-04-29T15:04:45Z</time>
      </trkpt>
      <trkpt lat="43.59616" lon="2.97697">
        <ele>1063.36</ele>
        <time>2011-04-29T15:04:47Z</time>
      </trkpt>
      <trkpt lat="43.59627" lon="2.9769">
        <ele>1063.36</ele>
        <time>2011-04-29T15:05:02Z</time>
      </trkpt>
      <trkpt lat="43.59634" lon="2.97686">
        <ele>1044.61</ele>
        <time>2011-04-29T15:05:07Z</time>
      </trkpt>
      <trkpt lat="43.59635" lon="2.97685">
        <ele>1065.28</ele>
        <time>2011-04-29T15:05:08Z</time>
      </trkpt>
      <trkpt lat="43.59638" lon="2.97681">
        <ele>1043.17</ele>
        <time>2011-04-29T15:05:13Z</time>
      </trkpt>
      <trkpt lat="43.59638" lon="2.97681">
        <ele>1066.24</ele>
        <time>2011-04-29T15:05:14Z</time>
      </trkpt>
      <trkpt lat="43.59638" lon="2.97681">
        <ele>1050.86</ele>
        <time>2011-04-29T15:05:15Z</time>
      </trkpt>
      <trkpt lat="43.59638" lon="2.97681">
        <ele>1070.08</ele>
        <time>2011-04-29T15:05:16Z</time>
      </trkpt>
      <trkpt lat="43.59638" lon="2.97681">
        <ele>1066.24</ele>
        <time>2011-04-29T15:05:17Z</time>
      </trkpt>
      <trkpt lat="43.59638" lon="2.97681">
        <ele>1070.08</ele>
        <time>2011-04-29T15:05:18Z</time>
      </trkpt>
      <trkpt lat="43.59638" lon="2.97681">
        <ele>1066.24</ele>
        <time>2011-04-29T15:05:19Z</time>
      </trkpt>
      <trkpt lat="43.59638" lon="2.97681">
        <ele>1060.47</ele>
        <time>2011-04-29T15:05:25Z</time>
      </trkpt>
      <trkpt lat="43.59638" lon="2.97681">
        <ele>1065.76</ele>
        <time>2011-04-29T15:05:26Z</time>
      </trkpt>
      <trkpt lat="43.59638" lon="2.97681">
        <ele>1036.44</ele>
        <time>2011-04-29T15:05:37Z</time>
      </trkpt>
      <trkpt lat="43.59638" lon="2.97681">
        <ele>1065.76</ele>
        <time>2011-04-29T15:05:38Z</time>
      </trkpt>
      <trkpt lat="43.59638" lon="2.97681">
        <ele>1059.51</ele>
        <time>2011-04-29T15:05:42Z</time>
      </trkpt>
      <trkpt lat="43.59638" lon="2.97681">
        <ele>1064.32</ele>
        <time>2011-04-29T15:05:43Z</time>
      </trkpt>
      <trkpt lat="43.59638" lon="2.97681">
        <ele>1058.07</ele>
        <time>2011-04-29T15:05:45Z</time>
      </trkpt>
      <trkpt lat="43.59638" lon="2.97681">
        <ele>1064.8</ele>
        <time>2011-04-29T15:05:46Z</time>
      </trkpt>
      <trkpt lat="43.59638" lon="2.97681">
        <ele>1068.16</ele>
        <time>2011-04-29T15:05:51Z</time>
      </trkpt>
      <trkpt lat="43.59639" lon="2.97681">
        <ele>1064.32</ele>
        <time>2011-04-29T15:05:53Z</time>
      </trkpt>
      <trkpt lat="43.59639" lon="2.97681">
        <ele>1064.32</ele>
        <time>2011-04-29T15:05:54Z</time>
      </trkpt>
      <trkpt lat="43.59639" lon="2.97681">
        <ele>1059.51</ele>
        <time>2011-04-29T15:06:13Z</time>
      </trkpt>
      <trkpt lat="43.59639" lon="2.97681">
        <ele>1065.28</ele>
        <time>2011-04-29T15:06:14Z</time>
      </trkpt>
      <trkpt lat="43.59639" lon="2.97681">
        <ele>1060.95</ele>
        <time>2011-04-29T15:06:17Z</time>
      </trkpt>
      <trkpt lat="43.59639" lon="2.97681">
        <ele>1064.32</ele>
        <time>2011-04-29T15:06:18Z</time>
      </trkpt>
      <trkpt lat="43.59639" lon="2.97681">
        <ele>1057.11</ele>
        <time>2011-04-29T15:06:24Z</time>
      </trkpt>
      <trkpt lat="43.59639" lon="2.97681">
        <ele>1065.76</ele>
        <time>2011-04-29T15:06:25Z</time>
      </trkpt>
      <trkpt lat="43.59639" lon="2.97681">
        <ele>1056.15</ele>
        <time>2011-04-29T15:06:28Z</time>
      </trkpt>
      <trkpt lat="43.59639" lon="2.97681">
        <ele>1064.32</ele>
        <time>2011-04-29T15:06:29Z</time>
      </trkpt>
      <trkpt lat="43.59638" lon="2.97681">
        <ele>1047.97</ele>
        <time>2011-04-29T15:06:39Z</time>
      </trkpt>
      <trkpt lat="43.59638" lon="2.97681">
        <ele>1070.57</ele>
        <time>2011-04-29T15:06:40Z</time>
      </trkpt>
      <trkpt lat="43.59638" lon="2.97681">
        <ele>1065.28</ele>
        <time>2011-04-29T15:06:41Z</time>
      </trkpt>
      <trkpt lat="43.59638" lon="2.97682">
        <ele>1057.11</ele>
        <time>2011-04-29T15:06:51Z</time>
      </trkpt>
      <trkpt lat="43.59638" lon="2.97682">
        <ele>1072.49</ele>
        <time>2011-04-29T15:06:52Z</time>
      </trkpt>
      <trkpt lat="43.59638" lon="2.97682">
        <ele>1040.28</ele>
        <time>2011-04-29T15:06:53Z</time>
      </trkpt>
      <trkpt lat="43.59638" lon="2.97682">
        <ele>1044.61</ele>
        <time>2011-04-29T15:06:54Z</time>
      </trkpt>
      <trkpt lat="43.59638" lon="2.97682">
        <ele>1068.64</ele>
        <time>2011-04-29T15:06:55Z</time>
      </trkpt>
      <trkpt lat="43.59638" lon="2.97682">
        <ele>1066.24</ele>
        <time>2011-04-29T15:06:56Z</time>
      </trkpt>
      <trkpt lat="43.59638" lon="2.97682">
        <ele>1055.18</ele>
        <time>2011-04-29T15:06:57Z</time>
      </trkpt>
      <trkpt lat="43.59638" lon="2.97682">
        <ele>1067.68</ele>
        <time>2011-04-29T15:06:58Z</time>
      </trkpt>
      <trkpt lat="43.59637" lon="2.97681">
        <ele>1041.73</ele>
        <time>2011-04-29T15:06:59Z</time>
      </trkpt>
      <trkpt lat="43.59638" lon="2.97681">
        <ele>1066.72</ele>
        <time>2011-04-29T15:07:00Z</time>
      </trkpt>
      <trkpt lat="43.5964" lon="2.9768">
        <ele>1064.8</ele>
        <time>2011-04-29T15:07:03Z</time>
      </trkpt>
      <trkpt lat="43.59641" lon="2.97679">
        <ele>1068.16</ele>
        <time>2011-04-29T15:07:04Z</time>
      </trkpt>
      <trkpt lat="43.59642" lon="2.97678">
        <ele>1066.24</ele>
        <time>2011-04-29T15:07:05Z</time>
      </trkpt>
      <trkpt lat="43.59644" lon="2.97677">
        <ele>1065.28</ele>
        <time>2011-04-29T15:07:07Z</time>
      </trkpt>
      <trkpt lat="43.59658" lon="2.97672">
        <ele>1065.28</ele>
        <time>2011-04-29T15:07:20Z</time>
      </trkpt>
      <trkpt lat="43.59661" lon="2.97669">
        <ele>1042.69</ele>
        <time>2011-04-29T15:07:23Z</time>
      </trkpt>
      <trkpt lat="43.59661" lon="2.97668">
        <ele>1065.76</ele>
        <time>2011-04-29T15:07:24Z</time>
      </trkpt>
      <trkpt lat="43.59671" lon="2.97658">
        <ele>1056.15</ele>
        <time>2011-04-29T15:07:37Z</time>
      </trkpt>
      <trkpt lat="43.59672" lon="2.97658">
        <ele>1071.53</ele>
        <time>2011-04-29T15:07:38Z</time>
      </trkpt>
      <trkpt lat="43.59673" lon="2.97657">
        <ele>1066.72</ele>
        <time>2011-04-29T15:07:39Z</time>
      </trkpt>
      <trkpt lat="43.59675" lon="2.97656">
        <ele>1066.24</ele>
        <time>2011-04-29T15:07:41Z</time>
      </trkpt>
      <trkpt lat="43.59688" lon="2.97646">
        <ele>1044.61</ele>
        <time>2011-04-29T15:07:55Z</time>
      </trkpt>
      <trkpt lat="43.59689" lon="2.97645">
        <ele>1076.33</ele>
        <time>2011-04-29T15:07:56Z</time>
      </trkpt>
      <trkpt lat="43.59691" lon="2.97644">
        <ele>1068.64</ele>
        <time>2011-04-29T15:07:57Z</time>
      </trkpt>
      <trkpt lat="43.59692" lon="2.97644">
        <ele>1065.28</ele>
        <time>2011-04-29T15:07:58Z</time>
      </trkpt>
      <trkpt lat="43.59692" lon="2.97643">
        <ele>1064.32</ele>
        <time>2011-04-29T15:07:59Z</time>
      </trkpt>
      <trkpt lat="43.59694" lon="2.97642">
        <ele>1068.16</ele>
        <time>2011-04-29T15:08:01Z</time>
      </trkpt>
      <trkpt lat="43.59697" lon="2.9764">
        <ele>1064.8</ele>
        <time>2011-04-29T15:08:03Z</time>
      </trkpt>
      <trkpt lat="43.597" lon="2.97637">
        <ele>1066.72</ele>
        <time>2011-04-29T15:08:07Z</time>
      </trkpt>
      <trkpt lat="43.59701" lon="2.97636">
        <ele>1076.33</ele>
        <time>2011-04-29T15:08:08Z</time>
      </trkpt>
      <trkpt lat="43.59702" lon="2.97636">
        <ele>1068.16</ele>
        <time>2011-04-29T15:08:09Z</time>
      </trkpt>
      <trkpt lat="43.59703" lon="2.97635">
        <ele>1065.28</ele>
        <time>2011-04-29T15:08:10Z</time>
      </trkpt>
      <trkpt lat="43.59705" lon="2.97633">
        <ele>1071.05</ele>
        <time>2011-04-29T15:08:12Z</time>
      </trkpt>
      <trkpt lat="43.59706" lon="2.97632">
        <ele>1066.24</ele>
        <time>2011-04-29T15:08:13Z</time>
      </trkpt>
      <trkpt lat="43.59708" lon="2.9763">
        <ele>1064.8</ele>
        <time>2011-04-29T15:08:15Z</time>
      </trkpt>
      <trkpt lat="43.59711" lon="2.97628">
        <ele>1074.89</ele>
        <time>2011-04-29T15:08:18Z</time>
      </trkpt>
      <trkpt lat="43.59711" lon="2.97627">
        <ele>1068.16</ele>
        <time>2011-04-29T15:08:19Z</time>
      </trkpt>
      <trkpt lat="43.59713" lon="2.97626">
        <ele>1073.93</ele>
        <time>2011-04-29T15:08:21Z</time>
      </trkpt>
      <trkpt lat="43.59714" lon="2.97625">
        <ele>1066.72</ele>
        <time>2011-04-29T15:08:22Z</time>
      </trkpt>
      <trkpt lat="43.59716" lon="2.97624">
        <ele>1062.87</ele>
        <time>2011-04-29T15:08:24Z</time>
      </trkpt>
      <trkpt lat="43.5972" lon="2.9762">
        <ele>1063.36</ele>
        <time>2011-04-29T15:08:38Z</time>
      </trkpt>
      <trkpt lat="43.59719" lon="2.9762">
        <ele>1063.36</ele>
        <time>2011-04-29T15:09:33Z</time>
      </trkpt>
      <trkpt lat="43.59719" lon="2.9762">
        <ele>1059.99</ele>
        <time>2011-04-29T15:09:52Z</time>
      </trkpt>
      <trkpt lat="43.59719" lon="2.9762">
        <ele>1063.84</ele>
        <time>2011-04-29T15:09:53Z</time>
      </trkpt>
      <trkpt lat="43.59722" lon="2.9762">
        <ele>1057.59</ele>
        <time>2011-04-29T15:10:05Z</time>
      </trkpt>
      <trkpt lat="43.59723" lon="2.9762">
        <ele>1063.36</ele>
        <time>2011-04-29T15:10:06Z</time>
      </trkpt>
      <trkpt lat="43.59726" lon="2.97619">
        <ele>1063.36</ele>
        <time>2011-04-29T15:10:08Z</time>
      </trkpt>
      <trkpt lat="43.59741" lon="2.97611">
        <ele>1047.01</ele>
        <time>2011-04-29T15:10:20Z</time>
      </trkpt>
      <trkpt lat="43.59742" lon="2.9761">
        <ele>1061.43</ele>
        <time>2011-04-29T15:10:21Z</time>
      </trkpt>
      <trkpt lat="43.59744" lon="2.97608">
        <ele>1062.87</ele>
        <time>2011-04-29T15:10:23Z</time>
      </trkpt>
      <trkpt lat="43.59759" lon="2.97599">
        <ele>1063.36</ele>
        <time>2011-04-29T15:10:38Z</time>
      </trkpt>
      <trkpt lat="43.59768" lon="2.97592">
        <ele>1066.72</ele>
        <time>2011-04-29T15:10:47Z</time>
      </trkpt>
      <trkpt lat="43.5977" lon="2.97591">
        <ele>1063.84</ele>
        <time>2011-04-29T15:10:49Z</time>
      </trkpt>
      <trkpt lat="43.59771" lon="2.9759">
        <ele>1063.84</ele>
        <time>2011-04-29T15:10:50Z</time>
      </trkpt>
      <trkpt lat="43.59778" lon="2.97585">
        <ele>1072.97</ele>
        <time>2011-04-29T15:11:01Z</time>
      </trkpt>
      <trkpt lat="43.59779" lon="2.97584">
        <ele>1064.32</ele>
        <time>2011-04-29T15:11:02Z</time>
      </trkpt>
      <trkpt lat="43.59785" lon="2.97579">
        <ele>1061.91</ele>
        <time>2011-04-29T15:11:10Z</time>
      </trkpt>
      <trkpt lat="43.59798" lon="2.97569">
        <ele>1060.47</ele>
        <time>2011-04-29T15:11:23Z</time>
      </trkpt>
      <trkpt lat="43.598" lon="2.97568">
        <ele>1060.47</ele>
        <time>2011-04-29T15:11:25Z</time>
      </trkpt>
      <trkpt lat="43.59815" lon="2.97563">
        <ele>1058.55</ele>
        <time>2011-04-29T15:11:41Z</time>
      </trkpt>
      <trkpt lat="43.59818" lon="2.9756">
        <ele>1058.07</ele>
        <time>2011-04-29T15:11:47Z</time>
      </trkpt>
      <trkpt lat="43.5982" lon="2.9756">
        <ele>1057.59</ele>
        <time>2011-04-29T15:11:49Z</time>
      </trkpt>
      <trkpt lat="43.59823" lon="2.97559">
        <ele>1041.73</ele>
        <time>2011-04-29T15:11:52Z</time>
      </trkpt>
      <trkpt lat="43.59824" lon="2.97558">
        <ele>1057.59</ele>
        <time>2011-04-29T15:11:53Z</time>
      </trkpt>
      <trkpt lat="43.59826" lon="2.97557">
        <ele>1057.11</ele>
        <time>2011-04-29T15:11:55Z</time>
      </trkpt>
      <trkpt lat="43.59828" lon="2.97556">
        <ele>1060.95</ele>
        <time>2011-04-29T15:11:57Z</time>
      </trkpt>
      <trkpt lat="43.59831" lon="2.97556">
        <ele>1066.24</ele>
        <time>2011-04-29T15:11:59Z</time>
      </trkpt>
      <trkpt lat="43.59832" lon="2.97556">
        <ele>1060.95</ele>
        <time>2011-04-29T15:12:00Z</time>
      </trkpt>
      <trkpt lat="43.59833" lon="2.97556">
        <ele>1057.11</ele>
        <time>2011-04-29T15:12:01Z</time>
      </trkpt>
      <trkpt lat="43.59847" lon="2.9755">
        <ele>1047.01</ele>
        <time>2011-04-29T15:12:14Z</time>
      </trkpt>
      <trkpt lat="43.59848" lon="2.97549">
        <ele>1058.07</ele>
        <time>2011-04-29T15:12:15Z</time>
      </trkpt>
      <trkpt lat="43.59849" lon="2.97548">
        <ele>1057.59</ele>
        <time>2011-04-29T15:12:16Z</time>
      </trkpt>
      <trkpt lat="43.5985" lon="2.97548">
        <ele>1062.87</ele>
        <time>2011-04-29T15:12:17Z</time>
      </trkpt>
      <trkpt lat="43.59852" lon="2.97547">
        <ele>1059.03</ele>
        <time>2011-04-29T15:12:18Z</time>
      </trkpt>
      <trkpt lat="43.59854" lon="2.97545">
        <ele>1055.18</ele>
        <time>2011-04-29T15:12:20Z</time>
      </trkpt>
      <trkpt lat="43.59855" lon="2.97544">
        <ele>1049.42</ele>
        <time>2011-04-29T15:12:21Z</time>
      </trkpt>
      <trkpt lat="43.59857" lon="2.97543">
        <ele>1056.15</ele>
        <time>2011-04-29T15:12:23Z</time>
      </trkpt>
      <trkpt lat="43.59859" lon="2.97542">
        <ele>1055.67</ele>
        <time>2011-04-29T15:12:24Z</time>
      </trkpt>
      <trkpt lat="43.59863" lon="2.97539">
        <ele>1059.03</ele>
        <time>2011-04-29T15:12:28Z</time>
      </trkpt>
      <trkpt lat="43.59864" lon="2.97537">
        <ele>1054.7</ele>
        <time>2011-04-29T15:12:30Z</time>
      </trkpt>
      <trkpt lat="43.59866" lon="2.97535">
        <ele>1059.03</ele>
        <time>2011-04-29T15:12:32Z</time>
      </trkpt>
      <trkpt lat="43.59866" lon="2.97533">
        <ele>1056.63</ele>
        <time>2011-04-29T15:12:33Z</time>
      </trkpt>
      <trkpt lat="43.59867" lon="2.97532">
        <ele>1053.74</ele>
        <time>2011-04-29T15:12:34Z</time>
      </trkpt>
      <trkpt lat="43.59867" lon="2.97531">
        <ele>1061.43</ele>
        <time>2011-04-29T15:12:35Z</time>
      </trkpt>
      <trkpt lat="43.59867" lon="2.9753">
        <ele>1049.42</ele>
        <time>2011-04-29T15:12:36Z</time>
      </trkpt>
      <trkpt lat="43.59868" lon="2.97529">
        <ele>1056.15</ele>
        <time>2011-04-29T15:12:37Z</time>
      </trkpt>
      <trkpt lat="43.59869" lon="2.97528">
        <ele>1059.99</ele>
        <time>2011-04-29T15:12:38Z</time>
      </trkpt>
      <trkpt lat="43.5987" lon="2.97528">
        <ele>1055.67</ele>
        <time>2011-04-29T15:12:39Z</time>
      </trkpt>
      <trkpt lat="43.59875" lon="2.97524">
        <ele>1057.11</ele>
        <time>2011-04-29T15:12:45Z</time>
      </trkpt>
      <trkpt lat="43.59884" lon="2.97514">
        <ele>1041.25</ele>
        <time>2011-04-29T15:12:56Z</time>
      </trkpt>
      <trkpt lat="43.59885" lon="2.97513">
        <ele>1053.26</ele>
        <time>2011-04-29T15:12:57Z</time>
      </trkpt>
      <trkpt lat="43.59887" lon="2.9751">
        <ele>1054.22</ele>
        <time>2011-04-29T15:12:59Z</time>
      </trkpt>
      <trkpt lat="43.59893" lon="2.97507">
        <ele>1052.78</ele>
        <time>2011-04-29T15:13:06Z</time>
      </trkpt>
      <trkpt lat="43.59905" lon="2.97497">
        <ele>1051.82</ele>
        <time>2011-04-29T15:13:21Z</time>
      </trkpt>
      <trkpt lat="43.59919" lon="2.97486">
        <ele>1050.86</ele>
        <time>2011-04-29T15:13:34Z</time>
      </trkpt>
      <trkpt lat="43.59927" lon="2.97479">
        <ele>1050.38</ele>
        <time>2011-04-29T15:13:46Z</time>
      </trkpt>
      <trkpt lat="43.59945" lon="2.97471">
        <ele>1049.42</ele>
        <time>2011-04-29T15:14:02Z</time>
      </trkpt>
      <trkpt lat="43.59947" lon="2.97467">
        <ele>1048.94</ele>
        <time>2011-04-29T15:14:05Z</time>
      </trkpt>
      <trkpt lat="43.59953" lon="2.97461">
        <ele>1048.94</ele>
        <time>2011-04-29T15:14:12Z</time>
      </trkpt>
      <trkpt lat="43.59965" lon="2.97457">
        <ele>1047.49</ele>
        <time>2011-04-29T15:14:24Z</time>
      </trkpt>
      <trkpt lat="43.59971" lon="2.9745">
        <ele>1047.97</ele>
        <time>2011-04-29T15:14:29Z</time>
      </trkpt>
      <trkpt lat="43.59976" lon="2.97447">
        <ele>1052.78</ele>
        <time>2011-04-29T15:14:33Z</time>
      </trkpt>
      <trkpt lat="43.59977" lon="2.97447">
        <ele>1048.45</ele>
        <time>2011-04-29T15:14:34Z</time>
      </trkpt>
      <trkpt lat="43.59988" lon="2.9744">
        <ele>1047.49</ele>
        <time>2011-04-29T15:14:46Z</time>
      </trkpt>
      <trkpt lat="43.59994" lon="2.97438">
        <ele>1047.01</ele>
        <time>2011-04-29T15:14:51Z</time>
      </trkpt>
      <trkpt lat="43.60002" lon="2.97439">
        <ele>1046.53</ele>
        <time>2011-04-29T15:15:00Z</time>
      </trkpt>
      <trkpt lat="43.6001" lon="2.97442">
        <ele>1048.45</ele>
        <time>2011-04-29T15:15:08Z</time>
      </trkpt>
      <trkpt lat="43.60017" lon="2.97439">
        <ele>1048.45</ele>
        <time>2011-04-29T15:15:13Z</time>
      </trkpt>
      <trkpt lat="43.6002" lon="2.97431">
        <ele>1047.01</ele>
        <time>2011-04-29T15:15:22Z</time>
      </trkpt>
      <trkpt lat="43.60029" lon="2.97425">
        <ele>1047.01</ele>
        <time>2011-04-29T15:15:32Z</time>
      </trkpt>
      <trkpt lat="43.60033" lon="2.97424">
        <ele>1047.49</ele>
        <time>2011-04-29T15:15:35Z</time>
      </trkpt>
      <trkpt lat="43.60037" lon="2.97421">
        <ele>1047.01</ele>
        <time>2011-04-29T15:15:39Z</time>
      </trkpt>
      <trkpt lat="43.60054" lon="2.97418">
        <ele>1047.49</ele>
        <time>2011-04-29T15:15:52Z</time>
      </trkpt>
      <trkpt lat="43.6007" lon="2.97415">
        <ele>1048.45</ele>
        <time>2011-04-29T15:16:05Z</time>
      </trkpt>
      <trkpt lat="43.60088" lon="2.97412">
        <ele>1049.42</ele>
        <time>2011-04-29T15:16:20Z</time>
      </trkpt>
      <trkpt lat="43.60103" lon="2.97412">
        <ele>1049.42</ele>
        <time>2011-04-29T15:16:33Z</time>
      </trkpt>
      <trkpt lat="43.60115" lon="2.97411">
        <ele>1052.78</ele>
        <time>2011-04-29T15:16:45Z</time>
      </trkpt>
      <trkpt lat="43.60115" lon="2.97411">
        <ele>1051.82</ele>
        <time>2011-04-29T15:16:46Z</time>
      </trkpt>
      <trkpt lat="43.60114" lon="2.97412">
        <ele>1048.45</ele>
        <time>2011-04-29T15:16:57Z</time>
      </trkpt>
      <trkpt lat="43.60115" lon="2.97411">
        <ele>1051.34</ele>
        <time>2011-04-29T15:16:58Z</time>
      </trkpt>
      <trkpt lat="43.60125" lon="2.97408">
        <ele>1044.61</ele>
        <time>2011-04-29T15:17:06Z</time>
      </trkpt>
      <trkpt lat="43.60127" lon="2.97407">
        <ele>1047.49</ele>
        <time>2011-04-29T15:17:07Z</time>
      </trkpt>
      <trkpt lat="43.60128" lon="2.97407">
        <ele>1051.82</ele>
        <time>2011-04-29T15:17:08Z</time>
      </trkpt>
      <trkpt lat="43.60134" lon="2.97405">
        <ele>1050.86</ele>
        <time>2011-04-29T15:17:12Z</time>
      </trkpt>
      <trkpt lat="43.60138" lon="2.97405">
        <ele>1054.7</ele>
        <time>2011-04-29T15:17:15Z</time>
      </trkpt>
      <trkpt lat="43.60141" lon="2.97405">
        <ele>1051.34</ele>
        <time>2011-04-29T15:17:17Z</time>
      </trkpt>
      <trkpt lat="43.60143" lon="2.97404">
        <ele>1049.9</ele>
        <time>2011-04-29T15:17:19Z</time>
      </trkpt>
      <trkpt lat="43.60145" lon="2.97405">
        <ele>1053.74</ele>
        <time>2011-04-29T15:17:21Z</time>
      </trkpt>
      <trkpt lat="43.60147" lon="2.97404">
        <ele>1047.49</ele>
        <time>2011-04-29T15:17:22Z</time>
      </trkpt>
      <trkpt lat="43.60149" lon="2.97404">
        <ele>1050.86</ele>
        <time>2011-04-29T15:17:24Z</time>
      </trkpt>
      <trkpt lat="43.60151" lon="2.97403">
        <ele>1056.63</ele>
        <time>2011-04-29T15:17:25Z</time>
      </trkpt>
      <trkpt lat="43.60152" lon="2.97403">
        <ele>1051.82</ele>
        <time>2011-04-29T15:17:26Z</time>
      </trkpt>
      <trkpt lat="43.60154" lon="2.97403">
        <ele>1050.38</ele>
        <time>2011-04-29T15:17:28Z</time>
      </trkpt>
      <trkpt lat="43.60157" lon="2.97402">
        <ele>1050.38</ele>
        <time>2011-04-29T15:17:31Z</time>
      </trkpt>
      <trkpt lat="43.60163" lon="2.97401">
        <ele>1055.18</ele>
        <time>2011-04-29T15:17:36Z</time>
      </trkpt>
      <trkpt lat="43.60183" lon="2.97399">
        <ele>1049.9</ele>
        <time>2011-04-29T15:17:51Z</time>
      </trkpt>
      <trkpt lat="43.60203" lon="2.97391">
        <ele>1048.94</ele>
        <time>2011-04-29T15:18:06Z</time>
      </trkpt>
      <trkpt lat="43.60209" lon="2.97388">
        <ele>1049.42</ele>
        <time>2011-04-29T15:18:11Z</time>
      </trkpt>
      <trkpt lat="43.6022" lon="2.97387">
        <ele>1050.86</ele>
        <time>2011-04-29T15:18:27Z</time>
      </trkpt>
      <trkpt lat="43.60235" lon="2.97387">
        <ele>1049.42</ele>
        <time>2011-04-29T15:18:53Z</time>
      </trkpt>
      <trkpt lat="43.60252" lon="2.97389">
        <ele>1048.94</ele>
        <time>2011-04-29T15:19:05Z</time>
      </trkpt>
      <trkpt lat="43.6027" lon="2.97391">
        <ele>1049.42</ele>
        <time>2011-04-29T15:19:18Z</time>
      </trkpt>
      <trkpt lat="43.60291" lon="2.97392">
        <ele>1049.9</ele>
        <time>2011-04-29T15:19:35Z</time>
      </trkpt>
      <trkpt lat="43.60311" lon="2.97394">
        <ele>1049.9</ele>
        <time>2011-04-29T15:19:49Z</time>
      </trkpt>
      <trkpt lat="43.60321" lon="2.97393">
        <ele>1043.17</ele>
        <time>2011-04-29T15:19:56Z</time>
      </trkpt>
      <trkpt lat="43.60322" lon="2.97393">
        <ele>1051.34</ele>
        <time>2011-04-29T15:19:57Z</time>
      </trkpt>
      <trkpt lat="43.60327" lon="2.97392">
        <ele>1056.63</ele>
        <time>2011-04-29T15:20:00Z</time>
      </trkpt>
      <trkpt lat="43.60328" lon="2.97392">
        <ele>1055.18</ele>
        <time>2011-04-29T15:20:01Z</time>
      </trkpt>
      <trkpt lat="43.60329" lon="2.97392">
        <ele>1051.82</ele>
        <time>2011-04-29T15:20:02Z</time>
      </trkpt>
      <trkpt lat="43.60331" lon="2.97393">
        <ele>1051.34</ele>
        <time>2011-04-29T15:20:04Z</time>
      </trkpt>
      <trkpt lat="43.60334" lon="2.97392">
        <ele>1051.82</ele>
        <time>2011-04-29T15:20:09Z</time>
      </trkpt>
      <trkpt lat="43.60355" lon="2.9739">
        <ele>1053.74</ele>
        <time>2011-04-29T15:20:24Z</time>
      </trkpt>
      <trkpt lat="43.60369" lon="2.97391">
        <ele>1054.7</ele>
        <time>2011-04-29T15:20:37Z</time>
      </trkpt>
      <trkpt lat="43.60377" lon="2.97393">
        <ele>1050.86</ele>
        <time>2011-04-29T15:20:43Z</time>
      </trkpt>
      <trkpt lat="43.60379" lon="2.97393">
        <ele>1059.99</ele>
        <time>2011-04-29T15:20:44Z</time>
      </trkpt>
      <trkpt lat="43.60381" lon="2.97394">
        <ele>1056.15</ele>
        <time>2011-04-29T15:20:45Z</time>
      </trkpt>
      <trkpt lat="43.604" lon="2.974">
        <ele>1055.67</ele>
        <time>2011-04-29T15:21:01Z</time>
      </trkpt>
      <trkpt lat="43.60402" lon="2.974">
        <ele>1053.74</ele>
        <time>2011-04-29T15:21:03Z</time>
      </trkpt>
      <trkpt lat="43.60404" lon="2.97401">
        <ele>1056.63</ele>
        <time>2011-04-29T15:21:05Z</time>
      </trkpt>
      <trkpt lat="43.60409" lon="2.97401">
        <ele>1055.67</ele>
        <time>2011-04-29T15:21:09Z</time>
      </trkpt>
      <trkpt lat="43.6041" lon="2.97402">
        <ele>1051.34</ele>
        <time>2011-04-29T15:21:10Z</time>
      </trkpt>
      <trkpt lat="43.60411" lon="2.97402">
        <ele>1055.18</ele>
        <time>2011-04-29T15:21:11Z</time>
      </trkpt>
      <trkpt lat="43.60427" lon="2.97407">
        <ele>1054.22</ele>
        <time>2011-04-29T15:21:28Z</time>
      </trkpt>
      <trkpt lat="43.60448" lon="2.97411">
        <ele>1052.3</ele>
        <time>2011-04-29T15:21:48Z</time>
      </trkpt>
      <trkpt lat="43.60463" lon="2.9741">
        <ele>1050.86</ele>
        <time>2011-04-29T15:22:03Z</time>
      </trkpt>
      <trkpt lat="43.60476" lon="2.97408">
        <ele>1048.94</ele>
        <time>2011-04-29T15:22:19Z</time>
      </trkpt>
      <trkpt lat="43.60493" lon="2.9741">
        <ele>1047.49</ele>
        <time>2011-04-29T15:22:34Z</time>
      </trkpt>
      <trkpt lat="43.60507" lon="2.97416">
        <ele>1044.13</ele>
        <time>2011-04-29T15:22:46Z</time>
      </trkpt>
      <trkpt lat="43.6051" lon="2.97416">
        <ele>1043.65</ele>
        <time>2011-04-29T15:22:49Z</time>
      </trkpt>
      <trkpt lat="43.60527" lon="2.97422">
        <ele>1041.73</ele>
        <time>2011-04-29T15:23:04Z</time>
      </trkpt>
      <trkpt lat="43.60536" lon="2.97423">
        <ele>1039.8</ele>
        <time>2011-04-29T15:23:18Z</time>
      </trkpt>
      <trkpt lat="43.60547" lon="2.97426">
        <ele>1036.92</ele>
        <time>2011-04-29T15:23:32Z</time>
      </trkpt>
      <trkpt lat="43.60554" lon="2.97428">
        <ele>1034.04</ele>
        <time>2011-04-29T15:23:40Z</time>
      </trkpt>
      <trkpt lat="43.60568" lon="2.97432">
        <ele>1031.63</ele>
        <time>2011-04-29T15:23:56Z</time>
      </trkpt>
      <trkpt lat="43.60575" lon="2.97437">
        <ele>1029.23</ele>
        <time>2011-04-29T15:24:13Z</time>
      </trkpt>
      <trkpt lat="43.60582" lon="2.97435">
        <ele>1026.83</ele>
        <time>2011-04-29T15:24:27Z</time>
      </trkpt>
      <trkpt lat="43.60591" lon="2.97429">
        <ele>1024.42</ele>
        <time>2011-04-29T15:24:39Z</time>
      </trkpt>
      <trkpt lat="43.60596" lon="2.97428">
        <ele>1022.98</ele>
        <time>2011-04-29T15:24:45Z</time>
      </trkpt>
      <trkpt lat="43.60603" lon="2.97425">
        <ele>1020.1</ele>
        <time>2011-04-29T15:24:59Z</time>
      </trkpt>
      <trkpt lat="43.60604" lon="2.97424">
        <ele>1019.13</ele>
        <time>2011-04-29T15:25:01Z</time>
      </trkpt>
      <trkpt lat="43.6061" lon="2.97417">
        <ele>1016.25</ele>
        <time>2011-04-29T15:25:16Z</time>
      </trkpt>
      <trkpt lat="43.60613" lon="2.97414">
        <ele>1014.81</ele>
        <time>2011-04-29T15:25:23Z</time>
      </trkpt>
      <trkpt lat="43.60618" lon="2.97405">
        <ele>1012.89</ele>
        <time>2011-04-29T15:25:30Z</time>
      </trkpt>
      <trkpt lat="43.60629" lon="2.97407">
        <ele>1011.44</ele>
        <time>2011-04-29T15:25:37Z</time>
      </trkpt>
      <trkpt lat="43.60646" lon="2.9741">
        <ele>1007.12</ele>
        <time>2011-04-29T15:25:53Z</time>
      </trkpt>
      <trkpt lat="43.60649" lon="2.97412">
        <ele>1007.6</ele>
        <time>2011-04-29T15:25:55Z</time>
      </trkpt>
      <trkpt lat="43.60657" lon="2.9741">
        <ele>1005.2</ele>
        <time>2011-04-29T15:26:01Z</time>
      </trkpt>
      <trkpt lat="43.60669" lon="2.97395">
        <ele>1002.79</ele>
        <time>2011-04-29T15:26:17Z</time>
      </trkpt>
      <trkpt lat="43.60672" lon="2.97392">
        <ele>1001.83</ele>
        <time>2011-04-29T15:26:36Z</time>
      </trkpt>
      <trkpt lat="43.60673" lon="2.97386">
        <ele>1000.39</ele>
        <time>2011-04-29T15:27:03Z</time>
      </trkpt>
      <trkpt lat="43.60683" lon="2.97384">
        <ele>998.95</ele>
        <time>2011-04-29T15:27:21Z</time>
      </trkpt>
      <trkpt lat="43.60685" lon="2.97377">
        <ele>996.54</ele>
        <time>2011-04-29T15:27:35Z</time>
      </trkpt>
      <trkpt lat="43.6069" lon="2.97378">
        <ele>995.1</ele>
        <time>2011-04-29T15:27:46Z</time>
      </trkpt>
      <trkpt lat="43.6069" lon="2.97367">
        <ele>992.7</ele>
        <time>2011-04-29T15:27:58Z</time>
      </trkpt>
      <trkpt lat="43.60694" lon="2.97362">
        <ele>992.22</ele>
        <time>2011-04-29T15:28:05Z</time>
      </trkpt>
      <trkpt lat="43.60694" lon="2.9736">
        <ele>990.78</ele>
        <time>2011-04-29T15:28:08Z</time>
      </trkpt>
      <trkpt lat="43.60698" lon="2.97362">
        <ele>990.78</ele>
        <time>2011-04-29T15:28:14Z</time>
      </trkpt>
      <trkpt lat="43.60704" lon="2.97361">
        <ele>986.93</ele>
        <time>2011-04-29T15:28:24Z</time>
      </trkpt>
      <trkpt lat="43.60713" lon="2.97357">
        <ele>985.01</ele>
        <time>2011-04-29T15:28:41Z</time>
      </trkpt>
      <trkpt lat="43.60713" lon="2.97357">
        <ele>985.01</ele>
        <time>2011-04-29T15:28:42Z</time>
      </trkpt>
      <trkpt lat="43.60713" lon="2.97353">
        <ele>983.09</ele>
        <time>2011-04-29T15:28:48Z</time>
      </trkpt>
      <trkpt lat="43.60714" lon="2.97353">
        <ele>983.09</ele>
        <time>2011-04-29T15:28:50Z</time>
      </trkpt>
      <trkpt lat="43.60719" lon="2.9735">
        <ele>982.6</ele>
        <time>2011-04-29T15:28:59Z</time>
      </trkpt>
      <trkpt lat="43.60721" lon="2.97346">
        <ele>981.16</ele>
        <time>2011-04-29T15:29:05Z</time>
      </trkpt>
      <trkpt lat="43.60723" lon="2.97342">
        <ele>979.72</ele>
        <time>2011-04-29T15:29:21Z</time>
      </trkpt>
      <trkpt lat="43.60742" lon="2.97342">
        <ele>977.8</ele>
        <time>2011-04-29T15:29:37Z</time>
      </trkpt>
      <trkpt lat="43.60755" lon="2.97334">
        <ele>973.95</ele>
        <time>2011-04-29T15:29:52Z</time>
      </trkpt>
      <trkpt lat="43.60764" lon="2.97334">
        <ele>971.55</ele>
        <time>2011-04-29T15:30:06Z</time>
      </trkpt>
      <trkpt lat="43.60765" lon="2.97333">
        <ele>971.07</ele>
        <time>2011-04-29T15:30:08Z</time>
      </trkpt>
      <trkpt lat="43.60771" lon="2.97333">
        <ele>969.63</ele>
        <time>2011-04-29T15:30:12Z</time>
      </trkpt>
      <trkpt lat="43.6078" lon="2.97331">
        <ele>966.74</ele>
        <time>2011-04-29T15:30:23Z</time>
      </trkpt>
      <trkpt lat="43.60794" lon="2.97332">
        <ele>963.86</ele>
        <time>2011-04-29T15:30:38Z</time>
      </trkpt>
      <trkpt lat="43.60801" lon="2.97328">
        <ele>961.46</ele>
        <time>2011-04-29T15:30:48Z</time>
      </trkpt>
      <trkpt lat="43.60812" lon="2.97327">
        <ele>958.09</ele>
        <time>2011-04-29T15:30:59Z</time>
      </trkpt>
      <trkpt lat="43.60821" lon="2.97325">
        <ele>955.69</ele>
        <time>2011-04-29T15:31:13Z</time>
      </trkpt>
      <trkpt lat="43.60834" lon="2.97326">
        <ele>952.32</ele>
        <time>2011-04-29T15:31:26Z</time>
      </trkpt>
      <trkpt lat="43.60844" lon="2.97319">
        <ele>948</ele>
        <time>2011-04-29T15:31:43Z</time>
      </trkpt>
      <trkpt lat="43.60849" lon="2.9732">
        <ele>948.48</ele>
        <time>2011-04-29T15:31:48Z</time>
      </trkpt>
      <trkpt lat="43.60856" lon="2.97316">
        <ele>945.11</ele>
        <time>2011-04-29T15:32:03Z</time>
      </trkpt>
      <trkpt lat="43.60859" lon="2.97314">
        <ele>944.63</ele>
        <time>2011-04-29T15:32:08Z</time>
      </trkpt>
      <trkpt lat="43.60861" lon="2.97312">
        <ele>943.67</ele>
        <time>2011-04-29T15:32:10Z</time>
      </trkpt>
      <trkpt lat="43.60872" lon="2.97306">
        <ele>941.27</ele>
        <time>2011-04-29T15:32:19Z</time>
      </trkpt>
      <trkpt lat="43.60875" lon="2.97306">
        <ele>940.79</ele>
        <time>2011-04-29T15:32:24Z</time>
      </trkpt>
      <trkpt lat="43.6088" lon="2.97308">
        <ele>938.86</ele>
        <time>2011-04-29T15:32:29Z</time>
      </trkpt>
      <trkpt lat="43.60888" lon="2.97304">
        <ele>935.5</ele>
        <time>2011-04-29T15:32:41Z</time>
      </trkpt>
      <trkpt lat="43.60895" lon="2.97305">
        <ele>933.58</ele>
        <time>2011-04-29T15:32:48Z</time>
      </trkpt>
      <trkpt lat="43.60903" lon="2.97311">
        <ele>932.14</ele>
        <time>2011-04-29T15:33:05Z</time>
      </trkpt>
      <trkpt lat="43.60903" lon="2.97311">
        <ele>933.1</ele>
        <time>2011-04-29T15:33:06Z</time>
      </trkpt>
      <trkpt lat="43.60909" lon="2.97305">
        <ele>929.25</ele>
        <time>2011-04-29T15:33:16Z</time>
      </trkpt>
      <trkpt lat="43.60919" lon="2.97299">
        <ele>926.85</ele>
        <time>2011-04-29T15:33:27Z</time>
      </trkpt>
      <trkpt lat="43.60933" lon="2.97293">
        <ele>923.48</ele>
        <time>2011-04-29T15:33:40Z</time>
      </trkpt>
      <trkpt lat="43.60946" lon="2.97287">
        <ele>921.08</ele>
        <time>2011-04-29T15:33:55Z</time>
      </trkpt>
      <trkpt lat="43.60949" lon="2.97286">
        <ele>920.12</ele>
        <time>2011-04-29T15:33:57Z</time>
      </trkpt>
      <trkpt lat="43.60953" lon="2.97287">
        <ele>919.64</ele>
        <time>2011-04-29T15:34:00Z</time>
      </trkpt>
      <trkpt lat="43.60966" lon="2.97276">
        <ele>916.27</ele>
        <time>2011-04-29T15:34:14Z</time>
      </trkpt>
      <trkpt lat="43.60981" lon="2.97274">
        <ele>914.35</ele>
        <time>2011-04-29T15:34:30Z</time>
      </trkpt>
      <trkpt lat="43.60988" lon="2.9727">
        <ele>912.43</ele>
        <time>2011-04-29T15:34:47Z</time>
      </trkpt>
      <trkpt lat="43.60991" lon="2.9727">
        <ele>907.62</ele>
        <time>2011-04-29T15:34:49Z</time>
      </trkpt>
      <trkpt lat="43.60994" lon="2.97266">
        <ele>911.47</ele>
        <time>2011-04-29T15:34:53Z</time>
      </trkpt>
      <trkpt lat="43.6101" lon="2.9725">
        <ele>908.58</ele>
        <time>2011-04-29T15:35:08Z</time>
      </trkpt>
      <trkpt lat="43.61013" lon="2.9725">
        <ele>908.1</ele>
        <time>2011-04-29T15:35:12Z</time>
      </trkpt>
      <trkpt lat="43.61024" lon="2.97253">
        <ele>904.74</ele>
        <time>2011-04-29T15:35:27Z</time>
      </trkpt>
      <trkpt lat="43.6103" lon="2.97248">
        <ele>904.26</ele>
        <time>2011-04-29T15:35:42Z</time>
      </trkpt>
      <trkpt lat="43.6103" lon="2.97248">
        <ele>902.82</ele>
        <time>2011-04-29T15:36:00Z</time>
      </trkpt>
      <trkpt lat="43.6103" lon="2.97248">
        <ele>903.3</ele>
        <time>2011-04-29T15:36:13Z</time>
      </trkpt>
      <trkpt lat="43.61029" lon="2.97258">
        <ele>902.82</ele>
        <time>2011-04-29T15:36:17Z</time>
      </trkpt>
      <trkpt lat="43.61035" lon="2.97269">
        <ele>900.89</ele>
        <time>2011-04-29T15:36:32Z</time>
      </trkpt>
      <trkpt lat="43.61044" lon="2.97276">
        <ele>900.89</ele>
        <time>2011-04-29T15:36:47Z</time>
      </trkpt>
      <trkpt lat="43.61049" lon="2.9728">
        <ele>900.41</ele>
        <time>2011-04-29T15:36:57Z</time>
      </trkpt>
      <trkpt lat="43.61056" lon="2.97283">
        <ele>900.89</ele>
        <time>2011-04-29T15:37:02Z</time>
      </trkpt>
      <trkpt lat="43.61062" lon="2.97291">
        <ele>898.97</ele>
        <time>2011-04-29T15:37:07Z</time>
      </trkpt>
      <trkpt lat="43.61075" lon="2.97307">
        <ele>898.49</ele>
        <time>2011-04-29T15:37:23Z</time>
      </trkpt>
      <trkpt lat="43.61082" lon="2.97311">
        <ele>899.45</ele>
        <time>2011-04-29T15:37:41Z</time>
      </trkpt>
      <trkpt lat="43.61082" lon="2.97311">
        <ele>898.49</ele>
        <time>2011-04-29T15:37:43Z</time>
      </trkpt>
      <trkpt lat="43.61078" lon="2.97312">
        <ele>898.01</ele>
        <time>2011-04-29T15:37:46Z</time>
      </trkpt>
      <trkpt lat="43.61077" lon="2.97313">
        <ele>897.53</ele>
        <time>2011-04-29T15:38:11Z</time>
      </trkpt>
      <trkpt lat="43.61068" lon="2.97313">
        <ele>897.53</ele>
        <time>2011-04-29T15:38:20Z</time>
      </trkpt>
      <trkpt lat="43.61058" lon="2.97328">
        <ele>897.05</ele>
        <time>2011-04-29T15:38:35Z</time>
      </trkpt>
      <trkpt lat="43.61062" lon="2.97332">
        <ele>898.49</ele>
        <time>2011-04-29T15:38:53Z</time>
      </trkpt>
      <trkpt lat="43.61063" lon="2.9733">
        <ele>897.53</ele>
        <time>2011-04-29T15:39:25Z</time>
      </trkpt>
      <trkpt lat="43.61064" lon="2.9733">
        <ele>898.01</ele>
        <time>2011-04-29T15:39:54Z</time>
      </trkpt>
      <trkpt lat="43.61064" lon="2.97329">
        <ele>903.3</ele>
        <time>2011-04-29T15:40:26Z</time>
      </trkpt>
      <trkpt lat="43.61064" lon="2.97329">
        <ele>899.93</ele>
        <time>2011-04-29T15:40:27Z</time>
      </trkpt>
      <trkpt lat="43.61064" lon="2.97329">
        <ele>906.66</ele>
        <time>2011-04-29T15:40:28Z</time>
      </trkpt>
      <trkpt lat="43.61064" lon="2.97329">
        <ele>899.93</ele>
        <time>2011-04-29T15:40:29Z</time>
      </trkpt>
      <trkpt lat="43.61064" lon="2.97329">
        <ele>893.2</ele>
        <time>2011-04-29T15:40:30Z</time>
      </trkpt>
      <trkpt lat="43.61064" lon="2.97329">
        <ele>898.97</ele>
        <time>2011-04-29T15:40:31Z</time>
      </trkpt>
      <trkpt lat="43.61064" lon="2.97329">
        <ele>902.33</ele>
        <time>2011-04-29T15:40:32Z</time>
      </trkpt>
      <trkpt lat="43.61064" lon="2.97329">
        <ele>898.97</ele>
        <time>2011-04-29T15:40:34Z</time>
      </trkpt>
    </trkseg>
  </trk>
</gpx>